# Wetter Temperatur Luftdruck Luftfeuchtigkeit Sichtweite Windgeschwindigkeit Windrichtung Zeit
1 Clear 24 1016 74 10000 4.63 140 10:49 14.08.2022
2 Clouds 25 1017 67 10000 3.09 70 08:50 14.08.2022
3 Clear 26 1017 68 10000 10.29 80 06:21 14.08.2022
4 Clouds 28 1017 57 10000 10.8 200 02:48 14.08.2022
5 Clouds 36 1014 35 10000 5.14 270 23:53 13.08.2022
6 Clear 36 1014 35 10000 7.2 330 22:52 13.08.2022
7 Clouds 35 1017 39 10000 1.79 242 20:58 13.08.2022
8 Clear 34 1017 41 10000 2.06 230 20:31 13.08.2022
9 Clear 32 1018 47 10000 3.09 160 19:29 13.08.2022
10 Clear 29 1017 60 10000 2.24 155 17:40 13.08.2022
11 Clear 24 1017 76 10000 3.09 150 15:23 13.08.2022
12 Clear 24 1017 74 10000 2.57 130 14:26 13.08.2022
13 Clear 24 1017 77 10000 2.06 190 13:38 13.08.2022
14 Clear 25 1016 74 10000 0 0 11:52 13.08.2022
15 Clear 25 1016 73 10000 0 0 09:58 13.08.2022
16 Clouds 26 1018 71 10000 3.09 150 08:23 13.08.2022
17 Clouds 26 1018 71 10000 3.09 150 08:23 13.08.2022
18 Clouds 26 1018 71 10000 3.09 150 08:23 13.08.2022
19 Clouds 29 1015 57 10000 3.13 136 04:21 13.08.2022
20 Clouds 33 1017 46 10000 6.69 280 23:47 12.08.2022
21 Clear 34 1015 42 10000 2.57 0 21:42 12.08.2022
22 Clouds 34 1017 42 10000 3.6 160 20:51 12.08.2022
23 Clouds 32 1017 47 10000 4.63 150 19:39 12.08.2022
24 Clouds 31 1017 52 10000 3.09 130 18:46 12.08.2022
25 Clear 28 1016 61 10000 4.63 130 16:37 12.08.2022
26 Clear 26 1017 67 10000 4.63 120 15:40 12.08.2022
27 Clouds 26 1016 68 10000 3.6 150 14:27 12.08.2022
28 Clouds 26 1016 69 10000 5.14 130 12:53 12.08.2022
29 Clouds 26 1016 68 10000 3.09 140 09:52 12.08.2022
30 Clouds 28 1016 64 10000 3.6 160 07:47 12.08.2022
31 Clouds 28 1017 65 10000 4.63 120 06:31 12.08.2022
32 Clouds 34 1013 40 10000 3.09 270 02:22 12.08.2022
33 Thunderstorm 34 1014 41 10000 7.72 170 00:24 12.08.2022
34 Clouds 34 1016 39 10000 2.57 140 23:35 11.08.2022
35 Clear 34 1017 41 10000 2.06 40 22:24 11.08.2022
36 Clouds 33 1017 44 10000 2.57 160 21:39 11.08.2022
37 Clear 31 1020 49 10000 2.57 190 20:32 11.08.2022
38 Clouds 29 1019 52 10000 0.45 96 19:57 11.08.2022
39 Clouds 29 1017 55 10000 3.6 150 19:32 11.08.2022
40 Clouds 27 1018 58 10000 6.69 110 17:47 11.08.2022
41 Clear 25 1018 67 10000 6.69 110 16:32 11.08.2022
42 Clouds 24 1018 68 10000 8.23 120 15:21 11.08.2022
43 Clouds 25 1018 71 10000 4.63 150 12:41 11.08.2022
44 Clouds 25 1018 73 10000 1.54 170 09:54 11.08.2022
45 Clouds 26 1019 69 10000 4.12 140 06:59 11.08.2022
46 Clouds 32 1015 45 10000 2.24 277 03:45 11.08.2022
47 Clouds 37 1014 31 10000 2.24 225 00:35 11.08.2022
48 Clear 35 1017 35 10000 5.66 140 22:21 10.08.2022
49 Clear 34 1017 38 10000 4.12 130 21:24 10.08.2022
50 Clear 33 1018 40 10000 5.66 120 20:47 10.08.2022
51 Clear 30 1018 48 10000 2.57 110 18:55 10.08.2022
52 Clouds 28 1018 59 10000 7.2 120 17:37 10.08.2022
53 Clouds 26 1018 66 10000 6.17 110 16:33 10.08.2022
54 Clear 24 1017 75 10000 0.89 227 13:35 10.08.2022
55 Clouds 24 1017 72 10000 2.06 0 12:27 10.08.2022
56 Clouds 26 1018 68 10000 4.47 124 08:55 10.08.2022
57 Clouds 26 1018 69 10000 1.79 142 08:31 10.08.2022
58 Clear 26 1017 68 10000 3.6 120 06:22 10.08.2022
59 Clouds 29 1014 57 10000 3.09 0 02:45 10.08.2022
60 Clouds 34 1014 40 10000 5.66 180 23:34 09.08.2022
61 Clear 35 1014 37 10000 3.6 350 22:55 09.08.2022
62 Clouds 34 1016 40 10000 2.57 0 21:34 09.08.2022
63 Clear 32 1017 46 10000 4.63 140 19:35 09.08.2022
64 Clear 29 1017 54 10000 3.09 120 18:29 09.08.2022
65 Clear 27 1016 63 10000 3.09 160 17:27 09.08.2022
66 Clear 26 1018 69 10000 5.14 120 16:40 09.08.2022
67 Clear 24 1015 73 10000 4.12 80 15:40 09.08.2022
68 Clear 24 1015 76 10000 3.09 120 12:25 09.08.2022
69 Rain 23 1017 82 10000 6.69 60 09:22 09.08.2022
70 Rain 23 1017 82 10000 11.32 20 08:26 09.08.2022
71 Clouds 29 1016 56 10000 4.47 341 07:20 09.08.2022
72 Clouds 34 1016 39 10000 2.06 330 03:32 09.08.2022
73 Clear 35 1014 36 10000 2.24 257 23:27 08.08.2022
74 Clear 34 1015 37 10000 2.24 293 22:53 08.08.2022
75 Clear 34 1016 40 10000 3.6 310 21:49 08.08.2022
76 Clear 32 1017 43 10000 2.68 37 20:52 08.08.2022
77 Clear 31 1017 47 10000 2.57 360 19:50 08.08.2022
78 Clear 29 1018 53 10000 2.68 281 18:35 08.08.2022
79 Clouds 25 1017 71 10000 2.06 120 16:34 08.08.2022
80 Clouds 23 1016 75 10000 2.57 90 15:38 08.08.2022
81 Clouds 23 1016 75 10000 2.57 90 15:38 08.08.2022
82 Clear 22 1017 82 10000 5.14 150 12:50 08.08.2022
83 Rain 23 1019 76 10000 5.14 20 11:53 08.08.2022
84 Clouds 26 1019 58 10000 4.92 142 09:36 08.08.2022
85 Thunderstorm 26 1015 69 10000 5.14 80 05:37 08.08.2022
86 Clear 36 1013 29 10000 4.12 270 02:24 08.08.2022
87 Clear 36 1015 33 10000 1.79 230 22:20 07.08.2022
88 Clear 35 1015 35 10000 3.09 330 21:38 07.08.2022
89 Clear 33 1016 40 10000 1.79 163 20:25 07.08.2022
90 Clouds 32 1016 43 10000 2.24 319 19:54 07.08.2022
91 Clear 32 1016 46 10000 2.57 140 19:29 07.08.2022
92 Clear 30 1016 52 10000 2.57 130 18:21 07.08.2022
93 Clear 27 1015 61 10000 0.89 354 16:53 07.08.2022
94 Clear 25 1017 69 10000 2.06 190 15:54 07.08.2022
95 Clear 25 1016 62 10000 1.54 130 14:39 07.08.2022
96 Clouds 25 1012 62 10000 1.34 44 12:59 07.08.2022
97 Clouds 24 1014 69 10000 4.73 140 10:57 07.08.2022
98 Clouds 24 1017 69 10000 7.2 150 10:28 07.08.2022
99 Clouds 35 1010 32 10000 3.13 134 04:58 07.08.2022
100 Clear 38 1009 27 10000 7.72 330 03:18 07.08.2022
101 Clear 38 1011 28 10000 4.02 1 23:29 06.08.2022
102 Clear 38 1012 30 10000 3.09 270 22:20 06.08.2022
103 Clear 36 1014 34 10000 2.24 314 20:20 06.08.2022
104 Clear 35 1014 37 10000 3.09 160 19:38 06.08.2022
105 Clear 33 1014 45 10000 2.06 30 18:19 06.08.2022
106 Clear 29 1015 58 10000 4.63 110 16:33 06.08.2022
107 Clear 26 1014 68 10000 0 0 13:52 06.08.2022
108 Clear 26 1011 66 10000 3.09 140 12:50 06.08.2022
109 Clear 27 1011 64 10000 3.6 140 11:21 06.08.2022
110 Clear 28 1014 60 10000 3.09 140 09:50 06.08.2022
111 Clear 29 1013 57 10000 3.09 190 07:36 06.08.2022
112 Rain 34 1012 38 10000 5.14 310 02:22 06.08.2022
113 Clear 37 1013 33 10000 4.12 320 23:27 05.08.2022
114 Clear 35 1015 37 10000 2.24 108 21:51 05.08.2022
115 Clear 32 1016 50 10000 2.24 74 19:29 05.08.2022
116 Clear 31 1016 55 10000 1.34 96 18:44 05.08.2022
117 Clear 28 1017 64 10000 1.54 130 17:26 05.08.2022
118 Clear 27 1017 70 10000 1.54 160 16:43 05.08.2022
119 Clear 24 1017 77 10000 3.6 170 15:21 05.08.2022
120 Clear 25 1016 75 10000 0 0 13:43 05.08.2022
121 Clear 25 1016 76 10000 0 0 13:22 05.08.2022
122 Clear 25 1014 73 10000 1.54 230 12:24 05.08.2022
123 Clear 26 1014 69 10000 2.06 180 10:30 05.08.2022
124 Clear 27 1015 62 10000 3.09 310 07:58 05.08.2022
125 Clear 29 1014 55 10000 4.12 300 05:30 05.08.2022
126 Clouds 34 1014 39 10000 3.09 250 23:51 04.08.2022
127 Haze 33 1015 42 8047 3.09 140 22:25 04.08.2022
128 Clear 32 1016 47 10000 1.54 120 21:25 04.08.2022
129 Clear 31 1016 49 10000 2.06 0 20:42 04.08.2022
130 Clear 29 1016 56 10000 4.12 120 19:23 04.08.2022
131 Clear 28 1016 62 10000 0.89 0 18:35 04.08.2022
132 Clear 26 1016 69 10000 0.89 102 17:31 04.08.2022
133 Rain 23 1016 80 10000 4.63 30 13:44 04.08.2022
134 Drizzle 25 1015 76 10000 11.32 130 11:47 04.08.2022
135 Drizzle 26 1013 74 10000 4.63 110 10:50 04.08.2022
136 Clouds 30 1014 40 10000 1.54 280 07:52 04.08.2022
137 Clear 32 1011 40 10000 4.63 290 04:30 04.08.2022
138 Clear 35 1011 38 10000 5.14 350 02:20 04.08.2022
139 Clear 34 1012 42 10000 3.09 320 23:43 03.08.2022
140 Clear 32 1014 50 10000 2.68 329 21:50 03.08.2022
141 Clouds 30 1016 58 10000 2.68 0 20:45 03.08.2022
142 Rain 25 1016 81 10000 4.02 305 19:29 03.08.2022
143 Rain 24 1016 81 10000 8.75 160 17:58 03.08.2022
144 Clouds 25 1014 73 10000 2.57 140 16:24 03.08.2022
145 Clouds 25 1014 73 10000 2.57 140 16:24 03.08.2022
146 Clouds 26 1013 66 10000 3.09 180 14:44 03.08.2022
147 Clouds 28 1015 58 10000 5.14 190 12:30 03.08.2022
148 Clouds 30 1013 53 10000 2.06 230 08:26 03.08.2022
149 Clear 33 1013 42 10000 4.12 300 04:47 03.08.2022
150 Clouds 35 1012 37 10000 3.6 300 03:28 03.08.2022
151 Clouds 35 1013 39 10000 3.09 340 01:18 03.08.2022
152 Clouds 35 1014 41 10000 4.12 210 23:18 02.08.2022
153 Clear 35 1015 42 10000 2.57 330 21:55 02.08.2022
154 Clear 34 1015 45 10000 2.57 330 21:21 02.08.2022
155 Clear 32 1017 54 10000 1.54 360 18:52 02.08.2022
156 Clear 27 1016 71 10000 1.54 160 16:24 02.08.2022
157 Clear 26 1016 75 10000 2.06 150 12:34 02.08.2022
158 Clear 27 1015 72 10000 2.57 180 09:34 02.08.2022
159 Clear 28 1016 67 10000 3.09 180 07:54 02.08.2022
160 Clear 29 1015 63 10000 3.6 190 06:43 02.08.2022
161 Clear 31 1014 52 10000 3.6 200 04:55 02.08.2022
162 Clouds 36 1015 39 10000 3.6 320 23:51 01.08.2022
163 Clear 35 1016 41 10000 3.6 360 22:36 01.08.2022
164 Clear 33 1017 48 10000 2.24 276 20:53 01.08.2022
165 Clear 31 1018 54 10000 0.89 19 19:32 01.08.2022
166 Clear 29 1018 57 10000 1.34 182 18:40 01.08.2022
167 Clouds 26 1018 73 10000 1.34 0 16:53 01.08.2022
168 Clear 24 1019 78 10000 4.63 150 15:52 01.08.2022
169 Clear 23 1019 85 10000 4.63 150 15:30 01.08.2022
170 Clear 23 1018 81 10000 3.09 140 14:43 01.08.2022
171 Clouds 23 1017 78 10000 3.6 110 12:47 01.08.2022
172 Clear 24 1019 80 10000 3.6 180 09:43 01.08.2022
173 Clouds 25 1020 69 10000 2.57 200 08:34 01.08.2022
174 Clouds 24 1018 76 10000 4.63 30 04:56 01.08.2022
175 Clouds 25 1017 74 10000 11.83 30 03:49 01.08.2022
176 Clear 36 1015 36 10000 4.47 129 00:36 01.08.2022
177 Clear 35 1016 37 10000 2.06 0 22:40 31.07.2022
178 Clear 34 1018 41 10000 1.54 290 21:29 31.07.2022
179 Clear 32 1018 46 10000 0.89 0 19:56 31.07.2022
180 Clear 29 1019 55 10000 4.12 160 18:35 31.07.2022
181 Clouds 24 1019 71 10000 5.14 110 15:45 31.07.2022
182 Clear 23 1018 76 10000 4.63 130 13:44 31.07.2022
183 Clouds 24 1017 74 10000 3.09 90 11:59 31.07.2022
184 Rain 25 1018 73 10000 3.58 14 09:55 31.07.2022
185 Clouds 25 1016 76 10000 3.6 150 08:18 31.07.2022
186 Clouds 26 1017 63 10000 7.72 210 03:28 31.07.2022
187 Clouds 30 1016 50 10000 3.09 60 23:46 30.07.2022
188 Clear 35 1015 40 10000 4.12 150 22:19 30.07.2022
189 Clear 35 1015 40 10000 4.12 150 22:19 30.07.2022
190 Clear 35 1015 41 10000 3.13 246 21:49 30.07.2022
191 Clear 34 1015 45 10000 1.34 191 20:58 30.07.2022
192 Clouds 32 1016 48 10000 2.24 117 19:59 30.07.2022
193 Clouds 31 1017 53 10000 0.89 186 18:57 30.07.2022
194 Clear 29 1017 64 10000 2.57 130 17:45 30.07.2022
195 Clouds 25 1016 79 10000 3.09 130 15:54 30.07.2022
196 Clouds 24 1016 84 10000 3.09 130 15:24 30.07.2022
197 Clouds 24 1016 85 10000 2.06 150 13:19 30.07.2022
198 Clouds 24 1015 84 10000 3.09 160 12:20 30.07.2022
199 Clouds 24 1015 82 10000 3.09 120 10:35 30.07.2022
200 Clear 24 1015 82 10000 0.45 323 09:57 30.07.2022
201 Clear 25 1014 79 10000 2.06 120 07:55 30.07.2022
202 Clouds 27 1014 69 10000 3.09 50 04:20 30.07.2022
203 Thunderstorm 28 1013 67 10000 5.14 260 02:28 30.07.2022
204 Clouds 32 1015 37 10000 0 0 22:46 29.07.2022
205 Clouds 31 1016 41 10000 3.09 180 21:24 29.07.2022
206 Clear 29 1017 50 10000 2.57 170 20:50 29.07.2022
207 Clouds 27 1015 62 10000 4.63 90 18:27 29.07.2022
208 Clouds 23 1017 78 10000 4.63 100 16:32 29.07.2022
209 Rain 22 1015 84 10000 2.57 150 13:45 29.07.2022
210 Rain 25 1013 73 10000 8.23 150 11:30 29.07.2022
211 Clouds 25 1014 69 10000 0.45 232 08:50 29.07.2022
212 Clouds 26 1014 68 10000 0.45 232 08:20 29.07.2022
213 Clouds 29 1012 54 10000 4.12 260 02:29 29.07.2022
214 Clouds 28 1014 63 10000 6.17 300 23:18 28.07.2022
215 Clouds 27 1016 65 10000 4.63 300 21:30 28.07.2022
216 Clouds 27 1015 65 10000 4.12 290 20:45 28.07.2022
217 Clouds 28 1015 63 10000 3.6 200 19:44 28.07.2022
218 Clouds 27 1015 65 10000 3.6 200 19:25 28.07.2022
219 Clouds 27 1015 64 10000 4.63 180 17:44 28.07.2022
220 Clouds 26 1015 68 10000 5.14 180 16:59 28.07.2022
221 Clouds 26 1015 70 10000 3.6 160 16:36 28.07.2022
222 Clouds 24 1014 76 10000 3.6 130 13:47 28.07.2022
223 Clouds 25 1015 73 10000 5.14 120 11:43 28.07.2022
224 Clouds 27 1015 66 10000 4.12 120 06:59 28.07.2022
225 Drizzle 27 1014 62 10000 3.6 120 05:33 28.07.2022
226 Clouds 29 1012 57 10000 5.14 220 03:53 28.07.2022
227 Clouds 33 1014 44 10000 4.63 320 22:56 27.07.2022
228 Clouds 32 1015 46 10000 3.6 330 21:29 27.07.2022
229 Clear 31 1017 50 10000 1.79 282 19:46 27.07.2022
230 Clouds 30 1017 56 10000 1.34 292 18:41 27.07.2022
231 Clouds 26 1017 73 10000 2.06 170 16:31 27.07.2022
232 Clouds 24 1016 80 10000 3.09 140 15:40 27.07.2022
233 Clear 23 1016 83 10000 3.6 130 14:41 27.07.2022
234 Clouds 24 1015 81 10000 3.6 140 12:52 27.07.2022
235 Clouds 25 1016 78 10000 3.6 130 08:55 27.07.2022
236 Clouds 25 1017 75 10000 3.6 120 07:33 27.07.2022
237 Clouds 25 1016 71 10000 7.2 120 02:43 27.07.2022
238 Clear 33 1013 44 10000 5.14 290 22:39 26.07.2022
239 Clouds 32 1015 43 10000 5.14 300 21:23 26.07.2022
240 Clear 32 1015 45 10000 3.6 300 20:47 26.07.2022
241 Clouds 30 1016 55 10000 0.89 304 18:46 26.07.2022
242 Clouds 29 1016 59 10000 0.89 277 18:20 26.07.2022
243 Clouds 27 1016 67 10000 2.06 120 16:46 26.07.2022
244 Clouds 24 1017 78 10000 3.09 130 15:42 26.07.2022
245 Clear 24 1015 77 10000 2.57 140 13:47 26.07.2022
246 Clear 24 1016 78 10000 2.06 150 11:40 26.07.2022
247 Clear 25 1016 80 10000 2.06 180 09:32 26.07.2022
248 Clouds 25 1017 78 10000 1.54 220 07:31 26.07.2022
249 Clouds 33 1011 40 10000 4.63 240 01:21 26.07.2022
250 Clouds 34 1013 38 10000 5.66 280 23:33 25.07.2022
251 Clear 33 1015 40 10000 2.06 360 22:27 25.07.2022
252 Clouds 33 1015 41 10000 4.63 330 21:43 25.07.2022
253 Clouds 31 1016 44 10000 2.68 303 20:42 25.07.2022
254 Clouds 30 1016 48 10000 2.06 350 19:50 25.07.2022
255 Clouds 28 1016 57 10000 3.09 170 18:21 25.07.2022
256 Clouds 28 1016 61 10000 3.09 190 17:31 25.07.2022
257 Clouds 24 1015 77 10000 4.12 150 15:30 25.07.2022
258 Clouds 24 1015 80 10000 3.6 150 12:29 25.07.2022
259 Clear 24 1014 78 10000 1.54 160 10:32 25.07.2022
260 Clouds 25 1017 77 10000 2.57 120 06:32 25.07.2022
261 Clouds 33 1015 45 10000 8.23 240 23:55 24.07.2022
262 Clouds 34 1013 42 10000 10.29 180 23:18 24.07.2022
263 Clouds 35 1013 39 10000 3.58 325 22:35 24.07.2022
264 Clouds 34 1014 39 10000 3.6 290 21:28 24.07.2022
265 Clouds 34 1015 39 10000 2.24 265 20:53 24.07.2022
266 Clear 33 1015 43 10000 3.09 270 20:27 24.07.2022
267 Clouds 31 1015 49 10000 1.34 64 18:56 24.07.2022
268 Clear 26 1015 70 10000 3.09 180 16:48 24.07.2022
269 Clouds 25 1016 72 10000 2.57 120 15:51 24.07.2022
270 Clouds 24 1017 79 10000 7.2 130 14:40 24.07.2022
271 Thunderstorm 26 1015 70 10000 9.77 120 12:55 24.07.2022
272 Clouds 27 1015 67 10000 4.63 110 12:18 24.07.2022
273 Clouds 27 1013 71 10000 5.14 180 11:26 24.07.2022
274 Clear 27 1013 71 10000 4.12 160 08:56 24.07.2022
275 Clouds 27 1012 69 10000 5.14 20 07:52 24.07.2022
276 Rain 26 1014 72 10000 5.14 290 06:34 24.07.2022
277 Clouds 39 1009 23 10000 2.68 297 01:50 24.07.2022
278 Clouds 37 1013 26 10000 1.79 288 22:25 23.07.2022
279 Clear 35 1012 30 10000 2.57 250 20:35 23.07.2022
280 Clear 32 1014 37 10000 4.12 120 18:51 23.07.2022
281 Clouds 31 1016 43 10000 5.66 140 17:41 23.07.2022
282 Clouds 30 1016 47 10000 3.09 190 17:23 23.07.2022
283 Clouds 28 1014 51 10000 3.6 170 15:42 23.07.2022
284 Clouds 27 1013 53 10000 1.34 188 14:59 23.07.2022
285 Clouds 27 1014 53 10000 6.17 140 14:35 23.07.2022
286 Clouds 28 1014 51 10000 7.2 120 13:50 23.07.2022
287 Clouds 30 1014 45 10000 8.23 120 11:19 23.07.2022
288 Clouds 31 1013 43 10000 7.2 170 10:23 23.07.2022
289 Clouds 31 1011 43 10000 9.26 130 08:55 23.07.2022
290 Clouds 33 1011 41 10000 7.72 140 03:40 23.07.2022
291 Rain 38 1008 29 10000 9.26 150 01:58 23.07.2022
292 Clouds 40 1009 24 10000 4.12 260 23:39 22.07.2022
293 Clear 38 1012 29 10000 1.79 164 20:57 22.07.2022
294 Clear 37 1013 33 10000 3.09 170 19:47 22.07.2022
295 Clouds 34 1013 41 10000 3.58 171 18:29 22.07.2022
296 Clear 33 1013 43 10000 6.17 190 17:28 22.07.2022
297 Clouds 30 1013 46 10000 1.54 120 15:26 22.07.2022
298 Clouds 31 1010 42 10000 2.06 190 12:23 22.07.2022
299 Clouds 33 1011 36 10000 2.57 130 09:43 22.07.2022
300 Clouds 33 1011 36 10000 2.57 130 09:18 22.07.2022
301 Clear 34 1010 32 10000 2.57 270 07:21 22.07.2022
302 Clouds 37 1009 30 10000 4.02 288 03:59 22.07.2022
303 Clear 39 1011 26 10000 4.02 262 22:53 21.07.2022
304 Clear 38 1012 28 10000 5.66 300 21:34 21.07.2022
305 Clouds 36 1014 33 10000 4.47 312 19:31 21.07.2022
306 Clear 33 1014 39 10000 5.14 10 18:28 21.07.2022
307 Clear 30 1015 46 10000 3.6 20 17:19 21.07.2022
308 Clear 28 1019 51 10000 5.66 180 15:39 21.07.2022
309 Clear 27 1019 54 10000 8.75 190 14:39 21.07.2022
310 Clouds 28 1016 56 10000 7.72 190 12:46 21.07.2022
311 Clouds 31 1015 44 10000 10.8 160 11:19 21.07.2022
312 Clear 32 1014 38 10000 3.09 260 09:41 21.07.2022
313 Clouds 34 1014 34 10000 1.79 277 08:52 21.07.2022
314 Clear 35 1013 31 10000 2.57 330 07:50 21.07.2022
315 Clear 36 1013 30 10000 4.12 330 06:24 21.07.2022
316 Clear 38 1013 28 10000 6.69 350 00:48 21.07.2022
317 Clear 36 1015 32 10000 4.47 293 22:22 20.07.2022
318 Clouds 35 1017 34 10000 4.02 278 20:59 20.07.2022
319 Clear 34 1017 33 10000 4.92 128 19:54 20.07.2022
320 Clear 34 1017 35 10000 4.92 290 19:25 20.07.2022
321 Clear 33 1017 36 10000 3.58 297 18:52 20.07.2022
322 Clear 32 1018 38 10000 2.57 270 18:26 20.07.2022
323 Clear 29 1018 45 10000 3.09 150 16:46 20.07.2022
324 Clear 28 1017 48 10000 2.06 170 15:32 20.07.2022
325 Clear 28 1018 46 10000 3.6 140 14:20 20.07.2022
326 Clouds 29 1016 42 10000 4.92 163 11:55 20.07.2022
327 Clouds 31 1015 39 10000 6.69 220 09:43 20.07.2022
328 Clear 38 1014 26 10000 9.26 290 04:36 20.07.2022
329 Clear 40 1011 23 10000 6.69 300 00:52 20.07.2022
330 Clear 40 1013 24 10000 7.2 280 23:41 19.07.2022
331 Clouds 39 1013 25 10000 5.14 270 22:33 19.07.2022
332 Clouds 39 1014 27 10000 6.69 280 21:46 19.07.2022
333 Clear 38 1015 29 10000 3.6 280 20:48 19.07.2022
334 Clear 35 1016 34 10000 4.63 230 19:21 19.07.2022
335 Clear 34 1016 37 10000 1.79 328 18:31 19.07.2022
336 Clear 33 1016 42 10000 0.89 203 17:46 19.07.2022
337 Clear 28 1016 52 10000 2.06 140 14:57 19.07.2022
338 Clear 30 1014 44 10000 4.12 280 11:44 19.07.2022
339 Clear 31 1014 43 10000 4.63 240 10:55 19.07.2022
340 Clear 31 1016 43 10000 2.57 190 09:25 19.07.2022
341 Clear 31 1017 44 10000 3.09 180 08:39 19.07.2022
342 Clear 33 1015 36 10000 2.06 260 07:19 19.07.2022
343 Clear 35 1014 30 10000 5.66 300 05:30 19.07.2022
344 Clear 36 1014 30 10000 5.14 310 04:55 19.07.2022
345 Clear 38 1012 30 10000 4.63 290 01:19 19.07.2022
346 Clear 39 1014 28 10000 5.14 280 23:47 18.07.2022
347 Clear 39 1014 28 10000 5.66 310 23:18 18.07.2022
348 Clear 38 1015 30 10000 5.66 300 21:58 18.07.2022
349 Clear 37 1016 31 10000 3.6 310 20:51 18.07.2022
350 Clear 35 1017 35 10000 5.14 260 19:33 18.07.2022
351 Clear 32 1017 45 10000 2.06 170 17:31 18.07.2022
352 Clear 28 1016 56 10000 2.57 150 15:52 18.07.2022
353 Clear 26 1016 61 10000 2.06 100 14:34 18.07.2022
354 Clear 27 1015 59 10000 2.57 140 13:23 18.07.2022
355 Clear 28 1014 57 10000 1.54 170 11:31 18.07.2022
356 Clear 29 1014 52 10000 1.54 120 08:57 18.07.2022
357 Clear 29 1014 50 10000 1.54 160 07:38 18.07.2022
358 Clear 38 1010 22 10000 3.09 220 01:43 18.07.2022
359 Clear 39 1011 26 10000 2.24 178 22:46 17.07.2022
360 Clear 39 1011 27 10000 2.24 321 22:22 17.07.2022
361 Clear 37 1012 30 10000 1.79 242 21:23 17.07.2022
362 Clear 37 1013 32 10000 3.13 298 20:44 17.07.2022
363 Clear 35 1013 37 10000 2.68 161 19:34 17.07.2022
364 Clear 34 1013 40 10000 1.34 193 18:54 17.07.2022
365 Clear 31 1013 47 10000 1.79 90 17:38 17.07.2022
366 Clear 30 1013 52 10000 0.89 128 16:51 17.07.2022
367 Clear 29 1013 54 10000 1.34 0 16:26 17.07.2022
368 Clear 26 1010 60 10000 1.6 189 14:58 17.07.2022
369 Clear 26 1012 62 10000 3.6 170 13:32 17.07.2022
370 Clear 27 1012 58 10000 2.06 160 11:50 17.07.2022
371 Clear 28 1012 54 10000 4.12 150 09:30 17.07.2022
372 Clear 30 1012 47 10000 4.12 180 05:54 17.07.2022
373 Clouds 38 1009 28 10000 4.12 250 02:33 17.07.2022
374 Clear 40 1012 26 10000 5.66 310 23:21 16.07.2022
375 Clouds 38 1013 28 10000 5.14 280 21:47 16.07.2022
376 Clear 36 1014 33 10000 3.13 257 19:53 16.07.2022
377 Clear 34 1015 37 10000 2.24 287 18:35 16.07.2022
378 Clear 31 1015 46 10000 1.54 0 17:19 16.07.2022
379 Clear 27 1014 54 10000 5.66 190 14:31 16.07.2022
380 Clear 28 1014 52 10000 2.06 190 11:38 16.07.2022
381 Clouds 29 1013 49 10000 3.09 110 09:35 16.07.2022
382 Clouds 30 1014 48 10000 1.54 290 08:47 16.07.2022
383 Clouds 30 1014 48 10000 1.79 24 08:29 16.07.2022
384 Clear 31 1013 43 10000 1.54 90 04:24 16.07.2022
385 Drizzle 32 1012 40 10000 7.72 270 03:22 16.07.2022
386 Clouds 41 1012 19 10000 2.24 87 23:37 15.07.2022
387 Clouds 41 1013 20 10000 2.24 289 22:41 15.07.2022
388 Clouds 40 1014 24 10000 2.24 263 21:29 15.07.2022
389 Clear 38 1015 27 10000 3.09 350 20:31 15.07.2022
390 Clear 35 1015 35 10000 2.57 170 18:44 15.07.2022
391 Clear 33 1016 40 10000 3.6 130 17:44 15.07.2022
392 Clouds 27 1016 58 10000 4.63 130 14:54 15.07.2022
393 Clouds 27 1015 60 10000 2.57 140 13:18 15.07.2022
394 Clouds 28 1015 55 10000 3.09 170 11:44 15.07.2022
395 Clouds 29 1015 53 10000 3.09 110 10:27 15.07.2022
396 Clouds 31 1015 47 10000 3.09 260 06:30 15.07.2022
397 Thunderstorm 35 1009 33 10000 3.6 240 01:32 15.07.2022
398 Clouds 40 1011 23 10000 2.68 191 00:22 15.07.2022
399 Clouds 40 1012 23 10000 2.68 122 22:53 14.07.2022
400 Clouds 39 1013 24 10000 2.68 1 21:54 14.07.2022
401 Clear 39 1014 25 10000 2.24 294 21:30 14.07.2022
402 Clear 38 1015 26 10000 3.13 254 20:45 14.07.2022
403 Clear 37 1014 27 10000 2.24 336 20:24 14.07.2022
404 Clear 35 1015 31 10000 2.24 256 19:19 14.07.2022
405 Clouds 29 1016 43 10000 5.66 180 16:23 14.07.2022
406 Clear 29 1017 45 10000 3.6 150 15:34 14.07.2022
407 Clear 28 1015 49 10000 3.6 140 14:31 14.07.2022
408 Clouds 28 1015 49 10000 0.89 176 12:58 14.07.2022
409 Clear 29 1014 47 10000 2.06 110 11:54 14.07.2022
410 Clear 29 1014 48 10000 2.06 110 11:23 14.07.2022
411 Clouds 30 1014 45 10000 1.34 130 10:37 14.07.2022
412 Clear 30 1014 46 10000 0.89 163 07:55 14.07.2022
413 Clear 36 1013 27 10000 6.17 290 01:27 14.07.2022
414 Clouds 35 1013 30 10000 7.2 300 00:54 14.07.2022
415 Clouds 41 1011 19 10000 3.13 280 22:57 13.07.2022
416 Clear 41 1012 19 10000 3.6 280 22:22 13.07.2022
417 Clear 40 1013 22 10000 3.09 0 21:21 13.07.2022
418 Clear 39 1014 24 10000 2.06 0 20:23 13.07.2022
419 Clouds 34 1014 34 10000 2.68 177 17:54 13.07.2022
420 Clouds 31 1014 41 10000 4.63 120 16:47 13.07.2022
421 Clouds 29 1016 46 10000 2.57 110 15:43 13.07.2022
422 Clouds 28 1014 48 10000 4.63 140 13:24 13.07.2022
423 Clouds 29 1013 47 10000 2.57 130 10:46 13.07.2022
424 Clouds 29 1013 46 10000 2.57 130 10:28 13.07.2022
425 Clouds 29 1013 46 10000 2.57 130 10:28 13.07.2022
426 Clouds 30 1014 44 10000 1.54 120 09:27 13.07.2022
427 Clouds 30 1014 42 10000 2.57 330 07:53 13.07.2022
428 Clouds 35 1011 30 10000 9.77 120 03:26 13.07.2022
429 Clouds 39 1010 23 10000 2.68 265 00:19 13.07.2022
430 Clouds 39 1011 22 10000 4.47 310 22:18 12.07.2022
431 Clouds 39 1013 22 10000 2.68 273 21:36 12.07.2022
432 Clear 38 1013 23 10000 2.68 290 20:42 12.07.2022
433 Clear 37 1013 25 10000 3.13 117 19:42 12.07.2022
434 Clear 35 1013 29 10000 2.24 283 18:21 12.07.2022
435 Drizzle 32 1013 39 10000 3.09 130 16:20 12.07.2022
436 Clouds 30 1014 41 10000 2.57 110 14:31 12.07.2022
437 Clouds 30 1013 40 10000 3.09 120 13:24 12.07.2022
438 Clouds 31 1013 38 10000 4.63 190 11:46 12.07.2022
439 Clouds 31 1012 38 10000 4.12 170 10:25 12.07.2022
440 Clouds 32 1013 36 10000 4.12 80 08:40 12.07.2022
441 Clear 33 1013 35 10000 4.63 160 07:47 12.07.2022
442 Clouds 33 1014 35 10000 13.38 130 05:45 12.07.2022
443 Clouds 39 1009 19 10000 3.6 290 04:18 12.07.2022
444 Clear 42 1010 15 10000 5.36 276 23:50 11.07.2022
445 Clear 41 1011 16 10000 5.14 310 22:39 11.07.2022
446 Clouds 40 1012 18 10000 3.13 290 20:56 11.07.2022
447 Clear 39 1013 19 10000 4.02 278 20:32 11.07.2022
448 Clear 36 1014 25 10000 2.06 220 18:48 11.07.2022
449 Clear 35 1014 27 10000 2.06 220 18:23 11.07.2022
450 Clear 35 1014 27 10000 2.06 220 18:23 11.07.2022
451 Clear 30 1014 37 10000 2.57 160 16:26 11.07.2022
452 Clouds 29 1012 35 10000 1.47 233 14:58 11.07.2022
453 Clear 30 1012 34 10000 3.09 180 12:38 11.07.2022
454 Clear 31 1013 32 10000 0.45 178 10:56 11.07.2022
455 Clear 33 1013 30 10000 4.12 180 09:54 11.07.2022
456 Clear 33 1014 29 10000 4.12 180 09:21 11.07.2022
457 Clear 34 1013 25 10000 3.6 170 07:52 11.07.2022
458 Clear 41 1013 17 10000 4.02 219 00:56 11.07.2022
459 Clear 41 1014 17 10000 3.13 294 23:53 10.07.2022
460 Clear 40 1015 19 10000 3.09 0 22:37 10.07.2022
461 Clouds 38 1017 21 10000 2.68 221 20:55 10.07.2022
462 Clear 38 1017 22 10000 2.57 290 20:24 10.07.2022
463 Clear 36 1018 25 10000 0.89 183 19:28 10.07.2022
464 Clouds 34 1018 33 10000 2.68 132 17:59 10.07.2022
465 Clear 32 1018 35 10000 3.6 130 17:20 10.07.2022
466 Clouds 29 1018 41 10000 4.63 110 16:20 10.07.2022
467 Clouds 27 1019 45 10000 4.63 110 14:44 10.07.2022
468 Clouds 28 1019 42 10000 7.72 140 13:29 10.07.2022
469 Clear 29 1017 43 10000 5.14 130 11:39 10.07.2022
470 Clouds 29 1019 42 10000 8.23 120 09:45 10.07.2022
471 Clouds 30 1020 40 10000 12.35 100 08:43 10.07.2022
472 Clouds 31 1019 38 10000 8.23 90 06:39 10.07.2022
473 Clear 41 1016 17 10000 2.57 0 23:47 09.07.2022
474 Clouds 39 1018 19 10000 3.09 230 22:26 09.07.2022
475 Clear 39 1018 20 10000 1.54 90 21:41 09.07.2022
476 Clear 37 1019 24 10000 2.24 171 19:44 09.07.2022
477 Clear 37 1019 24 10000 2.24 171 19:44 09.07.2022
478 Clear 35 1019 28 10000 2.57 0 18:26 09.07.2022
479 Clear 33 1019 32 10000 2.57 150 17:32 09.07.2022
480 Clouds 30 1019 38 10000 3.6 170 16:34 09.07.2022
481 Clouds 29 1018 41 10000 6.69 140 15:39 09.07.2022
482 Clouds 28 1018 41 10000 3.6 160 14:23 09.07.2022
483 Clouds 28 1017 39 10000 2.57 170 13:48 09.07.2022
484 Clear 29 1016 39 10000 0.89 50 11:54 09.07.2022
485 Clouds 31 1019 36 10000 6.69 170 10:27 09.07.2022
486 Clouds 31 1019 35 10000 8.23 120 09:56 09.07.2022
487 Clouds 35 1016 23 10000 3.13 178 07:44 09.07.2022
488 Clear 37 1013 16 10000 5.66 290 04:45 09.07.2022
489 Clear 40 1014 15 10000 5.14 360 23:43 08.07.2022
490 Clouds 39 1015 16 10000 2.24 355 22:33 08.07.2022
491 Clear 38 1016 17 10000 3.09 270 21:26 08.07.2022
492 Clear 37 1016 19 10000 3.09 280 20:35 08.07.2022
493 Clear 35 1017 20 10000 2.57 0 19:38 08.07.2022
494 Clear 32 1017 25 10000 1.79 267 17:50 08.07.2022
495 Clear 29 1017 32 10000 2.06 140 16:29 08.07.2022
496 Clear 26 1016 35 10000 3.09 150 14:50 08.07.2022
497 Clear 27 1016 32 10000 3.09 120 12:42 08.07.2022
498 Clear 29 1015 28 10000 3.6 200 10:52 08.07.2022
499 Clear 30 1014 25 10000 4.12 280 09:58 08.07.2022
500 Clear 32 1014 22 10000 2.57 280 07:53 08.07.2022
501 Clear 34 1013 19 10000 5.14 300 05:37 08.07.2022
502 Clear 39 1013 14 10000 4.92 292 00:40 08.07.2022
503 Clouds 38 1014 15 10000 5.14 270 22:52 07.07.2022
504 Clear 37 1015 16 10000 4.02 278 21:48 07.07.2022
505 Clear 34 1016 18 10000 3.58 273 19:34 07.07.2022
506 Clear 31 1016 22 10000 0.45 60 17:43 07.07.2022
507 Clear 27 1017 29 10000 2.06 120 16:23 07.07.2022
508 Clear 24 1016 30 10000 3.09 100 14:21 07.07.2022
509 Clear 25 1014 29 10000 2.57 160 12:43 07.07.2022
510 Clear 26 1011 27 10000 2.57 150 12:23 07.07.2022
511 Clear 27 1014 25 10000 3.09 130 11:33 07.07.2022
512 Clear 27 1014 25 10000 2.57 170 10:45 07.07.2022
513 Clear 28 1014 24 10000 3.58 131 10:27 07.07.2022
514 Clear 29 1013 22 10000 2.68 147 09:22 07.07.2022
515 Clear 32 1012 19 10000 3.6 290 06:26 07.07.2022
516 Clear 38 1012 15 10000 3.13 4 00:28 07.07.2022
517 Clear 38 1012 15 10000 2.68 276 23:36 06.07.2022
518 Clear 37 1013 16 10000 3.58 130 23:18 06.07.2022
519 Clear 37 1014 16 10000 2.57 0 22:51 06.07.2022
520 Clear 37 1012 16 10000 3.58 98 22:33 06.07.2022
521 Clear 35 1015 21 10000 2.68 139 20:19 06.07.2022
522 Clear 33 1016 25 10000 1.34 138 18:48 06.07.2022
523 Clear 30 1016 34 10000 2.06 130 17:21 06.07.2022
524 Clear 26 1015 42 10000 2.57 140 15:50 06.07.2022
525 Clear 25 1013 44 10000 2.06 140 12:44 06.07.2022
526 Clear 26 1013 42 10000 2.06 200 11:52 06.07.2022
527 Clear 27 1013 40 10000 0.89 281 10:48 06.07.2022
528 Clear 28 1013 36 10000 2.06 280 08:46 06.07.2022
529 Clear 29 1013 31 10000 3.09 180 07:43 06.07.2022
530 Clear 31 1012 27 10000 3.09 180 06:43 06.07.2022
531 Clear 36 1012 23 10000 6.17 190 22:52 05.07.2022
532 Clear 36 1013 23 10000 6.17 190 22:34 05.07.2022
533 Clear 34 1013 33 10000 4.02 136 20:45 05.07.2022
534 Clear 33 1014 36 10000 2.06 150 19:54 05.07.2022
535 Clear 33 1014 36 10000 2.68 154 19:35 05.07.2022
536 Clear 31 1014 45 10000 2.24 129 17:49 05.07.2022
537 Clear 30 1015 51 10000 4.12 110 17:18 05.07.2022
538 Clear 27 1014 60 10000 2.06 140 15:48 05.07.2022
539 Clouds 25 1014 68 10000 2.57 160 14:44 05.07.2022
540 Clear 26 1013 63 10000 2.06 90 12:53 05.07.2022
541 Clear 26 1013 63 10000 2.06 90 12:21 05.07.2022
542 Clouds 27 1013 58 10000 2.06 180 10:45 05.07.2022
543 Clouds 28 1014 56 10000 4.12 180 09:32 05.07.2022
544 Clouds 29 1013 52 10000 4.12 210 08:19 05.07.2022
545 Clouds 30 1013 47 10000 3.6 180 06:22 05.07.2022
546 Clouds 32 1012 40 10000 3.09 80 04:26 05.07.2022
547 Clouds 32 1013 45 10000 4.63 170 00:43 05.07.2022
548 Clouds 33 1012 39 10000 4.12 140 23:36 04.07.2022
549 Clouds 34 1012 35 10000 6.17 200 22:54 04.07.2022
550 Clouds 35 1013 32 10000 2.06 70 21:53 04.07.2022
551 Clouds 34 1013 33 10000 2.24 160 20:54 04.07.2022
552 Clouds 34 1014 33 10000 2.24 125 20:35 04.07.2022
553 Clear 33 1013 35 10000 4.12 160 19:55 04.07.2022
554 Clear 33 1014 36 10000 4.12 160 19:36 04.07.2022
555 Clear 32 1014 39 10000 2.57 0 18:34 04.07.2022
556 Clouds 29 1014 47 10000 4.12 160 16:36 04.07.2022
557 Clear 26 1013 53 10000 3.09 110 15:34 04.07.2022
558 Clear 26 1013 52 10000 1.54 130 13:35 04.07.2022
559 Clear 27 1012 50 10000 3.09 150 12:36 04.07.2022
560 Clear 28 1012 48 10000 3.09 170 10:39 04.07.2022
561 Clear 28 1012 46 10000 3.09 170 10:18 04.07.2022
562 Clear 29 1012 41 10000 3.09 110 08:31 04.07.2022
563 Clouds 33 1010 30 10000 2.24 82 05:34 04.07.2022
564 Clouds 36 1010 27 10000 3.09 290 00:42 04.07.2022
565 Clouds 36 1011 27 10000 4.47 258 23:25 03.07.2022
566 Clouds 36 1011 29 10000 1.79 161 21:58 03.07.2022
567 Clouds 35 1012 32 10000 1.54 30 20:41 03.07.2022
568 Clear 33 1012 35 10000 2.57 340 19:42 03.07.2022
569 Clouds 33 1013 36 10000 3.09 110 19:23 03.07.2022
570 Clear 31 1014 44 10000 4.12 150 17:45 03.07.2022
571 Clear 28 1013 50 10000 3.09 110 16:54 03.07.2022
572 Clouds 27 1013 56 10000 4.12 140 15:24 03.07.2022
573 Clouds 27 1012 55 10000 4.12 140 14:32 03.07.2022
574 Clouds 27 1012 52 10000 3.6 120 13:48 03.07.2022
575 Clouds 27 1012 54 10000 4.63 130 12:35 03.07.2022
576 Clouds 27 1010 53 10000 4.12 130 11:29 03.07.2022
577 Clouds 27 1012 52 10000 4.63 120 10:39 03.07.2022
578 Clouds 28 1011 49 10000 3.6 170 09:59 03.07.2022
579 Clouds 29 1012 45 10000 4.63 160 07:36 03.07.2022
580 Clouds 30 1010 41 10000 6.69 170 05:18 03.07.2022
581 Clouds 36 1011 28 10000 4.12 30 00:23 03.07.2022
582 Clouds 36 1012 31 10000 2.57 310 22:35 02.07.2022
583 Clear 35 1013 32 10000 1.79 16 21:38 02.07.2022
584 Clear 32 1014 39 10000 2.24 140 19:52 02.07.2022
585 Clear 31 1015 44 10000 2.68 61 19:23 02.07.2022
586 Clouds 29 1014 53 10000 2.57 150 17:51 02.07.2022
587 Clouds 28 1014 54 10000 2.57 150 17:33 02.07.2022
588 Clouds 24 1011 68 10000 2.06 80 14:52 02.07.2022
589 Clouds 25 1014 68 10000 1.54 190 12:22 02.07.2022
590 Clouds 25 1013 68 10000 3.09 120 11:27 02.07.2022
591 Clouds 24 1013 71 10000 3.6 170 10:43 02.07.2022
592 Clouds 24 1014 73 10000 3.6 120 09:25 02.07.2022
593 Clouds 25 1014 70 10000 3.09 100 08:20 02.07.2022
594 Clouds 25 1014 66 10000 2.57 80 07:48 02.07.2022
595 Rain 26 1015 59 10000 5.66 280 02:51 02.07.2022
596 Clouds 32 1014 41 10000 4.63 270 00:26 02.07.2022
597 Clouds 36 1013 32 10000 5.66 160 22:58 01.07.2022
598 Clouds 35 1014 34 10000 3.6 140 21:49 01.07.2022
599 Clouds 35 1015 34 10000 3.6 140 21:29 01.07.2022
600 Clouds 34 1016 34 10000 3.09 160 20:43 01.07.2022
601 Clear 34 1016 36 10000 2.06 0 19:47 01.07.2022
602 Clouds 31 1017 44 10000 2.68 170 17:53 01.07.2022
603 Clouds 28 1016 53 10000 4.12 140 16:24 01.07.2022
604 Clear 25 1015 60 10000 4.63 170 13:55 01.07.2022
605 Clouds 26 1015 58 10000 5.66 160 12:55 01.07.2022
606 Clear 28 1014 51 10000 3.6 180 10:20 01.07.2022
607 Clear 28 1015 50 10000 4.92 145 09:47 01.07.2022
608 Clouds 31 1014 40 10000 5.14 260 05:25 01.07.2022
609 Clouds 37 1013 26 10000 4.02 328 00:42 01.07.2022
610 Clouds 36 1015 27 10000 3.13 347 23:22 30.06.2022
611 Clouds 36 1015 28 10000 2.06 250 22:44 30.06.2022
612 Clouds 35 1018 29 10000 2.06 250 22:25 30.06.2022
613 Clouds 35 1017 32 10000 2.57 160 21:45 30.06.2022
614 Clouds 33 1018 34 10000 2.57 300 20:30 30.06.2022
615 Clear 33 1021 35 10000 3.09 300 19:54 30.06.2022
616 Clear 32 1018 36 10000 3.09 300 19:25 30.06.2022
617 Clouds 31 1019 38 10000 1.79 192 18:42 30.06.2022
618 Clouds 30 1019 42 10000 1.54 190 17:44 30.06.2022
619 Clouds 29 1018 47 10000 1.79 109 16:55 30.06.2022
620 Clear 26 1018 56 10000 3.09 150 15:42 30.06.2022
621 Clouds 25 1018 58 10000 3.09 140 13:36 30.06.2022
622 Clouds 26 1018 56 10000 4.12 130 12:35 30.06.2022
623 Clouds 26 1017 54 10000 2.06 120 11:43 30.06.2022
624 Clouds 27 1017 51 10000 4.63 170 09:55 30.06.2022
625 Clouds 27 1018 50 10000 5.14 160 09:35 30.06.2022
626 Clouds 28 1017 46 10000 4.63 120 08:19 30.06.2022
627 Clouds 28 1017 45 10000 2.57 190 07:23 30.06.2022
628 Clear 32 1017 36 10000 4.63 150 01:47 30.06.2022
629 Clouds 34 1016 33 10000 4.63 230 23:34 29.06.2022
630 Clouds 34 1018 34 10000 7.72 220 22:40 29.06.2022
631 Clouds 36 1017 31 10000 8.23 170 21:43 29.06.2022
632 Clear 37 1018 26 10000 3.6 190 20:34 29.06.2022
633 Clouds 36 1019 28 10000 2.68 141 19:48 29.06.2022
634 Clear 33 1018 34 10000 5.14 120 17:54 29.06.2022
635 Clouds 31 1018 42 10000 4.12 130 16:48 29.06.2022
636 Clear 28 1018 48 10000 4.63 120 15:32 29.06.2022
637 Clear 27 1016 49 10000 5.66 120 13:20 29.06.2022
638 Clear 28 1016 47 10000 3.09 120 11:57 29.06.2022
639 Clouds 30 1017 44 10000 5.14 130 09:35 29.06.2022
640 Clouds 30 1017 43 10000 4.63 150 08:46 29.06.2022
641 Clear 32 1016 37 10000 4.63 160 05:42 29.06.2022
642 Clear 36 1015 28 10000 4.63 30 02:21 29.06.2022
643 Clouds 36 1016 26 10000 3.6 90 00:38 29.06.2022
644 Clouds 36 1017 28 10000 4.12 130 23:26 28.06.2022
645 Clouds 35 1018 29 10000 3.6 150 22:48 28.06.2022
646 Clouds 35 1018 30 10000 5.14 140 21:55 28.06.2022
647 Clouds 35 1018 31 10000 5.14 140 21:33 28.06.2022
648 Clear 35 1019 32 10000 3.09 110 20:51 28.06.2022
649 Clear 34 1019 34 10000 5.66 120 19:43 28.06.2022
650 Clear 33 1020 36 10000 5.66 120 19:23 28.06.2022
651 Clear 30 1020 44 10000 7.2 130 17:44 28.06.2022
652 Clouds 28 1020 50 10000 7.2 120 16:24 28.06.2022
653 Clouds 27 1020 51 10000 8.75 130 15:53 28.06.2022
654 Clouds 26 1019 53 10000 6.69 110 14:21 28.06.2022
655 Clear 26 1019 53 10000 4.12 120 13:55 28.06.2022
656 Clear 26 1018 53 10000 7.2 120 13:26 28.06.2022
657 Clouds 27 1018 51 10000 6.69 110 11:37 28.06.2022
658 Clear 28 1018 47 10000 8.75 130 09:41 28.06.2022
659 Clouds 29 1018 46 10000 5.66 130 08:45 28.06.2022
660 Clouds 29 1018 46 10000 2.68 176 07:58 28.06.2022
661 Clouds 29 1018 45 10000 9.77 130 07:19 28.06.2022
662 Clouds 33 1016 37 10000 4.02 164 01:36 28.06.2022
663 Clouds 34 1017 33 10000 2.68 147 23:45 27.06.2022
664 Clouds 34 1018 33 10000 5.14 50 22:55 27.06.2022
665 Clouds 33 1019 36 10000 4.12 110 21:38 27.06.2022
666 Clouds 33 1019 36 10000 4.12 110 21:38 27.06.2022
667 Clear 33 1020 36 10000 2.68 3 20:55 27.06.2022
668 Clouds 31 1020 42 10000 3.09 80 19:44 27.06.2022
669 Clouds 29 1020 46 10000 5.14 120 18:40 27.06.2022
670 Clouds 25 1020 59 10000 2.57 80 16:44 27.06.2022
671 Clouds 24 1021 65 10000 4.63 70 15:42 27.06.2022
672 Clouds 23 1022 67 10000 4.12 110 13:40 27.06.2022
673 Clouds 23 1022 72 10000 4.12 150 12:57 27.06.2022
674 Drizzle 25 1021 61 10000 6.17 160 10:41 27.06.2022
675 Clouds 27 1020 52 10000 1.54 210 09:37 27.06.2022
676 Clouds 27 1019 50 10000 1.79 299 08:32 27.06.2022
677 Clouds 28 1020 48 10000 3.6 280 07:38 27.06.2022
678 Clouds 30 1017 43 10000 7.72 110 04:21 27.06.2022
679 Clear 34 1017 28 10000 4.02 190 01:19 27.06.2022
680 Clouds 33 1019 35 10000 4.63 110 22:27 26.06.2022
681 Clouds 32 1019 39 10000 5.66 120 20:55 26.06.2022
682 Clouds 31 1020 42 10000 3.13 128 19:59 26.06.2022
683 Clouds 30 1019 42 10000 8.23 120 18:32 26.06.2022
684 Clouds 29 1019 44 10000 8.23 110 17:33 26.06.2022
685 Clouds 27 1017 52 10000 8.75 110 15:31 26.06.2022
686 Clouds 27 1017 47 10000 7.72 110 13:55 26.06.2022
687 Clouds 28 1017 45 10000 7.72 110 13:23 26.06.2022
688 Clouds 29 1016 39 10000 7.2 140 11:31 26.06.2022
689 Clouds 30 1016 34 10000 4.02 191 10:29 26.06.2022
690 Clouds 30 1016 34 10000 4.02 191 10:28 26.06.2022
691 Clouds 31 1015 31 10000 4.63 290 09:39 26.06.2022
692 Clouds 32 1015 28 10000 2.06 0 07:46 26.06.2022
693 Clouds 36 1012 17 10000 2.57 250 03:19 26.06.2022
694 Clear 37 1012 19 10000 2.57 60 00:36 26.06.2022
695 Clear 37 1012 19 10000 2.68 58 00:18 26.06.2022
696 Clouds 36 1013 22 10000 4.63 80 23:24 25.06.2022
697 Clouds 35 1015 25 10000 3.6 90 22:27 25.06.2022
698 Clouds 35 1015 26 10000 4.63 10 21:50 25.06.2022
699 Clouds 35 1015 27 10000 4.63 10 21:20 25.06.2022
700 Clouds 34 1015 29 10000 2.68 185 20:30 25.06.2022
701 Clouds 33 1015 30 10000 1.34 222 19:54 25.06.2022
702 Clouds 31 1016 37 10000 4.63 90 18:19 25.06.2022
703 Clouds 29 1015 44 10000 5.66 120 17:25 25.06.2022
704 Clouds 26 1016 54 10000 5.14 150 15:42 25.06.2022
705 Clouds 26 1015 53 10000 2.06 20 13:48 25.06.2022
706 Clouds 26 1015 50 10000 4.12 250 12:38 25.06.2022
707 Clouds 27 1014 48 10000 4.02 145 10:58 25.06.2022
708 Clouds 27 1014 50 10000 6.17 100 09:22 25.06.2022
709 Clouds 26 1014 52 10000 6.69 140 08:46 25.06.2022
710 Clouds 26 1014 52 10000 6.69 140 08:19 25.06.2022
711 Clouds 33 1012 27 10000 7.15 115 05:23 25.06.2022
712 Clear 38 1010 21 10000 3.6 260 00:43 25.06.2022
713 Clear 38 1012 23 10000 2.68 260 22:56 24.06.2022
714 Clear 36 1013 25 10000 1.79 256 21:44 24.06.2022
715 Clear 36 1013 25 10000 1.79 284 21:19 24.06.2022
716 Clear 34 1014 28 10000 2.24 287 20:19 24.06.2022
717 Clear 34 1014 28 10000 2.24 287 20:19 24.06.2022
718 Clear 33 1015 31 10000 4.02 310 19:22 24.06.2022
719 Clear 32 1015 34 10000 2.68 291 18:49 24.06.2022
720 Clear 32 1015 36 10000 2.24 134 18:30 24.06.2022
721 Clear 30 1015 39 10000 3.13 233 17:41 24.06.2022
722 Clear 26 1016 50 10000 4.12 110 15:51 24.06.2022
723 Clouds 25 1015 55 10000 5.14 110 14:28 24.06.2022
724 Clear 25 1015 55 10000 4.12 140 13:55 24.06.2022
725 Clear 25 1013 53 10000 3.6 160 11:54 24.06.2022
726 Clear 26 1013 52 10000 3.6 160 11:34 24.06.2022
727 Clouds 27 1013 49 10000 3.6 150 10:22 24.06.2022
728 Clouds 27 1014 47 10000 4.12 120 09:40 24.06.2022
729 Clouds 28 1014 46 10000 5.14 160 08:52 24.06.2022
730 Clouds 28 1014 45 10000 2.57 170 06:50 24.06.2022
731 Clouds 29 1013 45 10000 2.57 170 06:31 24.06.2022
732 Clouds 29 1013 44 10000 2.57 200 05:57 24.06.2022
733 Rain 31 1011 40 10000 9.77 150 02:31 24.06.2022
734 Clouds 39 1010 18 10000 5.14 110 22:55 23.06.2022
735 Clouds 39 1011 18 10000 5.14 110 22:33 23.06.2022
736 Clear 38 1013 23 10000 3.13 302 20:56 23.06.2022
737 Clear 37 1014 24 10000 5.66 120 20:32 23.06.2022
738 Clear 35 1013 29 10000 4.02 197 18:59 23.06.2022
739 Clear 33 1014 32 10000 6.17 150 17:50 23.06.2022
740 Clear 33 1014 32 10000 2.68 110 17:50 23.06.2022
741 Clouds 30 1014 38 10000 5.14 120 16:50 23.06.2022
742 Clouds 28 1014 44 10000 6.17 120 15:43 23.06.2022
743 Clouds 27 1014 45 10000 6.17 120 15:23 23.06.2022
744 Clear 26 1014 46 10000 5.66 140 13:21 23.06.2022
745 Clear 28 1013 43 10000 7.2 110 11:23 23.06.2022
746 Clouds 29 1014 40 10000 8.75 110 09:46 23.06.2022
747 Clouds 29 1013 38 10000 9.26 110 08:18 23.06.2022
748 Clouds 38 1011 24 10000 2.68 160 02:19 23.06.2022
749 Clouds 38 1013 24 10000 3.09 180 00:25 23.06.2022
750 Clear 37 1013 25 10000 2.57 130 23:27 22.06.2022
751 Clouds 36 1014 27 10000 2.24 193 22:24 22.06.2022
752 Clear 35 1015 31 10000 3.09 130 20:57 22.06.2022
753 Clear 34 1015 34 10000 4.12 90 20:21 22.06.2022
754 Clear 33 1015 35 10000 6.17 160 19:50 22.06.2022
755 Clear 31 1016 41 10000 7.2 120 18:21 22.06.2022
756 Clear 29 1017 45 10000 9.26 120 17:24 22.06.2022
757 Clear 26 1016 53 10000 3.13 193 15:53 22.06.2022
758 Clear 24 1017 56 10000 7.72 110 15:24 22.06.2022
759 Clear 24 1017 58 10000 6.69 110 13:50 22.06.2022
760 Clear 24 1016 57 10000 6.69 110 13:25 22.06.2022
761 Clouds 24 1016 56 10000 6.69 150 12:56 22.06.2022
762 Clouds 25 1016 54 10000 10.29 140 11:47 22.06.2022
763 Clear 25 1016 53 10000 8.23 130 10:54 22.06.2022
764 Clouds 25 1016 52 10000 8.23 150 09:44 22.06.2022
765 Clouds 26 1017 52 10000 6.69 150 07:56 22.06.2022
766 Clouds 27 1017 47 10000 9.26 150 03:25 22.06.2022
767 Clouds 30 1015 39 10000 11.32 140 01:22 22.06.2022
768 Clouds 33 1015 32 10000 11.83 70 23:39 21.06.2022
769 Clouds 36 1015 20 10000 1.79 303 21:31 21.06.2022
770 Clouds 32 1016 28 10000 2.68 155 19:43 21.06.2022
771 Clouds 31 1016 33 10000 2.06 230 18:30 21.06.2022
772 Clouds 27 1016 42 10000 4.12 120 16:52 21.06.2022
773 Clouds 24 1015 46 10000 3.09 120 12:40 21.06.2022
774 Clear 25 1015 44 10000 3.09 150 10:55 21.06.2022
775 Clouds 26 1014 43 10000 4.63 140 09:40 21.06.2022
776 Clouds 28 1014 39 10000 3.09 140 08:22 21.06.2022
777 Clear 31 1012 32 10000 7.2 180 05:37 21.06.2022
778 Clouds 37 1012 21 10000 5.14 280 00:37 21.06.2022
779 Clouds 36 1013 24 10000 3.58 283 22:23 20.06.2022
780 Clear 36 1014 26 10000 3.13 246 21:49 20.06.2022
781 Clear 34 1015 29 10000 1.34 320 20:32 20.06.2022
782 Clear 34 1015 29 10000 1.34 320 20:32 20.06.2022
783 Clear 33 1015 32 10000 2.24 240 19:38 20.06.2022
784 Clear 31 1015 36 10000 3.09 250 18:44 20.06.2022
785 Clear 30 1016 39 10000 0.89 213 17:50 20.06.2022
786 Clear 29 1016 40 10000 1.34 175 17:29 20.06.2022
787 Clear 25 1016 45 10000 2.06 90 15:53 20.06.2022
788 Clear 25 1014 40 10000 4.12 130 12:41 20.06.2022
789 Clear 25 1012 27 10000 3.09 120 10:32 20.06.2022
790 Clear 26 1013 24 10000 2.57 260 09:30 20.06.2022
791 Clear 26 1013 24 10000 2.57 230 08:44 20.06.2022
792 Clear 32 1011 16 10000 5.14 270 05:35 20.06.2022
793 Clear 36 1010 23 10000 6.17 240 01:44 20.06.2022
794 Clouds 37 1011 23 10000 4.12 230 00:26 20.06.2022
795 Clouds 36 1012 25 10000 4.92 296 22:50 19.06.2022
796 Clouds 36 1012 27 10000 4.12 250 21:57 19.06.2022
797 Clouds 35 1013 27 10000 4.63 240 21:39 19.06.2022
798 Clouds 34 1014 28 10000 4.12 150 20:38 19.06.2022
799 Clouds 33 1014 29 10000 4.12 240 19:47 19.06.2022
800 Clear 32 1014 31 10000 3.13 210 18:45 19.06.2022
801 Clouds 31 1015 32 10000 4.63 190 18:26 19.06.2022
802 Clouds 29 1015 39 10000 4.63 150 17:22 19.06.2022
803 Clear 27 1015 47 10000 3.6 120 16:35 19.06.2022
804 Clear 26 1014 55 10000 4.63 120 15:41 19.06.2022
805 Clear 24 1014 60 10000 6.17 130 14:57 19.06.2022
806 Clear 24 1014 60 10000 6.17 130 14:20 19.06.2022
807 Clear 25 1013 59 10000 5.14 130 13:23 19.06.2022
808 Clouds 26 1012 54 10000 6.17 140 11:21 19.06.2022
809 Clear 26 1012 58 10000 1.79 139 09:58 19.06.2022
810 Clear 25 1013 61 10000 3.09 130 08:49 19.06.2022
811 Clear 26 1013 60 10000 3.09 130 08:19 19.06.2022
812 Clear 27 1011 55 10000 4.12 40 05:42 19.06.2022
813 Clouds 32 1011 40 10000 7.2 320 02:26 19.06.2022
814 Clear 35 1011 27 10000 6.17 210 00:25 19.06.2022
815 Clouds 35 1012 29 10000 7.2 210 23:36 18.06.2022
816 Clouds 35 1012 29 10000 5.14 210 22:44 18.06.2022
817 Clouds 35 1012 30 10000 5.66 190 21:38 18.06.2022
818 Clouds 34 1014 32 10000 3.58 236 20:42 18.06.2022
819 Clear 34 1014 30 10000 3.58 154 19:40 18.06.2022
820 Clear 33 1014 31 10000 2.57 0 18:53 18.06.2022
821 Clouds 30 1013 39 10000 3.09 100 17:35 18.06.2022
822 Clouds 29 1013 43 10000 1.34 166 16:59 18.06.2022
823 Clouds 27 1014 44 10000 6.17 180 15:37 18.06.2022
824 Clouds 27 1013 43 10000 4.12 190 14:46 18.06.2022
825 Clear 26 1013 41 10000 4.63 130 13:30 18.06.2022
826 Clouds 27 1011 39 10000 3.09 160 11:56 18.06.2022
827 Clear 28 1011 38 10000 3.6 150 10:55 18.06.2022
828 Clouds 29 1010 36 10000 1.54 130 09:28 18.06.2022
829 Clouds 29 1013 34 10000 4.12 170 08:30 18.06.2022
830 Clouds 30 1011 31 10000 2.57 140 07:20 18.06.2022
831 Clouds 34 1009 22 10000 4.63 120 03:47 18.06.2022
832 Clouds 36 1011 17 10000 4.12 140 01:26 18.06.2022
833 Clouds 36 1011 17 10000 4.12 140 01:26 18.06.2022
834 Clouds 36 1012 18 10000 5.66 180 00:48 18.06.2022
835 Clouds 37 1013 18 10000 0.89 179 23:59 17.06.2022
836 Clouds 36 1010 18 10000 5.14 180 23:24 17.06.2022
837 Clouds 35 1011 19 10000 5.66 150 21:27 17.06.2022
838 Clouds 34 1012 21 10000 5.14 140 20:26 17.06.2022
839 Clouds 33 1012 22 10000 2.57 140 18:52 17.06.2022
840 Clouds 32 1012 22 10000 3.09 170 17:46 17.06.2022
841 Clouds 31 1012 22 10000 4.12 130 16:43 17.06.2022
842 Clouds 30 1011 22 10000 4.12 130 16:18 17.06.2022
843 Clouds 29 1011 22 10000 2.57 110 15:34 17.06.2022
844 Clouds 28 1012 21 10000 2.57 100 14:21 17.06.2022
845 Clouds 29 1012 20 10000 4.12 210 13:48 17.06.2022
846 Clouds 29 1012 19 10000 4.12 210 13:26 17.06.2022
847 Clouds 29 1010 19 10000 0.89 0 11:58 17.06.2022
848 Clear 30 1011 19 10000 2.57 130 11:39 17.06.2022
849 Clear 30 1011 18 10000 4.63 140 11:21 17.06.2022
850 Clear 32 1010 15 10000 2.06 210 08:30 17.06.2022
851 Clear 33 1009 14 10000 4.63 280 07:51 17.06.2022
852 Clouds 36 1009 11 10000 8.23 270 06:32 17.06.2022
853 Clear 41 1006 8 10000 4.92 333 03:20 17.06.2022
854 Clouds 42 1007 7 10000 3.13 333 00:43 17.06.2022
855 Clear 42 1010 6 10000 1.79 139 22:45 16.06.2022
856 Clear 42 1010 6 10000 1.79 8 22:26 16.06.2022
857 Clear 40 1011 6 10000 2.68 288 21:19 16.06.2022
858 Clear 40 1011 7 10000 2.24 259 20:50 16.06.2022
859 Clear 39 1011 6 10000 1.34 228 19:58 16.06.2022
860 Clear 36 1012 7 10000 1.34 122 18:44 16.06.2022
861 Clear 33 1012 9 10000 2.06 140 17:44 16.06.2022
862 Clear 31 1012 10 10000 2.06 140 17:20 16.06.2022
863 Clear 27 1012 11 10000 3.6 140 15:44 16.06.2022
864 Clear 26 1012 11 10000 3.6 140 15:20 16.06.2022
865 Clear 24 1012 13 10000 3.09 120 13:49 16.06.2022
866 Clear 24 1010 13 10000 3.09 120 12:38 16.06.2022
867 Clear 25 1010 13 10000 3.09 120 11:55 16.06.2022
868 Clear 25 1011 12 10000 3.09 120 11:21 16.06.2022
869 Clear 26 1010 12 10000 3.09 140 10:35 16.06.2022
870 Clear 27 1011 12 10000 3.09 140 09:37 16.06.2022
871 Clear 28 1010 12 10000 3.09 170 08:50 16.06.2022
872 Clear 29 1011 11 10000 3.09 270 07:38 16.06.2022
873 Clear 33 1009 8 10000 4.12 290 05:43 16.06.2022
874 Clear 38 1009 6 10000 5.66 300 03:23 16.06.2022
875 Clear 39 1009 8 10000 5.66 270 01:52 16.06.2022
876 Clear 39 1009 8 10000 5.66 270 01:52 16.06.2022
877 Clear 40 1009 8 10000 5.66 270 01:22 16.06.2022
878 Clear 40 1009 8 10000 5.66 270 01:22 16.06.2022
879 Clear 39 1010 11 10000 4.12 310 23:58 15.06.2022
880 Clear 38 1010 12 10000 3.09 0 22:47 15.06.2022
881 Clouds 37 1011 13 10000 3.6 170 21:29 15.06.2022
882 Clear 36 1012 13 10000 1.79 151 20:57 15.06.2022
883 Clear 36 1012 14 10000 2.57 40 20:35 15.06.2022
884 Clear 35 1012 15 10000 3.09 0 19:52 15.06.2022
885 Clear 33 1012 23 10000 2.06 210 18:30 15.06.2022
886 Clear 31 1012 23 10000 3.09 140 17:43 15.06.2022
887 Clear 27 1011 25 10000 3.09 130 16:21 15.06.2022
888 Clear 23 1012 26 10000 3.6 130 14:37 15.06.2022
889 Clear 22 1010 24 10000 1.54 70 13:20 15.06.2022
890 Clear 23 1010 22 10000 3.09 130 12:39 15.06.2022
891 Clear 24 1010 20 10000 4.12 150 11:22 15.06.2022
892 Clear 25 1011 19 10000 3.6 140 10:21 15.06.2022
893 Clear 25 1011 19 10000 3.6 140 10:21 15.06.2022
894 Clear 26 1010 19 10000 0.89 0 08:59 15.06.2022
895 Clear 28 1010 15 10000 3.09 270 07:32 15.06.2022
896 Clear 32 1009 12 10000 6.69 260 05:36 15.06.2022
897 Clear 38 1008 10 10000 8.23 250 02:40 15.06.2022
898 Clear 38 1008 10 10000 6.69 240 01:36 15.06.2022
899 Clear 39 1010 10 10000 8.23 260 00:18 15.06.2022
900 Clear 39 1009 10 10000 9.77 250 23:38 14.06.2022
901 Clear 38 1010 11 10000 9.26 260 22:45 14.06.2022
902 Clear 38 1011 12 10000 4.63 210 21:43 14.06.2022
903 Clear 37 1011 14 10000 5.14 200 20:58 14.06.2022
904 Clear 37 1011 15 10000 7.2 220 20:38 14.06.2022
905 Clear 35 1011 20 10000 5.66 200 19:47 14.06.2022
906 Clear 33 1012 22 10000 4.12 150 18:33 14.06.2022
907 Clear 30 1012 26 10000 2.68 165 16:50 14.06.2022
908 Clear 29 1011 26 10000 2.68 163 16:25 14.06.2022
909 Clear 27 1011 27 10000 3.09 160 15:36 14.06.2022
910 Clear 24 1011 29 10000 1.54 80 14:53 14.06.2022
911 Clear 24 1010 30 10000 3.6 200 13:57 14.06.2022
912 Clear 25 1010 29 10000 0.89 140 12:58 14.06.2022
913 Clear 26 1009 30 10000 3.09 180 11:54 14.06.2022
914 Clear 26 1009 30 10000 0 0 10:51 14.06.2022
915 Clear 27 1009 28 10000 2.57 180 10:25 14.06.2022
916 Clear 27 1009 28 10000 2.57 180 10:25 14.06.2022
917 Clear 29 1009 25 10000 2.57 170 08:52 14.06.2022
918 Clear 30 1009 24 10000 2.57 170 08:23 14.06.2022
919 Clear 33 1008 20 10000 4.63 280 06:19 14.06.2022
920 Clear 37 1007 16 10000 7.2 260 03:39 14.06.2022
921 Clear 39 1007 16 10000 8.23 260 01:36 14.06.2022
922 Clear 40 1008 17 10000 5.66 240 23:53 13.06.2022
923 Clear 40 1009 19 10000 6.69 250 22:27 13.06.2022
924 Clouds 39 1009 19 10000 5.66 270 21:59 13.06.2022
925 Clouds 39 1010 20 10000 6.69 260 21:24 13.06.2022
926 Clear 37 1011 21 10000 4.12 270 19:42 13.06.2022
927 Clear 36 1011 22 10000 2.06 0 18:52 13.06.2022
928 Clear 35 1011 24 10000 1.79 259 17:52 13.06.2022
929 Clear 34 1011 25 10000 3.09 220 17:21 13.06.2022
930 Clear 31 1011 27 10000 1.79 129 16:22 13.06.2022
931 Clear 28 1009 31 10000 3.09 150 14:48 13.06.2022
932 Clear 27 1010 32 10000 3.09 150 14:18 13.06.2022
933 Clear 27 1010 30 10000 3.6 130 13:23 13.06.2022
934 Clouds 28 1009 29 10000 3.6 140 11:50 13.06.2022
935 Clear 29 1009 27 10000 2.57 140 10:36 13.06.2022
936 Clouds 30 1009 25 10000 3.6 170 09:42 13.06.2022
937 Clouds 32 1009 22 10000 2.57 200 08:30 13.06.2022
938 Clear 34 1009 19 10000 2.57 290 06:35 13.06.2022
939 Clear 38 1007 15 10000 7.2 310 04:23 13.06.2022
940 Clear 41 1007 11 10000 6.17 290 01:44 13.06.2022
941 Clear 42 1007 11 10000 6.17 290 01:18 13.06.2022
942 Clear 41 1009 13 10000 7.2 310 23:41 12.06.2022
943 Clouds 41 1010 14 10000 5.66 320 22:34 12.06.2022
944 Clear 41 1011 14 10000 3.58 86 21:45 12.06.2022
945 Clear 40 1011 16 10000 4.02 305 20:49 12.06.2022
946 Clear 38 1012 19 10000 2.24 1 19:43 12.06.2022
947 Clear 36 1012 22 10000 1.79 118 18:53 12.06.2022
948 Clear 34 1012 25 10000 2.06 100 17:20 12.06.2022
949 Clear 30 1012 28 10000 5.66 140 15:34 12.06.2022
950 Clear 27 1012 29 10000 4.63 140 14:48 12.06.2022
951 Clear 27 1012 29 10000 4.63 140 14:18 12.06.2022
952 Clear 27 1012 28 10000 3.6 180 13:43 12.06.2022
953 Clear 28 1011 26 10000 1.34 240 11:58 12.06.2022
954 Clouds 29 1011 25 10000 2.57 140 10:46 12.06.2022
955 Clear 31 1011 23 10000 2.57 180 09:36 12.06.2022
956 Clouds 32 1012 21 10000 3.6 190 08:50 12.06.2022
957 Clouds 34 1011 19 10000 2.24 247 07:51 12.06.2022
958 Clear 35 1010 15 10000 4.63 280 06:27 12.06.2022
959 Clear 39 1009 12 10000 7.72 310 03:44 12.06.2022
960 Clouds 41 1009 10 10000 7.2 330 01:49 12.06.2022
961 Clouds 41 1009 9 10000 7.2 330 01:29 12.06.2022
962 Clear 42 1010 9 10000 6.69 320 00:43 12.06.2022
963 Clear 42 1010 9 10000 6.69 320 00:18 12.06.2022
964 Clouds 42 1011 10 10000 7.2 360 22:58 11.06.2022
965 Clouds 42 1012 11 10000 7.2 330 22:31 11.06.2022
966 Clear 40 1012 14 10000 5.14 350 21:18 11.06.2022
967 Clouds 39 1013 17 10000 5.14 310 20:26 11.06.2022
968 Clear 38 1013 21 10000 4.92 316 19:33 11.06.2022
969 Clear 36 1014 23 10000 2.24 275 18:42 11.06.2022
970 Clear 35 1014 24 10000 1.79 295 18:24 11.06.2022
971 Clear 34 1014 26 10000 2.06 190 17:38 11.06.2022
972 Clear 33 1014 27 10000 2.06 190 17:19 11.06.2022
973 Clear 31 1014 29 10000 2.57 140 16:42 11.06.2022
974 Clear 30 1013 31 10000 3.09 140 15:47 11.06.2022
975 Clear 27 1014 34 10000 4.12 150 14:23 11.06.2022
976 Clear 27 1014 34 10000 3.09 170 13:47 11.06.2022
977 Clouds 29 1012 29 10000 3.09 200 11:36 11.06.2022
978 Clouds 30 1013 27 10000 3.6 150 10:29 11.06.2022
979 Clear 31 1013 25 10000 2.06 220 09:40 11.06.2022
980 Clear 33 1013 22 10000 3.6 90 08:21 11.06.2022
981 Clouds 36 1012 17 10000 4.63 350 06:32 11.06.2022
982 Clouds 37 1011 17 10000 6.69 40 05:26 11.06.2022
983 Clear 41 1010 14 10000 6.17 270 02:34 11.06.2022
984 Clear 41 1010 13 10000 7.72 330 01:41 11.06.2022
985 Clear 42 1010 13 10000 5.36 320 00:37 11.06.2022
986 Clouds 41 1011 15 10000 5.81 262 22:38 10.06.2022
987 Clear 40 1012 16 10000 4.02 275 21:56 10.06.2022
988 Clear 39 1013 17 10000 3.6 340 20:55 10.06.2022
989 Clouds 39 1013 18 10000 3.6 340 20:36 10.06.2022
990 Clouds 38 1014 19 10000 3.6 340 20:18 10.06.2022
991 Clear 37 1014 21 10000 2.57 300 19:18 10.06.2022
992 Clear 37 1014 21 10000 2.57 300 19:18 10.06.2022
993 Clear 35 1015 23 10000 1.54 170 18:20 10.06.2022
994 Clear 33 1014 26 10000 1.54 190 17:37 10.06.2022
995 Clear 32 1014 27 10000 1.34 0 16:59 10.06.2022
996 Clear 30 1014 30 10000 1.54 130 16:20 10.06.2022
997 Clear 28 1014 34 10000 3.6 130 15:36 10.06.2022
998 Clear 27 1014 33 10000 2.06 130 13:52 10.06.2022
999 Clear 28 1012 32 10000 3.09 100 12:41 10.06.2022
1000 Clear 29 1012 30 10000 4.12 150 11:41 10.06.2022
1001 Clear 30 1013 29 10000 4.63 160 10:44 10.06.2022
1002 Clear 30 1013 28 10000 4.63 150 09:44 10.06.2022
1003 Clear 32 1013 25 10000 6.69 140 08:30 10.06.2022
1004 Clear 32 1012 24 10000 3.09 150 07:20 10.06.2022
1005 Clear 33 1011 22 10000 2.57 270 06:43 10.06.2022
1006 Clear 33 1011 22 10000 2.57 270 06:24 10.06.2022
1007 Clouds 38 1010 15 10000 6.17 270 03:50 10.06.2022
1008 Clear 40 1010 14 10000 4.12 290 01:41 10.06.2022
1009 Clear 40 1010 15 10000 5.66 340 00:27 10.06.2022
1010 Clear 39 1010 16 10000 3.58 195 23:28 09.06.2022
1011 Clouds 38 1012 18 10000 4.63 350 21:48 09.06.2022
1012 Clouds 38 1012 18 10000 4.63 350 21:29 09.06.2022
1013 Clouds 37 1013 19 10000 3.6 350 20:54 09.06.2022
1014 Clouds 36 1013 21 10000 2.24 276 19:59 09.06.2022
1015 Clouds 34 1013 24 10000 1.79 315 18:49 09.06.2022
1016 Clouds 34 1013 24 10000 2.68 283 18:21 09.06.2022
1017 Clouds 32 1013 28 10000 2.57 360 16:48 09.06.2022
1018 Clouds 29 1012 32 10000 3.6 90 15:47 09.06.2022
1019 Clouds 28 1013 32 10000 2.57 230 14:35 09.06.2022
1020 Clouds 28 1013 32 10000 0.89 209 13:47 09.06.2022
1021 Clouds 29 1012 31 10000 0.45 85 13:26 09.06.2022
1022 Clouds 30 1012 30 10000 2.06 170 11:53 09.06.2022
1023 Clouds 30 1012 30 10000 0.89 302 10:51 09.06.2022
1024 Clear 31 1012 28 10000 4.63 220 09:42 09.06.2022
1025 Clear 31 1012 27 10000 4.63 220 09:23 09.06.2022
1026 Clear 33 1011 20 10000 6.17 220 07:44 09.06.2022
1027 Clear 35 1008 16 10000 3.6 340 05:46 09.06.2022
1028 Clouds 40 1007 12 10000 2.68 323 01:59 09.06.2022
1029 Clear 40 1009 12 10000 1.79 347 23:34 08.06.2022
1030 Clear 40 1010 13 10000 2.68 265 22:51 08.06.2022
1031 Clear 39 1011 14 10000 2.57 340 22:26 08.06.2022
1032 Clear 39 1011 16 10000 2.06 310 21:49 08.06.2022
1033 Clear 38 1011 18 10000 2.24 287 20:43 08.06.2022
1034 Clear 36 1012 20 10000 4.12 350 19:50 08.06.2022
1035 Clouds 34 1012 22 10000 1.79 24 18:58 08.06.2022
1036 Clouds 34 1012 23 10000 1.34 79 18:40 08.06.2022
1037 Clear 30 1013 30 10000 1.54 160 16:34 08.06.2022
1038 Clear 26 1013 34 10000 4.63 130 15:26 08.06.2022
1039 Clear 25 1013 36 10000 2.06 90 13:36 08.06.2022
1040 Clear 27 1012 32 10000 3.09 180 11:50 08.06.2022
1041 Clear 27 1011 31 10000 3.09 180 11:24 08.06.2022
1042 Clear 29 1011 26 10000 4.12 270 09:47 08.06.2022
1043 Clear 29 1011 24 10000 4.12 270 09:20 08.06.2022
1044 Clear 31 1010 21 10000 2.24 93 07:32 08.06.2022
1045 Clear 34 1009 15 10000 3.09 290 05:22 08.06.2022
1046 Clear 39 1008 12 10000 3.6 330 02:38 08.06.2022
1047 Clear 39 1010 13 10000 5.14 270 23:42 07.06.2022
1048 Clear 39 1010 14 10000 5.14 270 23:24 07.06.2022
1049 Clouds 38 1010 15 10000 3.09 270 22:39 07.06.2022
1050 Clear 38 1011 16 10000 2.68 355 21:52 07.06.2022
1051 Clear 37 1011 17 10000 2.24 281 21:27 07.06.2022
1052 Clouds 37 1012 18 10000 1.79 199 20:46 07.06.2022
1053 Clear 36 1012 18 10000 2.24 276 20:23 07.06.2022
1054 Clear 34 1012 19 10000 1.79 141 18:51 07.06.2022
1055 Clear 32 1012 21 10000 3.09 130 17:54 07.06.2022
1056 Clear 30 1012 24 10000 1.54 100 16:54 07.06.2022
1057 Clear 29 1012 25 10000 1.54 100 16:32 07.06.2022
1058 Clear 26 1012 28 10000 1.54 10 15:40 07.06.2022
1059 Clear 25 1011 30 10000 1.54 10 15:22 07.06.2022
1060 Clear 24 1011 30 10000 5.66 150 14:45 07.06.2022
1061 Clear 23 1010 32 10000 3.6 150 13:46 07.06.2022
1062 Clear 23 1009 32 10000 3.6 150 13:26 07.06.2022
1063 Clear 24 1010 30 10000 2.57 160 11:56 07.06.2022
1064 Clear 26 1010 27 10000 1.54 360 10:57 07.06.2022
1065 Clear 28 1010 24 10000 2.06 350 09:28 07.06.2022
1066 Clear 29 1010 22 10000 3.09 230 08:31 07.06.2022
1067 Clear 31 1010 20 10000 4.12 270 07:19 07.06.2022
1068 Clear 34 1008 16 10000 4.63 280 05:19 07.06.2022
1069 Clear 38 1008 14 10000 5.14 300 01:44 07.06.2022
1070 Clear 38 1008 14 10000 4.63 280 00:20 07.06.2022
1071 Clear 37 1009 14 10000 5.14 290 23:25 06.06.2022
1072 Clouds 37 1009 14 10000 5.66 290 22:37 06.06.2022
1073 Clear 36 1010 15 10000 2.57 330 21:33 06.06.2022
1074 Clear 33 1011 18 10000 1.79 56 19:37 06.06.2022
1075 Clear 33 1012 18 10000 1.79 138 19:19 06.06.2022
1076 Clear 32 1011 19 10000 1.34 233 18:34 06.06.2022
1077 Clear 30 1011 21 10000 3.6 170 17:31 06.06.2022
1078 Clear 27 1011 25 10000 3.6 150 16:21 06.06.2022
1079 Clear 24 1010 27 10000 3.09 150 15:33 06.06.2022
1080 Clear 22 1011 28 10000 4.12 180 14:36 06.06.2022
1081 Clear 22 1010 29 10000 3.09 130 13:27 06.06.2022
1082 Clear 23 1011 29 10000 2.06 100 12:37 06.06.2022
1083 Clear 23 1009 28 10000 0.45 288 11:54 06.06.2022
1084 Clear 25 1010 26 10000 1.54 150 10:46 06.06.2022
1085 Clear 26 1010 24 10000 1.54 80 09:40 06.06.2022
1086 Clear 28 1010 22 10000 3.6 250 08:33 06.06.2022
1087 Clear 29 1010 20 10000 4.12 280 07:28 06.06.2022
1088 Clear 32 1008 14 10000 3.6 280 05:29 06.06.2022
1089 Clear 35 1008 11 10000 4.92 304 03:44 06.06.2022
1090 Clear 37 1008 9 10000 4.63 280 01:23 06.06.2022
1091 Clear 36 1009 9 10000 4.63 290 00:42 06.06.2022
1092 Clear 36 1009 9 10000 4.12 280 23:43 05.06.2022
1093 Clouds 35 1010 10 10000 4.12 280 22:47 05.06.2022
1094 Clouds 33 1011 11 10000 1.79 259 20:57 05.06.2022
1095 Clear 32 1011 13 10000 2.57 310 19:44 05.06.2022
1096 Clear 30 1012 15 10000 0.89 128 18:30 05.06.2022
1097 Clear 30 1012 15 10000 0.89 128 18:30 05.06.2022
1098 Clouds 29 1011 17 10000 0.89 158 17:55 05.06.2022
1099 Clear 28 1012 19 10000 2.57 180 17:26 05.06.2022
1100 Clouds 27 1011 23 10000 1.34 131 16:52 05.06.2022
1101 Clear 26 1011 24 10000 4.63 140 16:34 05.06.2022
1102 Clear 21 1010 32 10000 3.6 140 14:27 05.06.2022
1103 Clear 22 1010 31 10000 1.54 100 12:57 05.06.2022
1104 Clear 23 1010 30 10000 1.54 100 11:47 05.06.2022
1105 Clear 24 1010 27 10000 2.06 120 10:39 05.06.2022
1106 Clear 25 1010 27 10000 2.57 150 10:20 05.06.2022
1107 Clear 27 1011 24 10000 2.57 160 08:34 05.06.2022
1108 Clear 28 1010 22 10000 3.09 250 07:48 05.06.2022
1109 Clear 32 1009 16 10000 6.17 250 05:22 05.06.2022
1110 Clear 34 1009 11 10000 2.68 123 04:19 05.06.2022
1111 Clear 37 1009 8 10000 6.69 260 01:32 05.06.2022
1112 Clear 37 1009 8 10000 6.69 260 01:32 05.06.2022
1113 Clear 37 1009 8 10000 9.26 210 00:39 05.06.2022
1114 Clear 35 1010 10 10000 3.6 230 22:36 04.06.2022
1115 Clear 34 1012 12 10000 2.06 310 20:33 04.06.2022
1116 Clear 31 1013 16 10000 1.34 141 18:45 04.06.2022
1117 Clear 27 1013 22 10000 2.06 120 16:47 04.06.2022
1118 Clear 26 1013 24 10000 3.6 130 16:18 04.06.2022
1119 Clear 22 1013 27 10000 2.57 170 14:53 04.06.2022
1120 Clear 22 1011 26 10000 1.54 140 12:38 04.06.2022
1121 Clear 24 1010 24 10000 2.57 260 11:19 04.06.2022
1122 Clear 24 1010 24 10000 3.6 150 10:44 04.06.2022
1123 Clear 25 1010 22 10000 2.57 160 09:44 04.06.2022
1124 Clear 27 1010 20 10000 0.45 0 08:43 04.06.2022
1125 Clear 29 1010 18 10000 2.57 260 07:41 04.06.2022
1126 Clear 32 1009 13 10000 5.14 250 05:29 04.06.2022
1127 Clear 38 1007 7 10000 6.69 250 01:42 04.06.2022
1128 Clear 38 1008 9 10000 5.66 260 23:59 03.06.2022
1129 Clear 37 1009 11 10000 2.24 346 22:40 03.06.2022
1130 Clouds 36 1010 12 10000 6.17 310 21:39 03.06.2022
1131 Clear 35 1010 14 10000 3.09 150 20:37 03.06.2022
1132 Clear 35 1010 14 10000 3.09 150 20:37 03.06.2022
1133 Clear 32 1011 19 10000 3.09 180 18:41 03.06.2022
1134 Clear 28 1011 22 10000 3.09 120 16:49 03.06.2022
1135 Clear 25 1010 25 10000 4.12 120 15:37 03.06.2022
1136 Clear 22 1011 24 10000 4.12 110 13:28 03.06.2022
1137 Clear 23 1011 22 10000 3.09 80 11:50 03.06.2022
1138 Clear 25 1010 19 10000 0.45 0 09:50 03.06.2022
1139 Clear 25 1010 19 10000 0.45 0 09:50 03.06.2022
1140 Clear 25 1009 18 10000 0.89 317 09:28 03.06.2022
1141 Clear 29 1009 15 10000 4.12 240 07:27 03.06.2022
1142 Clear 30 1010 12 10000 3.6 240 06:44 03.06.2022
1143 Clear 30 1008 12 10000 3.6 240 06:26 03.06.2022
1144 Clear 38 1007 8 10000 4.63 310 01:23 03.06.2022
1145 Clear 38 1009 8 10000 4.12 310 23:31 02.06.2022
1146 Clear 36 1009 9 10000 3.13 266 21:57 02.06.2022
1147 Clear 35 1011 11 10000 1.79 191 20:25 02.06.2022
1148 Clear 34 1011 11 10000 2.06 70 19:52 02.06.2022
1149 Clear 34 1011 11 10000 2.06 70 19:33 02.06.2022
1150 Clear 30 1011 17 10000 0.89 169 17:58 02.06.2022
1151 Clear 25 1011 20 10000 3.09 140 16:28 02.06.2022
1152 Clear 22 1013 21 10000 1.7 116 14:58 02.06.2022
1153 Clear 21 1011 23 10000 4.63 130 13:30 02.06.2022
1154 Clear 21 1011 24 10000 2.57 90 12:42 02.06.2022
1155 Clear 23 1011 20 10000 3.6 190 10:31 02.06.2022
1156 Clear 25 1010 17 10000 3.09 280 09:28 02.06.2022
1157 Clear 26 1010 16 10000 3.6 260 08:29 02.06.2022
1158 Clear 27 1010 15 10000 3.6 240 07:48 02.06.2022
1159 Clear 31 1009 12 10000 4.12 300 05:33 02.06.2022
1160 Clear 35 1008 11 10000 6.17 280 03:48 02.06.2022
1161 Clear 36 1009 10 10000 5.14 280 23:55 01.06.2022
1162 Clear 36 1011 11 10000 3.6 240 22:55 01.06.2022
1163 Clouds 35 1011 12 10000 3.6 210 21:45 01.06.2022
1164 Clouds 34 1011 12 10000 3.6 210 21:20 01.06.2022
1165 Clear 34 1011 13 10000 3.09 290 20:38 01.06.2022
1166 Clear 33 1011 15 10000 2.24 137 19:48 01.06.2022
1167 Clear 29 1011 20 10000 1.34 215 17:57 01.06.2022
1168 Clear 26 1011 24 10000 0.89 178 16:41 01.06.2022
1169 Clear 23 1011 26 10000 3.09 130 15:37 01.06.2022
1170 Clear 20 1010 29 10000 4.12 150 13:57 01.06.2022
1171 Clear 21 1010 28 10000 2.57 120 12:29 01.06.2022
1172 Clear 23 1010 23 10000 3.6 260 10:37 01.06.2022
1173 Clear 25 1010 19 10000 3.6 270 09:25 01.06.2022
1174 Clear 27 1009 14 10000 5.14 270 07:25 01.06.2022
1175 Clear 28 1009 12 10000 3.6 280 06:40 01.06.2022
1176 Clear 35 1006 9 10000 4.02 292 01:29 01.06.2022
1177 Clear 35 1008 10 10000 3.6 290 23:41 31.05.2022
1178 Clouds 34 1008 10 10000 1.79 319 22:37 31.05.2022
1179 Clear 33 1009 10 10000 2.06 40 21:46 31.05.2022
1180 Clear 32 1010 11 10000 2.24 121 20:52 31.05.2022
1181 Clear 31 1010 12 10000 2.06 180 20:31 31.05.2022
1182 Clear 29 1010 14 10000 2.24 198 18:54 31.05.2022
1183 Clear 27 1010 19 10000 2.24 135 17:51 31.05.2022
1184 Clear 26 1010 22 10000 3.09 150 17:20 31.05.2022
1185 Clear 21 1011 30 10000 3.09 130 15:41 31.05.2022
1186 Clear 18 1008 34 10000 2.57 100 14:33 31.05.2022
1187 Clear 19 1008 33 10000 3.09 150 12:22 31.05.2022
1188 Clear 20 1008 30 10000 2.57 160 11:23 31.05.2022
1189 Clear 22 1008 29 10000 2.06 230 09:49 31.05.2022
1190 Clear 25 1008 26 10000 2.24 266 07:36 31.05.2022
1191 Clear 28 1007 21 10000 6.69 280 05:24 31.05.2022
1192 Clear 34 1005 10 10000 6.69 250 01:41 31.05.2022
1193 Clear 33 1006 10 10000 5.81 282 23:29 30.05.2022
1194 Clear 33 1007 10 10000 4.63 280 22:57 30.05.2022
1195 Clear 32 1007 12 10000 4.63 280 22:21 30.05.2022
1196 Clouds 32 1008 12 10000 6.69 230 21:34 30.05.2022
1197 Clear 30 1008 16 10000 3.09 250 20:20 30.05.2022
1198 Clear 28 1008 18 10000 1.79 145 18:41 30.05.2022
1199 Clear 26 1009 21 10000 4.12 150 17:41 30.05.2022
1200 Clear 23 1008 25 10000 4.63 160 16:44 30.05.2022
1201 Clear 18 1008 31 10000 4.63 140 14:51 30.05.2022
1202 Clear 19 1007 29 10000 3.09 170 12:37 30.05.2022
1203 Clear 20 1007 26 10000 3.09 200 10:47 30.05.2022
1204 Clear 22 1007 23 10000 4.12 240 09:39 30.05.2022
1205 Clear 25 1006 21 10000 4.63 260 07:23 30.05.2022
1206 Clear 27 1005 19 10000 6.17 270 05:50 30.05.2022
1207 Clear 32 1003 14 10000 7.72 270 02:24 30.05.2022
1208 Clear 33 1004 12 10000 6.69 300 23:21 29.05.2022
1209 Clouds 32 1004 12 10000 7.72 240 22:38 29.05.2022
1210 Clouds 32 1005 12 10000 7.2 240 21:19 29.05.2022
1211 Clear 31 1005 15 10000 6.69 220 19:38 29.05.2022
1212 Clear 30 1005 14 10000 6.17 250 19:18 29.05.2022
1213 Clear 28 1005 10 10000 6.69 190 17:32 29.05.2022
1214 Clear 23 1005 14 10000 3.09 100 15:49 29.05.2022
1215 Clear 21 1006 15 10000 4.12 90 15:23 29.05.2022
1216 Clear 20 1005 15 10000 4.63 170 14:19 29.05.2022
1217 Clear 21 1005 12 10000 3.09 240 11:48 29.05.2022
1218 Clear 22 1006 10 10000 5.66 180 10:40 29.05.2022
1219 Clear 23 1006 9 10000 5.14 200 09:51 29.05.2022
1220 Clear 28 1007 5 10000 5.14 250 06:51 29.05.2022
1221 Clear 33 1005 3 10000 6.17 230 04:47 29.05.2022
1222 Clear 33 1005 8 10000 6.17 230 04:19 29.05.2022
1223 Clouds 36 1007 4 10000 6.69 260 23:53 28.05.2022
1224 Clouds 37 1008 4 10000 7.2 240 23:34 28.05.2022
1225 Clouds 36 1009 6 10000 6.69 270 22:40 28.05.2022
1226 Clouds 35 1010 8 10000 6.69 260 21:38 28.05.2022
1227 Clear 33 1011 10 10000 7.72 170 19:51 28.05.2022
1228 Clear 32 1012 10 10000 5.66 170 18:58 28.05.2022
1229 Clear 29 1012 11 10000 5.66 180 17:38 28.05.2022
1230 Clear 26 1012 16 10000 4.12 170 16:50 28.05.2022
1231 Clear 24 1012 20 10000 3.6 160 15:43 28.05.2022
1232 Clear 22 1013 21 10000 4.12 130 14:28 28.05.2022
1233 Clear 22 1012 22 10000 4.63 140 13:21 28.05.2022
1234 Clear 22 1012 22 10000 3.6 130 12:39 28.05.2022
1235 Clear 23 1011 21 10000 3.09 140 11:23 28.05.2022
1236 Clear 24 1011 19 10000 2.57 100 10:21 28.05.2022
1237 Clear 26 1012 17 10000 2.24 294 09:22 28.05.2022
1238 Clear 29 1012 15 10000 3.6 300 07:23 28.05.2022
1239 Clear 32 1009 12 10000 5.14 240 05:48 28.05.2022
1240 Clear 38 1009 9 10000 5.14 190 02:52 28.05.2022
1241 Clear 39 1011 11 10000 4.92 228 00:33 28.05.2022
1242 Clear 38 1012 12 10000 3.6 280 23:32 27.05.2022
1243 Clear 37 1014 13 10000 2.68 172 21:50 27.05.2022
1244 Clear 36 1015 14 10000 2.24 277 20:56 27.05.2022
1245 Clear 35 1015 15 10000 3.09 120 20:25 27.05.2022
1246 Clear 35 1015 16 10000 1.79 341 19:48 27.05.2022
1247 Clear 34 1015 17 10000 2.24 101 19:29 27.05.2022
1248 Clear 32 1016 19 10000 2.57 110 18:24 27.05.2022
1249 Clear 28 1016 25 10000 3.09 140 16:40 27.05.2022
1250 Clear 24 1016 29 10000 3.6 140 15:33 27.05.2022
1251 Clear 22 1015 31 10000 3.09 140 14:26 27.05.2022
1252 Clear 22 1015 30 10000 3.6 130 13:23 27.05.2022
1253 Clear 24 1014 28 10000 2.57 150 11:34 27.05.2022
1254 Clear 25 1014 26 10000 1.79 288 10:57 27.05.2022
1255 Clear 25 1014 26 10000 1.79 282 10:31 27.05.2022
1256 Clear 27 1014 24 10000 3.09 150 09:37 27.05.2022
1257 Clear 29 1014 20 10000 5.66 270 07:55 27.05.2022
1258 Clear 32 1012 14 10000 3.09 290 05:44 27.05.2022
1259 Clear 38 1011 9 10000 3.6 300 02:47 27.05.2022
1260 Clear 39 1011 8 10000 5.14 270 00:29 27.05.2022
1261 Clouds 38 1013 9 10000 2.06 330 22:43 26.05.2022
1262 Clear 37 1014 10 10000 2.24 261 21:40 26.05.2022
1263 Clear 36 1014 11 10000 1.34 291 20:53 26.05.2022
1264 Clear 33 1015 15 10000 2.24 164 19:19 26.05.2022
1265 Clear 31 1015 17 10000 2.06 0 18:18 26.05.2022
1266 Clear 27 1015 22 10000 3.6 150 16:42 26.05.2022
1267 Clear 24 1009 24 10000 1.57 144 15:45 26.05.2022
1268 Clear 22 1013 26 10000 3.6 140 14:43 26.05.2022
1269 Clear 21 1013 25 10000 2.57 140 12:37 26.05.2022
1270 Clear 23 1013 23 10000 2.57 120 11:23 26.05.2022
1271 Clear 24 1012 20 10000 3.09 200 09:44 26.05.2022
1272 Clear 25 1012 19 10000 3.09 200 09:26 26.05.2022
1273 Clear 26 1012 16 10000 3.09 200 08:30 26.05.2022
1274 Clear 32 1011 10 10000 4.63 340 04:41 26.05.2022
1275 Clear 36 1011 8 10000 4.47 296 00:38 26.05.2022
1276 Clear 36 1011 8 10000 4.12 260 23:40 25.05.2022
1277 Clear 35 1012 9 10000 3.13 325 21:56 25.05.2022
1278 Clear 34 1012 9 10000 3.13 279 21:31 25.05.2022
1279 Clear 33 1013 13 10000 4.12 300 20:35 25.05.2022
1280 Clear 31 1014 17 10000 5.14 310 19:21 25.05.2022
1281 Clear 28 1013 22 10000 2.24 151 17:40 25.05.2022
1282 Clouds 25 1013 23 10000 0.89 0 16:37 25.05.2022
1283 Clouds 24 1011 26 10000 0.85 145 15:54 25.05.2022
1284 Clear 20 1014 28 10000 3.6 140 14:51 25.05.2022
1285 Clear 19 1014 29 10000 3.6 140 14:32 25.05.2022
1286 Clear 19 1012 27 10000 4.12 140 13:45 25.05.2022
1287 Clear 20 1011 24 10000 3.09 120 12:37 25.05.2022
1288 Clear 21 1011 20 10000 3.09 140 10:43 25.05.2022
1289 Clear 22 1011 18 10000 2.57 150 09:54 25.05.2022
1290 Clear 23 1011 15 10000 2.24 202 08:37 25.05.2022
1291 Clouds 24 1010 14 10000 0.89 140 07:23 25.05.2022
1292 Clear 31 1009 8 10000 6.69 290 03:34 25.05.2022
1293 Clear 33 1009 8 10000 7.2 300 23:56 24.05.2022
1294 Clear 33 1009 9 10000 7.2 300 23:31 24.05.2022
1295 Clear 32 1010 10 10000 6.26 256 22:21 24.05.2022
1296 Clear 32 1010 11 10000 6.69 320 21:40 24.05.2022
1297 Clear 31 1010 12 10000 6.69 320 21:20 24.05.2022
1298 Clear 30 1011 15 10000 2.68 278 19:45 24.05.2022
1299 Clear 28 1011 17 10000 2.68 277 18:54 24.05.2022
1300 Clear 24 1011 23 10000 3.6 140 16:45 24.05.2022
1301 Clear 23 1011 25 10000 3.6 140 16:22 24.05.2022
1302 Clear 19 1011 32 10000 4.12 120 14:56 24.05.2022
1303 Clear 19 1011 33 10000 4.12 120 14:20 24.05.2022
1304 Haze 20 1010 32 9656 4.12 100 12:49 24.05.2022
1305 Clear 21 1010 31 10000 2.06 10 11:26 24.05.2022
1306 Clear 23 1010 29 10000 3.6 200 09:44 24.05.2022
1307 Clear 24 1010 27 10000 3.6 260 08:50 24.05.2022
1308 Clear 26 1009 19 10000 5.14 280 06:57 24.05.2022
1309 Clear 30 1008 11 10000 6.17 270 04:20 24.05.2022
1310 Clear 33 1007 9 10000 5.36 274 01:55 24.05.2022
1311 Clear 34 1008 9 10000 6.26 275 01:36 24.05.2022
1312 Clear 34 1009 10 10000 8.23 260 23:31 23.05.2022
1313 Clear 33 1010 12 10000 5.14 250 21:56 23.05.2022
1314 Clear 32 1011 12 10000 5.14 250 21:29 23.05.2022
1315 Clear 32 1012 13 10000 4.63 240 20:35 23.05.2022
1316 Clear 30 1013 17 10000 3.13 141 19:32 23.05.2022
1317 Clouds 29 1013 19 10000 1.79 194 18:58 23.05.2022
1318 Clear 28 1014 21 10000 1.54 0 18:30 23.05.2022
1319 Clear 26 1013 25 10000 3.6 140 17:20 23.05.2022
1320 Clear 20 1013 32 10000 3.6 120 15:31 23.05.2022
1321 Clear 19 1013 32 10000 2.57 110 13:22 23.05.2022
1322 Clear 20 1013 29 10000 3.09 110 11:33 23.05.2022
1323 Clear 21 1013 27 10000 0.45 0 10:31 23.05.2022
1324 Clear 23 1014 25 10000 2.57 220 09:39 23.05.2022
1325 Clear 24 1014 23 10000 3.6 270 08:32 23.05.2022
1326 Clear 27 1013 20 10000 4.12 280 06:46 23.05.2022
1327 Clear 29 1013 17 10000 6.17 270 05:39 23.05.2022
1328 Clear 34 1011 10 10000 4.02 63 02:34 23.05.2022
1329 Clear 35 1011 9 10000 3.6 220 01:39 23.05.2022
1330 Clear 35 1012 10 10000 4.63 280 00:23 23.05.2022
1331 Clouds 33 1013 11 10000 2.24 276 22:40 22.05.2022
1332 Clear 32 1014 12 10000 4.12 300 21:55 22.05.2022
1333 Clear 32 1014 13 10000 4.12 300 21:32 22.05.2022
1334 Clear 31 1015 14 10000 1.79 204 20:32 22.05.2022
1335 Clouds 31 1015 15 10000 3.09 150 19:56 22.05.2022
1336 Clear 29 1015 19 10000 3.6 130 18:55 22.05.2022
1337 Clear 28 1015 23 10000 3.6 130 18:25 22.05.2022
1338 Clouds 26 1016 29 10000 3.6 140 17:34 22.05.2022
1339 Clear 23 1015 34 10000 4.63 140 16:36 22.05.2022
1340 Clear 19 1016 44 10000 4.63 90 14:49 22.05.2022
1341 Clear 19 1015 45 10000 2.06 120 13:54 22.05.2022
1342 Clouds 20 1015 44 10000 2.57 80 12:52 22.05.2022
1343 Clear 20 1015 43 10000 1.54 90 11:47 22.05.2022
1344 Clear 23 1015 37 10000 3.09 240 09:45 22.05.2022
1345 Clear 24 1015 36 10000 2.68 143 08:54 22.05.2022
1346 Clear 26 1014 32 10000 3.09 280 07:22 22.05.2022
1347 Clear 27 1014 29 10000 5.14 260 06:24 22.05.2022
1348 Clear 34 1011 10 10000 7.2 280 02:33 22.05.2022
1349 Clear 34 1010 8 10000 5.66 200 00:44 22.05.2022
1350 Clear 34 1010 8 10000 5.66 200 00:44 22.05.2022
1351 Clear 34 1011 9 10000 5.66 220 23:55 21.05.2022
1352 Clear 34 1011 10 10000 5.66 220 23:21 21.05.2022
1353 Clear 32 1012 11 10000 4.12 230 21:45 21.05.2022
1354 Clear 32 1012 12 10000 3.6 240 21:25 21.05.2022
1355 Haze 30 1012 14 8047 2.68 325 20:25 21.05.2022
1356 Haze 29 1013 16 8047 5.14 170 19:37 21.05.2022
1357 Clear 26 1013 20 10000 4.47 169 17:57 21.05.2022
1358 Clear 25 1013 24 10000 2.68 168 16:53 21.05.2022
1359 Clear 20 1012 35 10000 3.09 140 14:38 21.05.2022
1360 Clear 20 1011 34 10000 3.13 187 13:53 21.05.2022
1361 Clear 21 1010 32 10000 2.24 179 12:57 21.05.2022
1362 Clear 21 1010 32 10000 2.24 130 12:37 21.05.2022
1363 Haze 23 1011 26 6437 3.6 190 10:44 21.05.2022
1364 Clear 23 1009 25 10000 4.63 190 09:48 21.05.2022
1365 Clear 24 1008 26 10000 3.09 200 08:58 21.05.2022
1366 Clear 24 1010 26 10000 6.17 210 08:33 21.05.2022
1367 Clear 30 1008 22 10000 3.58 276 04:33 21.05.2022
1368 Clear 34 1005 12 10000 8.23 170 00:58 21.05.2022
1369 Clear 34 1005 11 10000 7.72 230 23:22 20.05.2022
1370 Clear 33 1006 11 10000 8.23 220 22:24 20.05.2022
1371 Clear 33 1006 12 10000 8.75 190 21:47 20.05.2022
1372 Clear 32 1007 12 10000 7.72 190 20:57 20.05.2022
1373 Clear 31 1007 13 10000 8.23 200 20:29 20.05.2022
1374 Clear 30 1007 13 10000 6.17 170 19:27 20.05.2022
1375 Clear 29 1008 13 10000 9.77 190 18:47 20.05.2022
1376 Clear 26 1007 16 10000 7.72 190 17:37 20.05.2022
1377 Clear 23 1006 25 10000 4.12 130 16:20 20.05.2022
1378 Clear 22 1007 25 10000 3.6 100 15:53 20.05.2022
1379 Clear 20 1006 30 10000 3.09 100 14:31 20.05.2022
1380 Clear 20 1006 30 10000 1.54 100 13:55 20.05.2022
1381 Clear 21 1007 24 10000 6.17 160 11:38 20.05.2022
1382 Clear 22 1008 24 10000 3.09 180 10:19 20.05.2022
1383 Clear 24 1007 24 10000 2.06 190 08:45 20.05.2022
1384 Clear 26 1008 21 10000 2.57 260 07:18 20.05.2022
1385 Clear 27 1008 21 10000 4.63 270 06:32 20.05.2022
1386 Clear 29 1007 18 10000 6.71 273 04:59 20.05.2022
1387 Clear 35 1007 6 10000 6.69 220 00:54 20.05.2022
1388 Clear 34 1010 8 10000 3.6 320 22:48 19.05.2022
1389 Clear 34 1010 9 10000 3.6 320 22:20 19.05.2022
1390 Clear 34 1011 10 10000 6.17 260 21:48 19.05.2022
1391 Clear 33 1012 11 10000 2.24 246 21:22 19.05.2022
1392 Clear 33 1012 13 10000 1.54 160 20:34 19.05.2022
1393 Clear 32 1012 14 10000 3.13 144 19:50 19.05.2022
1394 Clear 29 1013 24 10000 3.6 160 18:22 19.05.2022
1395 Clear 25 1014 30 10000 2.68 113 16:51 19.05.2022
1396 Clear 20 1013 39 10000 3.6 160 15:19 19.05.2022
1397 Clear 19 1013 41 10000 3.6 150 14:25 19.05.2022
1398 Clear 20 1014 39 10000 3.09 140 13:23 19.05.2022
1399 Clear 22 1013 34 10000 2.06 190 11:29 19.05.2022
1400 Clear 25 1014 31 10000 2.24 262 09:28 19.05.2022
1401 Clear 27 1014 28 10000 4.63 310 07:50 19.05.2022
1402 Clear 28 1013 16 10000 5.14 250 06:18 19.05.2022
1403 Clear 35 1012 7 10000 6.17 250 02:23 19.05.2022
1404 Clear 36 1014 7 10000 4.63 190 23:57 18.05.2022
1405 Clear 35 1015 7 10000 4.12 220 22:47 18.05.2022
1406 Clear 34 1016 7 10000 4.12 270 21:51 18.05.2022
1407 Clear 34 1016 7 10000 4.12 270 21:29 18.05.2022
1408 Clear 33 1015 8 10000 3.6 190 20:47 18.05.2022
1409 Clear 33 1016 8 10000 3.6 190 20:18 18.05.2022
1410 Clear 30 1014 15 10000 3.6 140 18:33 18.05.2022
1411 Clear 28 1016 20 10000 3.6 120 17:41 18.05.2022
1412 Clear 28 1016 22 10000 3.6 120 17:23 18.05.2022
1413 Clear 25 1016 26 10000 4.12 140 16:34 18.05.2022
1414 Clear 23 1016 30 10000 4.12 120 15:41 18.05.2022
1415 Clear 20 1016 32 10000 3.6 120 14:35 18.05.2022
1416 Clear 20 1016 32 10000 3.6 130 13:35 18.05.2022
1417 Clear 21 1015 31 10000 3.09 130 12:43 18.05.2022
1418 Clear 23 1014 29 10000 3.09 190 11:34 18.05.2022
1419 Clear 23 1014 28 10000 3.6 160 10:56 18.05.2022
1420 Clear 23 1014 28 10000 3.6 160 10:56 18.05.2022
1421 Clear 25 1014 26 10000 0.89 258 09:31 18.05.2022
1422 Clear 27 1014 23 10000 2.57 260 07:36 18.05.2022
1423 Clear 30 1012 15 10000 2.68 241 05:56 18.05.2022
1424 Clear 37 1011 6 10000 4.12 230 01:22 18.05.2022
1425 Clear 36 1012 6 10000 2.57 260 00:22 18.05.2022
1426 Clear 35 1013 7 10000 1.79 252 21:56 17.05.2022
1427 Clear 34 1014 7 10000 3.09 140 21:20 17.05.2022
1428 Clear 32 1014 8 10000 2.68 165 19:59 17.05.2022
1429 Clear 32 1015 9 10000 4.63 180 19:27 17.05.2022
1430 Clear 29 1014 12 10000 2.68 184 17:51 17.05.2022
1431 Clear 27 1014 14 10000 4.12 150 16:59 17.05.2022
1432 Clear 25 1014 17 10000 4.12 150 16:29 17.05.2022
1433 Clear 21 1013 19 10000 4.12 140 15:25 17.05.2022
1434 Clear 20 1013 18 10000 4.63 130 14:30 17.05.2022
1435 Clear 21 1013 16 10000 3.6 120 13:34 17.05.2022
1436 Clear 22 1012 16 10000 3.6 180 11:43 17.05.2022
1437 Clear 24 1012 15 10000 3.6 140 09:27 17.05.2022
1438 Clear 25 1012 14 10000 1.54 180 08:25 17.05.2022
1439 Clear 29 1011 11 10000 4.12 270 06:46 17.05.2022
1440 Clear 36 1009 5 10000 5.14 210 03:20 17.05.2022
1441 Clear 37 1009 5 10000 2.24 118 00:36 17.05.2022
1442 Clear 36 1011 5 10000 2.57 340 22:42 16.05.2022
1443 Clear 36 1012 6 10000 2.68 284 21:41 16.05.2022
1444 Clear 35 1013 6 10000 1.79 194 20:47 16.05.2022
1445 Clear 33 1013 7 10000 0.89 159 19:43 16.05.2022
1446 Clear 31 1013 9 10000 1.34 118 18:20 16.05.2022
1447 Clear 24 1011 13 10000 3.09 150 15:49 16.05.2022
1448 Clear 20 1011 15 10000 4.12 140 13:49 16.05.2022
1449 Clear 21 1011 13 10000 4.12 140 13:20 16.05.2022
1450 Clear 23 1011 12 10000 0.89 65 10:53 16.05.2022
1451 Clear 24 1013 11 10000 2.06 70 09:23 16.05.2022
1452 Clear 29 1012 8 10000 3.6 240 06:47 16.05.2022
1453 Clear 37 1010 4 10000 6.26 290 03:31 16.05.2022
1454 Clear 39 1011 8 10000 2.24 257 23:26 15.05.2022
1455 Clear 39 1012 4 10000 2.24 338 22:29 15.05.2022
1456 Clear 38 1012 3 10000 2.06 0 21:44 15.05.2022
1457 Clouds 37 1012 4 10000 2.68 269 20:54 15.05.2022
1458 Clear 34 1014 6 10000 2.57 230 19:28 15.05.2022
1459 Clear 29 1014 10 10000 2.57 180 17:51 15.05.2022
1460 Clouds 25 1012 10 10000 1.56 142 15:56 15.05.2022
1461 Clear 20 1014 13 10000 4.63 130 13:50 15.05.2022
1462 Clear 21 1015 12 10000 3.6 170 12:23 15.05.2022
1463 Clear 21 1015 12 10000 4.12 140 11:38 15.05.2022
1464 Clear 21 1015 12 10000 4.12 140 11:38 15.05.2022
1465 Clear 23 1013 11 10000 4.12 140 10:23 15.05.2022
1466 Clear 26 1013 10 10000 3.09 260 07:46 15.05.2022
1467 Clear 27 1012 9 10000 3.09 290 06:57 15.05.2022
1468 Haze 33 1011 6 8047 6.17 290 04:44 15.05.2022
1469 Clear 38 1012 6 10000 2.57 0 00:48 15.05.2022
1470 Clear 37 1013 4 10000 2.57 250 23:38 14.05.2022
1471 Clear 37 1014 4 10000 1.79 273 22:45 14.05.2022
1472 Clear 35 1015 5 10000 1.34 45 21:27 14.05.2022
1473 Clear 34 1016 6 10000 1.54 0 20:44 14.05.2022
1474 Clear 31 1016 7 10000 0.89 198 19:21 14.05.2022
1475 Clear 31 1016 7 10000 0.89 339 19:21 14.05.2022
1476 Clear 30 1016 8 10000 0.89 134 18:59 14.05.2022
1477 Clear 27 1016 10 10000 0.89 153 17:56 14.05.2022
1478 Clear 24 1016 15 10000 4.12 150 16:37 14.05.2022
1479 Clear 19 1013 21 10000 0.45 219 14:58 14.05.2022
1480 Clear 17 1015 22 10000 3.09 140 14:30 14.05.2022
1481 Clear 18 1016 14 10000 3.6 150 12:23 14.05.2022
1482 Clear 19 1013 20 10000 4.12 160 10:53 14.05.2022
1483 Clear 19 1015 14 10000 4.12 160 10:20 14.05.2022
1484 Clear 20 1015 14 10000 3.6 160 09:51 14.05.2022
1485 Clear 21 1014 12 10000 2.57 200 08:22 14.05.2022
1486 Clear 27 1013 10 10000 5.14 290 05:26 14.05.2022
1487 Clear 34 1013 4 10000 4.63 290 01:58 14.05.2022
1488 Clear 33 1014 7 10000 2.57 340 23:32 13.05.2022
1489 Clear 33 1015 4 10000 4.02 294 22:57 13.05.2022
1490 Clear 32 1015 4 10000 3.6 350 22:23 13.05.2022
1491 Clear 31 1016 4 10000 3.09 280 21:35 13.05.2022
1492 Clouds 30 1016 8 10000 1.79 282 20:43 13.05.2022
1493 Clear 29 1016 6 10000 1.34 218 20:23 13.05.2022
1494 Clouds 26 1017 7 10000 1.54 360 19:21 13.05.2022
1495 Clear 22 1017 10 10000 0.89 0 17:50 13.05.2022
1496 Clear 21 1017 11 10000 2.06 180 17:24 13.05.2022
1497 Clear 15 1017 11 10000 3.6 140 15:53 13.05.2022
1498 Clear 13 1016 12 10000 1.54 130 14:50 13.05.2022
1499 Clear 14 1016 14 10000 2.57 110 12:58 13.05.2022
1500 Clear 14 1017 14 10000 3.09 140 12:25 13.05.2022
1501 Clear 15 1016 15 10000 3.6 130 10:35 13.05.2022
1502 Clear 16 1016 13 10000 2.57 160 09:29 13.05.2022
1503 Clear 18 1017 12 10000 3.09 230 08:20 13.05.2022
1504 Clear 19 1016 12 10000 4.63 250 07:30 13.05.2022
1505 Clear 21 1015 9 10000 3.09 290 05:58 13.05.2022
1506 Clear 29 1015 5 10000 5.66 310 01:49 13.05.2022
1507 Clear 29 1016 5 10000 5.14 280 23:43 12.05.2022
1508 Clear 28 1017 6 10000 3.09 240 22:42 12.05.2022
1509 Clear 27 1018 7 10000 3.09 290 21:36 12.05.2022
1510 Clear 25 1019 9 10000 1.54 310 20:22 12.05.2022
1511 Clear 21 1019 11 10000 2.06 330 18:30 12.05.2022
1512 Clear 17 1019 14 10000 2.06 290 16:52 12.05.2022
1513 Clear 13 1019 18 10000 2.57 160 15:30 12.05.2022
1514 Clear 13 1018 17 10000 3.6 170 13:58 12.05.2022
1515 Clear 15 1018 14 10000 4.63 260 12:46 12.05.2022
1516 Clear 18 1017 11 10000 4.63 270 10:34 12.05.2022
1517 Clear 20 1017 11 10000 5.66 280 08:58 12.05.2022
1518 Clear 20 1017 11 10000 5.66 280 08:37 12.05.2022
1519 Clear 21 1016 12 10000 4.92 330 07:36 12.05.2022
1520 Clouds 26 1014 14 10000 5.36 299 04:50 12.05.2022
1521 Clear 32 1012 11 10000 7.2 210 01:55 12.05.2022
1522 Clear 33 1013 10 10000 8.75 250 23:42 11.05.2022
1523 Clouds 32 1013 10 10000 5.14 270 22:22 11.05.2022
1524 Clouds 32 1013 12 10000 2.24 314 21:27 11.05.2022
1525 Clear 31 1014 13 10000 3.6 250 20:45 11.05.2022
1526 Clouds 24 1014 19 10000 1.34 121 17:54 11.05.2022
1527 Clouds 22 1014 23 10000 1.91 161 16:47 11.05.2022
1528 Clear 16 1014 26 10000 3.6 130 14:49 11.05.2022
1529 Clear 16 1012 28 10000 3.6 130 14:25 11.05.2022
1530 Clear 16 1012 27 10000 3.09 130 13:37 11.05.2022
1531 Clear 18 1013 25 10000 3.09 140 11:48 11.05.2022
1532 Clear 20 1014 22 10000 2.06 270 09:34 11.05.2022
1533 Clear 24 1015 17 10000 1.34 290 06:59 11.05.2022
1534 Clear 31 1011 10 10000 6.17 230 03:38 11.05.2022
1535 Clear 33 1013 11 10000 5.66 240 23:45 10.05.2022
1536 Clear 32 1014 12 10000 5.66 300 22:30 10.05.2022
1537 Clear 31 1014 14 10000 2.68 284 21:43 10.05.2022
1538 Clear 30 1015 15 10000 3.09 310 20:48 10.05.2022
1539 Clear 28 1015 18 10000 2.57 0 19:18 10.05.2022
1540 Clear 24 1015 24 10000 1.34 168 17:43 10.05.2022
1541 Clear 21 1015 29 10000 3.6 150 16:39 10.05.2022
1542 Clear 16 1014 31 10000 3.6 140 13:54 10.05.2022
1543 Clear 17 1013 28 10000 2.06 110 12:30 10.05.2022
1544 Clear 17 1012 28 10000 2.06 200 11:42 10.05.2022
1545 Clear 18 1013 28 10000 3.09 140 10:57 10.05.2022
1546 Clear 20 1013 23 10000 1.54 250 09:52 10.05.2022
1547 Clear 22 1013 20 10000 2.06 230 08:22 10.05.2022
1548 Clear 25 1012 25 10000 5.66 260 06:21 10.05.2022
1549 Clear 32 1009 11 10000 7.72 250 02:31 10.05.2022
1550 Clear 32 1009 12 10000 5.14 220 23:55 09.05.2022
1551 Clear 32 1010 13 10000 5.81 104 22:41 09.05.2022
1552 Clear 31 1011 14 10000 4.12 230 21:42 09.05.2022
1553 Clear 29 1011 15 10000 3.6 230 20:21 09.05.2022
1554 Clear 26 1012 17 10000 6.17 170 18:29 09.05.2022
1555 Clear 24 1012 18 10000 5.14 180 17:27 09.05.2022
1556 Clear 21 1011 23 10000 3.6 130 16:19 09.05.2022
1557 Clear 20 1010 24 10000 2.57 100 15:47 09.05.2022
1558 Clear 17 1010 26 10000 2.06 60 14:37 09.05.2022
1559 Clear 17 1010 27 10000 1.34 142 13:59 09.05.2022
1560 Clear 17 1009 26 10000 3.09 120 13:23 09.05.2022
1561 Clear 18 1008 24 10000 5.66 210 11:53 09.05.2022
1562 Clear 19 1009 21 10000 5.66 180 10:48 09.05.2022
1563 Clear 20 1009 21 10000 5.66 180 10:26 09.05.2022
1564 Clear 22 1009 14 10000 2.24 229 07:57 09.05.2022
1565 Clear 26 1009 10 10000 1.34 0 05:59 09.05.2022
1566 Clear 32 1005 8 10000 6.69 210 01:59 09.05.2022
1567 Clear 33 1006 12 10000 8.75 220 23:29 08.05.2022
1568 Clear 33 1007 14 10000 9.26 250 22:32 08.05.2022
1569 Clear 33 1007 13 10000 8.75 230 21:24 08.05.2022
1570 Clouds 32 1008 13 10000 8.23 260 20:25 08.05.2022
1571 Clear 31 1008 14 10000 9.26 210 19:33 08.05.2022
1572 Clear 29 1009 13 10000 6.17 200 18:38 08.05.2022
1573 Clear 27 1009 13 10000 3.6 140 17:40 08.05.2022
1574 Clear 24 1010 15 10000 4.12 150 16:22 08.05.2022
1575 Clear 21 1009 18 10000 2.57 90 15:22 08.05.2022
1576 Clear 21 1008 17 10000 6.69 190 12:49 08.05.2022
1577 Clear 22 1008 18 10000 2.57 150 11:45 08.05.2022
1578 Clear 23 1008 17 10000 6.17 140 10:25 08.05.2022
1579 Clear 23 1009 15 10000 5.14 130 09:53 08.05.2022
1580 Clear 25 1010 12 10000 2.57 220 07:44 08.05.2022
1581 Clear 28 1008 10 10000 3.6 220 05:57 08.05.2022
1582 Clear 34 1007 6 10000 8.23 240 03:22 08.05.2022
1583 Clear 36 1008 6 10000 7.72 240 00:48 08.05.2022
1584 Clear 36 1009 5 10000 4.47 50 23:56 07.05.2022
1585 Clear 36 1009 5 10000 4.92 256 23:28 07.05.2022
1586 Clear 36 1010 5 10000 6.17 250 22:35 07.05.2022
1587 Clear 35 1011 6 10000 4.02 103 21:56 07.05.2022
1588 Clear 34 1011 6 10000 3.58 282 21:21 07.05.2022
1589 Clear 33 1012 7 10000 2.57 310 20:23 07.05.2022
1590 Clear 30 1013 9 10000 2.06 200 18:41 07.05.2022
1591 Clear 23 1013 19 10000 4.12 140 16:24 07.05.2022
1592 Clear 20 1011 21 10000 3.09 120 14:53 07.05.2022
1593 Clear 21 1012 18 10000 3.6 130 11:23 07.05.2022
1594 Clear 23 1014 16 10000 2.57 120 09:42 07.05.2022
1595 Clear 24 1013 14 10000 2.06 170 08:30 07.05.2022
1596 Clear 26 1013 12 10000 2.06 250 06:44 07.05.2022
1597 Clear 27 1012 11 10000 2.06 250 06:24 07.05.2022
1598 Clear 33 1011 7 10000 5.66 300 03:57 07.05.2022
1599 Clear 35 1013 6 10000 2.57 300 23:44 06.05.2022
1600 Clear 34 1015 7 10000 4.12 280 22:35 06.05.2022
1601 Clear 34 1015 7 10000 2.24 302 21:52 06.05.2022
1602 Clear 33 1015 7 10000 2.06 0 21:24 06.05.2022
1603 Clear 31 1016 9 10000 2.24 320 19:43 06.05.2022
1604 Clear 30 1016 10 10000 1.54 240 19:21 06.05.2022
1605 Clear 28 1016 11 10000 2.06 160 18:29 06.05.2022
1606 Clear 25 1016 14 10000 4.12 170 17:34 06.05.2022
1607 Clear 20 1016 15 10000 4.63 150 15:51 06.05.2022
1608 Clear 18 1017 16 10000 1.71 120 14:58 06.05.2022
1609 Clear 18 1017 18 10000 2.57 170 13:38 06.05.2022
1610 Clear 18 1014 18 10000 3.09 150 12:42 06.05.2022
1611 Clear 19 1014 17 10000 0.89 92 11:58 06.05.2022
1612 Clear 19 1015 16 10000 3.09 170 10:41 06.05.2022
1613 Clear 20 1015 15 10000 4.12 180 09:47 06.05.2022
1614 Clear 21 1014 15 10000 1.79 0 08:59 06.05.2022
1615 Clear 23 1014 12 10000 2.57 230 07:27 06.05.2022
1616 Clear 25 1014 10 10000 3.09 300 06:24 06.05.2022
1617 Clear 32 1013 6 10000 3.58 348 02:54 06.05.2022
1618 Clear 33 1013 6 10000 2.24 275 01:57 06.05.2022
1619 Clear 32 1017 6 10000 3.6 360 22:48 05.05.2022
1620 Clear 31 1015 7 10000 2.24 246 21:45 05.05.2022
1621 Clear 30 1016 8 10000 2.24 255 20:27 05.05.2022
1622 Clear 27 1016 12 10000 1.79 179 18:36 05.05.2022
1623 Clear 22 1016 18 10000 5.14 140 16:40 05.05.2022
1624 Clear 16 1014 20 10000 1.77 123 14:53 05.05.2022
1625 Clear 17 1016 21 10000 4.63 140 13:25 05.05.2022
1626 Clear 16 1015 21 10000 3.6 140 12:54 05.05.2022
1627 Clear 17 1014 20 10000 3.09 160 10:53 05.05.2022
1628 Clear 18 1015 20 10000 2.57 170 09:40 05.05.2022
1629 Clear 21 1014 17 10000 3.09 280 07:45 05.05.2022
1630 Clear 24 1012 13 10000 4.63 310 05:42 05.05.2022
1631 Clear 30 1011 9 10000 6.17 320 01:59 05.05.2022
1632 Clear 30 1011 9 10000 7.72 330 01:32 05.05.2022
1633 Clear 30 1011 10 10000 4.63 240 23:53 04.05.2022
1634 Clear 30 1012 12 10000 5.14 290 22:46 04.05.2022
1635 Clear 29 1012 14 10000 3.6 240 21:50 04.05.2022
1636 Clear 29 1012 15 10000 3.6 240 21:29 04.05.2022
1637 Clouds 27 1013 18 10000 2.24 315 20:27 04.05.2022
1638 Clear 27 1013 20 10000 1.34 289 19:53 04.05.2022
1639 Clear 26 1013 21 10000 2.24 305 19:18 04.05.2022
1640 Clear 24 1013 27 10000 1.54 310 18:22 04.05.2022
1641 Clear 23 1013 29 10000 1.34 114 17:51 04.05.2022
1642 Clear 17 1012 40 10000 2.57 130 15:42 04.05.2022
1643 Clear 15 1013 43 10000 2.57 130 15:23 04.05.2022
1644 Clear 15 1011 44 10000 3.09 130 14:21 04.05.2022
1645 Clear 15 1011 44 10000 3.09 140 13:49 04.05.2022
1646 Clear 15 1013 41 10000 2.06 100 12:33 04.05.2022
1647 Clear 17 1011 36 10000 1.54 120 10:43 04.05.2022
1648 Clear 18 1012 33 10000 2.57 220 09:44 04.05.2022
1649 Clear 20 1012 31 10000 2.06 170 08:47 04.05.2022
1650 Clear 22 1011 24 10000 3.09 260 06:49 04.05.2022
1651 Clear 28 1009 12 10000 7.72 210 02:59 04.05.2022
1652 Clouds 31 1009 10 10000 5.66 230 00:48 04.05.2022
1653 Clouds 31 1010 11 10000 8.23 190 22:40 03.05.2022
1654 Clouds 30 1010 14 10000 6.69 190 21:46 03.05.2022
1655 Clouds 29 1011 16 10000 6.17 220 20:56 03.05.2022
1656 Clear 29 1011 17 10000 3.6 210 20:30 03.05.2022
1657 Clear 27 1013 22 10000 2.57 130 18:54 03.05.2022
1658 Clear 26 1012 25 10000 2.68 115 18:21 03.05.2022
1659 Clear 24 1013 30 10000 3.09 150 17:19 03.05.2022
1660 Clear 20 1013 35 10000 4.63 110 15:43 03.05.2022
1661 Clear 19 1012 34 10000 2.57 130 13:28 03.05.2022
1662 Clear 19 1012 33 10000 2.57 110 12:27 03.05.2022
1663 Clouds 20 1012 33 10000 0.45 0 10:58 03.05.2022
1664 Clear 21 1012 30 10000 2.06 160 09:46 03.05.2022
1665 Clear 23 1011 25 10000 2.57 190 07:58 03.05.2022
1666 Clear 25 1010 21 10000 2.06 220 06:45 03.05.2022
1667 Clear 32 1009 10 10000 6.69 290 01:52 03.05.2022
1668 Clear 31 1012 11 10000 2.57 260 22:44 02.05.2022
1669 Clear 30 1012 12 10000 2.68 268 21:55 02.05.2022
1670 Clear 29 1013 13 10000 3.6 290 21:23 02.05.2022
1671 Clear 26 1014 17 10000 3.6 160 18:46 02.05.2022
1672 Clear 25 1014 18 10000 3.6 160 18:25 02.05.2022
1673 Clear 24 1014 20 10000 4.12 110 17:37 02.05.2022
1674 Clear 21 1014 27 10000 3.6 140 16:24 02.05.2022
1675 Clear 18 1014 29 10000 4.12 150 15:37 02.05.2022
1676 Clear 17 1013 31 10000 0.89 91 13:58 02.05.2022
1677 Clear 19 1012 29 10000 2.06 150 12:27 02.05.2022
1678 Clear 20 1012 26 10000 2.57 240 10:52 02.05.2022
1679 Clear 21 1012 22 10000 2.57 240 09:31 02.05.2022
1680 Clear 23 1011 18 10000 3.09 220 07:57 02.05.2022
1681 Clear 28 1008 11 10000 5.66 210 04:44 02.05.2022
1682 Clear 34 1007 6 10000 6.69 250 00:25 02.05.2022
1683 Clear 34 1008 6 10000 8.23 270 23:52 01.05.2022
1684 Clear 33 1008 6 10000 8.23 260 22:40 01.05.2022
1685 Clouds 32 1008 7 10000 8.23 200 21:30 01.05.2022
1686 Clear 31 1009 9 10000 7.72 190 20:19 01.05.2022
1687 Clear 30 1009 10 10000 8.23 170 19:18 01.05.2022
1688 Clear 29 1009 12 10000 4.12 150 18:46 01.05.2022
1689 Clear 26 1010 15 10000 1.79 332 17:46 01.05.2022
1690 Clear 21 1010 19 10000 5.14 150 16:24 01.05.2022
1691 Clear 19 1009 18 10000 5.14 130 15:38 01.05.2022
1692 Clear 18 1008 19 10000 3.6 140 14:22 01.05.2022
1693 Clear 19 1008 16 10000 4.12 150 11:41 01.05.2022
1694 Clear 21 1008 13 10000 3.09 220 09:32 01.05.2022
1695 Clear 21 1009 13 10000 4.12 230 08:47 01.05.2022
1696 Clear 28 1007 9 10000 4.12 330 04:31 01.05.2022
1697 Clear 33 1009 6 10000 4.63 290 00:34 01.05.2022
1698 Clear 32 1010 8 10000 2.24 290 21:51 30.04.2022
1699 Clouds 31 1012 9 10000 1.54 130 21:19 30.04.2022
1700 Clear 28 1013 12 10000 1.34 76 19:45 30.04.2022
1701 Clear 26 1013 15 10000 1.79 152 18:45 30.04.2022
1702 Clear 22 1010 21 10000 1.99 139 16:54 30.04.2022
1703 Clear 17 1013 22 10000 4.63 150 15:50 30.04.2022
1704 Clear 15 1014 24 10000 3.6 130 14:54 30.04.2022
1705 Clear 15 1013 26 10000 4.12 140 13:30 30.04.2022
1706 Clear 16 1014 25 10000 2.57 90 11:34 30.04.2022
1707 Clear 17 1013 23 10000 3.6 150 10:49 30.04.2022
1708 Clear 17 1013 23 10000 2.57 190 09:48 30.04.2022
1709 Clear 20 1012 20 10000 2.06 260 07:31 30.04.2022
1710 Clear 27 1011 12 10000 4.12 300 03:34 30.04.2022
1711 Clear 29 1012 12 10000 5.14 270 23:53 29.04.2022
1712 Clouds 28 1013 11 10000 5.66 310 22:34 29.04.2022
1713 Clear 27 1013 11 10000 2.68 272 21:54 29.04.2022
1714 Clouds 26 1014 11 10000 2.06 310 20:51 29.04.2022
1715 Clear 24 1015 12 10000 1.34 314 19:47 29.04.2022
1716 Clear 22 1015 15 10000 0.89 259 18:36 29.04.2022
1717 Clear 19 1014 18 10000 2.06 140 17:26 29.04.2022
1718 Clear 15 1012 21 10000 4.12 160 15:52 29.04.2022
1719 Clear 13 1012 23 10000 3.6 130 14:23 29.04.2022
1720 Clear 13 1012 23 10000 1.54 340 13:22 29.04.2022
1721 Clear 15 1011 23 10000 3.09 150 11:51 29.04.2022
1722 Clear 18 1012 19 10000 1.54 120 09:23 29.04.2022
1723 Clear 21 1011 16 10000 2.57 260 07:28 29.04.2022
1724 Clear 22 1011 14 10000 3.6 280 06:46 29.04.2022
1725 Clear 23 1009 11 10000 4.12 280 05:44 29.04.2022
1726 Clear 31 1009 6 10000 9.77 260 00:47 29.04.2022
1727 Clear 31 1010 7 10000 7.2 230 23:48 28.04.2022
1728 Clear 31 1010 8 10000 6.17 210 22:45 28.04.2022
1729 Clear 30 1011 9 10000 8.75 240 21:47 28.04.2022
1730 Clear 30 1011 9 10000 8.75 240 21:22 28.04.2022
1731 Clear 29 1012 10 10000 4.63 190 20:35 28.04.2022
1732 Clear 28 1013 12 10000 3.13 180 19:46 28.04.2022
1733 Clear 27 1013 12 10000 2.57 230 19:23 28.04.2022
1734 Clear 26 1013 13 10000 3.6 150 18:36 28.04.2022
1735 Clear 23 1013 16 10000 4.63 140 17:32 28.04.2022
1736 Clear 20 1012 21 10000 3.09 150 16:41 28.04.2022
1737 Clear 18 1014 22 10000 3.09 150 16:19 28.04.2022
1738 Clear 17 1013 21 10000 4.63 140 15:40 28.04.2022
1739 Clear 16 1011 24 10000 3.6 120 14:36 28.04.2022
1740 Clear 16 1011 22 10000 2.06 100 13:19 28.04.2022
1741 Clear 17 1012 23 10000 0.45 172 11:59 28.04.2022
1742 Clear 18 1012 21 10000 1.54 160 10:47 28.04.2022
1743 Clear 18 1012 20 10000 1.54 160 10:26 28.04.2022
1744 Clear 19 1013 19 10000 0.45 266 08:59 28.04.2022
1745 Clear 22 1013 15 10000 3.09 130 07:37 28.04.2022
1746 Clear 24 1013 12 10000 3.6 260 06:33 28.04.2022
1747 Clear 26 1012 11 10000 4.12 240 05:39 28.04.2022
1748 Clear 28 1011 10 10000 5.66 220 04:40 28.04.2022
1749 Clear 33 1011 8 10000 8.23 240 00:36 28.04.2022
1750 Clear 33 1012 8 10000 7.2 190 22:45 27.04.2022
1751 Clear 32 1011 8 10000 7.2 220 21:56 27.04.2022
1752 Clear 32 1012 8 10000 8.23 200 21:27 27.04.2022
1753 Clear 31 1013 8 10000 7.72 230 20:38 27.04.2022
1754 Clear 30 1014 9 10000 8.23 190 19:39 27.04.2022
1755 Clear 29 1014 10 10000 8.23 190 19:18 27.04.2022
1756 Clear 27 1014 12 10000 3.6 170 18:25 27.04.2022
1757 Clear 25 1014 15 10000 4.12 120 17:26 27.04.2022
1758 Clear 18 1014 20 10000 2.06 130 15:22 27.04.2022
1759 Clear 20 1012 17 10000 3.09 110 12:27 27.04.2022
1760 Clear 20 1012 17 10000 2.57 170 11:21 27.04.2022
1761 Clear 21 1012 18 10000 1.54 150 09:59 27.04.2022
1762 Clear 25 1012 13 10000 3.6 280 07:25 27.04.2022
1763 Clear 28 1013 11 10000 5.14 240 05:37 27.04.2022
1764 Clear 35 1010 8 10000 4.63 250 01:52 27.04.2022
1765 Clear 36 1011 8 10000 3.6 280 00:52 27.04.2022
1766 Clear 36 1011 8 10000 3.13 156 23:57 26.04.2022
1767 Clear 35 1012 9 10000 5.14 230 23:23 26.04.2022
1768 Clouds 35 1012 10 10000 4.12 250 22:41 26.04.2022
1769 Clear 34 1013 10 10000 6.17 130 21:48 26.04.2022
1770 Clear 33 1015 12 10000 7.2 150 20:54 26.04.2022
1771 Clear 33 1014 12 10000 7.2 150 20:34 26.04.2022
1772 Clear 31 1013 14 10000 7.2 120 19:33 26.04.2022
1773 Clear 29 1015 17 10000 9.26 120 18:51 26.04.2022
1774 Clear 27 1015 18 10000 9.26 120 18:18 26.04.2022
1775 Clear 24 1014 22 10000 8.75 130 17:22 26.04.2022
1776 Clear 19 1015 20 10000 4.63 170 14:46 26.04.2022
1777 Clear 18 1015 18 10000 3.6 170 13:34 26.04.2022
1778 Clear 19 1013 13 10000 3.09 140 12:22 26.04.2022
1779 Clear 19 1013 13 10000 3.6 150 10:44 26.04.2022
1780 Clear 20 1014 12 10000 3.6 210 09:36 26.04.2022
1781 Clear 22 1014 10 10000 3.09 330 07:54 26.04.2022
1782 Clear 27 1012 8 10000 3.13 349 04:33 26.04.2022
1783 Clear 32 1013 8 10000 2.06 20 01:54 26.04.2022
1784 Clear 32 1014 5 10000 2.57 100 00:26 26.04.2022
1785 Clear 32 1015 6 10000 3.09 140 22:46 25.04.2022
1786 Clear 31 1016 7 10000 2.57 360 21:43 25.04.2022
1787 Clear 29 1017 7 10000 1.79 67 20:40 25.04.2022
1788 Clear 25 1017 11 10000 1.79 0 18:58 25.04.2022
1789 Clear 22 1016 13 10000 1.54 350 17:54 25.04.2022
1790 Clear 20 1017 15 10000 1.54 350 17:23 25.04.2022
1791 Clear 14 1016 17 10000 1.54 160 15:29 25.04.2022
1792 Clear 14 1017 17 10000 3.09 130 14:46 25.04.2022
1793 Clear 14 1016 18 10000 2.06 170 13:35 25.04.2022
1794 Clear 14 1016 17 10000 3.09 150 11:43 25.04.2022
1795 Clear 15 1016 16 10000 3.09 130 10:26 25.04.2022
1796 Clear 17 1014 15 10000 3.09 140 08:46 25.04.2022
1797 Clear 19 1015 13 10000 3.6 280 06:45 25.04.2022
1798 Clear 23 1013 10 10000 4.12 280 04:27 25.04.2022
1799 Clear 27 1013 8 10000 4.47 282 00:57 25.04.2022
1800 Clear 28 1013 9 10000 7.2 300 23:51 24.04.2022
1801 Clear 27 1014 9 10000 5.36 320 22:43 24.04.2022
1802 Clear 27 1014 10 10000 5.14 310 22:20 24.04.2022
1803 Clouds 26 1015 11 10000 4.02 296 21:26 24.04.2022
1804 Clear 25 1015 11 10000 2.68 243 20:49 24.04.2022
1805 Clear 25 1015 12 10000 2.24 307 20:29 24.04.2022
1806 Clear 24 1015 13 10000 0.89 0 19:46 24.04.2022
1807 Clear 21 1015 18 10000 1.54 140 18:20 24.04.2022
1808 Clear 19 1014 22 10000 0.89 0 17:28 24.04.2022
1809 Clear 17 1012 24 10000 0.45 55 16:58 24.04.2022
1810 Clear 16 1016 26 10000 0.73 113 16:32 24.04.2022
1811 Clear 16 1005 34 10000 0.45 195 15:54 24.04.2022
1812 Clear 12 1012 28 10000 0.83 56 14:58 24.04.2022
1813 Clear 13 1010 34 10000 3.09 120 13:56 24.04.2022
1814 Clear 13 1013 28 10000 3.09 120 13:24 24.04.2022
1815 Clear 13 1011 30 10000 3.09 140 11:56 24.04.2022
1816 Clear 13 1013 26 10000 3.09 140 11:27 24.04.2022
1817 Clear 15 1013 24 10000 3.09 190 09:55 24.04.2022
1818 Clear 15 1013 24 10000 3.09 190 09:19 24.04.2022
1819 Clear 19 1013 19 10000 2.57 300 06:18 24.04.2022
1820 Clear 22 1012 13 10000 5.66 310 03:37 24.04.2022
1821 Clear 22 1012 13 10000 5.66 310 03:37 24.04.2022
1822 Clear 25 1012 14 10000 4.12 300 01:37 24.04.2022
1823 Clear 25 1013 13 10000 5.14 280 23:57 23.04.2022
1824 Clear 24 1013 14 10000 5.14 280 23:26 23.04.2022
1825 Clear 24 1013 16 10000 4.12 210 22:46 23.04.2022
1826 Clear 23 1014 17 10000 4.02 191 21:51 23.04.2022
1827 Clear 23 1014 17 10000 3.13 245 21:32 23.04.2022
1828 Clear 22 1015 19 10000 2.68 290 20:33 23.04.2022
1829 Clear 21 1016 20 10000 1.79 260 19:41 23.04.2022
1830 Clear 20 1016 22 10000 1.79 167 19:18 23.04.2022
1831 Clear 20 1015 25 10000 2.06 320 18:46 23.04.2022
1832 Clear 18 1016 26 10000 1.79 196 17:48 23.04.2022
1833 Clear 15 1016 30 10000 0.89 132 16:49 23.04.2022
1834 Clear 14 1015 34 10000 2.06 170 16:21 23.04.2022
1835 Clear 11 1014 38 10000 2.06 150 14:27 23.04.2022
1836 Clouds 13 1014 33 10000 0.89 198 11:59 23.04.2022
1837 Clear 14 1014 30 10000 2.57 260 10:40 23.04.2022
1838 Clear 14 1014 30 10000 2.57 260 10:40 23.04.2022
1839 Clear 16 1014 25 10000 5.66 290 08:42 23.04.2022
1840 Clear 20 1013 24 10000 5.36 271 05:45 23.04.2022
1841 Clouds 22 1011 19 10000 6.26 283 03:54 23.04.2022
1842 Clear 26 1011 22 10000 8.94 294 00:18 23.04.2022
1843 Clear 26 1011 23 10000 8.75 270 23:25 22.04.2022
1844 Clear 27 1010 21 10000 9.77 240 21:59 22.04.2022
1845 Clear 27 1011 20 10000 9.77 240 21:40 22.04.2022
1846 Clear 26 1011 20 10000 7.72 250 20:37 22.04.2022
1847 Clear 25 1012 20 10000 8.75 240 19:39 22.04.2022
1848 Clear 25 1012 20 10000 8.75 240 19:18 22.04.2022
1849 Clear 24 1013 18 10000 7.72 210 18:33 22.04.2022
1850 Clear 23 1013 18 10000 5.66 230 17:34 22.04.2022
1851 Clear 20 1012 22 10000 3.6 130 16:29 22.04.2022
1852 Clear 19 1013 20 10000 3.6 140 15:31 22.04.2022
1853 Clear 18 1011 19 10000 3.09 120 14:38 22.04.2022
1854 Clear 18 1012 20 10000 3.6 90 13:42 22.04.2022
1855 Clear 18 1011 21 10000 3.09 140 12:55 22.04.2022
1856 Clear 20 1012 19 10000 3.09 180 11:24 22.04.2022
1857 Clear 20 1012 19 10000 0.45 181 10:58 22.04.2022
1858 Clear 20 1012 19 10000 3.09 170 10:40 22.04.2022
1859 Clear 20 1012 18 10000 3.09 170 10:20 22.04.2022
1860 Clear 21 1012 18 10000 3.6 250 09:30 22.04.2022
1861 Clear 21 1013 19 10000 3.6 240 08:49 22.04.2022
1862 Clear 24 1012 17 10000 2.06 180 06:54 22.04.2022
1863 Clear 33 1012 6 10000 7.72 190 01:34 22.04.2022
1864 Clear 34 1012 8 10000 6.17 200 23:35 21.04.2022
1865 Clear 34 1013 8 10000 5.14 220 22:48 21.04.2022
1866 Clear 32 1014 9 10000 7.2 200 21:43 21.04.2022
1867 Clear 30 1014 10 10000 4.12 220 20:32 21.04.2022
1868 Clear 28 1015 10 10000 2.57 180 19:24 21.04.2022
1869 Clear 27 1015 14 10000 0.89 92 18:32 21.04.2022
1870 Clear 24 1015 17 10000 6.17 160 17:46 21.04.2022
1871 Clear 20 1014 22 10000 3.6 150 16:21 21.04.2022
1872 Clear 16 1015 24 10000 3.6 170 15:19 21.04.2022
1873 Clear 17 1014 23 10000 4.12 150 14:29 21.04.2022
1874 Clear 18 1013 22 10000 2.57 90 13:22 21.04.2022
1875 Clear 18 1013 21 10000 2.57 120 12:29 21.04.2022
1876 Clear 19 1014 23 10000 0.89 221 09:58 21.04.2022
1877 Clear 20 1014 21 10000 2.57 170 08:49 21.04.2022
1878 Clear 23 1013 16 10000 2.57 250 06:46 21.04.2022
1879 Clear 28 1011 11 10000 5.66 280 04:21 21.04.2022
1880 Clear 30 1011 9 10000 5.66 270 03:23 21.04.2022
1881 Clear 31 1011 8 10000 7.2 250 02:45 21.04.2022
1882 Clear 31 1011 8 10000 7.2 250 02:45 21.04.2022
1883 Clear 32 1011 8 10000 7.2 290 00:35 21.04.2022
1884 Clear 32 1011 8 10000 7.2 310 23:46 20.04.2022
1885 Clear 32 1012 7 10000 6.26 274 23:21 20.04.2022
1886 Clear 32 1012 7 10000 7.72 260 22:41 20.04.2022
1887 Clear 31 1012 7 10000 4.47 292 21:57 20.04.2022
1888 Clear 30 1013 8 10000 2.06 340 20:50 20.04.2022
1889 Clear 29 1014 9 10000 2.06 340 20:21 20.04.2022
1890 Clear 29 1013 8 10000 3.6 310 19:47 20.04.2022
1891 Clear 27 1015 10 10000 1.79 231 18:52 20.04.2022
1892 Clear 25 1013 14 10000 2.06 120 17:52 20.04.2022
1893 Clear 22 1014 18 10000 0.45 190 16:39 20.04.2022
1894 Clear 18 1012 19 10000 3.6 170 15:33 20.04.2022
1895 Clear 18 1012 18 10000 3.09 140 12:47 20.04.2022
1896 Clear 19 1010 17 10000 3.09 90 11:42 20.04.2022
1897 Clear 20 1010 17 10000 3.09 220 10:51 20.04.2022
1898 Clear 22 1011 15 10000 4.12 180 09:34 20.04.2022
1899 Clear 22 1011 14 10000 2.57 200 08:51 20.04.2022
1900 Clear 23 1012 13 10000 2.57 200 08:19 20.04.2022
1901 Clouds 26 1011 11 10000 3.09 240 06:26 20.04.2022
1902 Clouds 32 1009 7 10000 4.02 65 02:58 20.04.2022
1903 Clouds 33 1010 8 10000 9.77 270 00:22 20.04.2022
1904 Clouds 34 1011 7 10000 6.69 250 23:19 19.04.2022
1905 Clouds 34 1011 7 10000 2.24 307 22:24 19.04.2022
1906 Clouds 33 1012 8 10000 1.79 173 21:55 19.04.2022
1907 Clouds 33 1012 8 10000 1.79 173 21:55 19.04.2022
1908 Clouds 33 1013 8 10000 1.54 350 21:18 19.04.2022
1909 Clouds 31 1013 8 10000 0.89 60 20:37 19.04.2022
1910 Clouds 30 1014 9 10000 2.57 150 19:43 19.04.2022
1911 Clear 28 1013 12 10000 4.12 140 18:37 19.04.2022
1912 Clear 24 1014 15 10000 4.63 140 17:24 19.04.2022
1913 Clear 22 1014 14 10000 3.6 150 16:42 19.04.2022
1914 Clear 22 1014 14 10000 3.6 150 16:42 19.04.2022
1915 Clear 21 1014 13 10000 3.6 150 16:20 19.04.2022
1916 Clear 20 1014 13 10000 3.6 140 14:47 19.04.2022
1917 Clear 20 1014 12 10000 4.63 140 13:22 19.04.2022
1918 Clear 21 1014 14 10000 4.12 130 12:49 19.04.2022
1919 Clear 20 1012 13 10000 3.09 100 11:39 19.04.2022
1920 Clear 21 1013 12 10000 3.6 150 09:57 19.04.2022
1921 Clear 22 1012 12 10000 2.06 160 08:43 19.04.2022
1922 Clear 28 1012 6 10000 3.09 310 04:41 19.04.2022
1923 Clear 31 1011 7 10000 6.17 320 03:19 19.04.2022
1924 Clear 35 1011 4 10000 6.17 300 00:24 19.04.2022
1925 Clear 34 1013 5 10000 5.66 280 22:58 18.04.2022
1926 Clear 33 1014 7 10000 4.12 300 21:29 18.04.2022
1927 Clear 32 1014 8 10000 2.68 11 20:46 18.04.2022
1928 Clear 31 1014 9 10000 3.58 283 20:25 18.04.2022
1929 Clear 30 1015 10 10000 2.24 255 19:41 18.04.2022
1930 Clear 27 1015 12 10000 1.34 191 18:52 18.04.2022
1931 Clear 25 1017 14 10000 1.79 173 17:53 18.04.2022
1932 Clear 22 1018 16 10000 4.12 130 17:28 18.04.2022
1933 Clear 20 1016 16 10000 5.14 140 16:40 18.04.2022
1934 Clear 15 1015 17 10000 3.6 150 15:43 18.04.2022
1935 Clear 16 1015 18 10000 3.6 130 14:42 18.04.2022
1936 Clear 16 1015 18 10000 3.6 130 14:42 18.04.2022
1937 Clear 16 1015 18 10000 3.6 150 13:31 18.04.2022
1938 Clear 17 1015 16 10000 3.09 140 12:28 18.04.2022
1939 Clear 17 1016 18 10000 4.63 140 11:20 18.04.2022
1940 Clear 19 1015 17 10000 3.6 140 10:28 18.04.2022
1941 Clear 19 1016 16 10000 3.6 150 09:30 18.04.2022
1942 Clear 21 1016 15 10000 2.57 260 07:35 18.04.2022
1943 Clear 26 1014 11 10000 5.14 300 04:40 18.04.2022
1944 Clear 32 1016 5 10000 1.79 286 23:42 17.04.2022
1945 Clear 31 1017 6 10000 3.58 267 22:40 17.04.2022
1946 Clear 30 1017 8 10000 1.79 300 21:42 17.04.2022
1947 Clear 29 1018 8 10000 2.24 294 21:21 17.04.2022
1948 Clear 28 1019 10 10000 1.79 148 20:32 17.04.2022
1949 Clear 26 1020 12 10000 1.54 100 19:21 17.04.2022
1950 Clear 22 1019 17 10000 0.89 175 17:38 17.04.2022
1951 Clear 13 1018 23 10000 3.6 150 15:38 17.04.2022
1952 Clear 14 1019 22 10000 3.6 150 14:54 17.04.2022
1953 Clear 15 1017 21 10000 3.6 160 13:45 17.04.2022
1954 Clear 16 1017 20 10000 2.57 160 12:56 17.04.2022
1955 Clear 16 1016 20 10000 3.09 270 11:53 17.04.2022
1956 Clear 18 1017 18 10000 4.12 270 10:40 17.04.2022
1957 Clear 18 1017 18 10000 4.12 270 10:19 17.04.2022
1958 Clear 20 1017 16 10000 2.57 250 09:23 17.04.2022
1959 Clear 20 1016 15 10000 3.09 220 08:41 17.04.2022
1960 Clear 22 1015 13 10000 1.34 289 06:59 17.04.2022
1961 Clear 28 1014 8 10000 4.12 270 03:53 17.04.2022
1962 Clear 31 1013 7 10000 7.2 260 00:55 17.04.2022
1963 Clear 31 1014 7 10000 5.66 280 23:50 16.04.2022
1964 Clear 30 1015 8 10000 3.6 320 22:27 16.04.2022
1965 Clear 29 1016 8 10000 3.09 260 21:29 16.04.2022
1966 Clear 28 1016 9 10000 2.57 0 19:57 16.04.2022
1967 Clear 26 1017 9 10000 0.89 204 18:54 16.04.2022
1968 Clear 23 1016 13 10000 3.6 140 17:40 16.04.2022
1969 Clear 19 1015 17 10000 4.63 150 16:32 16.04.2022
1970 Clouds 17 1015 16 10000 4.63 130 15:40 16.04.2022
1971 Clear 15 1016 18 10000 4.12 130 14:51 16.04.2022
1972 Clouds 16 1014 18 10000 3.09 140 13:57 16.04.2022
1973 Clouds 16 1014 18 10000 3.09 140 13:26 16.04.2022
1974 Clear 17 1013 17 10000 3.09 110 12:18 16.04.2022
1975 Clear 17 1014 17 10000 4.12 180 10:42 16.04.2022
1976 Clear 18 1015 15 10000 2.57 170 09:43 16.04.2022
1977 Clouds 19 1014 15 10000 3.09 180 08:57 16.04.2022
1978 Clouds 21 1014 12 10000 2.06 160 07:32 16.04.2022
1979 Clear 21 1013 13 10000 2.57 260 06:46 16.04.2022
1980 Clouds 30 1011 7 10000 3.13 293 01:59 16.04.2022
1981 Clear 30 1012 7 10000 3.13 157 00:21 16.04.2022
1982 Clouds 29 1013 7 10000 4.63 340 22:54 15.04.2022
1983 Clouds 29 1013 7 10000 4.63 340 22:31 15.04.2022
1984 Clouds 28 1014 8 10000 2.57 280 21:47 15.04.2022
1985 Clouds 27 1014 8 10000 1.79 274 20:56 15.04.2022
1986 Clear 26 1015 8 10000 1.34 85 19:59 15.04.2022
1987 Clear 26 1015 9 10000 0.89 180 19:38 15.04.2022
1988 Clear 23 1014 12 10000 2.06 90 18:46 15.04.2022
1989 Clear 23 1014 12 10000 2.06 90 18:24 15.04.2022
1990 Clear 20 1014 15 10000 3.6 130 17:30 15.04.2022
1991 Clear 17 1012 19 10000 4.63 130 16:26 15.04.2022
1992 Clear 15 1013 17 10000 3.6 150 15:59 15.04.2022
1993 Clear 13 1013 18 10000 4.63 140 14:41 15.04.2022
1994 Clear 14 1013 17 10000 3.6 150 13:33 15.04.2022
1995 Clear 14 1013 17 10000 3.6 140 12:40 15.04.2022
1996 Clear 14 1012 16 10000 2.57 130 11:54 15.04.2022
1997 Clear 15 1012 15 10000 2.57 140 10:53 15.04.2022
1998 Clear 15 1012 16 10000 2.57 140 10:24 15.04.2022
1999 Clear 15 1012 15 10000 3.09 150 09:38 15.04.2022
2000 Clear 16 1012 15 10000 3.09 150 09:18 15.04.2022
2001 Clear 18 1013 13 10000 3.09 180 07:24 15.04.2022
2002 Clear 19 1012 12 10000 1.54 300 05:57 15.04.2022
2003 Clear 27 1011 6 10000 6.17 320 02:34 15.04.2022
2004 Clear 28 1013 10 10000 3.09 280 23:30 14.04.2022
2005 Clear 27 1014 5 10000 4.02 284 22:47 14.04.2022
2006 Clear 27 1014 4 10000 3.09 240 22:28 14.04.2022
2007 Clouds 26 1014 6 10000 1.79 271 21:57 14.04.2022
2008 Clear 24 1016 3 10000 2.06 250 20:35 14.04.2022
2009 Clear 22 1016 6 10000 1.79 164 19:22 14.04.2022
2010 Clear 19 1016 9 10000 3.6 140 18:18 14.04.2022
2011 Clear 16 1016 12 10000 5.66 160 17:28 14.04.2022
2012 Clear 14 1016 12 10000 5.14 150 16:33 14.04.2022
2013 Clear 9 1015 14 10000 3.6 130 14:27 14.04.2022
2014 Clear 10 1015 13 10000 3.6 140 13:39 14.04.2022
2015 Clear 10 1015 14 10000 3.09 140 12:51 14.04.2022
2016 Clear 10 1015 13 10000 3.09 140 12:30 14.04.2022
2017 Clear 10 1016 13 10000 4.12 140 11:23 14.04.2022
2018 Clear 11 1017 13 10000 3.09 160 10:36 14.04.2022
2019 Clear 12 1016 13 10000 2.06 110 09:56 14.04.2022
2020 Clear 12 1017 12 10000 1.54 180 08:40 14.04.2022
2021 Clear 14 1017 12 10000 1.54 250 06:51 14.04.2022
2022 Clear 21 1016 6 10000 6.17 310 02:53 14.04.2022
2023 Clear 21 1018 6 10000 4.12 250 22:56 13.04.2022
2024 Clear 20 1018 6 10000 4.02 237 21:44 13.04.2022
2025 Clear 19 1019 7 10000 2.24 235 20:55 13.04.2022
2026 Clear 18 1020 7 10000 2.24 267 20:22 13.04.2022
2027 Clear 17 1019 8 10000 2.57 160 19:24 13.04.2022
2028 Clear 15 1018 10 10000 1.34 0 18:19 13.04.2022
2029 Clear 13 1019 13 10000 2.06 120 17:23 13.04.2022
2030 Clear 11 1020 16 10000 1.34 144 16:34 13.04.2022
2031 Clear 7 1017 17 10000 4.12 140 15:38 13.04.2022
2032 Clear 6 1017 19 10000 3.09 170 14:50 13.04.2022
2033 Clear 7 1017 18 10000 3.09 170 14:19 13.04.2022
2034 Clear 7 1016 19 10000 2.57 200 13:19 13.04.2022
2035 Clear 8 1016 18 10000 2.57 190 12:25 13.04.2022
2036 Clear 10 1015 14 10000 4.12 250 10:47 13.04.2022
2037 Clear 12 1014 14 10000 5.14 310 08:58 13.04.2022
2038 Clear 13 1013 13 10000 5.14 310 08:33 13.04.2022
2039 Clear 15 1013 12 10000 7.2 290 06:51 13.04.2022
2040 Clear 15 1013 14 10000 7.2 290 06:25 13.04.2022
2041 Clear 16 1011 16 10000 9.26 300 05:20 13.04.2022
2042 Clear 23 1008 29 10000 11.32 260 00:21 13.04.2022
2043 Clear 24 1009 29 10000 10.8 280 23:29 12.04.2022
2044 Clear 23 1009 33 10000 7.72 240 21:58 12.04.2022
2045 Clear 22 1010 36 10000 7.72 270 20:57 12.04.2022
2046 Clear 22 1010 37 10000 7.72 270 20:38 12.04.2022
2047 Clear 21 1010 37 10000 8.23 280 19:48 12.04.2022
2048 Clear 21 1010 36 10000 8.23 280 19:29 12.04.2022
2049 Clear 21 1010 36 10000 8.23 280 19:29 12.04.2022
2050 Clear 20 1010 32 10000 6.71 275 17:59 12.04.2022
2051 Clear 19 1010 33 10000 2.24 205 16:58 12.04.2022
2052 Clear 18 1009 35 10000 5.66 210 16:19 12.04.2022
2053 Clear 16 1009 36 10000 5.14 200 15:26 12.04.2022
2054 Clear 16 1008 35 10000 5.66 220 14:21 12.04.2022
2055 Clear 17 1008 34 10000 9.26 200 13:28 12.04.2022
2056 Clear 17 1007 34 10000 4.63 220 12:49 12.04.2022
2057 Clear 18 1008 35 10000 6.69 230 11:46 12.04.2022
2058 Clear 19 1009 34 10000 5.66 190 10:32 12.04.2022
2059 Clear 20 1009 35 10000 7.2 200 08:57 12.04.2022
2060 Clear 20 1008 34 10000 8.23 200 07:51 12.04.2022
2061 Clear 23 1007 31 10000 6.17 260 05:49 12.04.2022
2062 Clear 24 1007 30 10000 9.77 220 04:46 12.04.2022
2063 Clear 30 1007 18 10000 7.72 230 23:53 11.04.2022
2064 Clear 29 1008 18 10000 6.69 190 22:44 11.04.2022
2065 Clear 28 1009 18 10000 7.2 190 21:37 11.04.2022
2066 Clear 28 1009 19 10000 7.72 240 20:55 11.04.2022
2067 Clear 27 1010 19 10000 7.72 200 20:28 11.04.2022
2068 Clear 26 1011 23 10000 8.75 200 19:37 11.04.2022
2069 Clear 25 1011 25 10000 8.75 200 19:18 11.04.2022
2070 Clear 24 1011 29 10000 9.26 200 18:40 11.04.2022
2071 Clear 22 1011 32 10000 6.17 190 17:56 11.04.2022
2072 Clear 20 1010 37 10000 4.02 151 16:54 11.04.2022
2073 Clear 18 1010 43 10000 3.13 158 15:45 11.04.2022
2074 Clear 17 1010 41 10000 3.6 170 13:53 11.04.2022
2075 Clear 18 1009 39 10000 2.57 190 12:44 11.04.2022
2076 Clear 18 1009 38 10000 2.57 190 12:25 11.04.2022
2077 Clouds 19 1009 40 10000 2.68 181 10:58 11.04.2022
2078 Clouds 20 1009 37 10000 3.13 184 09:58 11.04.2022
2079 Clear 21 1009 29 10000 5.66 230 08:24 11.04.2022
2080 Clear 24 1008 23 10000 6.69 230 05:38 11.04.2022
2081 Clear 30 1006 12 10000 6.71 269 00:57 11.04.2022
2082 Clear 30 1008 13 10000 6.69 250 22:33 10.04.2022
2083 Clear 30 1008 14 10000 5.14 260 21:54 10.04.2022
2084 Clear 29 1009 14 10000 5.14 260 21:26 10.04.2022
2085 Clear 28 1009 17 10000 9.26 230 20:25 10.04.2022
2086 Clear 27 1010 19 10000 6.17 200 19:37 10.04.2022
2087 Clear 25 1010 23 10000 7.72 210 18:50 10.04.2022
2088 Clear 25 1010 24 10000 7.72 210 18:30 10.04.2022
2089 Clear 23 1010 26 10000 3.6 160 17:49 10.04.2022
2090 Clear 22 1009 30 10000 2.24 134 16:59 10.04.2022
2091 Clear 18 1010 35 10000 4.63 200 15:41 10.04.2022
2092 Clear 18 1009 33 10000 5.14 180 14:42 10.04.2022
2093 Clear 19 1009 31 10000 5.14 220 13:45 10.04.2022
2094 Clear 20 1008 30 10000 3.6 220 12:32 10.04.2022
2095 Clear 20 1008 26 10000 4.12 230 11:44 10.04.2022
2096 Clear 21 1008 25 10000 4.12 230 11:20 10.04.2022
2097 Clear 21 1008 19 10000 3.09 200 10:34 10.04.2022
2098 Clear 22 1009 15 10000 4.63 160 09:41 10.04.2022
2099 Clouds 23 1009 13 10000 3.6 190 08:28 10.04.2022
2100 Clear 23 1009 13 10000 4.63 260 07:57 10.04.2022
2101 Clouds 25 1009 13 10000 3.58 245 06:59 10.04.2022
2102 Clear 29 1007 8 10000 6.17 230 03:38 10.04.2022
2103 Clear 31 1007 7 10000 5.66 240 02:19 10.04.2022
2104 Clear 33 1009 6 10000 6.17 260 23:53 09.04.2022
2105 Clear 33 1010 6 10000 6.69 240 22:55 09.04.2022
2106 Clear 33 1010 6 10000 6.69 240 22:54 09.04.2022
2107 Clear 33 1010 5 10000 6.71 269 22:33 09.04.2022
2108 Clear 32 1012 7 10000 5.66 270 21:19 09.04.2022
2109 Clear 31 1013 8 10000 2.24 288 20:30 09.04.2022
2110 Clear 30 1013 8 10000 5.14 210 19:56 09.04.2022
2111 Clear 30 1014 9 10000 6.17 150 19:38 09.04.2022
2112 Clear 26 1014 10 10000 6.69 170 18:23 09.04.2022
2113 Clear 24 1014 12 10000 4.63 140 17:48 09.04.2022
2114 Clear 22 1012 13 10000 6.17 140 16:56 09.04.2022
2115 Clear 20 1013 15 10000 6.17 140 16:38 09.04.2022
2116 Clear 18 1013 12 10000 5.66 150 15:49 09.04.2022
2117 Clear 19 1013 12 10000 5.66 150 15:49 09.04.2022
2118 Clear 19 1013 12 10000 5.66 150 15:49 09.04.2022
2119 Clear 19 1013 12 10000 5.66 150 15:49 09.04.2022
2120 Clear 18 1013 14 10000 5.66 150 15:25 09.04.2022
2121 Clear 19 1014 13 10000 5.14 130 14:25 09.04.2022
2122 Clear 20 1014 12 10000 4.63 130 13:26 09.04.2022
2123 Clear 21 1012 11 10000 5.66 140 12:53 09.04.2022
2124 Clear 20 1013 11 10000 6.17 140 11:44 09.04.2022
2125 Clear 20 1013 11 10000 5.14 140 10:41 09.04.2022
2126 Clear 20 1014 10 10000 5.14 140 10:18 09.04.2022
2127 Clear 22 1013 9 10000 3.09 100 09:22 09.04.2022
2128 Clear 23 1013 10 10000 4.12 140 07:49 09.04.2022
2129 Clear 30 1011 6 10000 0.89 24 03:57 09.04.2022
2130 Clear 33 1013 8 10000 4.63 70 00:33 09.04.2022
2131 Clear 33 1014 4 10000 3.09 130 23:20 08.04.2022
2132 Clear 32 1015 4 10000 7.2 100 21:42 08.04.2022
2133 Clear 31 1017 4 10000 9.26 120 20:41 08.04.2022
2134 Clear 29 1017 5 10000 10.29 110 19:41 08.04.2022
2135 Clear 28 1018 6 10000 7.2 120 18:38 08.04.2022
2136 Clear 27 1018 6 10000 7.2 120 18:18 08.04.2022
2137 Clear 24 1018 9 10000 2.24 174 17:27 08.04.2022
2138 Clear 23 1017 10 10000 4.63 110 16:52 08.04.2022
2139 Clear 19 1016 12 10000 4.63 110 16:22 08.04.2022
2140 Clear 19 1018 10 10000 4.12 110 15:28 08.04.2022
2141 Clear 18 1016 9 10000 4.63 120 14:44 08.04.2022
2142 Clear 19 1014 10 10000 4.06 89 13:59 08.04.2022
2143 Clear 19 1016 9 10000 4.63 110 13:30 08.04.2022
2144 Clear 19 1016 10 10000 3.6 120 12:45 08.04.2022
2145 Clear 20 1017 10 10000 3.09 130 10:56 08.04.2022
2146 Clear 21 1017 10 10000 3.6 170 09:41 08.04.2022
2147 Clear 21 1014 10 10000 2.5 96 08:59 08.04.2022
2148 Clear 22 1016 10 10000 2.06 160 07:42 08.04.2022
2149 Clear 23 1017 9 10000 2.06 110 06:44 08.04.2022
2150 Clear 31 1014 5 10000 2.24 64 02:37 08.04.2022
2151 Clear 32 1017 5 10000 4.63 20 00:29 08.04.2022
2152 Clear 32 1017 4 10000 5.36 93 23:42 07.04.2022
2153 Clear 31 1018 5 10000 4.12 50 22:41 07.04.2022
2154 Clear 31 1018 5 10000 4.12 50 22:23 07.04.2022
2155 Clear 30 1018 5 10000 3.58 51 21:58 07.04.2022
2156 Clear 30 1019 5 10000 2.24 109 21:28 07.04.2022
2157 Clear 29 1019 5 10000 3.58 117 20:42 07.04.2022
2158 Clear 27 1020 6 10000 3.09 0 19:51 07.04.2022
2159 Clear 21 1020 10 10000 4.12 90 17:29 07.04.2022
2160 Clear 20 1019 11 10000 0.45 0 16:59 07.04.2022
2161 Clear 19 1019 12 10000 3.09 110 16:33 07.04.2022
2162 Clear 17 1020 12 10000 2.57 50 15:40 07.04.2022
2163 Clear 18 1018 10 10000 2.57 150 13:54 07.04.2022
2164 Clear 18 1019 10 10000 2.57 150 13:23 07.04.2022
2165 Clear 19 1019 11 10000 2.06 280 11:52 07.04.2022
2166 Clear 20 1019 12 10000 1.34 316 10:54 07.04.2022
2167 Clear 22 1018 13 10000 8.23 50 08:44 07.04.2022
2168 Clear 24 1018 14 10000 3.58 331 06:59 07.04.2022
2169 Clear 25 1017 20 10000 4.47 326 05:21 07.04.2022
2170 Clear 30 1015 13 10000 7.2 280 02:34 07.04.2022
2171 Clear 31 1016 12 10000 5.66 360 00:43 07.04.2022
2172 Clear 31 1016 13 10000 5.14 280 23:36 06.04.2022
2173 Clear 30 1017 14 10000 6.17 290 22:44 06.04.2022
2174 Clear 30 1016 15 10000 6.17 290 22:20 06.04.2022
2175 Clear 28 1017 19 10000 5.14 310 20:47 06.04.2022
2176 Clear 27 1017 20 10000 4.02 302 19:59 06.04.2022
2177 Clear 26 1018 21 10000 4.02 269 19:24 06.04.2022
2178 Clear 26 1017 23 10000 1.34 175 18:48 06.04.2022
2179 Clear 22 1018 29 10000 3.6 140 17:36 06.04.2022
2180 Clear 21 1015 32 10000 0.89 138 16:56 06.04.2022
2181 Clear 19 1014 35 10000 0.45 86 16:32 06.04.2022
2182 Clear 16 1016 37 10000 2.57 130 15:43 06.04.2022
2183 Clear 17 1014 36 10000 3.09 160 13:48 06.04.2022
2184 Clear 17 1014 35 10000 3.09 140 12:30 06.04.2022
2185 Clear 19 1014 31 10000 0.45 0 10:57 06.04.2022
2186 Clear 19 1014 31 10000 1.54 110 10:33 06.04.2022
2187 Clear 20 1013 30 10000 1.34 355 09:59 06.04.2022
2188 Clear 21 1013 29 10000 1.79 268 08:59 06.04.2022
2189 Clear 22 1013 27 10000 2.24 254 07:59 06.04.2022
2190 Clear 25 1011 23 10000 2.57 290 05:45 06.04.2022
2191 Clear 30 1011 16 10000 6.17 300 00:45 06.04.2022
2192 Clear 30 1011 17 10000 5.14 300 23:48 05.04.2022
2193 Clear 28 1013 19 10000 4.92 273 21:58 05.04.2022
2194 Clear 28 1013 20 10000 4.47 220 21:18 05.04.2022
2195 Clear 26 1014 24 10000 4.12 280 20:24 05.04.2022
2196 Clear 23 1014 30 10000 0.89 155 18:32 05.04.2022
2197 Clear 20 1014 36 10000 2.57 170 17:22 05.04.2022
2198 Clear 18 1013 38 10000 3.09 150 16:43 05.04.2022
2199 Clear 15 1014 42 10000 3.6 150 15:51 05.04.2022
2200 Clear 15 1014 43 10000 3.6 150 15:31 05.04.2022
2201 Clear 16 1014 42 10000 3.09 180 13:49 05.04.2022
2202 Clear 16 1012 42 10000 3.6 110 12:39 05.04.2022
2203 Clear 16 1013 40 10000 2.57 180 11:43 05.04.2022
2204 Clear 17 1013 38 10000 2.57 180 11:25 05.04.2022
2205 Clear 17 1013 38 10000 2.57 180 11:25 05.04.2022
2206 Clear 17 1013 37 10000 3.09 100 09:40 05.04.2022
2207 Clear 18 1013 35 10000 2.57 200 08:47 05.04.2022
2208 Clear 24 1010 25 10000 5.14 290 04:19 05.04.2022
2209 Clear 27 1010 20 10000 7.6 300 23:45 04.04.2022
2210 Clear 26 1010 22 10000 6.17 310 22:38 04.04.2022
2211 Clear 26 1011 24 10000 5.81 290 21:51 04.04.2022
2212 Clear 25 1011 25 10000 4.47 344 21:20 04.04.2022
2213 Clear 25 1011 27 10000 2.57 0 20:47 04.04.2022
2214 Clear 22 1012 32 10000 0.89 197 19:30 04.04.2022
2215 Clear 21 1011 35 10000 0.89 0 18:44 04.04.2022
2216 Clear 18 1011 43 10000 3.09 160 17:21 04.04.2022
2217 Clouds 16 1008 47 10000 0.89 126 16:34 04.04.2022
2218 Clear 13 1010 52 10000 3.6 80 15:34 04.04.2022
2219 Clear 13 1009 53 10000 2.57 160 14:46 04.04.2022
2220 Clear 13 1010 53 10000 2.57 160 14:28 04.04.2022
2221 Clear 14 1007 48 10000 0.45 40 12:59 04.04.2022
2222 Clear 15 1009 44 10000 1.54 90 11:29 04.04.2022
2223 Clear 16 1010 43 10000 2.57 240 10:29 04.04.2022
2224 Clear 20 1008 25 10000 2.24 288 06:58 04.04.2022
2225 Clear 27 1007 14 10000 6.69 260 03:18 04.04.2022
2226 Clear 28 1009 14 10000 5.66 300 23:47 03.04.2022
2227 Clear 28 1011 15 10000 4.63 270 22:24 03.04.2022
2228 Clear 27 1012 15 10000 5.14 210 21:32 03.04.2022
2229 Clear 26 1013 16 10000 5.14 220 20:36 03.04.2022
2230 Clear 24 1014 20 10000 2.24 129 19:29 03.04.2022
2231 Clouds 22 1014 28 10000 2.06 160 18:26 03.04.2022
2232 Clouds 20 1014 32 10000 3.09 160 17:41 03.04.2022
2233 Clear 18 1012 38 10000 3.6 130 16:50 03.04.2022
2234 Clouds 16 1015 40 10000 1.25 157 15:59 03.04.2022
2235 Clear 14 1013 42 10000 2.57 150 14:27 03.04.2022
2236 Clear 14 1014 41 10000 2.57 150 13:38 03.04.2022
2237 Clouds 16 1012 37 10000 0.89 76 11:59 03.04.2022
2238 Clear 18 1014 34 10000 3.09 110 10:22 03.04.2022
2239 Clear 18 1015 31 10000 2.06 150 09:19 03.04.2022
2240 Clear 21 1014 25 10000 2.06 280 06:41 03.04.2022
2241 Clear 27 1013 15 10000 5.14 250 03:37 03.04.2022
2242 Clear 30 1013 12 10000 3.09 330 00:29 03.04.2022
2243 Clear 29 1015 12 10000 4.63 210 22:52 02.04.2022
2244 Clear 28 1015 13 10000 2.68 21 21:57 02.04.2022
2245 Clear 27 1017 13 10000 6.17 180 21:26 02.04.2022
2246 Clear 27 1017 14 10000 4.12 210 20:41 02.04.2022
2247 Clear 24 1017 25 10000 1.34 154 18:51 02.04.2022
2248 Clear 22 1017 27 10000 2.57 190 18:20 02.04.2022
2249 Clear 20 1017 31 10000 3.09 160 17:43 02.04.2022
2250 Clear 16 1015 38 10000 1.42 146 15:59 02.04.2022
2251 Clear 15 1017 41 10000 3.6 160 15:21 02.04.2022
2252 Clear 15 1017 40 10000 3.6 130 14:42 02.04.2022
2253 Clear 15 1015 38 10000 3.6 150 13:34 02.04.2022
2254 Clear 16 1015 36 10000 2.57 150 12:34 02.04.2022
2255 Clear 17 1015 33 10000 2.06 160 10:50 02.04.2022
2256 Clear 18 1014 28 10000 3.09 210 08:44 02.04.2022
2257 Clear 19 1014 24 10000 2.06 140 06:43 02.04.2022
2258 Clear 26 1011 15 10000 1.34 341 03:39 02.04.2022
2259 Clouds 28 1011 11 10000 3.09 130 23:55 01.04.2022
2260 Clouds 27 1012 11 10000 3.09 130 23:18 01.04.2022
2261 Clear 25 1013 15 10000 3.09 270 21:32 01.04.2022
2262 Clear 25 1013 18 10000 1.34 121 20:50 01.04.2022
2263 Clear 24 1013 21 10000 1.79 164 19:51 01.04.2022
2264 Clear 23 1013 22 10000 1.34 178 19:30 01.04.2022
2265 Clear 21 1013 28 10000 3.09 0 18:44 01.04.2022
2266 Clear 19 1012 34 10000 3.6 160 17:46 01.04.2022
2267 Clear 15 1011 40 10000 4.12 140 16:42 01.04.2022
2268 Clear 12 1011 45 10000 4.63 130 15:23 01.04.2022
2269 Clear 14 1011 43 10000 3.09 130 14:19 01.04.2022
2270 Clear 14 1009 41 10000 3.09 140 13:33 01.04.2022
2271 Clear 14 1009 39 10000 3.09 130 12:32 01.04.2022
2272 Clear 15 1009 38 10000 4.12 130 11:33 01.04.2022
2273 Clear 15 1009 36 10000 3.09 130 10:18 01.04.2022
2274 Clear 16 1010 32 10000 3.09 190 08:30 01.04.2022
2275 Clear 19 1008 27 10000 2.06 230 06:39 01.04.2022
2276 Clear 21 1007 25 10000 3.09 280 04:47 01.04.2022
2277 Clear 22 1007 24 10000 3.09 280 04:28 01.04.2022
2278 Clear 26 1008 20 10000 4.12 290 01:54 01.04.2022
2279 Clouds 25 1010 22 10000 2.24 79 22:58 31.03.2022
2280 Clear 24 1011 23 10000 2.57 180 21:50 31.03.2022
2281 Clear 24 1012 24 10000 2.57 180 21:31 31.03.2022
2282 Clear 23 1013 27 10000 2.24 92 20:29 31.03.2022
2283 Clear 22 1013 31 10000 1.54 0 19:47 31.03.2022
2284 Clear 20 1013 38 10000 2.24 198 18:43 31.03.2022
2285 Clear 17 1013 45 10000 3.6 150 17:41 31.03.2022
2286 Clear 15 1014 52 10000 3.6 140 16:34 31.03.2022
2287 Clear 12 1013 56 10000 3.6 150 15:35 31.03.2022
2288 Clear 12 1012 55 10000 2.06 130 14:54 31.03.2022
2289 Clear 12 1012 55 10000 3.09 160 14:20 31.03.2022
2290 Clear 13 1012 54 10000 3.09 140 11:32 31.03.2022
2291 Clear 13 1013 52 10000 3.09 160 10:41 31.03.2022
2292 Clear 13 1012 51 10000 4.63 280 09:44 31.03.2022
2293 Clear 15 1013 44 10000 2.57 230 07:49 31.03.2022
2294 Clear 20 1012 31 10000 4.47 328 03:57 31.03.2022
2295 Clouds 22 1014 30 10000 6.26 293 23:27 30.03.2022
2296 Clouds 21 1015 33 10000 6.17 270 22:20 30.03.2022
2297 Clear 20 1016 35 10000 4.47 262 21:32 30.03.2022
2298 Clear 19 1017 37 10000 3.58 8 20:44 30.03.2022
2299 Clouds 18 1017 41 10000 3.58 280 19:57 30.03.2022
2300 Clear 17 1017 49 10000 1.34 264 18:50 30.03.2022
2301 Clear 16 1017 49 10000 1.34 264 18:50 30.03.2022
2302 Clear 15 1017 56 10000 1.34 120 17:52 30.03.2022
2303 Clear 15 1017 57 10000 1.34 120 17:52 30.03.2022
2304 Clouds 14 1017 62 10000 2.06 170 17:29 30.03.2022
2305 Clouds 12 1017 73 10000 1.79 168 16:41 30.03.2022
2306 Clouds 10 1016 78 10000 2.57 160 16:19 30.03.2022
2307 Clouds 10 1016 81 10000 1.54 160 14:47 30.03.2022
2308 Clouds 10 1015 80 10000 3.09 140 13:26 30.03.2022
2309 Clouds 10 1015 80 10000 2.06 190 12:32 30.03.2022
2310 Clouds 10 1015 79 10000 1.54 130 10:48 30.03.2022
2311 Clouds 10 1014 80 10000 1.54 130 09:58 30.03.2022
2312 Clear 10 1015 79 10000 1.54 140 08:28 30.03.2022
2313 Clear 10 1014 78 10000 2.57 130 07:29 30.03.2022
2314 Clouds 11 1014 76 10000 3.6 170 05:40 30.03.2022
2315 Clouds 13 1012 63 10000 6.17 230 02:40 30.03.2022
2316 Rain 15 1010 60 10000 6.69 220 22:43 29.03.2022
2317 Drizzle 15 1010 62 10000 8.75 220 21:58 29.03.2022
2318 Rain 15 1012 59 10000 7.2 240 21:37 29.03.2022
2319 Clouds 13 1010 77 10000 5.14 240 20:30 29.03.2022
2320 Clouds 13 1011 67 10000 5.14 250 19:34 29.03.2022
2321 Drizzle 13 1012 67 10000 7.72 220 18:53 29.03.2022
2322 Clouds 14 1011 58 10000 6.17 220 17:52 29.03.2022
2323 Clouds 14 1011 62 10000 4.63 200 17:19 29.03.2022
2324 Clouds 13 1011 65 10000 5.66 190 16:53 29.03.2022
2325 Clouds 13 1011 67 10000 5.14 200 15:41 29.03.2022
2326 Clouds 13 1010 63 10000 5.14 150 14:43 29.03.2022
2327 Clouds 13 1010 60 10000 6.17 160 13:35 29.03.2022
2328 Clouds 14 1010 54 10000 6.17 200 12:22 29.03.2022
2329 Clouds 15 1010 47 10000 4.63 160 11:18 29.03.2022
2330 Clouds 16 1011 38 10000 3.58 258 09:58 29.03.2022
2331 Clouds 18 1010 33 10000 3.09 200 08:44 29.03.2022
2332 Clear 17 1010 43 10000 5.66 180 06:48 29.03.2022
2333 Clouds 24 1009 14 10000 6.17 200 02:27 29.03.2022
2334 Clouds 25 1011 12 10000 3.13 159 23:37 28.03.2022
2335 Clouds 25 1012 13 10000 2.68 174 22:57 28.03.2022
2336 Clouds 24 1013 13 10000 3.6 160 22:31 28.03.2022
2337 Clouds 24 1013 14 10000 3.6 160 21:38 28.03.2022
2338 Clouds 24 1014 13 10000 2.06 230 20:32 28.03.2022
2339 Clouds 23 1014 14 10000 1.54 0 19:48 28.03.2022
2340 Clouds 23 1014 15 10000 1.54 0 19:30 28.03.2022
2341 Clear 22 1014 16 10000 1.54 0 18:50 28.03.2022
2342 Clouds 21 1015 17 10000 3.6 160 17:41 28.03.2022
2343 Clouds 19 1014 18 10000 2.06 120 16:48 28.03.2022
2344 Clouds 16 1013 21 10000 3.6 180 14:56 28.03.2022
2345 Clouds 16 1013 21 10000 4.63 180 14:23 28.03.2022
2346 Clear 17 1014 21 10000 4.12 160 13:18 28.03.2022
2347 Haze 18 1013 19 6437 2.57 90 11:43 28.03.2022
2348 Clear 19 1014 16 10000 2.06 170 09:55 28.03.2022
2349 Clear 19 1013 16 10000 4.12 170 09:20 28.03.2022
2350 Clear 20 1014 14 10000 3.6 120 08:23 28.03.2022
2351 Clear 20 1014 15 10000 1.34 167 07:56 28.03.2022
2352 Clear 22 1013 13 10000 3.09 180 06:30 28.03.2022
2353 Clear 33 1011 6 10000 4.63 280 00:19 28.03.2022
2354 Clear 32 1011 6 10000 2.24 37 22:34 27.03.2022
2355 Clear 31 1013 7 10000 3.09 150 21:42 27.03.2022
2356 Clouds 30 1013 7 10000 1.34 171 20:58 27.03.2022
2357 Clear 29 1015 7 10000 2.24 183 20:18 27.03.2022
2358 Clear 27 1014 10 10000 2.57 170 19:34 27.03.2022
2359 Clear 23 1014 13 10000 4.63 130 18:30 27.03.2022
2360 Clouds 22 1014 14 10000 2.68 236 17:55 27.03.2022
2361 Clear 21 1014 13 10000 5.14 130 17:35 27.03.2022
2362 Clear 16 1013 14 10000 5.14 140 15:39 27.03.2022
2363 Clear 17 1012 14 10000 4.12 130 13:57 27.03.2022
2364 Clear 17 1013 15 10000 4.63 140 12:50 27.03.2022
2365 Clear 19 1013 13 10000 4.63 150 11:30 27.03.2022
2366 Clear 19 1012 14 10000 2.57 120 09:32 27.03.2022
2367 Clear 22 1012 15 10000 3.09 240 06:44 27.03.2022
2368 Clear 32 1012 8 10000 8.23 300 01:41 27.03.2022
2369 Clear 33 1011 6 10000 4.63 240 00:25 27.03.2022
2370 Clear 33 1012 6 10000 3.13 3 22:45 26.03.2022
2371 Clouds 33 1013 6 10000 3.09 240 21:50 26.03.2022
2372 Clouds 33 1013 6 10000 3.09 240 21:26 26.03.2022
2373 Clear 30 1014 10 10000 2.06 170 19:31 26.03.2022
2374 Clear 27 1016 13 10000 2.06 180 18:24 26.03.2022
2375 Clear 25 1016 15 10000 4.12 160 17:33 26.03.2022
2376 Clear 21 1014 18 10000 5.66 140 16:27 26.03.2022
2377 Clear 17 1015 18 10000 6.17 140 15:35 26.03.2022
2378 Clouds 17 1013 20 10000 2.5 115 13:55 26.03.2022
2379 Clear 17 1016 21 10000 3.6 140 13:19 26.03.2022
2380 Clear 19 1016 18 10000 3.09 140 11:42 26.03.2022
2381 Clear 19 1017 17 10000 3.09 140 10:32 26.03.2022
2382 Clear 20 1015 17 10000 4.12 100 08:44 26.03.2022
2383 Clear 23 1015 16 10000 3.6 160 06:30 26.03.2022
2384 Clear 24 1015 14 10000 2.06 340 05:28 26.03.2022
2385 Clear 32 1014 7 10000 2.06 0 00:30 26.03.2022
2386 Clouds 32 1016 7 10000 1.34 162 21:56 25.03.2022
2387 Clear 31 1017 8 10000 3.09 0 20:46 25.03.2022
2388 Clear 30 1017 8 10000 3.09 0 20:20 25.03.2022
2389 Clear 27 1018 11 10000 1.34 291 18:51 25.03.2022
2390 Clear 24 1019 15 10000 3.09 120 17:49 25.03.2022
2391 Clear 22 1019 16 10000 3.09 120 17:27 25.03.2022
2392 Clear 19 1019 18 10000 4.12 150 16:19 25.03.2022
2393 Clear 15 1019 19 10000 4.12 130 14:49 25.03.2022
2394 Clear 14 1017 22 10000 5.14 130 13:24 25.03.2022
2395 Clear 16 1018 19 10000 2.06 140 10:35 25.03.2022
2396 Clear 16 1019 19 10000 2.57 130 09:28 25.03.2022
2397 Clear 17 1018 18 10000 2.57 130 08:24 25.03.2022
2398 Clear 17 1018 18 10000 3.6 120 07:28 25.03.2022
2399 Clear 18 1017 17 10000 1.54 160 06:29 25.03.2022
2400 Clear 27 1016 8 10000 4.92 313 01:32 25.03.2022
2401 Clear 28 1017 8 10000 3.13 6 22:53 24.03.2022
2402 Clear 28 1018 8 10000 2.68 309 21:52 24.03.2022
2403 Clear 26 1019 8 10000 2.24 262 20:37 24.03.2022
2404 Clear 25 1020 9 10000 1.79 194 19:47 24.03.2022
2405 Clear 19 1021 16 10000 2.06 140 17:48 24.03.2022
2406 Clear 18 1021 17 10000 2.57 170 17:23 24.03.2022
2407 Clear 15 1019 19 10000 2.09 111 15:45 24.03.2022
2408 Clear 11 1021 22 10000 4.12 140 14:50 24.03.2022
2409 Clear 10 1021 23 10000 4.12 140 14:19 24.03.2022
2410 Clear 10 1021 22 10000 3.6 140 13:24 24.03.2022
2411 Clear 11 1021 23 10000 3.6 140 11:52 24.03.2022
2412 Clear 12 1021 20 10000 2.57 110 10:18 24.03.2022
2413 Clear 12 1020 21 10000 3.09 130 08:49 24.03.2022
2414 Clear 14 1020 18 10000 2.57 270 06:49 24.03.2022
2415 Clear 18 1019 13 10000 3.13 289 03:57 24.03.2022
2416 Clear 23 1020 8 10000 5.14 290 23:20 23.03.2022
2417 Clear 22 1021 10 10000 4.02 325 21:40 23.03.2022
2418 Clear 21 1021 11 10000 3.13 10 21:18 23.03.2022
2419 Clear 20 1022 13 10000 6.69 30 19:46 23.03.2022
2420 Clear 19 1022 13 10000 3.58 74 18:55 23.03.2022
2421 Clear 17 1022 14 10000 5.14 70 17:37 23.03.2022
2422 Clear 16 1022 15 10000 7.2 60 16:39 23.03.2022
2423 Clear 12 1021 19 10000 6.17 40 14:51 23.03.2022
2424 Clear 12 1021 18 10000 6.17 40 14:26 23.03.2022
2425 Clear 14 1020 15 10000 8.23 30 12:54 23.03.2022
2426 Clear 15 1019 15 10000 2.68 27 09:45 23.03.2022
2427 Clear 14 1018 24 10000 2.57 120 06:48 23.03.2022
2428 Clear 15 1017 21 10000 1.54 210 05:23 23.03.2022
2429 Clear 23 1015 14 10000 7.72 280 00:29 23.03.2022
2430 Clear 23 1016 13 10000 4.63 320 23:39 22.03.2022
2431 Clear 22 1017 14 10000 7.2 310 21:30 22.03.2022
2432 Clear 21 1017 14 10000 4.47 0 20:45 22.03.2022
2433 Clear 20 1017 17 10000 3.6 10 19:43 22.03.2022
2434 Clear 20 1018 18 10000 3.6 10 19:23 22.03.2022
2435 Clear 18 1018 21 10000 2.68 231 18:38 22.03.2022
2436 Clear 16 1018 26 10000 1.34 197 17:37 22.03.2022
2437 Clear 13 1017 34 10000 0.52 22 16:27 22.03.2022
2438 Clear 10 1017 38 10000 3.09 160 15:23 22.03.2022
2439 Clear 8 1015 43 10000 4.12 140 14:47 22.03.2022
2440 Clear 8 1015 41 10000 4.12 140 14:27 22.03.2022
2441 Clear 10 1016 34 10000 3.6 150 13:36 22.03.2022
2442 Clear 10 1015 32 10000 3.09 130 11:52 22.03.2022
2443 Clear 10 1015 34 10000 4.63 140 10:44 22.03.2022
2444 Clear 11 1015 35 10000 3.09 170 08:36 22.03.2022
2445 Clear 12 1015 32 10000 2.06 210 06:53 22.03.2022
2446 Clear 16 1014 24 10000 3.6 290 03:49 22.03.2022
2447 Clear 19 1013 23 10000 6.69 300 00:28 22.03.2022
2448 Clear 19 1013 27 10000 7.72 270 22:42 21.03.2022
2449 Clear 17 1014 28 10000 6.17 230 21:18 21.03.2022
2450 Clear 17 1014 28 10000 8.23 290 20:40 21.03.2022
2451 Clear 16 1014 29 10000 3.58 262 19:58 21.03.2022
2452 Clear 16 1014 30 10000 7.6 297 19:34 21.03.2022
2453 Clear 15 1015 41 10000 6.69 280 18:31 21.03.2022
2454 Clear 13 1014 60 10000 4.12 280 17:19 21.03.2022
2455 Clouds 12 1013 69 10000 0.89 77 16:44 21.03.2022
2456 Clouds 10 1013 81 10000 0.89 229 15:55 21.03.2022
2457 Clouds 9 1013 86 10000 0.45 96 15:19 21.03.2022
2458 Clouds 9 1012 86 10000 3.6 150 14:25 21.03.2022
2459 Clouds 9 1012 84 10000 2.06 220 12:42 21.03.2022
2460 Clouds 9 1010 84 10000 3.09 250 11:53 21.03.2022
2461 Rain 10 1011 76 10000 6.26 287 10:40 21.03.2022
2462 Clouds 10 1011 76 10000 3.09 110 08:55 21.03.2022
2463 Clouds 10 1012 75 10000 5.14 140 06:54 21.03.2022
2464 Clouds 14 1011 54 10000 5.66 310 02:52 21.03.2022
2465 Clouds 17 1011 38 10000 8.75 300 00:19 21.03.2022
2466 Clouds 18 1011 30 10000 6.17 280 22:44 20.03.2022
2467 Clouds 20 1010 27 10000 6.69 270 21:52 20.03.2022
2468 Clouds 20 1009 30 10000 6.69 270 21:25 20.03.2022
2469 Clouds 20 1010 31 10000 8.75 280 20:43 20.03.2022
2470 Clear 20 1010 29 10000 8.05 313 19:59 20.03.2022
2471 Clouds 20 1010 27 10000 5.66 290 19:31 20.03.2022
2472 Clouds 20 1010 22 10000 5.14 320 18:34 20.03.2022
2473 Clouds 20 1010 17 10000 7.2 220 17:33 20.03.2022
2474 Clouds 20 1010 16 10000 3.13 51 16:57 20.03.2022
2475 Clouds 16 1010 19 10000 4.63 150 15:35 20.03.2022
2476 Clouds 16 1011 17 10000 4.63 100 14:35 20.03.2022
2477 Clear 16 1010 15 10000 2.06 130 12:35 20.03.2022
2478 Clear 16 1011 15 10000 4.12 130 11:32 20.03.2022
2479 Clear 16 1011 13 10000 4.12 130 09:30 20.03.2022
2480 Clear 17 1012 11 10000 4.12 160 07:47 20.03.2022
2481 Clear 18 1012 12 10000 3.6 160 05:48 20.03.2022
2482 Clear 27 1012 7 10000 4.12 270 01:56 20.03.2022
2483 Clouds 28 1013 6 10000 3.13 313 00:47 20.03.2022
2484 Clouds 28 1014 6 10000 2.06 230 23:19 19.03.2022
2485 Clouds 27 1016 6 10000 2.24 295 21:28 19.03.2022
2486 Clouds 27 1017 6 10000 2.24 0 20:58 19.03.2022
2487 Clouds 24 1018 10 10000 1.34 106 18:58 19.03.2022
2488 Clear 22 1018 12 10000 2.57 150 18:24 19.03.2022
2489 Clear 20 1019 14 10000 5.66 130 17:35 19.03.2022
2490 Clear 13 1018 19 10000 4.63 160 15:46 19.03.2022
2491 Clear 11 1018 18 10000 2.57 140 14:57 19.03.2022
2492 Clear 12 1018 19 10000 5.14 150 13:19 19.03.2022
2493 Clear 12 1017 17 10000 5.14 130 12:40 19.03.2022
2494 Clear 13 1016 16 10000 2.48 95 11:54 19.03.2022
2495 Clear 13 1016 16 10000 2.48 95 11:54 19.03.2022
2496 Clear 14 1017 15 10000 2.57 120 10:53 19.03.2022
2497 Clear 15 1018 16 10000 3.6 140 07:33 19.03.2022
2498 Clear 20 1016 11 10000 4.12 320 03:49 19.03.2022
2499 Clear 23 1016 8 10000 6.69 320 02:29 19.03.2022
2500 Clear 26 1015 7 10000 4.12 360 23:45 18.03.2022
2501 Clear 25 1016 8 10000 3.58 261 22:28 18.03.2022
2502 Clear 25 1017 7 10000 3.13 213 21:45 18.03.2022
2503 Clear 24 1018 10 10000 2.24 283 19:52 18.03.2022
2504 Clear 24 1018 10 10000 2.24 283 19:52 18.03.2022
2505 Clear 23 1018 12 10000 2.06 350 19:21 18.03.2022
2506 Clear 20 1019 18 10000 3.09 140 17:52 18.03.2022
2507 Clouds 16 1017 23 10000 0.45 157 16:49 18.03.2022
2508 Clouds 12 1018 26 10000 4.63 150 15:32 18.03.2022
2509 Clouds 12 1018 27 10000 5.66 140 14:23 18.03.2022
2510 Clear 12 1017 27 10000 4.63 140 12:36 18.03.2022
2511 Clear 12 1017 27 10000 3.09 90 10:53 18.03.2022
2512 Clear 13 1018 25 10000 3.09 130 09:30 18.03.2022
2513 Clear 13 1018 26 10000 3.6 140 08:42 18.03.2022
2514 Clear 14 1017 24 10000 0.89 32 06:37 18.03.2022
2515 Clear 19 1016 19 10000 3.09 280 03:19 18.03.2022
2516 Clear 23 1015 15 10000 5.66 280 00:39 18.03.2022
2517 Clear 23 1016 15 10000 6.17 300 23:38 17.03.2022
2518 Clear 23 1016 15 10000 6.26 287 22:25 17.03.2022
2519 Clear 23 1017 14 10000 5.14 350 21:48 17.03.2022
2520 Clear 22 1017 14 10000 5.14 350 21:26 17.03.2022
2521 Clear 22 1017 16 10000 6.71 264 20:45 17.03.2022
2522 Clear 21 1018 19 10000 4.92 295 19:50 17.03.2022
2523 Clear 21 1018 22 10000 4.02 293 19:28 17.03.2022
2524 Clear 20 1018 26 10000 2.68 46 18:46 17.03.2022
2525 Clear 16 1017 32 10000 3.13 338 16:58 17.03.2022
2526 Clear 13 1014 35 10000 2.06 260 15:44 17.03.2022
2527 Clear 12 1016 38 10000 3.09 100 15:25 17.03.2022
2528 Clear 11 1015 38 10000 2.24 295 14:29 17.03.2022
2529 Clear 13 1014 34 10000 3.6 260 12:55 17.03.2022
2530 Clear 13 1014 33 10000 3.6 260 12:25 17.03.2022
2531 Clear 14 1013 31 10000 3.6 270 11:29 17.03.2022
2532 Clear 15 1012 30 10000 4.12 280 10:30 17.03.2022
2533 Clear 16 1012 30 10000 4.63 270 08:37 17.03.2022
2534 Clear 17 1012 28 10000 2.57 200 07:34 17.03.2022
2535 Clear 19 1012 24 10000 5.14 270 05:47 17.03.2022
2536 Clear 25 1009 13 10000 8.75 270 01:30 17.03.2022
2537 Clear 27 1009 9 10000 9.77 260 23:50 16.03.2022
2538 Clear 28 1010 7 10000 9.77 270 22:48 16.03.2022
2539 Clear 28 1010 7 10000 9.77 270 22:48 16.03.2022
2540 Clear 28 1010 8 10000 9.77 270 22:30 16.03.2022
2541 Clear 28 1011 8 10000 8.23 290 21:39 16.03.2022
2542 Clear 26 1013 10 10000 2.24 285 19:47 16.03.2022
2543 Clear 26 1013 10 10000 2.24 185 19:21 16.03.2022
2544 Clouds 25 1014 13 10000 1.34 72 18:37 16.03.2022
2545 Clear 22 1014 16 10000 3.09 110 17:43 16.03.2022
2546 Clear 21 1015 18 10000 3.09 110 17:19 16.03.2022
2547 Clouds 18 1013 20 10000 2.24 147 15:55 16.03.2022
2548 Clear 13 1014 23 10000 4.63 140 14:25 16.03.2022
2549 Clear 14 1014 23 10000 3.6 140 13:31 16.03.2022
2550 Clear 15 1015 21 10000 2.06 170 11:56 16.03.2022
2551 Clear 15 1015 21 10000 3.6 130 11:21 16.03.2022
2552 Clear 16 1017 21 10000 3.6 130 10:23 16.03.2022
2553 Clear 16 1017 21 10000 3.09 160 08:52 16.03.2022
2554 Clear 19 1017 19 10000 1.34 258 05:58 16.03.2022
2555 Clear 28 1016 10 10000 5.14 290 01:35 16.03.2022
2556 Clear 29 1018 8 10000 3.09 270 22:38 15.03.2022
2557 Clear 29 1019 8 10000 3.09 310 21:52 15.03.2022
2558 Clear 27 1021 10 10000 2.68 323 20:18 15.03.2022
2559 Clear 24 1022 14 10000 2.06 140 18:57 15.03.2022
2560 Clear 18 1022 20 10000 1.79 226 16:57 15.03.2022
2561 Clear 16 1022 22 10000 3.09 160 16:28 15.03.2022
2562 Clear 13 1020 23 10000 2.65 89 14:58 15.03.2022
2563 Clear 11 1022 24 10000 4.12 150 14:39 15.03.2022
2564 Clear 12 1023 23 10000 3.09 140 13:28 15.03.2022
2565 Clear 13 1023 23 10000 4.12 130 12:24 15.03.2022
2566 Clear 13 1022 22 10000 3.09 140 11:31 15.03.2022
2567 Clear 14 1024 21 10000 2.57 120 09:40 15.03.2022
2568 Clear 14 1023 21 10000 3.09 140 08:42 15.03.2022
2569 Clear 15 1022 20 10000 2.57 170 07:50 15.03.2022
2570 Clear 16 1023 18 10000 2.06 170 06:54 15.03.2022
2571 Clear 21 1021 13 10000 3.58 279 02:59 15.03.2022
2572 Clear 25 1020 10 10000 4.12 300 23:39 14.03.2022
2573 Clear 25 1021 11 10000 4.12 300 23:21 14.03.2022
2574 Clear 25 1021 11 10000 6.17 320 22:26 14.03.2022
2575 Clear 24 1022 12 10000 2.68 272 21:26 14.03.2022
2576 Clear 23 1023 14 10000 2.24 82 20:35 14.03.2022
2577 Clear 23 1023 15 10000 1.34 0 19:59 14.03.2022
2578 Clear 20 1023 16 10000 1.34 288 18:37 14.03.2022
2579 Clear 18 1023 19 10000 2.57 140 17:44 14.03.2022
2580 Clear 16 1023 22 10000 0.89 0 16:57 14.03.2022
2581 Clear 11 1020 27 10000 4.63 130 15:34 14.03.2022
2582 Clear 10 1021 27 10000 4.12 150 14:33 14.03.2022
2583 Clear 11 1019 27 10000 3.09 150 12:21 14.03.2022
2584 Clear 12 1018 24 10000 3.6 130 10:50 14.03.2022
2585 Clear 12 1019 23 10000 4.63 140 09:39 14.03.2022
2586 Clear 13 1018 22 10000 4.63 140 09:20 14.03.2022
2587 Clear 13 1019 22 10000 4.12 230 08:49 14.03.2022
2588 Clear 15 1018 18 10000 5.14 260 07:21 14.03.2022
2589 Clear 17 1017 16 10000 2.57 230 05:22 14.03.2022
2590 Clear 23 1015 10 10000 5.66 250 01:52 14.03.2022
2591 Clear 25 1015 9 10000 4.12 280 00:40 14.03.2022
2592 Clear 24 1017 9 10000 4.02 359 21:56 13.03.2022
2593 Clear 23 1017 10 10000 1.79 284 21:28 13.03.2022
2594 Clear 23 1018 10 10000 3.13 324 20:53 13.03.2022
2595 Clear 22 1018 12 10000 2.57 300 20:28 13.03.2022
2596 Clear 21 1019 13 10000 2.68 265 19:43 13.03.2022
2597 Clear 21 1019 14 10000 2.06 300 19:25 13.03.2022
2598 Clear 20 1019 16 10000 1.34 178 18:49 13.03.2022
2599 Clear 19 1019 16 10000 1.54 220 18:26 13.03.2022
2600 Clear 17 1019 18 10000 3.6 160 17:39 13.03.2022
2601 Clear 15 1018 22 10000 0.45 0 16:48 13.03.2022
2602 Clear 13 1018 23 10000 3.09 140 16:27 13.03.2022
2603 Clear 7 1018 26 10000 3.6 140 15:43 13.03.2022
2604 Clear 10 1019 26 10000 3.6 140 14:49 13.03.2022
2605 Clear 9 1018 27 10000 0 0 13:30 13.03.2022
2606 Clear 10 1018 27 10000 3.09 160 12:26 13.03.2022
2607 Clear 9 1018 27 10000 4.12 160 11:45 13.03.2022
2608 Clear 10 1018 26 10000 4.12 160 11:25 13.03.2022
2609 Clear 11 1018 26 10000 3.09 140 10:44 13.03.2022
2610 Clear 11 1018 24 10000 4.12 140 09:43 13.03.2022
2611 Clear 12 1018 23 10000 4.12 140 09:20 13.03.2022
2612 Clear 12 1020 23 10000 4.12 130 08:39 13.03.2022
2613 Clear 13 1018 23 10000 3.6 140 07:37 13.03.2022
2614 Clear 15 1018 19 10000 3.6 260 05:39 13.03.2022
2615 Clear 23 1016 10 10000 4.63 320 01:48 13.03.2022
2616 Clear 24 1017 8 10000 3.13 330 23:28 12.03.2022
2617 Clear 23 1020 9 10000 5.14 110 21:43 12.03.2022
2618 Clear 21 1021 12 10000 6.69 110 20:20 12.03.2022
2619 Clear 20 1022 13 10000 7.2 110 19:46 12.03.2022
2620 Clear 18 1023 15 10000 9.77 110 18:41 12.03.2022
2621 Clear 17 1024 16 10000 9.77 110 18:19 12.03.2022
2622 Clear 11 1023 22 10000 3.6 130 16:32 12.03.2022
2623 Clear 10 1023 21 10000 0 0 15:52 12.03.2022
2624 Clear 8 1023 22 10000 3.09 140 15:21 12.03.2022
2625 Clear 7 1023 23 10000 0 0 13:54 12.03.2022
2626 Clear 7 1023 23 10000 0 0 13:54 12.03.2022
2627 Clear 7 1023 24 10000 2.57 170 12:33 12.03.2022
2628 Clear 7 1023 23 10000 1.83 93 11:55 12.03.2022
2629 Clear 7 1024 23 10000 3.09 140 11:34 12.03.2022
2630 Clear 7 1024 23 10000 3.09 150 10:26 12.03.2022
2631 Clear 8 1024 21 10000 1.54 150 09:43 12.03.2022
2632 Clear 8 1024 21 10000 3.09 140 07:58 12.03.2022
2633 Clear 9 1025 19 10000 3.09 270 06:40 12.03.2022
2634 Clear 18 1022 9 10000 5.14 270 00:31 12.03.2022
2635 Clear 18 1022 10 10000 4.92 277 23:43 11.03.2022
2636 Clear 18 1022 12 10000 5.66 280 22:32 11.03.2022
2637 Clear 17 1023 13 10000 5.66 10 21:24 11.03.2022
2638 Clear 17 1023 13 10000 5.66 10 21:24 11.03.2022
2639 Clear 16 1023 15 10000 5.66 310 20:46 11.03.2022
2640 Clear 15 1023 16 10000 5.14 350 20:26 11.03.2022
2641 Clear 14 1024 23 10000 3.58 314 19:32 11.03.2022
2642 Clear 11 1023 29 10000 3.6 330 17:53 11.03.2022
2643 Clear 10 1023 30 10000 3.6 330 17:24 11.03.2022
2644 Clear 6 1021 33 10000 3.13 335 15:58 11.03.2022
2645 Clear 5 1020 35 10000 3.6 250 15:29 11.03.2022
2646 Clouds 6 1018 32 10000 4.12 260 13:42 11.03.2022
2647 Clouds 7 1017 29 10000 3.6 290 12:37 11.03.2022
2648 Clouds 7 1016 28 10000 4.02 297 11:57 11.03.2022
2649 Clouds 8 1015 28 10000 3.6 260 10:30 11.03.2022
2650 Clouds 9 1015 28 10000 5.66 280 09:33 11.03.2022
2651 Clouds 11 1015 27 10000 4.63 280 08:27 11.03.2022
2652 Clouds 12 1014 27 10000 8.75 300 07:46 11.03.2022
2653 Clouds 13 1014 32 10000 9.26 290 06:26 11.03.2022
2654 Clouds 16 1011 32 10000 5.66 260 04:28 11.03.2022
2655 Clear 21 1009 18 10000 7.15 304 01:20 11.03.2022
2656 Clouds 22 1009 16 10000 8.23 240 22:32 10.03.2022
2657 Clouds 22 1010 16 10000 6.69 250 21:53 10.03.2022
2658 Clouds 21 1010 16 10000 8.23 260 21:24 10.03.2022
2659 Clouds 21 1011 16 10000 7.2 230 20:18 10.03.2022
2660 Clear 19 1012 17 10000 7.2 210 18:56 10.03.2022
2661 Clear 16 1012 20 10000 3.6 120 17:37 10.03.2022
2662 Clear 13 1013 22 10000 5.66 130 16:42 10.03.2022
2663 Clear 8 1013 28 10000 2.57 110 15:27 10.03.2022
2664 Clear 8 1011 28 10000 4.12 130 13:30 10.03.2022
2665 Clear 8 1011 27 10000 3.09 130 12:35 10.03.2022
2666 Clear 9 1011 26 10000 3.09 110 11:26 10.03.2022
2667 Clear 10 1012 24 10000 3.6 130 09:28 10.03.2022
2668 Clear 10 1012 24 10000 3.09 160 07:46 10.03.2022
2669 Clear 12 1012 23 10000 0.45 188 04:59 10.03.2022
2670 Clear 18 1012 14 10000 5.14 260 01:53 10.03.2022
2671 Clear 19 1013 12 10000 6.69 300 23:29 09.03.2022
2672 Clear 18 1014 13 10000 3.6 330 21:54 09.03.2022
2673 Clear 18 1015 13 10000 3.6 330 21:34 09.03.2022
2674 Clear 16 1015 16 10000 2.68 275 19:55 09.03.2022
2675 Clear 14 1016 19 10000 1.34 183 18:34 09.03.2022
2676 Clear 11 1016 23 10000 1.34 230 17:27 09.03.2022
2677 Clear 9 1018 26 10000 1.34 230 16:34 09.03.2022
2678 Clear 4 1016 33 10000 3.09 140 15:31 09.03.2022
2679 Clear 4 1015 33 10000 2.57 150 13:54 09.03.2022
2680 Clear 4 1016 33 10000 4.12 150 12:48 09.03.2022
2681 Clear 6 1015 28 10000 2.57 170 11:54 09.03.2022
2682 Clear 6 1015 28 10000 4.12 150 11:35 09.03.2022
2683 Clear 6 1015 29 10000 3.09 150 10:34 09.03.2022
2684 Clear 6 1015 29 10000 3.09 150 08:57 09.03.2022
2685 Clear 7 1014 26 10000 0.45 37 07:54 09.03.2022
2686 Clear 13 1014 17 10000 3.13 104 02:57 09.03.2022
2687 Clear 17 1014 13 10000 3.6 300 00:43 09.03.2022
2688 Clear 17 1016 15 10000 3.6 340 22:47 08.03.2022
2689 Clear 17 1016 15 10000 5.36 283 22:26 08.03.2022
2690 Clear 16 1016 17 10000 3.13 213 21:23 08.03.2022
2691 Clear 15 1017 19 10000 3.09 350 20:35 08.03.2022
2692 Clear 14 1019 21 10000 1.79 245 19:35 08.03.2022
2693 Clear 13 1018 24 10000 1.34 0 18:44 08.03.2022
2694 Clear 10 1019 27 10000 0.89 240 17:32 08.03.2022
2695 Clear 6 1018 38 10000 0.5 77 15:56 08.03.2022
2696 Clear 4 1019 36 10000 2.57 160 14:19 08.03.2022
2697 Clear 4 1017 33 10000 2.57 120 12:43 08.03.2022
2698 Clear 5 1017 31 10000 3.6 210 11:45 08.03.2022
2699 Clear 6 1018 30 10000 2.57 180 10:45 08.03.2022
2700 Clear 6 1019 29 10000 3.09 280 09:43 08.03.2022
2701 Clear 10 1018 24 10000 2.24 216 06:59 08.03.2022
2702 Clear 11 1018 28 10000 3.6 320 04:52 08.03.2022
2703 Clear 17 1017 19 10000 6.17 270 23:50 07.03.2022
2704 Clear 17 1019 20 10000 4.12 310 21:54 07.03.2022
2705 Clear 17 1019 20 10000 4.12 310 21:31 07.03.2022
2706 Clear 16 1020 22 10000 2.68 69 20:44 07.03.2022
2707 Clear 15 1021 24 10000 1.79 124 19:55 07.03.2022
2708 Clear 15 1021 24 10000 1.54 200 19:31 07.03.2022
2709 Clear 13 1021 27 10000 1.79 282 18:42 07.03.2022
2710 Clear 12 1021 31 10000 0.89 0 17:47 07.03.2022
2711 Clear 9 1022 35 10000 0.89 0 16:55 07.03.2022
2712 Clear 4 1020 44 10000 3.09 130 15:32 07.03.2022
2713 Clear 4 1020 44 10000 3.6 140 13:24 07.03.2022
2714 Clear 4 1020 43 10000 3.09 120 12:23 07.03.2022
2715 Clear 6 1021 40 10000 2.06 110 10:38 07.03.2022
2716 Clear 6 1021 37 10000 1.54 160 08:48 07.03.2022
2717 Clear 11 1020 28 10000 3.6 320 03:41 07.03.2022
2718 Clear 15 1020 20 10000 2.68 131 00:22 07.03.2022
2719 Clear 15 1020 21 10000 2.68 146 23:31 06.03.2022
2720 Clear 15 1021 22 10000 3.6 360 22:37 06.03.2022
2721 Clear 15 1021 24 10000 4.47 302 21:46 06.03.2022
2722 Clear 13 1022 27 10000 4.12 220 20:30 06.03.2022
2723 Clear 13 1022 29 10000 3.58 283 19:51 06.03.2022
2724 Clear 11 1022 34 10000 2.68 306 18:51 06.03.2022
2725 Clear 10 1021 40 10000 1.34 0 17:57 06.03.2022
2726 Clear 9 1021 42 10000 3.6 290 17:21 06.03.2022
2727 Clear 8 1020 45 10000 4.02 298 16:41 06.03.2022
2728 Clear 6 1020 50 10000 3.09 260 15:45 06.03.2022
2729 Clear 5 1019 51 10000 5.66 260 14:49 06.03.2022
2730 Clear 6 1019 50 10000 5.66 260 14:30 06.03.2022
2731 Clouds 7 1017 45 10000 8.23 320 12:44 06.03.2022
2732 Clouds 8 1017 44 10000 5.66 300 11:56 06.03.2022
2733 Clear 10 1016 53 10000 4.92 72 10:45 06.03.2022
2734 Clear 10 1016 52 10000 3.09 220 09:34 06.03.2022
2735 Clear 11 1014 50 10000 6.17 210 08:28 06.03.2022
2736 Clear 11 1015 47 10000 5.14 240 07:34 06.03.2022
2737 Clear 15 1014 39 10000 4.63 220 04:45 06.03.2022
2738 Clear 21 1013 21 10000 7.2 270 00:42 06.03.2022
2739 Clear 21 1013 20 10000 7.2 270 00:23 06.03.2022
2740 Clear 22 1014 20 10000 9.77 260 23:19 05.03.2022
2741 Clear 22 1014 21 10000 8.75 240 22:42 05.03.2022
2742 Clear 21 1015 26 10000 2.68 316 21:36 05.03.2022
2743 Clear 20 1015 29 10000 3.13 296 20:57 05.03.2022
2744 Clear 17 1017 35 10000 4.63 160 19:23 05.03.2022
2745 Clear 16 1017 38 10000 2.68 0 18:50 05.03.2022
2746 Clear 14 1018 45 10000 2.24 130 17:41 05.03.2022
2747 Clear 11 1018 57 10000 4.63 130 16:20 05.03.2022
2748 Clear 8 1018 65 10000 4.12 140 15:30 05.03.2022
2749 Clear 7 1017 67 10000 3.6 110 14:42 05.03.2022
2750 Clear 7 1017 67 10000 3.6 110 14:24 05.03.2022
2751 Clear 8 1017 67 10000 4.63 140 12:55 05.03.2022
2752 Clear 8 1016 65 10000 3.09 160 11:39 05.03.2022
2753 Clear 9 1016 64 10000 3.09 160 11:18 05.03.2022
2754 Clear 9 1017 61 10000 3.09 160 09:40 05.03.2022
2755 Clear 10 1017 59 10000 1.54 210 08:46 05.03.2022
2756 Clear 11 1017 55 10000 2.57 260 07:23 05.03.2022
2757 Clear 13 1016 47 10000 3.09 230 05:39 05.03.2022
2758 Clear 19 1013 25 10000 8.75 220 01:24 05.03.2022
2759 Clear 21 1013 19 10000 11.32 230 23:30 04.03.2022
2760 Clear 21 1013 18 10000 13.89 220 22:40 04.03.2022
2761 Clear 21 1013 18 10000 10.29 210 21:45 04.03.2022
2762 Clear 21 1014 16 10000 10.29 230 20:48 04.03.2022
2763 Clear 21 1014 15 10000 13.89 200 19:39 04.03.2022
2764 Clear 21 1015 15 10000 7.72 190 18:59 04.03.2022
2765 Clear 21 1014 15 10000 9.77 210 18:36 04.03.2022
2766 Clear 19 1015 18 10000 8.23 200 17:29 04.03.2022
2767 Clear 17 1015 24 10000 2.57 190 16:26 04.03.2022
2768 Clouds 14 1015 29 10000 2.06 120 15:27 04.03.2022
2769 Clear 15 1014 26 10000 4.63 220 13:38 04.03.2022
2770 Clear 15 1014 26 10000 5.14 180 12:51 04.03.2022
2771 Clear 16 1013 26 10000 3.13 160 11:37 04.03.2022
2772 Clear 17 1014 24 10000 3.09 190 10:30 04.03.2022
2773 Clouds 19 1013 23 10000 7.2 170 09:28 04.03.2022
2774 Clouds 20 1014 22 10000 5.66 180 08:20 04.03.2022
2775 Clouds 21 1014 24 10000 6.17 230 06:55 04.03.2022
2776 Clouds 25 1012 11 10000 7.72 200 02:52 04.03.2022
2777 Clear 29 1013 7 10000 6.17 200 23:43 03.03.2022
2778 Clear 30 1013 8 10000 4.63 190 22:19 03.03.2022
2779 Clear 29 1014 8 10000 5.66 200 21:37 03.03.2022
2780 Clouds 29 1015 10 10000 3.6 190 20:56 03.03.2022
2781 Clear 27 1016 12 10000 4.63 180 19:42 03.03.2022
2782 Clouds 26 1016 15 10000 0.45 109 18:44 03.03.2022
2783 Clear 23 1016 18 10000 3.6 140 17:43 03.03.2022
2784 Clear 22 1016 19 10000 4.12 180 17:24 03.03.2022
2785 Clear 18 1016 21 10000 4.12 110 15:47 03.03.2022
2786 Clouds 17 1015 23 10000 4.12 140 14:51 03.03.2022
2787 Clouds 17 1015 22 10000 4.12 140 14:32 03.03.2022
2788 Clouds 17 1015 23 10000 3.6 130 12:44 03.03.2022
2789 Clouds 16 1015 25 10000 4.12 130 11:32 03.03.2022
2790 Clear 17 1015 24 10000 4.12 150 10:39 03.03.2022
2791 Clear 17 1016 24 10000 3.6 150 08:44 03.03.2022
2792 Clouds 18 1014 23 10000 0.45 116 06:58 03.03.2022
2793 Clear 19 1015 22 10000 2.57 180 06:33 03.03.2022
2794 Clear 29 1015 11 10000 4.63 330 00:43 03.03.2022
2795 Clear 29 1016 10 10000 3.13 294 23:28 02.03.2022
2796 Clear 29 1017 10 10000 3.6 360 22:48 02.03.2022
2797 Clear 27 1018 12 10000 3.13 328 21:23 02.03.2022
2798 Clear 26 1019 14 10000 1.79 280 20:30 02.03.2022
2799 Clear 25 1020 16 10000 0.89 291 19:49 02.03.2022
2800 Clear 24 1020 17 10000 1.54 350 19:30 02.03.2022
2801 Clear 22 1020 20 10000 0.45 0 18:39 02.03.2022
2802 Clear 20 1021 23 10000 2.06 150 17:50 02.03.2022
2803 Clear 18 1018 27 10000 1.12 127 16:59 02.03.2022
2804 Clear 17 1020 27 10000 4.12 140 16:41 02.03.2022
2805 Clear 11 1019 35 10000 3.6 150 14:42 02.03.2022
2806 Clear 13 1017 30 10000 0.23 334 13:24 02.03.2022
2807 Clear 12 1018 32 10000 3.09 160 12:41 02.03.2022
2808 Clear 12 1019 32 10000 3.6 150 11:39 02.03.2022
2809 Clear 13 1019 31 10000 3.6 150 11:18 02.03.2022
2810 Clear 14 1020 29 10000 2.57 130 09:41 02.03.2022
2811 Clear 15 1019 28 10000 3.6 130 08:52 02.03.2022
2812 Clear 16 1019 26 10000 2.57 180 07:28 02.03.2022
2813 Clear 17 1019 25 10000 2.57 180 05:44 02.03.2022
2814 Clear 17 1019 24 10000 2.57 180 05:44 02.03.2022
2815 Clear 26 1016 12 10000 4.92 321 00:58 02.03.2022
2816 Clear 27 1017 11 10000 4.12 300 23:46 01.03.2022
2817 Clear 27 1017 11 10000 3.6 350 22:45 01.03.2022
2818 Clear 26 1018 11 10000 2.57 0 21:56 01.03.2022
2819 Clear 26 1018 12 10000 2.57 0 21:21 01.03.2022
2820 Clear 25 1019 13 10000 3.6 360 20:24 01.03.2022
2821 Clear 23 1019 17 10000 3.09 350 19:23 01.03.2022
2822 Clear 21 1019 20 10000 1.54 340 18:35 01.03.2022
2823 Clear 19 1018 21 10000 1.54 290 17:55 01.03.2022
2824 Clear 17 1018 24 10000 2.57 150 16:54 01.03.2022
2825 Clear 14 1017 27 10000 2.9 100 15:59 01.03.2022
2826 Clear 11 1018 30 10000 1.54 130 15:23 01.03.2022
2827 Clear 10 1018 30 10000 4.63 140 14:34 01.03.2022
2828 Clear 11 1018 32 10000 0 0 13:27 01.03.2022
2829 Clear 12 1017 29 10000 2.06 350 12:58 01.03.2022
2830 Clear 12 1017 30 10000 3.09 150 12:22 01.03.2022
2831 Clear 13 1018 27 10000 2.06 180 10:27 01.03.2022
2832 Clear 14 1018 27 10000 4.63 150 08:41 01.03.2022
2833 Clear 14 1018 30 10000 5.14 140 07:36 01.03.2022
2834 Clear 17 1018 24 10000 3.09 250 04:28 01.03.2022
2835 Clouds 24 1017 16 10000 3.58 339 00:59 01.03.2022
2836 Clouds 25 1017 12 10000 3.58 305 23:48 28.02.2022
2837 Clouds 25 1018 12 10000 2.24 0 22:58 28.02.2022
2838 Clouds 24 1018 12 10000 3.09 10 21:50 28.02.2022
2839 Clouds 24 1019 12 10000 3.09 10 21:24 28.02.2022
2840 Clouds 21 1020 15 10000 5.14 80 19:52 28.02.2022
2841 Clouds 20 1021 17 10000 5.14 80 19:26 28.02.2022
2842 Clouds 19 1021 20 10000 0.89 0 18:36 28.02.2022
2843 Clouds 19 1021 20 10000 5.14 100 18:36 28.02.2022
2844 Clouds 15 1020 25 10000 3.6 120 17:23 28.02.2022
2845 Clouds 14 1020 23 10000 5.66 90 16:32 28.02.2022
2846 Clouds 12 1020 25 10000 5.14 150 15:23 28.02.2022
2847 Clouds 13 1019 24 10000 4.63 140 14:30 28.02.2022
2848 Clouds 13 1019 25 10000 0 0 13:34 28.02.2022
2849 Clouds 13 1019 23 10000 0 0 13:34 28.02.2022
2850 Clouds 13 1019 25 10000 4.12 130 12:37 28.02.2022
2851 Clouds 13 1021 27 10000 3.09 100 11:40 28.02.2022
2852 Clouds 12 1021 30 10000 2.57 180 10:44 28.02.2022
2853 Clouds 12 1021 31 10000 2.57 180 10:19 28.02.2022
2854 Clear 12 1021 30 10000 2.06 160 09:30 28.02.2022
2855 Clouds 12 1021 32 10000 0 0 08:26 28.02.2022
2856 Clouds 14 1021 28 10000 3.09 190 07:19 28.02.2022
2857 Clear 16 1022 24 10000 2.57 290 04:31 28.02.2022
2858 Clear 18 1022 22 10000 3.6 320 03:30 28.02.2022
2859 Clear 23 1022 13 10000 4.63 330 23:26 27.02.2022
2860 Clear 22 1023 13 10000 4.12 330 22:33 27.02.2022
2861 Clear 22 1024 14 10000 3.6 330 21:47 27.02.2022
2862 Clear 20 1024 18 10000 3.09 360 20:54 27.02.2022
2863 Clear 19 1025 19 10000 3.09 360 20:27 27.02.2022
2864 Clear 18 1025 21 10000 3.09 360 19:56 27.02.2022
2865 Clear 17 1026 23 10000 3.09 360 19:26 27.02.2022
2866 Clear 15 1026 27 10000 3.09 300 18:39 27.02.2022
2867 Clear 14 1025 31 10000 5.14 150 17:54 27.02.2022
2868 Clear 10 1025 37 10000 3.6 160 16:37 27.02.2022
2869 Clear 8 1025 43 10000 5.14 130 15:55 27.02.2022
2870 Clear 6 1025 48 10000 5.14 130 13:21 27.02.2022
2871 Clear 6 1025 52 10000 4.63 140 12:32 27.02.2022
2872 Clear 7 1026 49 10000 2.06 90 10:54 27.02.2022
2873 Clear 7 1026 49 10000 3.09 150 09:58 27.02.2022
2874 Clear 7 1026 50 10000 3.09 150 09:37 27.02.2022
2875 Clear 8 1026 48 10000 3.09 150 09:18 27.02.2022
2876 Clear 9 1025 45 10000 2.57 140 07:34 27.02.2022
2877 Clear 10 1026 40 10000 2.57 240 05:36 27.02.2022
2878 Clear 18 1023 25 10000 6.17 300 00:53 27.02.2022
2879 Clear 18 1023 25 10000 4.47 273 22:58 26.02.2022
2880 Clear 18 1024 26 10000 4.02 313 21:44 26.02.2022
2881 Clear 17 1024 28 10000 2.57 300 20:52 26.02.2022
2882 Clear 16 1025 30 10000 2.57 300 20:19 26.02.2022
2883 Clear 15 1025 34 10000 1.34 8 19:41 26.02.2022
2884 Clear 14 1025 36 10000 0.89 0 19:19 26.02.2022
2885 Clear 11 1025 47 10000 1.34 156 17:45 26.02.2022
2886 Clear 9 1026 54 10000 2.06 150 16:49 26.02.2022
2887 Clear 5 1022 65 10000 3.6 150 15:49 26.02.2022
2888 Clear 4 1023 67 10000 3.6 150 15:22 26.02.2022
2889 Clear 4 1022 65 10000 4.12 140 14:53 26.02.2022
2890 Clear 3 1022 68 10000 4.12 140 14:33 26.02.2022
2891 Clear 4 1021 67 10000 3.09 150 13:19 26.02.2022
2892 Clear 4 1020 67 10000 4.12 150 12:20 26.02.2022
2893 Clear 5 1021 63 10000 3.09 130 11:28 26.02.2022
2894 Clear 6 1021 62 10000 2.57 150 10:39 26.02.2022
2895 Clear 7 1020 55 10000 1.54 180 08:53 26.02.2022
2896 Clear 8 1020 50 10000 1.54 190 06:51 26.02.2022
2897 Clear 17 1018 31 10000 5.14 340 00:50 26.02.2022
2898 Clear 18 1019 26 10000 4.02 316 22:49 25.02.2022
2899 Clear 17 1019 25 10000 2.68 243 21:43 25.02.2022
2900 Clear 17 1019 25 10000 3.13 265 21:23 25.02.2022
2901 Clear 16 1020 27 10000 2.06 0 20:32 25.02.2022
2902 Clouds 12 1021 39 10000 1.79 174 18:59 25.02.2022
2903 Clear 8 1021 54 10000 3.09 170 17:27 25.02.2022
2904 Clear 5 1022 64 10000 2.57 150 16:24 25.02.2022
2905 Clear 2 1019 71 10000 3.6 150 15:47 25.02.2022
2906 Clear 1 1019 70 10000 3.6 150 15:21 25.02.2022
2907 Clear 1 1019 76 10000 2.57 140 14:42 25.02.2022
2908 Clear 2 1018 73 10000 3.6 140 13:36 25.02.2022
2909 Clear 3 1018 73 10000 2.57 150 12:56 25.02.2022
2910 Clear 3 1019 73 10000 3.6 140 11:28 25.02.2022
2911 Clear 3 1019 73 10000 2.57 150 10:40 25.02.2022
2912 Clear 3 1019 73 10000 2.57 150 10:22 25.02.2022
2913 Clear 4 1020 70 10000 2.06 180 09:18 25.02.2022
2914 Clear 5 1020 63 10000 2.57 240 07:41 25.02.2022
2915 Clear 6 1021 62 10000 4.12 310 05:49 25.02.2022
2916 Clear 7 1020 56 10000 4.63 330 04:32 25.02.2022
2917 Clear 13 1021 28 10000 2.68 287 23:47 24.02.2022
2918 Clear 12 1022 31 10000 3.6 140 21:56 24.02.2022
2919 Clear 11 1023 31 10000 3.6 140 21:38 24.02.2022
2920 Clear 11 1023 33 10000 3.6 140 21:19 24.02.2022
2921 Clear 10 1024 44 10000 2.06 150 19:38 24.02.2022
2922 Clouds 8 1024 54 10000 2.06 150 18:43 24.02.2022
2923 Clouds 8 1024 61 10000 2.24 175 18:19 24.02.2022
2924 Clear 6 1024 72 10000 1.54 160 17:34 24.02.2022
2925 Clear 5 1024 79 10000 2.57 150 16:49 24.02.2022
2926 Clear 4 1023 84 10000 2.57 150 16:23 24.02.2022
2927 Rain 1 1022 89 10000 2.06 270 14:54 24.02.2022
2928 Rain 1 1022 90 10000 2.06 270 14:35 24.02.2022
2929 Clear 2 1021 87 10000 3.09 280 13:39 24.02.2022
2930 Clouds 2 1020 87 10000 2.06 270 12:50 24.02.2022
2931 Clouds 4 1020 88 10000 0 0 10:41 24.02.2022
2932 Clouds 4 1020 88 10000 0 0 10:41 24.02.2022
2933 Clouds 4 1019 88 10000 2.06 180 09:18 24.02.2022
2934 Clouds 4 1019 88 10000 2.57 170 08:40 24.02.2022
2935 Rain 4 1018 87 10000 1.54 180 05:53 24.02.2022
2936 Clouds 5 1014 82 10000 6.69 340 01:56 24.02.2022
2937 Clouds 9 1010 71 10000 11.32 240 23:31 23.02.2022
2938 Clouds 16 1011 35 10000 7.2 220 21:43 23.02.2022
2939 Thunderstorm 16 1013 34 10000 9.26 210 20:31 23.02.2022
2940 Clear 16 1013 34 10000 9.26 200 19:48 23.02.2022
2941 Clear 14 1014 40 10000 9.26 220 18:32 23.02.2022
2942 Clear 14 1014 40 10000 9.26 220 18:32 23.02.2022
2943 Clear 13 1014 45 10000 6.17 220 17:44 23.02.2022
2944 Clear 9 1014 57 10000 6.17 250 15:19 23.02.2022
2945 Clear 9 1013 56 10000 4.12 220 12:50 23.02.2022
2946 Clear 9 1013 56 10000 4.12 220 12:24 23.02.2022
2947 Clear 9 1014 56 10000 2.57 240 10:35 23.02.2022
2948 Clear 10 1015 55 10000 2.68 176 08:59 23.02.2022
2949 Clear 10 1015 55 10000 2.68 176 08:59 23.02.2022
2950 Clear 10 1014 53 10000 4.12 200 08:23 23.02.2022
2951 Clear 12 1015 48 10000 2.57 240 05:49 23.02.2022
2952 Clear 19 1013 26 10000 9.77 240 00:40 23.02.2022
2953 Clear 20 1013 24 10000 7.2 190 23:38 22.02.2022
2954 Clear 19 1014 25 10000 5.66 240 22:32 22.02.2022
2955 Clear 19 1014 26 10000 7.2 220 21:49 22.02.2022
2956 Clear 19 1015 27 10000 8.75 230 21:31 22.02.2022
2957 Clear 18 1015 29 10000 6.69 220 20:57 22.02.2022
2958 Clear 18 1015 31 10000 8.23 220 20:30 22.02.2022
2959 Clear 17 1016 34 10000 6.17 200 19:42 22.02.2022
2960 Clear 16 1016 35 10000 6.17 200 19:23 22.02.2022
2961 Clear 14 1017 44 10000 3.13 198 17:49 22.02.2022
2962 Clear 13 1017 47 10000 3.09 170 17:23 22.02.2022
2963 Clear 11 1016 54 10000 4.12 140 16:41 22.02.2022
2964 Clear 8 1017 62 10000 3.09 200 15:44 22.02.2022
2965 Clear 8 1017 62 10000 3.09 200 15:44 22.02.2022
2966 Clear 7 1014 66 10000 3.09 140 14:44 22.02.2022
2967 Clear 8 1015 59 10000 2.57 130 12:31 22.02.2022
2968 Clear 9 1016 57 10000 3.09 230 10:52 22.02.2022
2969 Clear 9 1016 53 10000 5.14 210 08:41 22.02.2022
2970 Clear 10 1016 51 10000 5.14 200 07:26 22.02.2022
2971 Clear 12 1015 44 10000 5.66 230 04:59 22.02.2022
2972 Clouds 16 1013 32 10000 6.69 210 01:45 22.02.2022
2973 Clear 18 1012 31 10000 8.23 200 22:46 21.02.2022
2974 Clouds 18 1013 28 10000 9.77 220 21:33 21.02.2022
2975 Clear 18 1013 25 10000 7.72 210 20:35 21.02.2022
2976 Clear 18 1013 25 10000 7.72 210 20:35 21.02.2022
2977 Clear 17 1013 25 10000 4.12 270 18:46 21.02.2022
2978 Clouds 14 1012 27 10000 0.45 0 16:58 21.02.2022
2979 Clouds 10 1011 29 10000 3.6 150 15:20 21.02.2022
2980 Clear 11 1011 27 10000 1.54 0 14:21 21.02.2022
2981 Clear 11 1011 27 10000 1.54 0 14:21 21.02.2022
2982 Clouds 12 1011 25 10000 3.09 150 13:20 21.02.2022
2983 Clear 11 1011 26 10000 2.57 140 12:23 21.02.2022
2984 Clear 12 1012 25 10000 3.6 150 10:58 21.02.2022
2985 Clear 13 1013 22 10000 1.54 90 09:34 21.02.2022
2986 Clear 15 1014 19 10000 2.57 170 05:35 21.02.2022
2987 Clouds 25 1014 10 10000 6.17 250 23:41 20.02.2022
2988 Clear 25 1016 9 10000 5.66 230 22:21 20.02.2022
2989 Clouds 25 1016 10 10000 6.17 190 21:42 20.02.2022
2990 Clear 24 1017 10 10000 5.66 170 20:53 20.02.2022
2991 Clear 24 1017 10 10000 5.66 170 20:33 20.02.2022
2992 Clear 22 1017 14 10000 4.63 150 19:31 20.02.2022
2993 Clear 22 1017 14 10000 4.63 150 19:31 20.02.2022
2994 Clouds 20 1017 17 10000 1.34 0 18:50 20.02.2022
2995 Clouds 19 1017 20 10000 4.12 140 18:31 20.02.2022
2996 Clear 17 1018 21 10000 5.66 140 17:47 20.02.2022
2997 Clear 10 1016 27 10000 5.14 140 15:32 20.02.2022
2998 Clear 10 1015 27 10000 4.63 140 14:41 20.02.2022
2999 Clear 10 1016 26 10000 4.12 150 13:23 20.02.2022
3000 Clear 11 1016 27 10000 4.63 150 12:25 20.02.2022
3001 Clear 12 1017 25 10000 4.63 150 10:21 20.02.2022
3002 Clear 12 1018 24 10000 3.6 140 09:53 20.02.2022
3003 Clear 13 1017 23 10000 3.6 140 08:25 20.02.2022
3004 Clear 25 1018 9 10000 2.06 110 00:54 20.02.2022
3005 Clear 25 1018 8 10000 2.06 110 00:29 20.02.2022
3006 Clear 24 1019 10 10000 2.57 0 22:44 19.02.2022
3007 Clear 24 1019 10 10000 2.68 141 22:21 19.02.2022
3008 Clear 23 1020 11 10000 5.66 120 20:51 19.02.2022
3009 Clear 21 1021 13 10000 6.69 120 19:42 19.02.2022
3010 Clear 20 1022 14 10000 6.69 120 19:20 19.02.2022
3011 Clear 18 1022 17 10000 7.2 110 18:29 19.02.2022
3012 Clear 16 1021 20 10000 6.69 130 17:33 19.02.2022
3013 Clear 10 1021 28 10000 4.63 140 16:22 19.02.2022
3014 Clear 9 1020 28 10000 2.06 140 14:56 19.02.2022
3015 Clear 8 1020 29 10000 3.6 140 14:37 19.02.2022
3016 Clear 9 1019 29 10000 2.52 86 11:59 19.02.2022
3017 Clear 8 1020 32 10000 3.6 180 11:36 19.02.2022
3018 Clear 9 1022 30 10000 2.06 180 09:36 19.02.2022
3019 Clear 11 1022 29 10000 2.06 170 06:53 19.02.2022
3020 Clear 16 1020 22 10000 3.6 340 02:38 19.02.2022
3021 Clear 20 1021 16 10000 2.57 320 23:28 18.02.2022
3022 Clear 18 1023 18 10000 1.79 88 21:30 18.02.2022
3023 Clear 18 1024 20 10000 2.24 278 20:39 18.02.2022
3024 Clear 16 1025 23 10000 2.06 350 19:51 18.02.2022
3025 Clear 14 1025 27 10000 0.89 0 18:49 18.02.2022
3026 Clear 12 1025 31 10000 0.89 17 18:19 18.02.2022
3027 Clear 10 1024 36 10000 0 0 17:25 18.02.2022
3028 Clear 4 1023 49 10000 3.09 140 14:47 18.02.2022
3029 Clear 4 1023 48 10000 2.06 140 13:54 18.02.2022
3030 Clear 5 1023 46 10000 1.54 190 12:51 18.02.2022
3031 Clear 6 1022 43 10000 0.87 69 11:58 18.02.2022
3032 Clear 5 1023 47 10000 2.06 140 11:21 18.02.2022
3033 Clear 6 1023 47 10000 3.6 150 09:30 18.02.2022
3034 Clear 8 1024 43 10000 2.06 270 06:51 18.02.2022
3035 Clear 9 1024 39 10000 1.34 335 05:37 18.02.2022
3036 Clear 15 1022 32 10000 2.24 276 22:46 17.02.2022
3037 Clouds 15 1023 35 10000 2.68 215 21:42 17.02.2022
3038 Clear 14 1023 41 10000 3.13 287 20:52 17.02.2022
3039 Clear 13 1024 42 10000 3.13 287 20:33 17.02.2022
3040 Clear 13 1024 46 10000 3.13 285 19:43 17.02.2022
3041 Clouds 11 1024 52 10000 2.68 292 18:37 17.02.2022
3042 Clouds 9 1023 58 10000 3.13 195 17:47 17.02.2022
3043 Clouds 6 1022 70 10000 5.14 180 16:20 17.02.2022
3044 Clouds 5 1021 74 10000 3.09 160 14:39 17.02.2022
3045 Clouds 5 1020 74 10000 4.63 140 13:47 17.02.2022
3046 Clouds 6 1020 73 10000 3.6 110 11:57 17.02.2022
3047 Clouds 5 1020 73 10000 3.6 110 11:21 17.02.2022
3048 Clear 6 1020 70 10000 2.06 150 08:37 17.02.2022
3049 Clouds 11 1015 47 10000 5.66 280 00:20 17.02.2022
3050 Clouds 10 1014 55 10000 4.47 295 22:38 16.02.2022
3051 Clouds 9 1016 67 10000 3.6 250 20:32 16.02.2022
3052 Clouds 7 1016 82 10000 4.63 250 19:27 16.02.2022
3053 Rain 6 1014 84 10000 4.47 307 18:35 16.02.2022
3054 Clouds 6 1012 84 8047 5.14 280 17:27 16.02.2022
3055 Clear 8 1010 63 10000 4.92 325 15:24 16.02.2022
3056 Clear 9 1010 55 10000 4.12 240 14:29 16.02.2022
3057 Clear 11 1009 35 10000 5.66 240 12:31 16.02.2022
3058 Clear 12 1009 29 10000 5.14 220 11:46 16.02.2022
3059 Clear 12 1010 24 10000 7.72 210 10:35 16.02.2022
3060 Clear 13 1010 22 10000 3.6 230 09:54 16.02.2022
3061 Clear 15 1010 15 10000 6.17 200 06:44 16.02.2022
3062 Clear 20 1007 10 10000 9.77 220 02:48 16.02.2022
3063 Clear 24 1010 8 10000 11.32 190 22:34 15.02.2022
3064 Clear 24 1011 7 10000 10.8 200 21:51 15.02.2022
3065 Clear 24 1011 7 10000 10.8 220 21:31 15.02.2022
3066 Clear 24 1012 6 10000 9.26 240 20:58 15.02.2022
3067 Clear 24 1013 6 10000 8.23 200 20:27 15.02.2022
3068 Clear 24 1013 7 10000 7.72 210 19:46 15.02.2022
3069 Clear 21 1013 11 10000 5.14 160 18:27 15.02.2022
3070 Clear 20 1014 14 10000 4.63 160 17:55 15.02.2022
3071 Clear 17 1014 16 10000 4.63 160 17:37 15.02.2022
3072 Clear 13 1014 17 10000 4.63 140 15:43 15.02.2022
3073 Clear 12 1013 19 10000 1.54 80 14:31 15.02.2022
3074 Clear 13 1014 16 10000 2.57 140 13:25 15.02.2022
3075 Clear 12 1013 17 10000 4.12 150 11:41 15.02.2022
3076 Clear 13 1014 17 10000 4.12 140 10:30 15.02.2022
3077 Clear 14 1014 17 10000 3.6 140 08:48 15.02.2022
3078 Clear 15 1014 17 10000 3.6 140 06:46 15.02.2022
3079 Clear 27 1017 6 10000 3.13 319 23:35 14.02.2022
3080 Clear 27 1018 6 10000 1.79 261 21:57 14.02.2022
3081 Clear 26 1020 8 10000 0.45 11 20:54 14.02.2022
3082 Clear 24 1021 11 10000 3.6 180 19:49 14.02.2022
3083 Clear 23 1021 12 10000 3.6 180 19:29 14.02.2022
3084 Clear 20 1022 16 10000 3.6 150 18:24 14.02.2022
3085 Clear 17 1021 20 10000 5.14 150 17:30 14.02.2022
3086 Clear 15 1021 19 10000 4.63 160 16:37 14.02.2022
3087 Clear 11 1021 19 10000 4.63 160 15:22 14.02.2022
3088 Clear 12 1021 21 10000 2.06 130 13:35 14.02.2022
3089 Clear 12 1021 20 10000 5.14 140 12:58 14.02.2022
3090 Clear 12 1021 19 10000 5.14 140 12:32 14.02.2022
3091 Clear 13 1021 18 10000 5.14 140 11:38 14.02.2022
3092 Clear 13 1022 18 10000 4.63 160 10:18 14.02.2022
3093 Clear 15 1023 18 10000 4.12 120 07:49 14.02.2022
3094 Clear 15 1023 18 10000 4.12 120 07:24 14.02.2022
3095 Clear 26 1024 8 10000 4.12 150 22:48 13.02.2022
3096 Clear 26 1024 9 10000 4.12 150 22:30 13.02.2022
3097 Clear 26 1026 9 10000 7.72 150 21:57 13.02.2022
3098 Clear 25 1026 10 10000 7.72 150 21:20 13.02.2022
3099 Clear 24 1027 12 10000 7.2 150 20:27 13.02.2022
3100 Clear 22 1027 17 10000 8.75 120 19:18 13.02.2022
3101 Clear 20 1027 19 10000 7.72 120 18:41 13.02.2022
3102 Clear 15 1027 26 10000 5.66 140 17:22 13.02.2022
3103 Clear 11 1025 32 10000 4.63 140 15:51 13.02.2022
3104 Clear 11 1024 31 10000 5.66 130 14:50 13.02.2022
3105 Clear 12 1024 28 10000 6.17 120 13:27 13.02.2022
3106 Clear 11 1024 30 10000 4.12 130 12:42 13.02.2022
3107 Clear 13 1024 27 10000 5.14 130 10:43 13.02.2022
3108 Clear 14 1024 26 10000 5.14 130 10:23 13.02.2022
3109 Clear 14 1024 25 10000 4.12 110 08:55 13.02.2022
3110 Clear 24 1023 11 10000 4.63 50 01:26 13.02.2022
3111 Clear 25 1023 9 10000 4.12 110 00:21 13.02.2022
3112 Clear 25 1024 9 10000 2.57 120 22:55 12.02.2022
3113 Clear 25 1024 9 10000 2.57 120 22:30 12.02.2022
3114 Clear 24 1025 11 10000 3.13 73 20:55 12.02.2022
3115 Clear 23 1024 12 10000 3.58 70 20:23 12.02.2022
3116 Clear 21 1023 16 10000 2.06 320 18:54 12.02.2022
3117 Clear 20 1023 16 10000 2.06 320 18:36 12.02.2022
3118 Clear 17 1021 23 10000 2.57 190 17:39 12.02.2022
3119 Clear 14 1022 28 10000 2.06 170 16:46 12.02.2022
3120 Clear 11 1021 31 10000 2.57 180 15:53 12.02.2022
3121 Clear 10 1021 33 10000 3.09 150 15:20 12.02.2022
3122 Clear 10 1020 33 10000 2.06 130 14:25 12.02.2022
3123 Clear 12 1019 30 10000 3.09 130 11:33 12.02.2022
3124 Clear 12 1018 30 10000 4.12 160 10:32 12.02.2022
3125 Clear 12 1018 28 10000 3.09 150 09:37 12.02.2022
3126 Clear 13 1018 28 10000 4.12 130 08:47 12.02.2022
3127 Clear 14 1018 28 10000 4.63 140 07:45 12.02.2022
3128 Clear 16 1017 25 10000 2.57 330 04:50 12.02.2022
3129 Clear 21 1016 17 10000 4.63 290 02:19 12.02.2022
3130 Clear 25 1016 14 10000 5.14 320 23:56 11.02.2022
3131 Clear 25 1016 14 10000 4.02 219 22:23 11.02.2022
3132 Clear 24 1016 15 10000 3.09 340 21:37 11.02.2022
3133 Clear 22 1018 17 10000 2.06 0 20:29 11.02.2022
3134 Clear 21 1018 19 10000 2.06 230 19:29 11.02.2022
3135 Clear 19 1019 21 10000 2.06 190 18:44 11.02.2022
3136 Clear 15 1019 27 10000 4.12 160 17:27 11.02.2022
3137 Clear 15 1020 29 10000 1.29 136 16:56 11.02.2022
3138 Clear 9 1018 32 10000 4.12 140 15:26 11.02.2022
3139 Clear 10 1018 32 10000 4.12 150 14:38 11.02.2022
3140 Clear 10 1017 31 10000 4.12 150 14:20 11.02.2022
3141 Clear 9 1017 32 10000 4.12 160 13:47 11.02.2022
3142 Clear 10 1017 31 10000 3.6 130 13:28 11.02.2022
3143 Clear 11 1017 30 10000 2.57 150 11:23 11.02.2022
3144 Clear 12 1018 27 10000 2.57 110 09:38 11.02.2022
3145 Clear 13 1017 27 10000 4.12 140 08:36 11.02.2022
3146 Clear 14 1017 25 10000 2.57 140 07:47 11.02.2022
3147 Clear 15 1017 23 10000 3.6 190 06:29 11.02.2022
3148 Clear 21 1017 17 10000 4.12 350 02:24 11.02.2022
3149 Clear 24 1017 11 10000 2.57 310 00:44 11.02.2022
3150 Clear 24 1018 11 10000 2.24 295 22:39 10.02.2022
3151 Clear 24 1018 12 10000 3.13 289 21:43 10.02.2022
3152 Clear 23 1019 13 10000 2.68 293 20:50 10.02.2022
3153 Clear 22 1020 15 10000 2.68 30 19:59 10.02.2022
3154 Clear 20 1020 16 10000 2.57 320 19:23 10.02.2022
3155 Clear 18 1019 19 10000 1.54 110 18:33 10.02.2022
3156 Clear 14 1019 24 10000 2.06 10 17:23 10.02.2022
3157 Clear 10 1018 24 10000 2.06 110 16:43 10.02.2022
3158 Clear 7 1018 26 10000 3.6 160 15:41 10.02.2022
3159 Clear 8 1018 27 10000 3.6 160 15:21 10.02.2022
3160 Clear 8 1017 28 10000 4.12 150 14:35 10.02.2022
3161 Clear 10 1017 26 10000 5.14 140 13:56 10.02.2022
3162 Clear 9 1017 28 10000 5.14 140 13:19 10.02.2022
3163 Clear 10 1016 27 10000 4.63 150 11:53 10.02.2022
3164 Clear 9 1016 27 10000 4.63 150 11:32 10.02.2022
3165 Clear 11 1017 26 10000 1.54 90 10:23 10.02.2022
3166 Clear 11 1017 26 10000 3.6 150 09:44 10.02.2022
3167 Clear 11 1017 26 10000 4.63 160 08:42 10.02.2022
3168 Clear 13 1016 23 10000 2.57 120 06:33 10.02.2022
3169 Clear 17 1016 19 10000 3.09 320 03:21 10.02.2022
3170 Clear 23 1015 11 10000 3.58 295 00:56 10.02.2022
3171 Clear 24 1016 10 10000 2.06 360 00:38 10.02.2022
3172 Clear 24 1016 10 10000 2.06 360 00:20 10.02.2022
3173 Clear 24 1018 10 10000 1.54 140 22:54 09.02.2022
3174 Clear 24 1018 10 10000 3.6 120 22:30 09.02.2022
3175 Clear 23 1018 11 10000 4.12 50 21:47 09.02.2022
3176 Clear 23 1018 11 10000 4.12 50 21:27 09.02.2022
3177 Clear 22 1019 13 10000 4.12 120 20:43 09.02.2022
3178 Clear 22 1019 13 10000 4.12 120 20:22 09.02.2022
3179 Clear 21 1020 15 10000 3.58 155 19:41 09.02.2022
3180 Clear 19 1021 18 10000 3.13 86 18:38 09.02.2022
3181 Clear 14 1020 23 10000 3.09 160 16:55 09.02.2022
3182 Clear 11 1018 26 10000 3.19 95 15:59 09.02.2022
3183 Clear 9 1020 28 10000 0 0 15:22 09.02.2022
3184 Clear 9 1019 27 10000 2.06 160 12:43 09.02.2022
3185 Clear 10 1018 27 10000 4.12 150 11:23 09.02.2022
3186 Clear 10 1019 27 10000 3.6 150 10:33 09.02.2022
3187 Clear 10 1019 27 10000 3.09 140 09:47 09.02.2022
3188 Clear 10 1019 27 10000 3.09 140 09:21 09.02.2022
3189 Clear 11 1019 26 10000 3.6 150 08:43 09.02.2022
3190 Clear 13 1019 25 10000 1.54 170 05:55 09.02.2022
3191 Clear 14 1019 23 10000 2.06 350 03:51 09.02.2022
3192 Clear 19 1019 17 10000 4.12 340 01:55 09.02.2022
3193 Clear 21 1019 12 10000 3.6 30 23:42 08.02.2022
3194 Clear 21 1020 12 10000 2.68 358 22:53 08.02.2022
3195 Clear 21 1020 12 10000 1.79 192 22:27 08.02.2022
3196 Clear 20 1021 13 10000 3.13 269 21:58 08.02.2022
3197 Clear 19 1022 14 10000 2.06 280 21:22 08.02.2022
3198 Clear 19 1022 15 10000 1.54 360 20:56 08.02.2022
3199 Clear 18 1022 16 10000 1.54 360 20:31 08.02.2022
3200 Clear 16 1023 19 10000 1.54 120 18:55 08.02.2022
3201 Clear 13 1024 24 10000 6.69 120 17:50 08.02.2022
3202 Clear 10 1024 29 10000 3.6 140 16:55 08.02.2022
3203 Clear 8 1023 31 10000 6.69 130 15:45 08.02.2022
3204 Clear 7 1022 34 10000 3.09 160 14:57 08.02.2022
3205 Clear 8 1023 30 10000 5.66 130 13:30 08.02.2022
3206 Clear 9 1022 30 10000 4.12 140 12:20 08.02.2022
3207 Clear 9 1024 28 10000 4.63 150 10:47 08.02.2022
3208 Clear 10 1024 28 10000 5.14 120 09:46 08.02.2022
3209 Clear 10 1025 28 10000 4.63 120 08:27 08.02.2022
3210 Clear 12 1025 25 10000 3.6 110 05:46 08.02.2022
3211 Clear 13 1025 23 10000 3.6 100 04:40 08.02.2022
3212 Clear 13 1024 22 10000 3.6 100 04:21 08.02.2022
3213 Clear 14 1025 21 10000 4.63 80 03:36 08.02.2022
3214 Clear 14 1025 21 10000 4.63 80 03:18 08.02.2022
3215 Clear 14 1025 21 10000 4.63 80 03:18 08.02.2022
3216 Clear 15 1025 20 10000 3.58 131 02:59 08.02.2022
3217 Clear 15 1024 19 10000 5.14 70 02:36 08.02.2022
3218 Clear 16 1024 19 10000 5.14 70 02:18 08.02.2022
3219 Clear 16 1024 18 10000 5.14 70 02:18 08.02.2022
3220 Clear 17 1024 17 10000 6.69 50 01:44 08.02.2022
3221 Clear 18 1024 17 10000 6.69 50 01:24 08.02.2022
3222 Clear 18 1024 16 10000 7.72 50 00:55 08.02.2022
3223 Clear 19 1024 16 10000 7.2 50 23:58 07.02.2022
3224 Clear 19 1025 16 10000 7.2 50 23:40 07.02.2022
3225 Clear 19 1025 16 10000 7.2 50 23:18 07.02.2022
3226 Clear 19 1025 16 10000 4.63 90 22:54 07.02.2022
3227 Clear 18 1026 17 10000 6.17 120 22:18 07.02.2022
3228 Clear 18 1026 18 10000 9.26 110 21:44 07.02.2022
3229 Clear 18 1027 19 10000 9.26 110 21:25 07.02.2022
3230 Clear 17 1028 20 10000 10.29 150 20:41 07.02.2022
3231 Clear 17 1029 21 10000 10.29 150 20:18 07.02.2022
3232 Clear 16 1028 23 10000 9.26 100 19:45 07.02.2022
3233 Clear 14 1030 26 10000 11.83 120 18:22 07.02.2022
3234 Clear 11 1028 31 10000 4.47 91 16:53 07.02.2022
3235 Clear 9 1027 33 10000 3.6 90 16:20 07.02.2022
3236 Clear 9 1027 35 10000 5.66 100 15:48 07.02.2022
3237 Clear 9 1026 32 10000 6.17 90 13:37 07.02.2022
3238 Clear 10 1026 31 10000 6.17 90 13:19 07.02.2022
3239 Clear 10 1026 28 10000 1.34 0 11:58 07.02.2022
3240 Clear 10 1026 28 10000 1.34 0 11:58 07.02.2022
3241 Clear 10 1026 28 10000 1.34 0 11:58 07.02.2022
3242 Clear 10 1026 27 10000 0.89 0 11:37 07.02.2022
3243 Clear 11 1025 25 10000 1.34 0 10:52 07.02.2022
3244 Clear 11 1025 24 10000 0.89 0 10:32 07.02.2022
3245 Clear 11 1025 22 10000 0.89 0 09:53 07.02.2022
3246 Clear 11 1024 22 10000 1.34 0 09:18 07.02.2022
3247 Clear 11 1024 21 10000 0.89 0 08:39 07.02.2022
3248 Clear 10 1023 21 10000 1.34 149 07:19 07.02.2022
3249 Clear 11 1024 19 10000 0.89 146 06:34 07.02.2022
3250 Clear 15 1021 15 10000 0.45 309 03:27 07.02.2022
3251 Clear 20 1019 11 10000 2.24 0 00:46 07.02.2022
3252 Clear 20 1019 12 10000 0.89 0 23:49 06.02.2022
3253 Clear 19 1020 13 10000 0.45 0 22:49 06.02.2022
3254 Clear 19 1021 14 10000 1.34 0 21:56 06.02.2022
3255 Clear 19 1021 15 10000 0.89 0 21:35 06.02.2022
3256 Clear 18 1022 16 10000 0.45 0 20:55 06.02.2022
3257 Clear 18 1022 16 10000 0.45 0 20:55 06.02.2022
3258 Clear 17 1021 17 10000 0.45 0 20:31 06.02.2022
3259 Clear 15 1022 20 10000 0.45 0 19:40 06.02.2022
3260 Clear 13 1022 23 10000 0.89 0 18:41 06.02.2022
3261 Clear 11 1022 26 10000 0.89 146 17:56 06.02.2022
3262 Clear 10 1021 28 10000 0.45 146 17:21 06.02.2022
3263 Clear 7 1021 30 10000 2.57 150 16:47 06.02.2022
3264 Clear 4 1020 36 10000 1.54 330 15:49 06.02.2022
3265 Clear 5 1020 33 10000 1.54 330 15:27 06.02.2022
3266 Clear 5 1019 32 10000 3.6 140 14:45 06.02.2022
3267 Clear 6 1020 32 10000 3.6 150 13:27 06.02.2022
3268 Clouds 6 1019 31 10000 1.93 107 12:58 06.02.2022
3269 Clear 6 1020 32 10000 3.09 150 11:35 06.02.2022
3270 Clear 7 1021 29 10000 3.6 140 10:31 06.02.2022
3271 Clouds 8 1020 28 10000 1.21 59 08:59 06.02.2022
3272 Clear 8 1021 27 10000 2.06 140 08:30 06.02.2022
3273 Clear 9 1019 24 10000 0 0 05:31 06.02.2022
3274 Clear 13 1020 20 10000 0.89 0 02:50 06.02.2022
3275 Clear 15 1020 18 10000 0.45 0 02:24 06.02.2022
3276 Clear 18 1020 15 10000 1.79 0 00:29 06.02.2022
3277 Clear 18 1021 14 10000 0.45 0 22:31 05.02.2022
3278 Clear 17 1022 13 10000 1.34 0 21:32 05.02.2022
3279 Clear 15 1023 14 10000 0.89 0 20:24 05.02.2022
3280 Clear 14 1024 15 10000 0.45 0 19:46 05.02.2022
3281 Clear 12 1025 16 10000 0.89 0 18:58 05.02.2022
3282 Clear 9 1024 18 10000 0.45 0 17:39 05.02.2022
3283 Clear 9 1024 18 10000 0.45 0 17:39 05.02.2022
3284 Clear 9 1024 18 10000 0.45 0 17:39 05.02.2022
3285 Clear 7 1025 20 10000 1.34 0 16:58 05.02.2022
3286 Clear 3 1025 23 10000 2.68 135 15:34 05.02.2022
3287 Clear 3 1025 23 10000 0.89 196 14:55 05.02.2022
3288 Clear 4 1025 21 10000 1.34 190 12:47 05.02.2022
3289 Clear 4 1025 20 10000 0.89 206 12:22 05.02.2022
3290 Clear 6 1026 19 10000 0.89 191 10:48 05.02.2022
3291 Clear 6 1026 19 10000 0.89 194 10:20 05.02.2022
3292 Clear 6 1027 19 10000 0.89 188 09:43 05.02.2022
3293 Clear 7 1027 19 10000 1.34 177 07:51 05.02.2022
3294 Clear 7 1027 20 10000 0.89 202 06:57 05.02.2022
3295 Clear 9 1027 17 10000 0.89 0 04:29 05.02.2022
3296 Clear 13 1027 13 10000 1.79 0 01:19 05.02.2022
3297 Clear 14 1027 12 10000 1.79 0 00:52 05.02.2022
3298 Clear 14 1027 13 10000 2.68 0 23:39 04.02.2022
3299 Clear 14 1027 14 10000 2.24 0 23:21 04.02.2022
3300 Clear 14 1028 14 10000 3.13 0 21:54 04.02.2022
3301 Clear 13 1029 15 10000 2.68 0 21:36 04.02.2022
3302 Clear 13 1029 15 10000 3.13 0 21:18 04.02.2022
3303 Clear 11 1031 19 10000 0.89 0 19:36 04.02.2022
3304 Clear 8 1031 25 10000 1.79 0 17:40 04.02.2022
3305 Clear 2 1030 38 10000 0.45 96 15:39 04.02.2022
3306 Clear 3 1027 36 10000 0.45 9 14:52 04.02.2022
3307 Clear 3 1026 36 10000 1.79 27 13:24 04.02.2022
3308 Clear 4 1026 34 10000 0.89 132 12:42 04.02.2022
3309 Clear 4 1026 31 10000 0.89 51 11:41 04.02.2022
3310 Clear 3 1025 28 10000 2.06 190 10:34 04.02.2022
3311 Clear 3 1025 23 10000 4.12 150 08:34 04.02.2022
3312 Clear 5 1025 20 10000 0.45 218 05:23 04.02.2022
3313 Clear 8 1022 16 10000 1.79 0 02:40 04.02.2022
3314 Clear 12 1020 13 10000 1.79 0 00:31 04.02.2022
3315 Clear 12 1020 13 10000 1.79 0 23:28 03.02.2022
3316 Clear 11 1020 13 10000 2.24 0 22:31 03.02.2022
3317 Clear 11 1020 14 10000 1.34 0 21:48 03.02.2022
3318 Clear 10 1021 17 10000 0.45 0 20:27 03.02.2022
3319 Clear 9 1021 19 10000 0.45 0 19:59 03.02.2022
3320 Clear 8 1021 20 10000 0.45 0 19:26 03.02.2022
3321 Clear 7 1021 24 10000 0.45 0 18:28 03.02.2022
3322 Clear 4 1021 29 10000 0.45 0 17:32 03.02.2022
3323 Clear 0 1018 32 10000 3.6 150 15:52 03.02.2022
3324 Clear 0 1018 33 10000 4.12 150 14:26 03.02.2022
3325 Clear 0 1017 32 10000 3.6 150 12:37 03.02.2022
3326 Clear 2 1016 28 10000 3.6 150 09:29 03.02.2022
3327 Clear 3 1015 25 10000 3.6 140 08:23 03.02.2022
3328 Clear 7 1013 17 10000 1.79 319 03:28 03.02.2022
3329 Clear 12 1010 14 10000 3.13 0 00:30 03.02.2022
3330 Clear 14 1008 18 10000 4.02 279 22:47 02.02.2022
3331 Clouds 15 1008 30 10000 2.68 0 21:53 02.02.2022
3332 Clouds 14 1008 38 10000 2.68 0 21:29 02.02.2022
3333 Clouds 14 1009 40 10000 1.79 0 20:28 02.02.2022
3334 Clouds 14 1010 42 10000 1.34 0 19:49 02.02.2022
3335 Clouds 14 1010 44 10000 0.89 0 19:20 02.02.2022
3336 Clouds 12 1011 42 10000 0.89 0 18:25 02.02.2022
3337 Clouds 12 1010 42 10000 1.34 0 17:37 02.02.2022
3338 Clouds 11 1010 43 10000 0.89 0 17:18 02.02.2022
3339 Clouds 10 1010 45 10000 1.34 175 16:20 02.02.2022
3340 Clouds 10 1008 40 10000 0.45 179 12:50 02.02.2022
3341 Clouds 10 1008 38 10000 0.89 192 11:51 02.02.2022
3342 Clouds 10 1009 37 10000 0.45 179 11:31 02.02.2022
3343 Clouds 11 1008 34 10000 0 0 09:22 02.02.2022
3344 Clouds 12 1010 31 10000 0.45 183 05:29 02.02.2022
3345 Clouds 18 1009 24 10000 0.89 0 22:36 01.02.2022
3346 Clouds 18 1010 25 10000 0.89 0 21:30 01.02.2022
3347 Clouds 17 1012 27 10000 0.45 0 19:56 01.02.2022
3348 Clear 13 1013 36 10000 0.45 0 17:38 01.02.2022
3349 Clouds 10 1015 41 10000 0.89 166 16:31 01.02.2022
3350 Clouds 8 1013 42 10000 3.6 140 13:27 01.02.2022
3351 Clouds 8 1013 41 10000 4.12 150 12:28 01.02.2022
3352 Clouds 8 1013 41 10000 4.12 150 12:28 01.02.2022
3353 Clouds 8 1014 40 10000 3.6 150 10:42 01.02.2022
3354 Clear 16 1016 27 10000 0.45 0 02:24 01.02.2022
3355 Clear 19 1017 21 10000 2.24 0 23:39 31.01.2022
3356 Clear 20 1017 21 10000 2.24 0 22:42 31.01.2022
3357 Clear 20 1017 22 10000 1.79 0 21:36 31.01.2022
3358 Clear 19 1019 24 10000 0.89 168 20:35 31.01.2022
3359 Clear 18 1019 26 10000 0.45 0 19:59 31.01.2022
3360 Clear 16 1020 30 10000 1.34 270 18:54 31.01.2022
3361 Clear 14 1020 33 10000 0.45 0 18:18 31.01.2022
3362 Clear 12 1020 39 10000 0.45 0 17:24 31.01.2022
3363 Clear 8 1020 44 10000 3.09 120 16:25 31.01.2022
3364 Clear 5 1020 45 10000 1.54 130 14:54 31.01.2022
3365 Clear 6 1020 48 10000 2.57 150 13:43 31.01.2022
3366 Clear 6 1020 47 10000 1.54 110 12:38 31.01.2022
3367 Clear 8 1020 45 10000 2.06 140 11:31 31.01.2022
3368 Clear 8 1020 43 10000 2.06 150 10:48 31.01.2022
3369 Clear 9 1020 42 10000 3.6 150 09:38 31.01.2022
3370 Clear 9 1021 41 10000 2.57 130 08:56 31.01.2022
3371 Clear 10 1020 41 10000 2.57 130 08:38 31.01.2022
3372 Clear 10 1020 40 10000 2.57 130 08:19 31.01.2022
3373 Clear 11 1020 37 10000 0.45 66 06:18 31.01.2022
3374 Clear 19 1019 21 10000 2.24 0 00:43 31.01.2022
3375 Clear 19 1018 20 10000 1.79 0 22:34 30.01.2022
3376 Clouds 19 1019 21 10000 1.79 0 21:47 30.01.2022
3377 Clear 19 1019 21 10000 1.34 0 21:26 30.01.2022
3378 Clear 18 1019 22 10000 2.68 0 20:55 30.01.2022
3379 Clear 18 1020 22 10000 2.24 0 20:31 30.01.2022
3380 Clear 18 1020 23 10000 1.79 0 19:58 30.01.2022
3381 Clear 16 1020 27 10000 0.89 0 18:52 30.01.2022
3382 Clear 16 1020 28 10000 0.45 0 18:26 30.01.2022
3383 Clouds 14 1019 33 10000 0.89 155 17:33 30.01.2022
3384 Clear 12 1019 38 10000 0.89 157 16:44 30.01.2022
3385 Clear 10 1019 43 10000 0.45 171 16:23 30.01.2022
3386 Clouds 9 1017 42 10000 3.6 160 15:55 30.01.2022
3387 Clouds 9 1017 42 10000 3.6 160 15:37 30.01.2022
3388 Clouds 10 1018 41 10000 0.45 128 15:19 30.01.2022
3389 Clouds 10 1016 43 10000 2.57 150 14:44 30.01.2022
3390 Clouds 10 1017 42 10000 0.89 183 12:46 30.01.2022
3391 Clouds 10 1017 40 10000 0.45 173 11:49 30.01.2022
3392 Clouds 11 1017 37 10000 2.06 130 10:26 30.01.2022
3393 Clouds 12 1017 38 10000 1.34 112 09:26 30.01.2022
3394 Clouds 12 1018 37 10000 1.54 110 08:32 30.01.2022
3395 Clear 16 1017 26 10000 0.45 181 02:58 30.01.2022
3396 Clear 19 1017 22 10000 0.89 43 01:54 30.01.2022
3397 Clear 21 1018 17 10000 1.34 40 23:49 29.01.2022
3398 Clear 21 1020 17 10000 1.34 125 22:58 29.01.2022
3399 Clear 20 1021 19 10000 1.34 0 21:35 29.01.2022
3400 Clear 20 1022 20 10000 5.36 133 21:00 29.01.2022
3401 Clear 18 1021 21 10000 3.58 116 20:21 29.01.2022
3402 Clear 18 1022 22 10000 12.35 140 19:33 29.01.2022
3403 Clear 16 1023 24 10000 3.58 123 18:51 29.01.2022
3404 Clouds 14 1024 26 10000 0.89 0 17:56 29.01.2022
3405 Clear 12 1022 31 10000 0.89 142 17:19 29.01.2022
3406 Clear 8 1022 36 10000 0.89 193 15:42 29.01.2022
3407 Clear 8 1023 35 10000 0.45 0 13:58 29.01.2022
3408 Clear 9 1023 34 10000 0.89 0 13:36 29.01.2022
3409 Clear 9 1023 34 10000 0.45 0 13:18 29.01.2022
3410 Clear 9 1023 32 10000 0.45 0 11:39 29.01.2022
3411 Clear 10 1022 30 10000 1.34 0 10:34 29.01.2022
3412 Clear 11 1024 28 10000 0.89 0 08:20 29.01.2022
3413 Clouds 14 1024 22 10000 1.34 0 02:48 29.01.2022
3414 Clear 17 1024 19 10000 2.24 0 00:32 29.01.2022
3415 Clear 18 1024 19 10000 3.13 0 23:32 28.01.2022
3416 Clear 18 1025 19 10000 1.79 0 22:47 28.01.2022
3417 Clear 18 1025 19 10000 1.79 0 22:19 28.01.2022
3418 Clear 17 1027 21 10000 1.34 0 20:41 28.01.2022
3419 Clouds 16 1028 22 10000 0.89 0 19:58 28.01.2022
3420 Clear 14 1028 24 10000 3.58 129 18:52 28.01.2022
3421 Clear 14 1027 24 10000 0.89 0 18:34 28.01.2022
3422 Clear 9 1027 30 10000 0.89 39 16:23 28.01.2022
3423 Clear 8 1026 31 10000 2.24 75 14:54 28.01.2022
3424 Clear 7 1024 30 10000 1.54 140 12:42 28.01.2022
3425 Clear 7 1024 31 10000 4.63 140 11:49 28.01.2022
3426 Clear 8 1024 26 10000 5.14 140 10:27 28.01.2022
3427 Clear 8 1025 28 10000 5.66 140 09:46 28.01.2022
3428 Clear 10 1024 30 10000 3.09 200 07:41 28.01.2022
3429 Clear 11 1023 31 10000 3.6 190 06:29 28.01.2022
3430 Clear 11 1022 34 10000 0.45 0 03:51 28.01.2022
3431 Clear 14 1022 30 10000 0.45 0 02:27 28.01.2022
3432 Clear 16 1021 25 10000 1.34 0 01:37 28.01.2022
3433 Clear 16 1021 25 10000 1.34 0 01:37 28.01.2022
3434 Clear 17 1021 21 10000 0.89 0 00:42 28.01.2022
3435 Clear 17 1020 23 10000 0.89 0 22:20 27.01.2022
3436 Clear 17 1021 25 10000 0.89 0 21:37 27.01.2022
3437 Clear 16 1021 26 10000 0.45 0 20:59 27.01.2022
3438 Clear 14 1022 30 10000 0.45 0 19:37 27.01.2022
3439 Clear 11 1023 36 10000 0.89 118 18:19 27.01.2022
3440 Clear 7 1021 48 10000 2.06 130 16:45 27.01.2022
3441 Clear 4 1020 50 10000 3.09 160 13:57 27.01.2022
3442 Clear 4 1020 51 10000 4.12 140 12:49 27.01.2022
3443 Clear 4 1020 48 10000 0 0 11:53 27.01.2022
3444 Clear 6 1020 47 10000 4.63 150 09:48 27.01.2022
3445 Clear 8 1020 42 10000 4.63 150 08:40 27.01.2022
3446 Clear 8 1020 41 10000 4.12 160 07:31 27.01.2022
3447 Clear 12 1019 32 10000 0.89 0 03:19 27.01.2022
3448 Clear 18 1018 19 10000 0.89 0 00:23 27.01.2022
3449 Clear 18 1019 18 10000 1.79 195 22:27 26.01.2022
3450 Clear 17 1020 21 10000 0.45 0 21:44 26.01.2022
3451 Clear 16 1020 27 10000 0.45 327 20:43 26.01.2022
3452 Clear 16 1021 28 10000 0.45 0 20:24 26.01.2022
3453 Clear 14 1021 32 10000 0.45 0 19:30 26.01.2022
3454 Clear 13 1022 36 10000 0.45 0 18:46 26.01.2022
3455 Clear 11 1021 42 10000 0 0 17:53 26.01.2022
3456 Clear 10 1021 44 10000 0.89 253 17:32 26.01.2022
3457 Clear 7 1020 50 10000 2.57 150 16:46 26.01.2022
3458 Clear 5 1019 53 10000 0 0 15:50 26.01.2022
3459 Clear 5 1018 50 10000 4.12 140 14:30 26.01.2022
3460 Clear 7 1019 45 10000 0.16 282 11:59 26.01.2022
3461 Clear 7 1018 46 10000 1.54 120 10:49 26.01.2022
3462 Clear 8 1017 44 10000 2.06 130 09:50 26.01.2022
3463 Clear 9 1017 41 10000 2.06 200 08:32 26.01.2022
3464 Clear 10 1017 37 10000 1.79 236 06:20 26.01.2022
3465 Clear 10 1017 37 10000 1.79 236 06:20 26.01.2022
3466 Clear 19 1014 22 10000 1.79 0 00:18 26.01.2022
3467 Clear 20 1014 21 10000 2.24 0 23:34 25.01.2022
3468 Clear 19 1014 22 10000 1.79 0 22:48 25.01.2022
3469 Clear 19 1014 22 10000 1.34 0 22:18 25.01.2022
3470 Clear 19 1015 23 10000 0.45 0 21:22 25.01.2022
3471 Clear 18 1015 26 10000 0.89 0 20:44 25.01.2022
3472 Clear 17 1016 28 10000 0.45 111 19:53 25.01.2022
3473 Clear 14 1017 35 10000 0.45 0 18:46 25.01.2022
3474 Clear 12 1017 41 10000 0.89 0 17:45 25.01.2022
3475 Clear 10 1017 47 10000 0.45 0 16:58 25.01.2022
3476 Clear 7 1016 49 10000 4.12 140 16:34 25.01.2022
3477 Clear 7 1015 50 10000 4.63 150 15:39 25.01.2022
3478 Clouds 7 1015 51 10000 2.03 145 14:58 25.01.2022
3479 Clear 6 1014 49 10000 2.06 140 13:47 25.01.2022
3480 Clear 9 1014 44 10000 0.42 265 10:59 25.01.2022
3481 Clear 8 1017 47 10000 3.6 130 09:21 25.01.2022
3482 Clear 9 1016 45 10000 3.6 160 07:31 25.01.2022
3483 Clear 9 1015 43 10000 3.6 170 06:53 25.01.2022
3484 Clear 11 1015 39 10000 2.57 160 05:22 25.01.2022
3485 Clear 19 1016 24 10000 2.24 0 23:37 24.01.2022
3486 Clear 19 1016 24 10000 2.24 0 23:19 24.01.2022
3487 Clear 19 1016 25 10000 2.24 0 23:00 24.01.2022
3488 Clear 19 1016 26 10000 2.24 0 22:41 24.01.2022
3489 Clear 18 1016 29 10000 2.24 0 21:55 24.01.2022
3490 Clear 18 1016 30 10000 1.79 0 21:32 24.01.2022
3491 Clear 17 1018 35 10000 1.34 0 20:33 24.01.2022
3492 Clear 16 1019 39 10000 0.89 0 19:57 24.01.2022
3493 Clear 16 1019 42 10000 0.45 0 19:35 24.01.2022
3494 Clear 13 1019 51 10000 0.89 0 18:19 24.01.2022
3495 Clear 10 1019 61 10000 1.34 0 17:24 24.01.2022
3496 Clear 9 1019 64 10000 0.45 183 16:55 24.01.2022
3497 Clear 7 1018 67 10000 3.09 130 16:19 24.01.2022
3498 Clear 6 1019 70 10000 4.12 150 14:44 24.01.2022
3499 Clear 6 1018 69 10000 3.09 150 13:26 24.01.2022
3500 Clear 6 1018 70 10000 3.6 150 12:30 24.01.2022
3501 Clear 7 1018 65 10000 2.57 180 10:46 24.01.2022
3502 Clear 8 1019 68 10000 2.57 150 09:48 24.01.2022
3503 Clear 8 1019 62 10000 3.09 160 08:41 24.01.2022
3504 Clear 9 1019 60 10000 2.06 170 06:41 24.01.2022
3505 Clear 16 1019 38 10000 0.45 0 01:31 24.01.2022
3506 Clear 17 1018 35 10000 0.45 0 00:38 24.01.2022
3507 Clear 17 1018 35 10000 0.89 0 00:20 24.01.2022
3508 Clear 17 1018 36 10000 0.89 0 22:37 23.01.2022
3509 Clear 17 1019 37 10000 1.34 0 21:50 23.01.2022
3510 Clear 16 1019 38 10000 1.34 0 21:26 23.01.2022
3511 Clear 16 1020 38 10000 1.34 0 20:45 23.01.2022
3512 Clouds 15 1020 40 10000 1.79 0 19:54 23.01.2022
3513 Clouds 14 1021 47 10000 1.79 0 18:52 23.01.2022
3514 Clear 12 1020 52 10000 1.34 0 17:50 23.01.2022
3515 Clear 11 1019 56 10000 1.34 0 16:48 23.01.2022
3516 Clear 8 1018 66 10000 2.24 121 15:18 23.01.2022
3517 Clear 8 1019 70 10000 0.45 180 14:31 23.01.2022
3518 Clear 8 1018 69 10000 0.45 180 14:31 23.01.2022
3519 Clear 8 1017 74 10000 0.45 180 13:22 23.01.2022
3520 Clear 8 1018 74 10000 3.09 80 12:36 23.01.2022
3521 Clear 8 1018 74 10000 0.45 194 12:18 23.01.2022
3522 Clouds 9 1018 75 10000 0.45 0 11:23 23.01.2022
3523 Clouds 9 1019 77 10000 0 0 10:43 23.01.2022
3524 Clouds 9 1019 76 10000 0.45 0 10:19 23.01.2022
3525 Clouds 10 1019 69 10000 0.89 0 09:19 23.01.2022
3526 Clouds 11 1018 66 10000 0.89 0 05:58 23.01.2022
3527 Clouds 13 1015 51 10000 1.79 0 01:54 23.01.2022
3528 Clouds 13 1015 50 10000 0.89 0 01:34 23.01.2022
3529 Clouds 15 1014 39 10000 1.79 0 00:31 23.01.2022
3530 Clouds 16 1014 37 10000 0.45 0 23:57 22.01.2022
3531 Clouds 15 1014 36 10000 0.45 0 22:46 22.01.2022
3532 Clouds 15 1015 36 10000 1.34 0 21:38 22.01.2022
3533 Clouds 15 1015 37 10000 0.89 0 20:24 22.01.2022
3534 Clouds 14 1016 39 10000 0.45 0 19:27 22.01.2022
3535 Clouds 12 1016 43 10000 0.45 0 18:25 22.01.2022
3536 Clouds 11 1016 44 10000 1.79 241 17:41 22.01.2022
3537 Clouds 9 1014 47 10000 3.43 105 16:57 22.01.2022
3538 Clouds 9 1013 48 10000 3.17 103 15:55 22.01.2022
3539 Clouds 9 1013 46 10000 0 0 15:37 22.01.2022
3540 Clear 8 1012 47 10000 2.1 115 13:59 22.01.2022
3541 Clear 8 1012 46 10000 2.06 190 12:55 22.01.2022
3542 Clear 8 1012 46 10000 2.06 190 12:30 22.01.2022
3543 Clear 8 1012 44 10000 3.09 130 11:49 22.01.2022
3544 Clear 9 1013 46 10000 3.6 150 10:31 22.01.2022
3545 Clear 9 1012 46 10000 0.89 91 09:59 22.01.2022
3546 Clear 10 1013 44 10000 2.57 190 08:53 22.01.2022
3547 Clear 10 1012 44 10000 3.09 160 07:56 22.01.2022
3548 Clear 12 1013 39 10000 0.45 0 04:53 22.01.2022
3549 Clear 17 1013 29 10000 0.45 208 01:58 22.01.2022
3550 Clear 20 1014 19 10000 1.34 0 23:46 21.01.2022
3551 Clear 20 1015 19 10000 0.45 0 22:41 21.01.2022
3552 Clear 19 1017 25 10000 0.89 0 20:45 21.01.2022
3553 Clear 15 1019 40 10000 0.45 0 18:41 21.01.2022
3554 Clear 12 1019 49 10000 0.89 0 17:45 21.01.2022
3555 Clear 7 1018 58 10000 4.12 160 15:47 21.01.2022
3556 Clear 7 1019 61 10000 4.12 150 13:55 21.01.2022
3557 Clear 7 1020 64 10000 3.6 140 12:39 21.01.2022
3558 Clear 7 1020 59 10000 4.63 140 11:28 21.01.2022
3559 Clear 9 1021 53 10000 5.14 150 10:20 21.01.2022
3560 Clear 9 1021 57 10000 3.09 150 08:25 21.01.2022
3561 Clear 10 1022 55 10000 3.09 160 07:19 21.01.2022
3562 Clear 19 1021 36 10000 0.89 0 23:54 20.01.2022
3563 Clear 19 1022 37 10000 0.89 0 22:44 20.01.2022
3564 Clear 18 1022 40 10000 0.45 0 21:47 20.01.2022
3565 Clear 17 1023 45 10000 0.89 0 20:56 20.01.2022
3566 Clear 15 1024 54 10000 0.89 0 19:21 20.01.2022
3567 Clear 14 1024 59 10000 0.45 0 18:51 20.01.2022
3568 Clear 11 1025 70 10000 2.06 160 17:31 20.01.2022
3569 Clear 5 1021 81 10000 0 0 15:45 20.01.2022
3570 Clear 6 1021 81 10000 0 0 15:24 20.01.2022
3571 Clear 7 1021 78 10000 2.57 120 13:42 20.01.2022
3572 Clear 7 1020 76 10000 4.12 140 12:38 20.01.2022
3573 Clear 8 1021 76 10000 2.57 150 11:57 20.01.2022
3574 Clear 8 1022 76 10000 2.57 140 10:47 20.01.2022
3575 Clear 8 1020 75 10000 2.57 150 09:42 20.01.2022
3576 Clear 9 1020 73 10000 4.12 150 08:34 20.01.2022
3577 Clear 11 1020 64 10000 0.45 210 05:34 20.01.2022
3578 Clear 18 1019 44 10000 2.24 0 23:35 19.01.2022
3579 Clear 17 1019 46 10000 1.79 0 22:32 19.01.2022
3580 Clear 16 1020 51 10000 2.24 0 21:24 19.01.2022
3581 Clear 16 1020 53 10000 1.34 0 20:50 19.01.2022
3582 Clouds 16 1021 61 10000 1.34 0 19:58 19.01.2022
3583 Clouds 13 1021 76 10000 1.34 0 18:43 19.01.2022
3584 Clouds 11 1021 81 10000 1.34 0 17:49 19.01.2022
3585 Clouds 10 1020 84 10000 1.79 258 16:57 19.01.2022
3586 Clouds 8 1018 87 10000 2.57 150 14:42 19.01.2022
3587 Clouds 9 1019 86 10000 0 0 12:53 19.01.2022
3588 Clear 9 1018 84 10000 0 0 11:42 19.01.2022
3589 Clear 9 1018 83 10000 1.54 60 10:37 19.01.2022
3590 Clear 10 1018 84 10000 2.57 140 09:34 19.01.2022
3591 Clear 11 1018 85 10000 1.54 150 07:18 19.01.2022
3592 Clouds 12 1018 83 10000 0.45 0 05:18 19.01.2022
3593 Drizzle 17 1015 57 10000 2.68 0 23:24 18.01.2022
3594 Clouds 18 1016 57 10000 3.13 0 22:44 18.01.2022
3595 Rain 17 1016 61 10000 1.79 0 21:20 18.01.2022
3596 Clouds 17 1018 64 10000 0.89 0 19:55 18.01.2022
3597 Clouds 17 1018 65 10000 0.45 0 19:37 18.01.2022
3598 Clouds 17 1019 59 10000 0.45 0 18:57 18.01.2022
3599 Clouds 15 1019 63 10000 0.89 0 17:58 18.01.2022
3600 Clear 13 1018 68 10000 3.09 140 16:59 18.01.2022
3601 Clouds 11 1017 70 10000 2.06 150 15:48 18.01.2022
3602 Clouds 11 1017 70 10000 2.06 150 15:48 18.01.2022
3603 Clouds 11 1017 70 10000 2.06 150 15:48 18.01.2022
3604 Clouds 11 1017 69 10000 2.06 150 15:22 18.01.2022
3605 Clouds 12 1017 59 10000 3.09 140 12:49 18.01.2022
3606 Clouds 11 1017 56 10000 3.6 140 10:48 18.01.2022
3607 Clouds 12 1018 52 10000 3.6 150 09:28 18.01.2022
3608 Clear 13 1018 45 10000 1.54 180 07:56 18.01.2022
3609 Clouds 14 1018 43 10000 0.45 0 05:31 18.01.2022
3610 Clear 22 1017 27 10000 1.79 0 23:55 17.01.2022
3611 Clear 22 1018 25 10000 0.89 0 22:29 17.01.2022
3612 Clouds 21 1019 22 10000 0.45 0 21:35 17.01.2022
3613 Clouds 19 1020 26 10000 0.45 0 20:27 17.01.2022
3614 Clouds 15 1021 36 10000 0.45 293 18:31 17.01.2022
3615 Clouds 13 1019 37 10000 2.57 160 17:44 17.01.2022
3616 Clear 10 1019 39 10000 3.09 160 16:44 17.01.2022
3617 Clear 10 1019 38 10000 3.6 140 15:22 17.01.2022
3618 Clear 10 1019 39 10000 1.54 70 14:56 17.01.2022
3619 Clear 9 1018 39 10000 3.09 130 13:27 17.01.2022
3620 Clear 10 1018 35 10000 3.6 160 12:56 17.01.2022
3621 Clear 11 1018 34 10000 3.09 160 11:49 17.01.2022
3622 Clear 10 1018 33 10000 2.57 160 10:25 17.01.2022
3623 Clear 12 1019 33 10000 2.57 160 09:34 17.01.2022
3624 Clear 13 1019 31 10000 4.12 140 07:24 17.01.2022
3625 Clear 13 1018 31 10000 4.12 150 06:56 17.01.2022
3626 Clear 21 1017 15 10000 2.24 0 00:55 17.01.2022
3627 Clear 23 1018 13 10000 0.45 0 22:30 16.01.2022
3628 Clear 21 1019 13 10000 0.89 0 20:36 16.01.2022
3629 Clear 17 1021 19 10000 0.89 117 18:52 16.01.2022
3630 Clouds 14 1021 23 10000 0.89 0 17:59 16.01.2022
3631 Clear 12 1021 26 10000 0.89 0 17:21 16.01.2022
3632 Clear 9 1021 30 10000 1.34 0 16:33 16.01.2022
3633 Clear 9 1020 29 10000 0.45 0 14:31 16.01.2022
3634 Clear 9 1020 29 10000 1.34 0 13:49 16.01.2022
3635 Clouds 10 1020 28 10000 0.45 0 12:48 16.01.2022
3636 Clouds 10 1020 27 10000 0.45 0 11:42 16.01.2022
3637 Clear 10 1021 28 10000 1.34 0 10:54 16.01.2022
3638 Clear 10 1021 28 10000 1.79 0 10:19 16.01.2022
3639 Clear 11 1021 27 10000 1.79 0 09:40 16.01.2022
3640 Clear 11 1020 26 10000 1.79 0 09:22 16.01.2022
3641 Clear 12 1022 25 10000 0.89 0 07:30 16.01.2022
3642 Clear 18 1022 21 10000 1.79 0 00:38 16.01.2022
3643 Clear 18 1022 21 10000 1.79 0 23:40 15.01.2022
3644 Clouds 19 1023 22 10000 2.24 0 21:23 15.01.2022
3645 Clear 19 1023 22 10000 2.24 0 20:56 15.01.2022
3646 Clear 19 1024 22 10000 2.68 0 20:38 15.01.2022
3647 Clear 18 1024 22 10000 2.24 0 19:28 15.01.2022
3648 Clear 16 1025 25 10000 1.79 0 18:31 15.01.2022
3649 Clear 11 1023 32 10000 0 0 16:52 15.01.2022
3650 Clear 7 1022 40 10000 0 0 15:39 15.01.2022
3651 Clear 8 1021 43 10000 2.06 120 13:35 15.01.2022
3652 Clear 9 1021 43 10000 2.57 130 11:46 15.01.2022
3653 Clear 9 1021 43 10000 2.57 130 11:46 15.01.2022
3654 Clear 9 1021 43 10000 4.63 150 09:49 15.01.2022
3655 Clear 13 1021 32 10000 0.45 0 05:27 15.01.2022
3656 Clouds 19 1019 23 10000 2.68 0 23:44 14.01.2022
3657 Clouds 20 1019 24 10000 0.89 0 21:29 14.01.2022
3658 Clouds 19 1020 25 10000 0.45 0 20:37 14.01.2022
3659 Clear 19 1020 26 10000 0.89 0 19:56 14.01.2022
3660 Clouds 17 1022 33 10000 0.45 222 18:43 14.01.2022
3661 Clouds 15 1020 35 10000 2.06 170 17:53 14.01.2022
3662 Clear 10 1020 41 10000 3.09 120 16:43 14.01.2022
3663 Clear 10 1020 41 10000 3.09 120 16:43 14.01.2022
3664 Clear 8 1020 44 10000 2.57 120 15:33 14.01.2022
3665 Clouds 8 1019 44 10000 2.57 140 14:29 14.01.2022
3666 Clouds 11 1018 43 10000 0.3 71 12:59 14.01.2022
3667 Clear 10 1020 44 10000 3.6 150 11:53 14.01.2022
3668 Clear 11 1021 44 10000 4.63 130 10:40 14.01.2022
3669 Clear 11 1021 44 10000 3.09 140 08:53 14.01.2022
3670 Clear 11 1021 42 10000 3.6 150 07:35 14.01.2022
3671 Clear 17 1021 29 10000 0.45 0 02:28 14.01.2022
3672 Clear 22 1021 20 10000 0.89 0 00:33 14.01.2022
3673 Clear 23 1022 18 10000 1.79 0 21:52 13.01.2022
3674 Clear 22 1022 19 10000 0.89 0 21:29 13.01.2022
3675 Clouds 19 1024 26 10000 0.45 0 19:58 13.01.2022
3676 Clouds 18 1025 28 10000 0.89 61 19:29 13.01.2022
3677 Clouds 17 1025 30 10000 0.89 226 18:49 13.01.2022
3678 Clouds 12 1023 37 10000 2.29 103 16:57 13.01.2022
3679 Clear 8 1024 42 10000 3.6 130 15:39 13.01.2022
3680 Clear 8 1024 43 10000 3.6 130 15:21 13.01.2022
3681 Clear 9 1024 43 10000 4.63 140 13:29 13.01.2022
3682 Clear 9 1025 43 10000 4.63 180 11:18 13.01.2022
3683 Clear 10 1025 43 10000 2.06 120 09:23 13.01.2022
3684 Clear 10 1025 45 10000 3.09 170 08:29 13.01.2022
3685 Clouds 10 1023 43 10000 2.29 99 07:58 13.01.2022
3686 Clear 11 1025 47 10000 3.6 150 07:19 13.01.2022
3687 Clear 12 1025 45 10000 1.54 140 05:21 13.01.2022
3688 Clear 13 1024 44 10000 0 0 03:48 13.01.2022
3689 Clear 17 1024 38 10000 0.89 0 01:39 13.01.2022
3690 Clear 20 1024 28 10000 1.79 0 23:54 12.01.2022
3691 Clear 20 1024 27 10000 1.34 0 23:34 12.01.2022
3692 Clear 21 1025 26 10000 1.34 0 22:32 12.01.2022
3693 Clear 20 1025 26 10000 0.89 88 21:43 12.01.2022
3694 Clear 20 1025 27 10000 0.89 146 21:19 12.01.2022
3695 Clear 19 1026 29 10000 0.45 0 20:47 12.01.2022
3696 Clear 16 1027 37 10000 4.63 140 18:52 12.01.2022
3697 Clear 13 1027 42 10000 4.63 140 18:18 12.01.2022
3698 Clear 10 1026 47 10000 2.57 130 16:57 12.01.2022
3699 Clear 8 1025 49 10000 1.54 100 15:38 12.01.2022
3700 Clear 8 1025 50 10000 2.06 60 14:39 12.01.2022
3701 Clear 9 1025 48 10000 2.57 80 12:57 12.01.2022
3702 Clear 10 1025 43 10000 4.63 140 09:57 12.01.2022
3703 Clouds 11 1025 43 10000 3 87 07:58 12.01.2022
3704 Clear 11 1026 41 10000 0 0 07:33 12.01.2022
3705 Clear 14 1024 34 10000 0.89 0 02:38 12.01.2022
3706 Clear 19 1023 24 10000 0.89 93 23:27 11.01.2022
3707 Clear 18 1024 25 10000 0.89 54 22:39 11.01.2022
3708 Clear 18 1024 25 10000 0.45 0 22:18 11.01.2022
3709 Clear 18 1026 27 10000 0.89 72 20:40 11.01.2022
3710 Clear 16 1027 30 10000 0.89 0 19:35 11.01.2022
3711 Clear 13 1028 38 10000 1.34 0 17:55 11.01.2022
3712 Clear 10 1026 45 10000 0.45 0 16:46 11.01.2022
3713 Clear 9 1026 48 10000 0.45 0 16:28 11.01.2022
3714 Clear 8 1025 50 10000 1.79 0 14:53 11.01.2022
3715 Clear 9 1025 49 10000 1.79 0 14:34 11.01.2022
3716 Clear 9 1025 48 10000 1.79 0 13:52 11.01.2022
3717 Clear 9 1025 47 10000 1.79 0 13:28 11.01.2022
3718 Clear 9 1025 46 10000 1.79 0 12:34 11.01.2022
3719 Clear 10 1025 45 10000 2.68 0 10:32 11.01.2022
3720 Clear 11 1026 47 10000 2.24 0 08:26 11.01.2022
3721 Clear 13 1027 42 10000 1.79 0 04:28 11.01.2022
3722 Clear 18 1025 34 10000 2.24 76 00:27 11.01.2022
3723 Clear 19 1026 30 10000 1.79 0 23:39 10.01.2022
3724 Clear 20 1026 27 10000 2.68 0 22:39 10.01.2022
3725 Clear 20 1026 26 10000 1.79 0 22:18 10.01.2022
3726 Clear 20 1026 26 10000 2.68 0 21:36 10.01.2022
3727 Clear 19 1026 26 10000 1.79 0 21:18 10.01.2022
3728 Clear 19 1027 26 10000 1.79 0 20:54 10.01.2022
3729 Clear 19 1028 27 10000 2.24 0 20:19 10.01.2022
3730 Clear 18 1029 28 10000 1.79 0 19:39 10.01.2022
3731 Clear 18 1029 29 10000 2.24 0 19:19 10.01.2022
3732 Clear 18 1029 29 10000 2.24 0 19:19 10.01.2022
3733 Clear 17 1029 29 10000 1.79 0 18:46 10.01.2022
3734 Clear 13 1028 37 10000 1.34 0 16:48 10.01.2022
3735 Clear 12 1028 43 10000 1.79 3 16:27 10.01.2022
3736 Clear 12 1027 42 10000 1.79 0 14:44 10.01.2022
3737 Clear 12 1026 41 10000 1.79 0 13:35 10.01.2022
3738 Clear 12 1027 42 10000 1.79 0 11:56 10.01.2022
3739 Clear 12 1027 42 10000 0.89 0 10:49 10.01.2022
3740 Clear 12 1027 44 10000 1.34 0 09:37 10.01.2022
3741 Clear 13 1028 46 10000 0.45 0 05:52 10.01.2022
3742 Clear 16 1026 40 10000 0.89 0 02:38 10.01.2022
3743 Clear 19 1025 32 10000 0.45 0 01:21 10.01.2022
3744 Clear 21 1025 28 10000 0.89 49 00:21 10.01.2022
3745 Clear 21 1025 27 10000 1.79 0 22:47 09.01.2022
3746 Clear 21 1025 28 10000 0.89 0 22:21 09.01.2022
3747 Clear 21 1025 31 10000 0.89 0 21:41 09.01.2022
3748 Clear 20 1025 31 10000 0.89 0 21:22 09.01.2022
3749 Clear 20 1026 34 10000 1.34 0 20:47 09.01.2022
3750 Clear 19 1026 36 10000 1.34 0 20:28 09.01.2022
3751 Clear 18 1026 39 10000 0.89 344 19:41 09.01.2022
3752 Clear 17 1026 42 10000 0.45 0 19:21 09.01.2022
3753 Clear 16 1026 45 10000 1.54 160 18:41 09.01.2022
3754 Clear 15 1026 49 10000 1.54 160 18:23 09.01.2022
3755 Clear 11 1025 59 10000 0 0 17:30 09.01.2022
3756 Clear 11 1024 57 10000 1.54 150 16:50 09.01.2022
3757 Clear 8 1023 63 10000 2.06 90 15:52 09.01.2022
3758 Clear 8 1023 64 10000 2.06 90 15:33 09.01.2022
3759 Clear 8 1023 64 10000 2.06 140 14:39 09.01.2022
3760 Clear 9 1023 64 10000 2.57 80 13:49 09.01.2022
3761 Clear 9 1022 64 10000 2.06 160 12:26 09.01.2022
3762 Clear 9 1022 65 10000 2.57 130 11:45 09.01.2022
3763 Clear 9 1021 62 10000 3.6 120 09:55 09.01.2022
3764 Clear 10 1021 62 10000 3.6 120 09:29 09.01.2022
3765 Clear 9 1021 61 10000 2.57 110 08:18 09.01.2022
3766 Clouds 17 1017 39 10000 1.34 0 01:43 09.01.2022
3767 Clouds 18 1017 37 10000 1.79 0 01:19 09.01.2022
3768 Clouds 20 1016 30 10000 2.68 0 23:38 08.01.2022
3769 Clouds 20 1016 29 10000 2.24 0 22:58 08.01.2022
3770 Clouds 20 1016 29 10000 2.24 0 22:58 08.01.2022
3771 Clouds 20 1016 28 10000 0.89 0 21:32 08.01.2022
3772 Clouds 20 1016 28 10000 0.89 0 21:32 08.01.2022
3773 Clouds 20 1016 28 10000 0.45 0 20:44 08.01.2022
3774 Clouds 20 1017 28 10000 1.34 0 20:23 08.01.2022
3775 Clear 20 1017 29 10000 1.34 0 19:46 08.01.2022
3776 Clear 16 1017 40 10000 0.45 0 17:49 08.01.2022
3777 Clouds 14 1017 45 10000 0.45 0 16:57 08.01.2022
3778 Clouds 12 1014 47 10000 3.09 150 15:37 08.01.2022
3779 Clear 12 1014 45 10000 2.57 100 14:38 08.01.2022
3780 Clear 13 1013 43 10000 3.09 120 12:36 08.01.2022
3781 Clear 12 1013 46 10000 4.12 120 10:46 08.01.2022
3782 Clear 13 1013 44 10000 4.12 120 10:24 08.01.2022
3783 Clouds 13 1014 44 10000 5.14 150 09:34 08.01.2022
3784 Clear 13 1015 41 10000 4.63 140 07:18 08.01.2022
3785 Clear 19 1013 34 10000 0.45 198 01:52 08.01.2022
3786 Clear 23 1012 24 10000 1.79 0 00:25 08.01.2022
3787 Clear 24 1013 22 10000 0.89 327 22:39 07.01.2022
3788 Clear 22 1015 25 10000 0.89 0 20:56 07.01.2022
3789 Clear 20 1016 32 10000 0.45 0 19:39 07.01.2022
3790 Clear 18 1017 37 10000 0.45 0 18:53 07.01.2022
3791 Clear 17 1017 39 10000 0.45 92 18:30 07.01.2022
3792 Clear 13 1017 45 10000 0.89 163 17:25 07.01.2022
3793 Clear 10 1015 51 10000 4.63 140 16:23 07.01.2022
3794 Clear 10 1015 52 10000 2.57 120 13:53 07.01.2022
3795 Clear 10 1015 52 10000 2.57 120 13:19 07.01.2022
3796 Clear 10 1014 53 10000 4.12 130 12:35 07.01.2022
3797 Clear 10 1015 51 10000 3.6 120 09:21 07.01.2022
3798 Clear 14 1015 43 10000 0.45 0 02:54 07.01.2022
3799 Clear 17 1015 39 10000 0.45 209 01:53 07.01.2022
3800 Clear 18 1015 34 10000 0.45 0 01:27 07.01.2022
3801 Clear 19 1015 32 10000 0.45 0 00:57 07.01.2022
3802 Clear 21 1015 27 10000 0.89 0 22:46 06.01.2022
3803 Clear 20 1016 28 10000 0.45 0 21:23 06.01.2022
3804 Clear 18 1017 31 10000 0.45 146 20:20 06.01.2022
3805 Clear 17 1018 34 10000 0.45 0 19:41 06.01.2022
3806 Clear 12 1017 46 10000 4.12 160 17:53 06.01.2022
3807 Clear 11 1018 44 10000 4.12 160 17:34 06.01.2022
3808 Clear 8 1017 48 10000 3.09 150 16:40 06.01.2022
3809 Clear 7 1017 55 10000 2.06 120 15:45 06.01.2022
3810 Clear 6 1017 55 10000 2.06 120 15:24 06.01.2022
3811 Clear 4 1017 61 10000 0 0 14:21 06.01.2022
3812 Clear 7 1017 55 10000 1.54 170 13:47 06.01.2022
3813 Clear 7 1017 54 10000 3.6 160 12:43 06.01.2022
3814 Clear 7 1017 52 10000 2.06 120 11:42 06.01.2022
3815 Clear 7 1017 52 10000 2.06 120 11:42 06.01.2022
3816 Clear 8 1017 52 10000 2.06 120 11:22 06.01.2022
3817 Clear 8 1019 52 10000 2.57 140 08:51 06.01.2022
3818 Clear 18 1018 26 10000 1.79 0 00:43 06.01.2022
3819 Clear 19 1018 21 10000 1.34 0 23:36 05.01.2022
3820 Clear 19 1018 21 10000 1.34 0 22:54 05.01.2022
3821 Clear 19 1018 20 10000 1.34 0 22:31 05.01.2022
3822 Clear 18 1019 21 10000 0.89 0 21:47 05.01.2022
3823 Clear 18 1019 24 10000 1.34 0 20:50 05.01.2022
3824 Clear 16 1020 27 10000 0.45 0 19:59 05.01.2022
3825 Clear 13 1021 34 10000 0.89 0 18:38 05.01.2022
3826 Clear 10 1020 38 10000 3.6 170 17:23 05.01.2022
3827 Clear 6 1020 47 10000 2.57 160 16:38 05.01.2022
3828 Clear 6 1020 46 10000 2.06 190 15:21 05.01.2022
3829 Clear 6 1019 44 10000 3.09 140 13:51 05.01.2022
3830 Clear 6 1020 44 10000 4.12 150 12:51 05.01.2022
3831 Clear 7 1020 39 10000 2.57 140 09:30 05.01.2022
3832 Clear 9 1021 36 10000 2.06 160 07:45 05.01.2022
3833 Clear 10 1020 32 10000 0.45 103 04:58 05.01.2022
3834 Clear 18 1021 16 10000 1.34 0 00:58 05.01.2022
3835 Clear 20 1022 12 10000 2.24 0 23:27 04.01.2022
3836 Clear 20 1022 13 10000 1.79 0 22:42 04.01.2022
3837 Clear 19 1022 18 10000 0.89 0 21:21 04.01.2022
3838 Clear 16 1024 33 10000 0.45 0 19:20 04.01.2022
3839 Clear 12 1023 38 10000 3.09 150 17:44 04.01.2022
3840 Clear 8 1023 47 10000 6.17 150 16:42 04.01.2022
3841 Clear 8 1023 45 10000 6.17 150 16:23 04.01.2022
3842 Clear 6 1022 51 10000 5.14 150 14:54 04.01.2022
3843 Clear 6 1022 49 10000 5.14 150 14:34 04.01.2022
3844 Clear 7 1021 50 10000 4.12 150 13:27 04.01.2022
3845 Clear 7 1022 56 10000 3.6 140 10:41 04.01.2022
3846 Clear 7 1023 56 10000 4.12 140 09:20 04.01.2022
3847 Clear 7 1023 56 10000 0 0 08:28 04.01.2022
3848 Clear 12 1020 47 10000 1.54 290 02:28 04.01.2022
3849 Clear 17 1020 31 10000 1.79 0 00:40 04.01.2022
3850 Clear 19 1021 21 10000 0.45 355 23:18 03.01.2022
3851 Clear 18 1021 23 10000 0.89 0 21:52 03.01.2022
3852 Clear 18 1021 23 10000 0.45 0 21:32 03.01.2022
3853 Clear 15 1022 27 10000 0.45 0 19:47 03.01.2022
3854 Clear 13 1023 32 10000 0.45 0 18:48 03.01.2022
3855 Clear 11 1023 34 10000 0.45 0 18:27 03.01.2022
3856 Clear 7 1021 42 10000 2.24 138 16:58 03.01.2022
3857 Clear 5 1021 45 10000 4.02 166 14:56 03.01.2022
3858 Clear 5 1021 45 10000 1.79 166 14:30 03.01.2022
3859 Clear 5 1022 46 10000 1.34 169 12:39 03.01.2022
3860 Clear 5 1022 49 10000 3.58 169 11:35 03.01.2022
3861 Clear 5 1022 49 10000 2.68 168 10:26 03.01.2022
3862 Clear 6 1024 45 10000 1.34 158 08:47 03.01.2022
3863 Clear 6 1024 51 10000 5.14 110 07:34 03.01.2022
3864 Clear 15 1023 25 10000 1.34 0 23:55 02.01.2022
3865 Clear 15 1024 23 10000 1.34 9 23:20 02.01.2022
3866 Clear 15 1024 22 10000 0.89 0 22:43 02.01.2022
3867 Clear 14 1025 25 10000 0.89 0 21:39 02.01.2022
3868 Clear 12 1026 29 10000 0.45 0 20:31 02.01.2022
3869 Clear 11 1027 33 10000 0.89 0 19:53 02.01.2022
3870 Clear 10 1028 36 10000 0.89 0 19:26 02.01.2022
3871 Clear 8 1028 40 10000 0.89 0 18:39 02.01.2022
3872 Clear 8 1028 41 10000 0.45 0 18:38 02.01.2022
3873 Clear 6 1026 48 10000 0.45 128 17:43 02.01.2022
3874 Clear 5 1028 52 10000 0.89 129 17:22 02.01.2022
3875 Clear 4 1027 55 10000 0.45 129 16:53 02.01.2022
3876 Clear 2 1027 59 10000 0.45 169 16:23 02.01.2022
3877 Clear 2 1026 59 10000 0.45 134 14:21 02.01.2022
3878 Clear 3 1025 57 10000 1.34 196 12:39 02.01.2022
3879 Clear 3 1025 56 10000 6.17 130 11:57 02.01.2022
3880 Clear 3 1024 57 10000 0.45 199 11:20 02.01.2022
3881 Clear 3 1025 59 10000 1.79 199 10:44 02.01.2022
3882 Clear 3 1027 62 10000 1.54 120 08:42 02.01.2022
3883 Clear 5 1023 52 10000 0.89 298 03:25 02.01.2022
3884 Clear 10 1020 39 10000 3.58 0 23:58 01.01.2022
3885 Clear 10 1020 38 10000 3.58 0 23:39 01.01.2022
3886 Clear 10 1019 35 10000 3.58 0 22:45 01.01.2022
3887 Clear 11 1018 36 10000 3.13 0 22:19 01.01.2022
3888 Clouds 11 1018 40 10000 3.13 0 21:43 01.01.2022
3889 Clouds 10 1018 49 10000 3.58 0 20:52 01.01.2022
3890 Clouds 10 1017 59 10000 3.13 0 19:55 01.01.2022
3891 Clouds 9 1017 71 10000 2.68 292 18:58 01.01.2022
3892 Clouds 8 1016 82 10000 2.68 0 17:56 01.01.2022
3893 Clouds 8 1014 88 10000 2.68 331 16:35 01.01.2022
3894 Rain 8 1013 88 10000 3.13 315 15:57 01.01.2022
3895 Clouds 9 1010 84 10000 0.45 257 14:57 01.01.2022
3896 Clouds 9 1010 86 10000 0.45 209 13:42 01.01.2022
3897 Clouds 9 1010 85 10000 1.34 255 12:43 01.01.2022
3898 Rain 9 1010 85 10000 1.34 189 11:47 01.01.2022
3899 Clouds 9 1010 86 10000 1.79 190 11:20 01.01.2022
3900 Clouds 9 1010 88 10000 2.24 188 09:49 01.01.2022
3901 Clouds 9 1009 89 10000 3.13 182 09:21 01.01.2022
3902 Rain 9 1009 89 10000 1.79 200 08:24 01.01.2022
3903 Rain 9 1009 90 10000 0.45 140 07:41 01.01.2022
3904 Clouds 9 1009 88 10000 3.09 200 06:45 01.01.2022
3905 Drizzle 9 1008 85 10000 1.79 190 05:26 01.01.2022
3906 Clouds 9 1007 84 10000 2.24 190 04:37 01.01.2022
3907 Rain 11 1003 86 6437 3.13 0 00:41 01.01.2022
3908 Drizzle 14 1002 77 10000 3.13 0 22:59 31.12.2021
3909 Clouds 18 1002 63 10000 1.79 0 21:52 31.12.2021
3910 Clouds 17 1005 66 10000 0.45 0 20:32 31.12.2021
3911 Clouds 15 1007 75 10000 0.89 0 19:29 31.12.2021
3912 Clouds 13 1007 87 10000 3.09 90 18:30 31.12.2021
3913 Clouds 11 1009 90 10000 0.89 169 17:37 31.12.2021
3914 Clouds 11 1009 90 10000 0.89 169 17:18 31.12.2021
3915 Clouds 10 1009 91 10000 0.89 169 16:19 31.12.2021
3916 Mist 10 1008 90 10000 0.45 170 15:53 31.12.2021
3917 Drizzle 10 1008 90 10000 1.34 189 15:28 31.12.2021
3918 Clouds 10 1008 91 10000 0.89 119 14:43 31.12.2021
3919 Clouds 9 1008 93 10000 0.89 119 14:18 31.12.2021
3920 Rain 10 1008 90 8047 2.06 330 13:35 31.12.2021
3921 Rain 10 1009 87 10000 0.45 174 12:44 31.12.2021
3922 Clouds 10 1010 83 10000 0.45 183 11:43 31.12.2021
3923 Clouds 10 1010 84 10000 0.45 174 11:20 31.12.2021
3924 Clouds 10 1010 84 10000 0.45 177 10:30 31.12.2021
3925 Clouds 10 1012 84 10000 0.45 206 09:35 31.12.2021
3926 Clouds 10 1012 85 10000 1.34 198 08:56 31.12.2021
3927 Clouds 10 1012 84 10000 1.79 184 08:25 31.12.2021
3928 Clouds 10 1013 82 10000 0.45 178 07:30 31.12.2021
3929 Clouds 14 1014 53 10000 0.45 0 23:23 30.12.2021
3930 Clouds 14 1014 52 10000 0.45 0 22:33 30.12.2021
3931 Clouds 14 1015 52 10000 0.45 0 21:51 30.12.2021
3932 Clouds 14 1015 52 10000 0.45 0 21:33 30.12.2021
3933 Clouds 14 1016 55 10000 0.45 0 20:44 30.12.2021
3934 Clouds 13 1016 58 10000 0.45 0 20:24 30.12.2021
3935 Clouds 12 1016 62 10000 0.45 0 19:43 30.12.2021
3936 Clouds 10 1017 72 10000 0.89 0 18:29 30.12.2021
3937 Clouds 9 1017 75 10000 1.34 195 17:45 30.12.2021
3938 Clouds 7 1016 81 10000 2.73 128 15:58 30.12.2021
3939 Clouds 7 1015 80 10000 3.6 150 15:39 30.12.2021
3940 Clouds 7 1015 81 10000 2.24 138 14:37 30.12.2021
3941 Clouds 7 1016 82 10000 1.34 158 13:32 30.12.2021
3942 Clouds 8 1015 77 10000 1.17 295 11:59 30.12.2021
3943 Clear 8 1015 76 10000 2.06 130 10:50 30.12.2021
3944 Clouds 8 1015 75 10000 3.09 140 09:54 30.12.2021
3945 Clouds 8 1015 79 10000 2.06 160 08:49 30.12.2021
3946 Clouds 8 1016 80 10000 1.54 150 06:51 30.12.2021
3947 Clouds 10 1015 70 10000 0.45 0 03:41 30.12.2021
3948 Clouds 11 1015 63 10000 0.45 222 02:38 30.12.2021
3949 Clouds 13 1015 53 10000 2.68 193 23:41 29.12.2021
3950 Clouds 13 1014 55 10000 2.68 193 23:21 29.12.2021
3951 Clouds 13 1014 58 10000 1.34 0 22:18 29.12.2021
3952 Clouds 13 1014 63 10000 1.34 0 21:27 29.12.2021
3953 Clouds 12 1015 72 10000 2.24 0 20:34 29.12.2021
3954 Clouds 11 1016 80 10000 0.45 0 19:44 29.12.2021
3955 Clouds 10 1016 84 10000 0.89 0 18:45 29.12.2021
3956 Drizzle 9 1016 87 10000 0.45 203 17:53 29.12.2021
3957 Drizzle 9 1016 87 10000 1.34 203 17:27 29.12.2021
3958 Drizzle 9 1016 87 10000 1.34 203 17:27 29.12.2021
3959 Mist 8 1015 87 8047 1.79 182 16:24 29.12.2021
3960 Drizzle 8 1014 88 10000 1.79 196 15:45 29.12.2021
3961 Clouds 8 1013 84 10000 1.34 189 13:55 29.12.2021
3962 Clouds 8 1012 84 10000 0.89 188 12:36 29.12.2021
3963 Clouds 9 1012 82 10000 2.24 186 11:27 29.12.2021
3964 Clouds 8 1012 82 10000 2.24 192 09:56 29.12.2021
3965 Clear 8 1012 71 10000 0.89 208 07:51 29.12.2021
3966 Clear 8 1011 69 10000 1.34 160 06:38 29.12.2021
3967 Clouds 9 1011 66 10000 0.45 209 05:59 29.12.2021
3968 Clouds 9 1011 64 10000 1.79 203 05:36 29.12.2021
3969 Clouds 11 1009 56 10000 0.45 334 02:40 29.12.2021
3970 Clear 13 1009 46 10000 2.24 0 00:22 29.12.2021
3971 Clear 14 1010 41 10000 1.79 0 23:34 28.12.2021
3972 Clear 14 1010 40 10000 2.24 0 22:42 28.12.2021
3973 Clear 14 1010 41 10000 0.89 0 22:24 28.12.2021
3974 Clear 14 1011 41 10000 0.89 0 21:36 28.12.2021
3975 Clear 13 1012 45 10000 1.34 0 20:39 28.12.2021
3976 Clear 12 1013 52 10000 1.34 0 19:24 28.12.2021
3977 Clear 11 1013 60 10000 0.89 0 18:37 28.12.2021
3978 Clear 10 1014 65 10000 0.89 0 17:59 28.12.2021
3979 Clear 6 1012 80 10000 4.12 140 16:34 28.12.2021
3980 Clear 4 1012 81 10000 3.6 140 15:49 28.12.2021
3981 Clear 4 1012 82 10000 3.6 140 15:20 28.12.2021
3982 Clear 4 1012 83 10000 2.06 130 14:47 28.12.2021
3983 Clear 4 1012 83 10000 2.06 130 14:21 28.12.2021
3984 Clear 5 1011 82 10000 1.54 130 13:42 28.12.2021
3985 Clear 5 1011 81 10000 1.54 130 13:24 28.12.2021
3986 Mist 5 1011 81 8047 1.54 120 12:49 28.12.2021
3987 Clear 6 1011 80 10000 0 0 11:35 28.12.2021
3988 Clear 7 1012 78 10000 0 0 08:30 28.12.2021
3989 Clear 8 1013 78 10000 0.45 343 06:41 28.12.2021
3990 Clouds 12 1012 62 10000 0.45 37 23:43 27.12.2021
3991 Clouds 12 1012 63 10000 0.45 104 22:59 27.12.2021
3992 Clouds 12 1013 63 10000 1.54 40 21:38 27.12.2021
3993 Clouds 12 1013 63 10000 1.54 40 21:20 27.12.2021
3994 Clouds 11 1015 66 10000 3.09 310 19:58 27.12.2021
3995 Clouds 12 1015 66 10000 3.09 310 19:39 27.12.2021
3996 Clouds 10 1016 68 10000 0.45 189 18:23 27.12.2021
3997 Clouds 10 1016 71 10000 4.12 120 17:46 27.12.2021
3998 Clouds 9 1016 67 10000 2.06 170 16:40 27.12.2021
3999 Clouds 8 1015 70 10000 3.09 130 15:52 27.12.2021
4000 Clouds 7 1015 73 10000 3.09 160 14:32 27.12.2021
4001 Clouds 7 1015 75 10000 3.6 140 13:39 27.12.2021
4002 Clear 6 1015 77 10000 4.12 160 12:19 27.12.2021
4003 Clouds 8 1015 74 10000 3.6 130 10:31 27.12.2021
4004 Clear 8 1016 77 10000 0 0 09:47 27.12.2021
4005 Clear 9 1016 75 10000 4.12 140 07:38 27.12.2021
4006 Clear 9 1016 73 10000 4.12 140 07:20 27.12.2021
4007 Clear 13 1015 57 10000 2.06 10 02:19 27.12.2021
4008 Clouds 17 1015 42 10000 0.45 0 23:58 26.12.2021
4009 Clear 17 1015 42 10000 0.45 0 23:36 26.12.2021
4010 Clear 17 1016 47 10000 0.45 0 22:23 26.12.2021
4011 Clouds 16 1018 53 10000 1.79 0 20:54 26.12.2021
4012 Clouds 15 1019 56 10000 1.34 0 19:47 26.12.2021
4013 Clouds 15 1019 56 10000 1.34 0 19:47 26.12.2021
4014 Clouds 14 1019 63 10000 1.79 0 18:24 26.12.2021
4015 Clouds 12 1017 74 10000 0.89 0 16:20 26.12.2021
4016 Clouds 12 1016 74 10000 1.34 249 14:27 26.12.2021
4017 Clouds 12 1016 74 10000 0.45 0 13:40 26.12.2021
4018 Clouds 12 1016 74 10000 0.45 0 13:19 26.12.2021
4019 Clouds 12 1016 74 10000 0.45 0 12:32 26.12.2021
4020 Clouds 13 1016 74 10000 1.34 0 10:32 26.12.2021
4021 Clouds 13 1015 74 10000 0.89 0 09:21 26.12.2021
4022 Clouds 13 1015 74 10000 0.89 0 08:44 26.12.2021
4023 Clouds 13 1015 76 10000 1.34 0 07:49 26.12.2021
4024 Clouds 15 1014 71 10000 0.45 257 01:27 26.12.2021
4025 Clouds 16 1015 65 10000 0.45 0 23:54 25.12.2021
4026 Clouds 17 1015 63 10000 1.79 0 23:27 25.12.2021
4027 Clouds 17 1015 57 10000 0.45 0 22:26 25.12.2021
4028 Clouds 17 1016 59 10000 0.45 0 20:57 25.12.2021
4029 Clouds 17 1018 59 10000 0.89 0 19:26 25.12.2021
4030 Clouds 17 1019 61 10000 0.89 0 18:55 25.12.2021
4031 Clouds 15 1017 71 10000 0.45 0 17:37 25.12.2021
4032 Clouds 13 1017 78 10000 0.89 176 16:36 25.12.2021
4033 Clouds 13 1016 81 10000 0.45 0 15:18 25.12.2021
4034 Clear 12 1015 83 10000 0.45 0 13:30 25.12.2021
4035 Clouds 13 1016 84 10000 0 0 11:51 25.12.2021
4036 Clouds 13 1015 82 10000 2.06 30 09:54 25.12.2021
4037 Mist 13 1015 80 10000 2.06 30 09:34 25.12.2021
4038 Clouds 14 1015 81 10000 0.45 210 04:34 25.12.2021
4039 Clouds 16 1014 73 10000 0.45 0 01:25 25.12.2021
4040 Clouds 17 1013 70 10000 1.34 0 23:42 24.12.2021
4041 Rain 13 1014 90 10000 0.89 142 19:46 24.12.2021
4042 Rain 12 1014 89 10000 0.45 0 19:23 24.12.2021
4043 Rain 11 1014 88 10000 6.17 300 16:57 24.12.2021
4044 Rain 12 1015 83 10000 6.17 300 16:22 24.12.2021
4045 Drizzle 13 1015 78 10000 9.77 330 15:48 24.12.2021
4046 Clouds 16 1015 59 10000 3.13 0 14:47 24.12.2021
4047 Clouds 17 1014 54 10000 1.34 0 14:26 24.12.2021
4048 Clouds 18 1014 52 10000 2.24 0 13:41 24.12.2021
4049 Clouds 18 1014 52 10000 0.45 0 12:48 24.12.2021
4050 Clouds 18 1014 52 10000 0.89 0 12:20 24.12.2021
4051 Clouds 18 1014 52 10000 0.45 0 11:29 24.12.2021
4052 Clouds 18 1014 51 10000 0.45 0 10:59 24.12.2021
4053 Clouds 18 1015 50 10000 0.45 0 10:28 24.12.2021
4054 Clouds 17 1015 49 10000 0.45 0 08:26 24.12.2021
4055 Clouds 17 1015 49 10000 0.45 0 07:50 24.12.2021
4056 Clouds 17 1015 48 10000 0.89 166 06:18 24.12.2021
4057 Clear 25 1015 27 10000 1.34 0 00:19 24.12.2021
4058 Clear 26 1015 25 10000 0.89 295 23:23 23.12.2021
4059 Clear 26 1015 24 10000 0.89 295 23:23 23.12.2021
4060 Clear 25 1015 22 10000 0.89 0 22:40 23.12.2021
4061 Clear 25 1016 21 10000 0.89 349 22:20 23.12.2021
4062 Clear 25 1016 19 10000 0.45 91 21:34 23.12.2021
4063 Clouds 24 1019 15 10000 0.45 0 20:21 23.12.2021
4064 Clear 21 1019 21 10000 0.45 0 18:53 23.12.2021
4065 Clouds 18 1019 27 10000 0.45 0 17:57 23.12.2021
4066 Clouds 15 1018 30 10000 4.12 150 16:57 23.12.2021
4067 Clouds 14 1018 31 10000 0.45 141 16:25 23.12.2021
4068 Clouds 13 1018 34 10000 2.57 140 15:32 23.12.2021
4069 Clouds 13 1017 36 10000 2.06 140 14:54 23.12.2021
4070 Clouds 13 1018 37 10000 2.06 140 14:36 23.12.2021
4071 Clouds 13 1017 32 10000 0 0 13:19 23.12.2021
4072 Clouds 14 1017 28 10000 0.89 142 10:54 23.12.2021
4073 Clouds 14 1017 33 10000 2.57 150 09:47 23.12.2021
4074 Clouds 14 1017 31 10000 2.57 150 09:26 23.12.2021
4075 Clouds 15 1016 38 10000 1.34 64 06:59 23.12.2021
4076 Clouds 15 1017 34 10000 0 0 04:35 23.12.2021
4077 Clear 23 1016 15 10000 0 0 23:33 22.12.2021
4078 Clear 23 1016 17 10000 0.89 301 22:48 22.12.2021
4079 Clear 23 1018 21 10000 0.45 0 21:57 22.12.2021
4080 Clear 23 1018 22 10000 0.45 0 21:29 22.12.2021
4081 Clear 22 1018 24 10000 0.45 0 20:50 22.12.2021
4082 Clear 21 1019 25 10000 0.45 0 20:30 22.12.2021
4083 Clear 19 1020 29 10000 1.34 0 19:32 22.12.2021
4084 Clear 15 1020 38 10000 3.09 170 17:55 22.12.2021
4085 Clear 13 1020 40 10000 3.09 170 17:34 22.12.2021
4086 Clear 9 1019 43 10000 3.09 160 15:42 22.12.2021
4087 Clear 10 1020 48 10000 2.57 140 13:37 22.12.2021
4088 Clouds 10 1019 47 10000 0 0 12:41 22.12.2021
4089 Clouds 12 1019 48 10000 2.06 160 10:46 22.12.2021
4090 Clouds 12 1019 46 10000 1.54 130 09:40 22.12.2021
4091 Clouds 13 1020 49 10000 0.45 0 07:31 22.12.2021
4092 Clouds 13 1021 46 10000 0.45 0 05:50 22.12.2021
4093 Clouds 14 1020 46 10000 0.45 0 05:27 22.12.2021
4094 Clouds 14 1020 45 10000 0.45 0 04:52 22.12.2021
4095 Clouds 14 1020 44 10000 1.34 0 04:29 22.12.2021
4096 Clouds 15 1020 41 10000 0.45 0 03:33 22.12.2021
4097 Clouds 20 1018 30 10000 0.45 0 00:57 22.12.2021
4098 Clouds 23 1019 23 10000 0.45 0 23:32 21.12.2021
4099 Clouds 22 1019 24 10000 0.89 0 22:29 21.12.2021
4100 Clouds 22 1019 25 10000 0.45 144 21:44 21.12.2021
4101 Clouds 21 1020 25 10000 0.45 0 21:23 21.12.2021
4102 Clouds 20 1020 26 10000 0.45 0 20:22 21.12.2021
4103 Clear 19 1021 28 10000 0.45 0 19:43 21.12.2021
4104 Clouds 18 1021 30 10000 1.34 148 18:48 21.12.2021
4105 Clouds 16 1022 33 10000 0.45 153 18:21 21.12.2021
4106 Clouds 14 1021 32 10000 3.09 170 17:42 21.12.2021
4107 Clouds 11 1021 40 10000 2.06 180 16:26 21.12.2021
4108 Clouds 10 1021 42 10000 0 0 15:24 21.12.2021
4109 Clouds 10 1021 41 10000 2.57 160 13:50 21.12.2021
4110 Clouds 10 1021 44 10000 2.57 160 13:30 21.12.2021
4111 Clear 9 1021 39 10000 3.6 150 11:57 21.12.2021
4112 Clouds 10 1020 43 10000 4.63 160 10:25 21.12.2021
4113 Clouds 10 1021 40 10000 4.63 160 09:27 21.12.2021
4114 Clouds 11 1020 40 10000 1.42 66 07:59 21.12.2021
4115 Clear 11 1021 42 10000 2.06 150 07:29 21.12.2021
4116 Clear 11 1021 42 10000 3.09 130 06:50 21.12.2021
4117 Clear 14 1021 40 10000 0 0 02:51 21.12.2021
4118 Clear 21 1021 27 10000 0.45 329 23:59 20.12.2021
4119 Clear 21 1021 27 10000 0.45 328 23:29 20.12.2021
4120 Clear 21 1022 25 10000 0.89 0 22:30 20.12.2021
4121 Clear 20 1022 27 10000 0.45 0 21:47 20.12.2021
4122 Clear 20 1023 27 10000 0.89 0 21:23 20.12.2021
4123 Clear 19 1023 30 10000 0.89 0 20:45 20.12.2021
4124 Clear 18 1024 33 10000 0.45 0 19:53 20.12.2021
4125 Clear 17 1024 35 10000 0.89 0 19:31 20.12.2021
4126 Clear 15 1024 39 10000 0.89 0 18:54 20.12.2021
4127 Clear 13 1024 45 10000 0.89 142 17:52 20.12.2021
4128 Clear 11 1024 49 10000 0.89 143 17:25 20.12.2021
4129 Clear 11 1024 49 10000 0.89 143 17:25 20.12.2021
4130 Clear 9 1022 52 10000 2.57 150 16:40 20.12.2021
4131 Clear 7 1022 57 10000 3.6 150 15:50 20.12.2021
4132 Clear 7 1021 55 10000 3.6 170 14:51 20.12.2021
4133 Clear 7 1021 56 10000 3.6 140 12:53 20.12.2021
4134 Clear 7 1021 54 10000 2.06 210 11:19 20.12.2021
4135 Clear 7 1021 54 10000 4.12 160 09:47 20.12.2021
4136 Clear 8 1021 53 10000 4.12 160 09:28 20.12.2021
4137 Clear 8 1021 52 10000 2.06 120 08:41 20.12.2021
4138 Clear 9 1021 50 10000 3.6 170 07:49 20.12.2021
4139 Clear 9 1021 50 10000 3.6 170 07:29 20.12.2021
4140 Clear 12 1021 45 10000 0.45 181 03:59 20.12.2021
4141 Clear 19 1019 29 10000 0.45 0 23:58 19.12.2021
4142 Clear 19 1020 27 10000 1.34 0 22:45 19.12.2021
4143 Clear 19 1020 28 10000 0.89 0 21:50 19.12.2021
4144 Clear 19 1020 28 10000 0.89 0 21:29 19.12.2021
4145 Clear 17 1021 30 10000 0.89 0 20:30 19.12.2021
4146 Clear 17 1022 31 10000 1.34 0 19:46 19.12.2021
4147 Clear 15 1022 35 10000 0.89 0 18:59 19.12.2021
4148 Clear 14 1022 37 10000 1.34 0 18:29 19.12.2021
4149 Clear 12 1022 41 10000 0.45 0 17:51 19.12.2021
4150 Clear 11 1022 44 10000 0.89 195 17:18 19.12.2021
4151 Clear 8 1021 49 10000 5.66 150 16:25 19.12.2021
4152 Clear 7 1020 51 10000 0.45 203 15:31 19.12.2021
4153 Clear 7 1020 50 10000 4.63 140 14:57 19.12.2021
4154 Clear 8 1020 48 10000 1.34 203 14:36 19.12.2021
4155 Clear 8 1019 47 10000 5.14 150 13:22 19.12.2021
4156 Clear 9 1020 45 10000 4.12 120 12:33 19.12.2021
4157 Clear 9 1020 46 10000 5.14 150 11:44 19.12.2021
4158 Clear 9 1020 44 10000 2.57 180 10:58 19.12.2021
4159 Clear 9 1020 45 10000 2.57 180 10:25 19.12.2021
4160 Clear 9 1019 47 10000 4.63 140 09:26 19.12.2021
4161 Clear 9 1020 49 10000 3.09 160 07:50 19.12.2021
4162 Clear 10 1019 47 10000 4.12 150 04:45 19.12.2021
4163 Clear 15 1018 37 10000 1.79 0 00:56 19.12.2021
4164 Clear 16 1018 35 10000 2.24 0 00:28 19.12.2021
4165 Clear 16 1019 34 10000 2.68 0 22:32 18.12.2021
4166 Clear 15 1019 35 10000 2.68 0 21:54 18.12.2021
4167 Clear 15 1019 35 10000 2.68 0 21:54 18.12.2021
4168 Clear 15 1019 36 10000 1.79 0 21:34 18.12.2021
4169 Clear 14 1020 38 10000 1.34 0 20:44 18.12.2021
4170 Clear 13 1021 43 10000 0.89 0 19:51 18.12.2021
4171 Clear 11 1021 46 10000 0.89 0 19:19 18.12.2021
4172 Clear 9 1022 55 10000 0.45 0 18:19 18.12.2021
4173 Clear 9 1019 60 10000 0 0 17:47 18.12.2021
4174 Clear 3 1020 71 10000 1.54 160 16:25 18.12.2021
4175 Clear 2 1020 73 10000 3.09 150 15:26 18.12.2021
4176 Clear 2 1019 73 10000 0 0 14:22 18.12.2021
4177 Clear 3 1019 72 10000 3.6 150 12:39 18.12.2021
4178 Clear 4 1019 70 10000 3.6 150 10:52 18.12.2021
4179 Clouds 5 1019 68 10000 2.06 160 09:33 18.12.2021
4180 Clear 5 1019 69 10000 3.09 160 08:42 18.12.2021
4181 Clear 5 1019 68 10000 3.09 160 08:18 18.12.2021
4182 Clouds 11 1017 49 10000 1.79 306 01:48 18.12.2021
4183 Clear 13 1017 41 10000 2.68 0 00:27 18.12.2021
4184 Clouds 14 1017 40 10000 3.13 0 23:37 17.12.2021
4185 Clouds 14 1017 44 10000 2.24 0 21:55 17.12.2021
4186 Clouds 14 1017 47 10000 1.34 0 20:51 17.12.2021
4187 Clouds 14 1018 49 10000 0.89 0 20:28 17.12.2021
4188 Clear 11 1019 59 10000 0.45 0 18:54 17.12.2021
4189 Clear 10 1019 63 10000 1.34 0 18:21 17.12.2021
4190 Clear 8 1019 73 10000 2.24 175 17:25 17.12.2021
4191 Clear 5 1017 82 10000 3.09 130 16:29 17.12.2021
4192 Clear 2 1016 90 10000 2.06 150 15:51 17.12.2021
4193 Clear 3 1016 84 10000 2.06 150 15:18 17.12.2021
4194 Clear 3 1016 83 10000 0 0 14:34 17.12.2021
4195 Clear 5 1015 80 10000 0 0 12:38 17.12.2021
4196 Clear 6 1015 79 10000 2.57 160 11:18 17.12.2021
4197 Clear 6 1016 75 10000 3.09 150 09:52 17.12.2021
4198 Clear 7 1015 71 10000 1.29 293 08:58 17.12.2021
4199 Clear 7 1016 73 10000 1.54 170 08:19 17.12.2021
4200 Clear 10 1015 63 10000 2.57 320 04:58 17.12.2021
4201 Clear 16 1015 50 10000 1.79 0 00:58 17.12.2021
4202 Clear 18 1016 45 10000 0.45 0 22:44 16.12.2021
4203 Clear 17 1016 46 10000 0.89 0 22:22 16.12.2021
4204 Clear 17 1016 48 10000 0.89 0 21:43 16.12.2021
4205 Clear 15 1017 52 10000 0.45 0 20:42 16.12.2021
4206 Clear 15 1018 53 10000 0.45 0 20:21 16.12.2021
4207 Clear 13 1019 56 10000 0.89 0 19:30 16.12.2021
4208 Clear 12 1018 61 10000 0.89 0 18:33 16.12.2021
4209 Clear 10 1020 66 10000 0.45 0 17:46 16.12.2021
4210 Clear 6 1019 76 10000 3.09 180 16:24 16.12.2021
4211 Clear 3 1019 90 10000 2.57 160 15:38 16.12.2021
4212 Clear 4 1019 82 10000 2.57 170 13:45 16.12.2021
4213 Clear 5 1020 74 10000 2.06 140 11:56 16.12.2021
4214 Clear 5 1020 74 10000 2.06 140 11:18 16.12.2021
4215 Clear 5 1020 72 10000 2.06 210 10:39 16.12.2021
4216 Clear 6 1020 67 10000 2.06 200 09:43 16.12.2021
4217 Clear 8 1020 66 10000 2.06 330 06:23 16.12.2021
4218 Clouds 9 1021 61 10000 0.45 311 04:33 16.12.2021
4219 Clouds 13 1019 57 10000 1.34 0 23:47 15.12.2021
4220 Clouds 13 1019 55 10000 0.89 0 22:49 15.12.2021
4221 Clouds 13 1020 56 10000 0.89 0 22:21 15.12.2021
4222 Clouds 13 1020 57 10000 1.34 0 21:31 15.12.2021
4223 Clouds 12 1021 56 10000 0.89 0 20:41 15.12.2021
4224 Clouds 12 1021 59 10000 0.89 0 19:53 15.12.2021
4225 Clouds 10 1022 65 10000 0.89 0 18:50 15.12.2021
4226 Clouds 9 1022 69 10000 0.89 171 18:18 15.12.2021
4227 Clouds 8 1022 73 10000 0.89 139 17:43 15.12.2021
4228 Clouds 7 1022 77 10000 0.89 148 16:59 15.12.2021
4229 Clouds 6 1022 79 10000 1.34 188 15:47 15.12.2021
4230 Clouds 6 1022 78 10000 1.79 188 15:29 15.12.2021
4231 Clouds 7 1021 75 10000 0.89 215 14:44 15.12.2021
4232 Clouds 6 1021 83 10000 2.68 327 13:28 15.12.2021
4233 Clouds 10 1018 80 10000 4.47 271 11:40 15.12.2021
4234 Clouds 15 1017 55 10000 2.24 0 10:18 15.12.2021
4235 Clear 16 1015 58 10000 0.89 0 07:55 15.12.2021
4236 Clear 17 1015 52 10000 0.45 0 04:22 15.12.2021
4237 Clouds 21 1015 40 10000 3.58 0 23:53 14.12.2021
4238 Clouds 21 1015 42 10000 3.13 0 22:55 14.12.2021
4239 Clouds 21 1015 43 10000 1.79 179 22:37 14.12.2021
4240 Clouds 20 1015 45 10000 0.45 0 21:38 14.12.2021
4241 Clouds 20 1018 45 10000 0.45 0 20:20 14.12.2021
4242 Clouds 19 1019 46 10000 0.45 0 19:21 14.12.2021
4243 Clouds 18 1019 47 10000 0.89 92 18:38 14.12.2021
4244 Clouds 18 1019 46 10000 0.89 0 17:51 14.12.2021
4245 Clouds 16 1019 55 10000 0.89 0 16:43 14.12.2021
4246 Clouds 15 1020 56 10000 0.45 172 15:54 14.12.2021
4247 Drizzle 15 1019 56 10000 4.12 90 13:35 14.12.2021
4248 Clouds 14 1019 60 10000 4.63 30 12:47 14.12.2021
4249 Clouds 16 1020 39 10000 0.45 0 11:25 14.12.2021
4250 Clouds 17 1020 38 10000 0.45 0 10:28 14.12.2021
4251 Clouds 17 1021 37 10000 0.45 0 09:53 14.12.2021
4252 Clouds 16 1020 38 10000 2.57 140 08:48 14.12.2021
4253 Clouds 15 1021 42 10000 0.45 0 08:21 14.12.2021
4254 Clouds 15 1020 40 10000 2.06 140 06:40 14.12.2021
4255 Clear 23 1019 22 10000 0.89 40 23:42 13.12.2021
4256 Clear 23 1019 22 10000 0.89 0 22:18 13.12.2021
4257 Clear 23 1020 24 10000 0.89 0 21:34 13.12.2021
4258 Clear 22 1021 27 10000 0.89 0 20:51 13.12.2021
4259 Clear 22 1021 32 10000 0.89 0 20:20 13.12.2021
4260 Clear 21 1022 35 10000 0.89 119 19:49 13.12.2021
4261 Clear 14 1021 54 10000 0.45 0 17:27 13.12.2021
4262 Clear 12 1023 61 10000 1.79 175 16:24 13.12.2021
4263 Clear 12 1020 59 10000 3.09 150 15:43 13.12.2021
4264 Clear 11 1019 58 10000 3.09 110 13:57 13.12.2021
4265 Clear 11 1019 61 10000 3.09 110 13:31 13.12.2021
4266 Clear 11 1019 61 10000 3.09 150 12:39 13.12.2021
4267 Clear 10 1019 63 10000 0 0 11:44 13.12.2021
4268 Clear 10 1019 62 10000 0 0 11:24 13.12.2021
4269 Clear 11 1019 56 10000 4.63 130 10:21 13.12.2021
4270 Clear 12 1020 54 10000 2.06 160 08:43 13.12.2021
4271 Clear 13 1018 47 10000 3.6 140 05:38 13.12.2021
4272 Clear 15 1016 43 10000 2.06 190 03:57 13.12.2021
4273 Clear 22 1016 24 10000 0.45 0 23:43 12.12.2021
4274 Clear 21 1017 28 10000 0.89 0 21:57 12.12.2021
4275 Clear 20 1018 31 10000 0.89 0 20:48 12.12.2021
4276 Clear 18 1019 36 10000 0.45 0 19:34 12.12.2021
4277 Clear 14 1019 47 10000 0.45 0 17:54 12.12.2021
4278 Clear 9 1018 56 10000 2.57 150 16:29 12.12.2021
4279 Clear 10 1018 53 10000 2.57 160 15:54 12.12.2021
4280 Clear 8 1018 56 10000 2.57 160 15:28 12.12.2021
4281 Clear 8 1017 61 10000 4.63 140 14:42 12.12.2021
4282 Clear 8 1017 61 10000 3.6 140 13:47 12.12.2021
4283 Clear 9 1017 61 10000 3.6 140 12:47 12.12.2021
4284 Clear 9 1018 57 10000 2.06 160 11:45 12.12.2021
4285 Clear 9 1018 57 10000 2.06 160 11:45 12.12.2021
4286 Clear 9 1018 58 10000 2.06 160 11:25 12.12.2021
4287 Clear 10 1018 55 10000 4.12 140 10:43 12.12.2021
4288 Clear 10 1019 57 10000 5.14 130 09:45 12.12.2021
4289 Clear 10 1019 58 10000 4.63 140 08:42 12.12.2021
4290 Clear 10 1020 64 10000 2.06 180 06:38 12.12.2021
4291 Clear 10 1019 66 10000 0 0 05:28 12.12.2021
4292 Clear 12 1021 51 10000 0.45 0 03:58 12.12.2021
4293 Clear 18 1019 33 10000 0.45 0 00:42 12.12.2021
4294 Clear 18 1020 35 10000 0.89 0 22:42 11.12.2021
4295 Clear 18 1020 36 10000 1.34 0 22:19 11.12.2021
4296 Clear 17 1021 41 10000 0.89 0 21:22 11.12.2021
4297 Clear 15 1023 49 10000 0.89 312 19:46 11.12.2021
4298 Clear 14 1024 53 10000 0.89 0 19:20 11.12.2021
4299 Clear 13 1024 60 10000 0.89 0 18:38 11.12.2021
4300 Clear 11 1024 68 10000 1.34 288 17:41 11.12.2021
4301 Clear 6 1021 83 10000 2.57 150 15:57 11.12.2021
4302 Clear 6 1021 83 10000 2.57 150 15:37 11.12.2021
4303 Clear 7 1021 84 10000 3.09 150 14:21 11.12.2021
4304 Clear 8 1021 83 10000 0 0 11:58 11.12.2021
4305 Clear 8 1021 82 10000 1.54 140 10:24 11.12.2021
4306 Clouds 9 1022 82 10000 1.54 160 09:37 11.12.2021
4307 Clear 12 1019 64 10000 1.79 0 03:25 11.12.2021
4308 Clear 15 1018 49 10000 1.79 0 00:45 11.12.2021
4309 Clouds 15 1018 47 10000 2.24 0 23:40 10.12.2021
4310 Clouds 16 1018 48 10000 1.79 0 22:33 10.12.2021
4311 Clouds 15 1018 52 10000 1.34 0 21:37 10.12.2021
4312 Clouds 14 1018 63 10000 0.89 0 19:55 10.12.2021
4313 Clouds 13 1019 69 10000 1.34 0 19:18 10.12.2021
4314 Clouds 10 1018 84 10000 1.34 306 17:23 10.12.2021
4315 Rain 10 1017 86 10000 1.34 301 16:32 10.12.2021
4316 Clouds 9 1016 87 10000 2.24 315 15:42 10.12.2021
4317 Rain 9 1016 87 10000 2.24 355 15:23 10.12.2021
4318 Rain 10 1014 88 4023 2.68 349 13:53 10.12.2021
4319 Rain 11 1014 88 8047 3.13 343 13:31 10.12.2021
4320 Rain 11 1013 87 10000 1.34 243 12:47 10.12.2021
4321 Rain 12 1013 85 10000 1.79 230 11:34 10.12.2021
4322 Drizzle 12 1013 80 10000 1.34 215 10:50 10.12.2021
4323 Clouds 14 1013 64 10000 2.24 0 09:30 10.12.2021
4324 Clouds 15 1013 62 10000 0.89 0 07:21 10.12.2021
4325 Clouds 17 1012 36 10000 1.34 0 02:51 10.12.2021
4326 Clouds 20 1012 27 10000 1.34 197 00:57 10.12.2021
4327 Clouds 21 1012 26 10000 1.79 0 23:38 09.12.2021
4328 Clouds 21 1012 27 10000 3.13 0 22:40 09.12.2021
4329 Clouds 21 1012 27 10000 2.68 0 22:19 09.12.2021
4330 Clouds 20 1013 30 10000 1.79 0 21:20 09.12.2021
4331 Clouds 20 1014 33 10000 1.34 0 20:34 09.12.2021
4332 Clouds 18 1016 39 10000 0.89 0 19:22 09.12.2021
4333 Clear 17 1016 40 10000 0.89 0 18:53 09.12.2021
4334 Clouds 16 1017 42 10000 0.45 0 17:57 09.12.2021
4335 Clouds 13 1017 47 10000 0.45 0 17:27 09.12.2021
4336 Clear 13 1016 48 10000 1.79 155 16:57 09.12.2021
4337 Clear 11 1017 51 10000 0.45 0 16:20 09.12.2021
4338 Clear 10 1015 54 10000 0.89 191 14:52 09.12.2021
4339 Clear 10 1015 54 10000 4.12 140 13:50 09.12.2021
4340 Clear 10 1016 54 10000 4.63 130 12:47 09.12.2021
4341 Clear 10 1015 48 10000 3.09 130 11:25 09.12.2021
4342 Clear 10 1015 45 10000 3.09 140 10:19 09.12.2021
4343 Clear 12 1016 38 10000 0.45 182 06:51 09.12.2021
4344 Clear 15 1017 32 10000 0.45 243 03:49 09.12.2021
4345 Clear 22 1015 23 10000 1.79 0 23:50 08.12.2021
4346 Clear 22 1016 23 10000 1.79 0 23:31 08.12.2021
4347 Clear 23 1016 23 10000 1.34 0 22:53 08.12.2021
4348 Clear 22 1017 24 10000 1.79 0 21:49 08.12.2021
4349 Clear 22 1017 25 10000 0.89 0 21:30 08.12.2021
4350 Clear 21 1017 27 10000 0.89 0 20:19 08.12.2021
4351 Clear 20 1018 28 10000 1.34 92 19:39 08.12.2021
4352 Clear 19 1019 31 10000 0.45 111 18:53 08.12.2021
4353 Clear 19 1019 31 10000 0.45 111 18:53 08.12.2021
4354 Clear 15 1018 38 10000 0.45 0 17:52 08.12.2021
4355 Clouds 10 1017 44 10000 1.88 152 15:59 08.12.2021
4356 Clear 10 1017 44 10000 3.09 170 15:31 08.12.2021
4357 Clear 10 1016 46 10000 4.63 160 14:52 08.12.2021
4358 Clear 10 1017 45 10000 4.63 140 12:39 08.12.2021
4359 Clear 11 1016 42 10000 3.09 120 10:36 08.12.2021
4360 Clear 12 1016 39 10000 3.6 140 09:31 08.12.2021
4361 Clear 13 1017 37 10000 1.79 243 07:34 08.12.2021
4362 Clouds 14 1017 34 10000 0.45 0 04:58 08.12.2021
4363 Clear 24 1014 20 10000 0.45 0 23:48 07.12.2021
4364 Clear 24 1014 20 10000 0.89 0 22:27 07.12.2021
4365 Clear 23 1014 22 10000 0.89 0 21:23 07.12.2021
4366 Clouds 22 1015 23 10000 0.89 0 20:24 07.12.2021
4367 Clear 19 1016 30 10000 0.45 0 18:55 07.12.2021
4368 Clear 18 1017 33 10000 0.45 0 17:53 07.12.2021
4369 Clear 16 1017 33 10000 0.45 0 17:20 07.12.2021
4370 Clear 14 1018 36 10000 0.89 174 16:34 07.12.2021
4371 Clear 13 1015 36 10000 4.63 130 15:34 07.12.2021
4372 Clear 12 1015 36 10000 2.57 90 14:30 07.12.2021
4373 Clear 13 1016 34 10000 0.45 125 12:56 07.12.2021
4374 Clear 13 1016 34 10000 0.45 125 12:56 07.12.2021
4375 Clear 13 1016 34 10000 0.89 149 12:21 07.12.2021
4376 Clear 14 1015 34 10000 4.12 140 10:43 07.12.2021
4377 Clear 14 1016 34 10000 3.6 140 08:42 07.12.2021
4378 Clear 15 1016 35 10000 4.12 140 06:21 07.12.2021
4379 Clear 15 1016 35 10000 0.45 0 05:39 07.12.2021
4380 Clear 25 1016 19 10000 0.89 355 23:58 06.12.2021
4381 Clear 26 1017 18 10000 0.45 347 22:58 06.12.2021
4382 Clear 25 1018 18 10000 0.89 348 22:37 06.12.2021
4383 Clear 25 1019 19 10000 0.89 337 21:52 06.12.2021
4384 Clear 24 1019 23 10000 0.45 0 20:40 06.12.2021
4385 Clear 23 1019 24 10000 0.45 0 20:22 06.12.2021
4386 Clear 21 1021 28 10000 0.89 0 19:22 06.12.2021
4387 Clear 18 1021 32 10000 1.79 0 18:29 06.12.2021
4388 Clear 16 1023 35 10000 0.45 180 17:40 06.12.2021
4389 Clear 13 1020 39 10000 3.6 160 16:49 06.12.2021
4390 Clear 11 1019 42 10000 4.63 160 15:41 06.12.2021
4391 Clear 9 1019 46 10000 4.63 150 13:46 06.12.2021
4392 Clear 10 1018 44 10000 2.06 170 12:39 06.12.2021
4393 Clear 11 1018 44 10000 4.12 150 11:38 06.12.2021
4394 Clear 12 1018 43 10000 4.12 150 08:51 06.12.2021
4395 Clear 13 1018 43 10000 3.6 160 06:42 06.12.2021
4396 Clear 23 1015 24 10000 2.24 335 23:44 05.12.2021
4397 Clear 23 1017 24 10000 1.79 335 21:52 05.12.2021
4398 Clear 22 1016 26 10000 1.34 0 21:19 05.12.2021
4399 Clear 21 1018 28 10000 0.45 229 20:19 05.12.2021
4400 Clear 20 1018 30 10000 0.45 0 19:33 05.12.2021
4401 Clear 19 1019 32 10000 0.45 0 18:55 05.12.2021
4402 Clear 17 1019 35 10000 0.89 0 18:20 05.12.2021
4403 Clear 16 1019 36 10000 0.89 190 17:48 05.12.2021
4404 Clear 13 1018 42 10000 0 0 16:48 05.12.2021
4405 Clear 11 1018 47 10000 0 0 16:26 05.12.2021
4406 Clear 9 1018 48 10000 2.57 160 15:48 05.12.2021
4407 Clear 8 1017 49 10000 2.57 150 14:41 05.12.2021
4408 Clear 8 1017 49 10000 2.57 150 14:23 05.12.2021
4409 Clear 10 1017 49 10000 1.54 150 13:22 05.12.2021
4410 Clear 10 1017 47 10000 2.06 150 12:40 05.12.2021
4411 Clear 10 1017 47 10000 2.06 150 12:18 05.12.2021
4412 Clear 10 1018 44 10000 3.6 140 11:30 05.12.2021
4413 Clear 11 1019 45 10000 4.12 140 09:59 05.12.2021
4414 Clear 13 1018 43 10000 3.09 150 08:24 05.12.2021
4415 Clouds 18 1018 32 10000 0.89 0 03:27 05.12.2021
4416 Clouds 22 1018 29 10000 0.89 0 23:45 04.12.2021
4417 Clouds 23 1018 28 10000 0.89 0 21:55 04.12.2021
4418 Clear 23 1019 28 10000 0.89 0 20:57 04.12.2021
4419 Clear 22 1020 29 10000 0.45 0 20:20 04.12.2021
4420 Clouds 21 1020 31 10000 0.89 0 19:32 04.12.2021
4421 Clear 19 1021 36 10000 1.34 170 18:21 04.12.2021
4422 Clear 18 1022 39 10000 1.79 165 17:40 04.12.2021
4423 Clear 14 1020 47 10000 3.09 160 16:52 04.12.2021
4424 Clear 12 1020 47 10000 3.09 160 16:31 04.12.2021
4425 Clouds 12 1020 47 10000 3.6 150 15:57 04.12.2021
4426 Clear 13 1019 46 10000 4.12 160 11:54 04.12.2021
4427 Clear 13 1019 47 10000 4.12 160 11:32 04.12.2021
4428 Clear 13 1019 46 10000 3.6 150 10:53 04.12.2021
4429 Clear 14 1019 45 10000 4.12 140 08:49 04.12.2021
4430 Clear 15 1019 42 10000 0.89 183 06:42 04.12.2021
4431 Clear 17 1018 38 10000 0.89 0 04:42 04.12.2021
4432 Clear 24 1016 27 10000 0.45 341 00:35 04.12.2021
4433 Clear 26 1017 25 10000 0.89 324 23:27 03.12.2021
4434 Clear 26 1017 26 10000 1.34 45 22:47 03.12.2021
4435 Clear 25 1018 28 10000 0.89 311 21:26 03.12.2021
4436 Clear 25 1018 29 10000 0.89 0 20:54 03.12.2021
4437 Clear 23 1019 32 10000 0.89 0 19:53 03.12.2021
4438 Clear 20 1020 38 10000 1.34 0 18:34 03.12.2021
4439 Clear 19 1021 41 10000 0.89 0 17:59 03.12.2021
4440 Clear 12 1019 54 10000 4.12 140 15:47 03.12.2021
4441 Clear 13 1020 52 10000 0.71 136 12:59 03.12.2021
4442 Clear 13 1018 52 10000 2.06 110 12:19 03.12.2021
4443 Clear 14 1019 50 10000 0 0 10:55 03.12.2021
4444 Clear 15 1018 48 10000 3.09 160 08:27 03.12.2021
4445 Clear 15 1019 46 10000 0.45 189 07:43 03.12.2021
4446 Clear 19 1018 39 10000 0.89 0 04:44 03.12.2021
4447 Clear 25 1017 29 10000 1.34 0 00:48 03.12.2021
4448 Clear 27 1017 27 10000 1.34 190 23:47 02.12.2021
4449 Haze 27 1018 26 8047 1.34 67 22:36 02.12.2021
4450 Clear 27 1019 27 10000 1.34 302 21:41 02.12.2021
4451 Clear 27 1020 28 10000 0.89 307 20:44 02.12.2021
4452 Clear 26 1020 29 10000 0.45 209 20:20 02.12.2021
4453 Clear 23 1022 33 10000 0.89 0 18:35 02.12.2021
4454 Clear 17 1022 42 10000 2.24 161 16:33 02.12.2021
4455 Clouds 15 1020 48 10000 3.09 140 15:37 02.12.2021
4456 Clouds 15 1020 46 10000 1.79 166 14:51 02.12.2021
4457 Clouds 15 1020 44 10000 2.24 153 13:26 02.12.2021
4458 Clear 15 1020 41 10000 3.6 150 12:23 02.12.2021
4459 Clear 16 1020 41 10000 4.63 150 10:42 02.12.2021
4460 Clear 16 1020 40 10000 4.63 150 09:25 02.12.2021
4461 Clear 17 1019 36 10000 3.6 150 06:46 02.12.2021
4462 Clouds 25 1019 24 10000 0.45 0 00:57 02.12.2021
4463 Clear 27 1018 22 10000 0.89 348 23:30 01.12.2021
4464 Clear 27 1019 22 10000 0.89 42 22:25 01.12.2021
4465 Clouds 27 1020 22 10000 0.45 0 21:42 01.12.2021
4466 Clouds 26 1021 24 10000 0.45 306 19:59 01.12.2021
4467 Clear 25 1022 25 10000 0.45 263 19:37 01.12.2021
4468 Clear 21 1022 30 10000 0.89 202 17:50 01.12.2021
4469 Clear 19 1021 32 10000 5.14 130 16:59 01.12.2021
4470 Clear 15 1021 33 10000 4.12 130 15:37 01.12.2021
4471 Clear 14 1020 35 10000 4.12 100 14:24 01.12.2021
4472 Clear 14 1020 34 10000 4.63 130 13:36 01.12.2021
4473 Clear 14 1020 34 10000 2.57 120 10:43 01.12.2021
4474 Clear 14 1019 31 10000 3.09 140 09:59 01.12.2021
4475 Clear 14 1019 33 10000 2.06 120 08:50 01.12.2021
4476 Clear 15 1019 31 10000 3.09 90 07:54 01.12.2021
4477 Clear 15 1020 31 10000 3.09 90 07:19 01.12.2021
4478 Clear 19 1018 26 10000 0.45 0 03:50 01.12.2021
4479 Clear 19 1018 26 10000 2.06 250 03:19 01.12.2021
4480 Clear 26 1016 17 10000 1.34 303 23:59 30.11.2021
4481 Clear 26 1017 17 10000 1.34 259 23:28 30.11.2021
4482 Clear 26 1017 17 10000 0.89 320 22:28 30.11.2021
4483 Clear 25 1018 23 10000 0.89 0 20:46 30.11.2021
4484 Clear 24 1019 25 10000 0.89 0 20:24 30.11.2021
4485 Clear 23 1019 26 10000 0.89 49 19:39 30.11.2021
4486 Clear 21 1021 29 10000 0.89 51 18:52 30.11.2021
4487 Clear 17 1019 36 10000 1.79 125 17:23 30.11.2021
4488 Clear 12 1019 40 10000 4.12 160 15:54 30.11.2021
4489 Clear 11 1018 39 10000 3.09 140 14:31 30.11.2021
4490 Clear 12 1018 39 10000 2.06 160 13:40 30.11.2021
4491 Clear 13 1018 37 10000 3.09 150 12:53 30.11.2021
4492 Clear 12 1018 37 10000 3.09 150 11:54 30.11.2021
4493 Clear 13 1018 37 10000 3.09 150 11:25 30.11.2021
4494 Clear 13 1019 36 10000 2.57 150 10:35 30.11.2021
4495 Clear 13 1019 34 10000 3.09 160 08:55 30.11.2021
4496 Clear 14 1019 33 10000 3.09 160 08:32 30.11.2021
4497 Clear 15 1019 30 10000 2.06 130 07:49 30.11.2021
4498 Clear 16 1018 29 10000 3.09 140 06:32 30.11.2021
4499 Clear 20 1017 28 10000 3 87 01:46 30.11.2021
4500 Clear 23 1018 25 10000 0 0 01:26 30.11.2021
4501 Clear 27 1017 17 10000 0.89 194 23:27 29.11.2021
4502 Clear 27 1017 17 10000 0.45 0 22:59 29.11.2021
4503 Clear 27 1018 17 10000 0.89 0 22:36 29.11.2021
4504 Clear 27 1018 18 10000 1.34 76 21:46 29.11.2021
4505 Clear 26 1019 18 10000 0.89 0 21:19 29.11.2021
4506 Clear 26 1019 18 10000 0.45 0 20:44 29.11.2021
4507 Clear 25 1020 19 10000 0.89 0 19:57 29.11.2021
4508 Clear 24 1021 19 10000 0.89 0 19:38 29.11.2021
4509 Clear 23 1021 22 10000 0.89 0 18:56 29.11.2021
4510 Clear 22 1018 16 10000 3.15 108 18:37 29.11.2021
4511 Clear 18 1020 21 10000 2.97 106 17:21 29.11.2021
4512 Clear 18 1020 21 10000 2.97 106 16:40 29.11.2021
4513 Clear 16 1020 24 10000 3.12 99 16:22 29.11.2021
4514 Clear 15 1020 24 10000 3.18 99 14:45 29.11.2021
4515 Clear 15 1019 24 10000 3.12 96 13:52 29.11.2021
4516 Clear 15 1019 24 10000 3.07 97 12:56 29.11.2021
4517 Clear 16 1019 24 10000 3.16 98 11:51 29.11.2021
4518 Clear 16 1019 23 10000 3.13 97 10:59 29.11.2021
4519 Clear 14 1021 28 10000 5.66 140 09:56 29.11.2021
4520 Clear 15 1022 28 10000 4.63 140 06:44 29.11.2021
4521 Clear 16 1022 26 10000 1.54 160 04:53 29.11.2021
4522 Clear 27 1020 11 10000 2.57 50 00:44 29.11.2021
4523 Clear 27 1020 10 10000 4.12 90 23:47 28.11.2021
4524 Clear 27 1020 10 10000 4.12 90 23:28 28.11.2021
4525 Clear 25 1022 10 10000 4.12 130 21:53 28.11.2021
4526 Clear 25 1022 11 10000 4.12 130 21:34 28.11.2021
4527 Clear 25 1023 13 10000 7.72 130 20:36 28.11.2021
4528 Clear 23 1024 16 10000 7.2 130 19:29 28.11.2021
4529 Clear 19 1024 25 10000 2.57 100 18:40 28.11.2021
4530 Clear 17 1024 27 10000 5.14 140 17:57 28.11.2021
4531 Clear 15 1024 34 10000 5.14 140 17:32 28.11.2021
4532 Clear 11 1024 44 10000 3.09 140 16:44 28.11.2021
4533 Clear 11 1024 44 10000 3.09 140 16:26 28.11.2021
4534 Clear 9 1023 49 10000 2.06 160 15:43 28.11.2021
4535 Clear 7 1023 56 10000 0 0 14:50 28.11.2021
4536 Clear 8 1023 53 10000 1.54 150 13:51 28.11.2021
4537 Clear 8 1023 53 10000 2.06 140 12:54 28.11.2021
4538 Clear 8 1023 53 10000 2.57 170 11:21 28.11.2021
4539 Clear 8 1023 53 10000 0 0 10:22 28.11.2021
4540 Clear 9 1023 49 10000 3.6 130 09:40 28.11.2021
4541 Clear 10 1023 48 10000 4.12 150 08:21 28.11.2021
4542 Clear 22 1018 23 10000 4.12 290 00:49 28.11.2021
4543 Clear 22 1020 24 10000 3.6 300 21:46 27.11.2021
4544 Clear 18 1021 32 10000 0 0 19:50 27.11.2021
4545 Clear 16 1021 36 10000 0 0 18:20 27.11.2021
4546 Clear 8 1020 57 10000 3.09 140 15:59 27.11.2021
4547 Clear 7 1020 59 10000 2.57 110 14:35 27.11.2021
4548 Clear 8 1019 55 10000 3.09 120 13:20 27.11.2021
4549 Haze 9 1019 51 3219 3.09 150 11:23 27.11.2021
4550 Haze 9 1018 49 3621 4.12 140 09:55 27.11.2021
4551 Haze 11 1018 44 6437 2.06 170 08:51 27.11.2021
4552 Clear 14 1018 37 10000 2.06 30 06:35 27.11.2021
4553 Clear 16 1018 31 10000 2.06 150 03:57 27.11.2021
4554 Clear 22 1017 21 10000 0 0 00:23 27.11.2021
4555 Clear 22 1018 22 10000 4.63 140 22:41 26.11.2021
4556 Clear 22 1018 22 10000 4.63 140 22:20 26.11.2021
4557 Clear 22 1019 22 10000 8.23 140 21:23 26.11.2021
4558 Clear 21 1020 24 10000 7.72 120 20:40 26.11.2021
4559 Clear 20 1020 24 10000 9.26 130 19:55 26.11.2021
4560 Clear 18 1022 25 10000 1.54 70 18:45 26.11.2021
4561 Clear 16 1022 29 10000 4.63 160 17:27 26.11.2021
4562 Clear 14 1021 34 10000 2.06 200 16:50 26.11.2021
4563 Clear 13 1021 35 10000 1.54 30 14:57 26.11.2021
4564 Clouds 12 1022 44 10000 2.24 0 13:35 26.11.2021
4565 Clear 12 1023 44 10000 1.79 0 10:44 26.11.2021
4566 Clear 12 1024 46 10000 1.79 0 09:53 26.11.2021
4567 Clear 12 1024 48 10000 1.34 0 08:50 26.11.2021
4568 Clear 12 1024 48 10000 0.89 0 08:20 26.11.2021
4569 Clear 13 1024 48 10000 2.24 0 06:37 26.11.2021
4570 Clear 13 1024 48 10000 2.24 0 06:37 26.11.2021
4571 Clear 13 1024 48 10000 2.24 0 06:19 26.11.2021
4572 Clouds 14 1024 47 10000 2.24 0 03:41 26.11.2021
4573 Clouds 18 1023 40 10000 1.79 0 23:49 25.11.2021
4574 Clouds 19 1023 38 10000 2.24 0 22:34 25.11.2021
4575 Clouds 19 1024 40 10000 2.68 0 20:45 25.11.2021
4576 Clear 19 1025 42 10000 2.68 0 19:22 25.11.2021
4577 Clear 18 1025 44 10000 2.68 25 18:31 25.11.2021
4578 Clouds 16 1025 44 10000 0.45 0 17:28 25.11.2021
4579 Clouds 15 1023 48 10000 0.45 260 16:47 25.11.2021
4580 Clouds 13 1024 53 10000 2.24 335 16:00 25.11.2021
4581 Clouds 13 1022 57 10000 2.06 280 14:44 25.11.2021
4582 Clouds 13 1021 59 10000 2.06 280 13:20 25.11.2021
4583 Clouds 14 1021 57 10000 0.45 230 11:57 25.11.2021
4584 Clouds 14 1021 58 10000 0.89 292 10:49 25.11.2021
4585 Clouds 15 1021 53 10000 0.45 0 08:28 25.11.2021
4586 Clouds 18 1018 45 10000 0.45 0 03:18 25.11.2021
4587 Clear 18 1018 43 10000 0.45 300 02:43 25.11.2021
4588 Clear 21 1016 36 10000 2.24 0 22:41 24.11.2021
4589 Clear 22 1017 35 10000 1.79 330 21:57 24.11.2021
4590 Clear 22 1017 36 10000 0.89 0 21:22 24.11.2021
4591 Clear 21 1017 39 10000 0.89 90 20:28 24.11.2021
4592 Clouds 21 1018 43 10000 0.45 0 19:40 24.11.2021
4593 Clouds 19 1018 53 10000 1.34 0 18:29 24.11.2021
4594 Clouds 16 1017 65 10000 1.34 114 16:48 24.11.2021
4595 Clouds 12 1016 80 10000 3.6 150 15:21 24.11.2021
4596 Clouds 12 1016 78 10000 0 0 14:30 24.11.2021
4597 Clouds 13 1015 77 10000 2.57 110 13:43 24.11.2021
4598 Clouds 14 1015 72 10000 0.89 338 11:36 24.11.2021
4599 Clouds 15 1015 68 10000 0.45 179 11:18 24.11.2021
4600 Clouds 15 1015 61 10000 0.45 197 10:36 24.11.2021
4601 Clouds 17 1014 45 10000 0.89 0 09:35 24.11.2021
4602 Clouds 18 1014 37 10000 0 0 07:42 24.11.2021
4603 Clouds 18 1014 35 10000 0.89 0 06:20 24.11.2021
4604 Clouds 19 1014 31 10000 0.45 280 03:44 24.11.2021
4605 Clouds 24 1013 26 10000 2.24 0 23:36 23.11.2021
4606 Clouds 25 1013 26 10000 2.68 338 22:39 23.11.2021
4607 Clouds 26 1013 26 10000 0.45 187 21:46 23.11.2021
4608 Clouds 26 1014 25 10000 0.89 347 20:47 23.11.2021
4609 Clouds 25 1015 27 10000 0.45 0 19:36 23.11.2021
4610 Clouds 22 1016 32 10000 0.89 85 18:35 23.11.2021
4611 Clouds 20 1017 34 10000 0.45 0 17:57 23.11.2021
4612 Clouds 18 1016 37 10000 0.45 0 16:54 23.11.2021
4613 Clouds 17 1016 37 10000 0.45 0 15:41 23.11.2021
4614 Clouds 16 1017 37 10000 0.45 0 15:19 23.11.2021
4615 Clouds 16 1016 36 10000 0.89 158 13:33 23.11.2021
4616 Clouds 17 1017 34 10000 0.45 0 10:40 23.11.2021
4617 Clouds 17 1018 34 10000 0.89 126 09:48 23.11.2021
4618 Clouds 17 1018 33 10000 0.45 0 08:43 23.11.2021
4619 Clouds 19 1018 30 10000 0.45 0 05:25 23.11.2021
4620 Clouds 20 1018 28 10000 0.45 0 03:37 23.11.2021
4621 Clouds 25 1019 20 10000 1.34 145 23:42 22.11.2021
4622 Clouds 25 1019 21 10000 7.72 130 23:20 22.11.2021
4623 Clouds 25 1020 21 10000 2.68 131 22:31 22.11.2021
4624 Clear 25 1020 19 10000 8.75 140 21:45 22.11.2021
4625 Clear 25 1020 19 10000 8.75 140 21:21 22.11.2021
4626 Clouds 24 1022 21 10000 1.34 104 20:43 22.11.2021
4627 Clouds 23 1023 22 10000 1.34 113 19:24 22.11.2021
4628 Clouds 22 1023 24 10000 1.79 98 18:41 22.11.2021
4629 Clouds 22 1023 24 10000 1.34 0 18:41 22.11.2021
4630 Clouds 21 1024 24 10000 1.34 0 18:22 22.11.2021
4631 Clouds 18 1023 29 10000 1.79 0 16:45 22.11.2021
4632 Clear 16 1022 31 10000 1.79 0 15:32 22.11.2021
4633 Clouds 16 1022 29 10000 1.34 0 12:51 22.11.2021
4634 Clouds 17 1022 27 10000 1.34 0 11:39 22.11.2021
4635 Clouds 17 1022 25 10000 0.89 0 10:27 22.11.2021
4636 Clouds 18 1022 25 10000 0.45 0 08:44 22.11.2021
4637 Clouds 18 1021 24 10000 0.89 0 08:24 22.11.2021
4638 Clouds 22 1020 22 10000 0.45 0 01:43 22.11.2021
4639 Clouds 25 1019 18 10000 0.89 0 23:21 21.11.2021
4640 Clear 25 1019 18 10000 0.89 0 22:45 21.11.2021
4641 Clouds 24 1020 21 10000 0.89 0 21:22 21.11.2021
4642 Clouds 23 1020 22 10000 3.09 330 20:36 21.11.2021
4643 Clouds 21 1021 26 10000 2.57 360 19:35 21.11.2021
4644 Clouds 19 1019 27 10000 1.17 107 17:59 21.11.2021
4645 Clouds 17 1021 27 10000 2.57 330 17:36 21.11.2021
4646 Clouds 13 1020 32 10000 1.54 110 15:21 21.11.2021
4647 Clouds 13 1020 32 10000 0 0 14:42 21.11.2021
4648 Clear 13 1019 31 10000 1.54 170 13:23 21.11.2021
4649 Clear 14 1019 33 10000 2.06 170 12:27 21.11.2021
4650 Clouds 14 1019 32 10000 3.6 140 11:38 21.11.2021
4651 Clear 13 1019 31 10000 1.54 150 10:19 21.11.2021
4652 Clear 13 1019 30 10000 2.57 120 09:47 21.11.2021
4653 Clear 14 1019 30 10000 3.6 150 08:33 21.11.2021
4654 Clear 14 1019 29 10000 2.06 150 07:53 21.11.2021
4655 Clear 15 1018 29 10000 3.09 180 06:37 21.11.2021
4656 Clear 16 1018 28 10000 3.09 200 05:42 21.11.2021
4657 Clear 19 1018 24 10000 0.45 0 03:26 21.11.2021
4658 Clouds 20 1017 23 10000 0.89 0 02:56 21.11.2021
4659 Clear 20 1017 23 10000 1.34 0 02:18 21.11.2021
4660 Clear 24 1017 21 10000 0.89 0 00:50 21.11.2021
4661 Clear 26 1017 20 10000 0.45 293 22:35 20.11.2021
4662 Clear 26 1018 20 10000 0.89 273 21:33 20.11.2021
4663 Clear 25 1018 21 10000 0.45 0 20:32 20.11.2021
4664 Clear 22 1019 24 10000 0.45 0 18:45 20.11.2021
4665 Clear 21 1019 25 10000 0.89 0 18:24 20.11.2021
4666 Clear 18 1020 29 10000 2.57 130 17:22 20.11.2021
4667 Clear 12 1019 34 10000 2.24 159 15:23 20.11.2021
4668 Clear 11 1018 35 10000 6.17 160 14:39 20.11.2021
4669 Clear 12 1018 34 10000 6.17 160 14:20 20.11.2021
4670 Clear 13 1018 32 10000 4.63 150 11:56 20.11.2021
4671 Clear 13 1018 32 10000 4.63 150 11:56 20.11.2021
4672 Clouds 15 1017 29 10000 1.52 133 09:59 20.11.2021
4673 Clear 14 1018 30 10000 4.12 140 08:44 20.11.2021
4674 Clear 16 1018 28 10000 2.06 170 06:57 20.11.2021
4675 Clear 17 1018 28 10000 0.45 0 05:21 20.11.2021
4676 Clear 18 1018 27 10000 0.45 0 04:49 20.11.2021
4677 Clear 26 1017 18 10000 0.89 269 00:45 20.11.2021
4678 Clear 27 1016 16 10000 0.45 0 00:26 20.11.2021
4679 Clear 28 1018 15 10000 0.45 99 22:54 19.11.2021
4680 Clear 27 1019 15 10000 0.89 71 21:36 19.11.2021
4681 Clear 27 1020 16 10000 0.89 0 20:48 19.11.2021
4682 Clear 26 1021 16 10000 0.89 0 20:29 19.11.2021
4683 Clear 25 1021 18 10000 0.89 0 19:47 19.11.2021
4684 Clear 22 1022 20 10000 0.45 66 18:49 19.11.2021
4685 Clear 20 1022 24 10000 0.89 0 17:45 19.11.2021
4686 Clear 16 1022 28 10000 1.34 0 16:43 19.11.2021
4687 Clear 13 1022 29 10000 0.45 0 15:31 19.11.2021
4688 Clear 14 1020 27 10000 0.45 0 12:43 19.11.2021
4689 Clear 15 1021 25 10000 0.89 0 10:25 19.11.2021
4690 Clear 16 1021 25 10000 1.34 0 08:39 19.11.2021
4691 Clear 16 1021 24 10000 0.45 0 07:26 19.11.2021
4692 Clear 18 1021 22 10000 0.89 0 04:22 19.11.2021
4693 Clear 26 1019 14 10000 2.24 155 23:59 18.11.2021
4694 Clear 26 1019 13 10000 5.14 150 23:41 18.11.2021
4695 Clear 26 1022 14 10000 0.45 156 21:41 18.11.2021
4696 Clear 26 1022 15 10000 1.34 0 20:46 18.11.2021
4697 Clear 25 1022 16 10000 0.89 0 20:28 18.11.2021
4698 Clear 24 1023 18 10000 0.45 0 19:43 18.11.2021
4699 Clear 22 1022 19 10000 1.34 143 18:40 18.11.2021
4700 Clear 20 1023 24 10000 0.45 143 17:54 18.11.2021
4701 Clear 19 1023 24 10000 1.34 143 17:35 18.11.2021
4702 Clear 17 1022 26 10000 4.12 160 16:43 18.11.2021
4703 Clear 12 1021 29 10000 4.63 170 15:23 18.11.2021
4704 Clear 11 1020 32 10000 4.12 160 13:21 18.11.2021
4705 Clear 12 1021 31 10000 4.63 150 11:45 18.11.2021
4706 Clear 12 1020 30 10000 4.63 150 11:26 18.11.2021
4707 Clear 12 1020 27 10000 0 0 10:55 18.11.2021
4708 Clear 12 1020 29 10000 3.09 140 09:28 18.11.2021
4709 Clear 13 1020 29 10000 2.57 130 07:31 18.11.2021
4710 Clear 14 1019 28 10000 2.06 190 05:47 18.11.2021
4711 Clear 18 1018 26 10000 0.45 0 02:35 18.11.2021
4712 Clear 21 1017 23 10000 0.45 332 01:21 18.11.2021
4713 Clouds 24 1017 18 10000 0.89 0 22:41 17.11.2021
4714 Clouds 24 1016 19 10000 0.89 0 22:20 17.11.2021
4715 Clouds 24 1017 19 10000 0.45 0 21:36 17.11.2021
4716 Clouds 23 1018 20 10000 0.45 0 20:18 17.11.2021
4717 Clear 19 1018 29 10000 3.6 160 17:44 17.11.2021
4718 Clouds 18 1016 30 10000 1.22 140 16:59 17.11.2021
4719 Clouds 13 1017 28 10000 1.29 146 13:59 17.11.2021
4720 Clear 12 1016 30 10000 3.09 120 12:39 17.11.2021
4721 Clear 13 1016 28 10000 3.6 130 11:37 17.11.2021
4722 Clear 13 1016 29 10000 3.6 140 10:28 17.11.2021
4723 Clear 14 1015 27 10000 3.6 120 09:23 17.11.2021
4724 Clear 15 1015 26 10000 3.09 120 07:41 17.11.2021
4725 Clear 20 1014 19 10000 1.34 0 03:35 17.11.2021
4726 Clear 25 1013 15 10000 1.79 0 00:47 17.11.2021
4727 Clear 28 1014 13 10000 1.79 309 22:44 16.11.2021
4728 Clear 27 1016 14 10000 0.45 320 20:20 16.11.2021
4729 Clouds 27 1017 15 10000 0.45 320 19:59 16.11.2021
4730 Clear 24 1018 20 10000 0.45 0 18:53 16.11.2021
4731 Clear 23 1019 21 10000 0.45 0 18:30 16.11.2021
4732 Clear 21 1019 21 10000 2.57 170 17:34 16.11.2021
4733 Clear 17 1018 26 10000 2.57 160 16:32 16.11.2021
4734 Clear 15 1018 25 10000 4.63 150 15:49 16.11.2021
4735 Clear 13 1018 26 10000 4.63 140 14:31 16.11.2021
4736 Clear 14 1019 25 10000 3.09 130 11:22 16.11.2021
4737 Clear 15 1020 25 10000 4.12 130 09:45 16.11.2021
4738 Clear 15 1020 24 10000 3.09 140 08:25 16.11.2021
4739 Clear 16 1019 24 10000 4.12 150 07:31 16.11.2021
4740 Clear 25 1019 17 10000 0.89 0 01:38 16.11.2021
4741 Clear 30 1020 10 10000 0.89 256 22:52 15.11.2021
4742 Clear 30 1020 10 10000 0.45 281 22:21 15.11.2021
4743 Clear 30 1020 11 10000 0.89 350 21:52 15.11.2021
4744 Clear 30 1021 12 10000 0.45 56 21:26 15.11.2021
4745 Clear 27 1022 17 10000 0.89 51 19:41 15.11.2021
4746 Clear 24 1023 19 10000 3.09 170 18:30 15.11.2021
4747 Clear 17 1023 25 10000 3.6 160 16:20 15.11.2021
4748 Clear 14 1022 24 10000 3.09 160 15:40 15.11.2021
4749 Clear 13 1022 24 10000 3.09 160 15:21 15.11.2021
4750 Clear 14 1022 24 10000 2.57 140 13:22 15.11.2021
4751 Clear 15 1022 24 10000 5.14 150 10:57 15.11.2021
4752 Clear 15 1022 23 10000 3.09 160 09:27 15.11.2021
4753 Clear 15 1022 23 10000 3.09 160 09:27 15.11.2021
4754 Clear 17 1022 22 10000 5.14 140 07:52 15.11.2021
4755 Clear 20 1020 21 10000 3.09 180 05:19 15.11.2021
4756 Clear 30 1019 11 10000 1.34 328 23:37 14.11.2021
4757 Clear 30 1020 10 10000 1.34 300 22:35 14.11.2021
4758 Clear 27 1022 17 10000 0.45 0 19:53 14.11.2021
4759 Clear 25 1023 18 10000 0.45 0 19:18 14.11.2021
4760 Clear 25 1023 18 10000 1.34 352 18:54 14.11.2021
4761 Clear 24 1024 20 10000 0.45 154 18:36 14.11.2021
4762 Clear 23 1024 20 10000 0.45 155 18:18 14.11.2021
4763 Clear 22 1024 22 10000 3.09 180 17:55 14.11.2021
4764 Clear 21 1023 22 10000 3.09 180 17:37 14.11.2021
4765 Clear 21 1023 23 10000 3.09 180 17:19 14.11.2021
4766 Clear 18 1023 24 10000 3.6 160 16:46 14.11.2021
4767 Clear 17 1023 26 10000 3.6 160 16:20 14.11.2021
4768 Clear 14 1022 27 10000 1.54 70 15:23 14.11.2021
4769 Clear 14 1021 26 10000 4.12 150 14:49 14.11.2021
4770 Clear 13 1021 25 10000 4.12 150 14:28 14.11.2021
4771 Clear 14 1021 22 10000 2.06 190 13:54 14.11.2021
4772 Clear 14 1021 23 10000 2.06 190 13:35 14.11.2021
4773 Clear 14 1022 24 10000 3.6 150 12:27 14.11.2021
4774 Clear 14 1021 26 10000 4.63 160 11:41 14.11.2021
4775 Clear 14 1021 26 10000 4.12 140 10:41 14.11.2021
4776 Clear 16 1022 24 10000 4.63 140 09:48 14.11.2021
4777 Clear 17 1021 23 10000 2.57 120 08:54 14.11.2021
4778 Clear 17 1021 24 10000 4.12 150 07:19 14.11.2021
4779 Clear 30 1019 11 10000 1.79 355 23:47 13.11.2021
4780 Clear 30 1019 11 10000 0.89 351 22:26 13.11.2021
4781 Clear 30 1019 11 10000 0.45 0 21:56 13.11.2021
4782 Clear 30 1020 12 10000 0.45 334 21:22 13.11.2021
4783 Clear 27 1021 15 10000 0.45 90 19:38 13.11.2021
4784 Clear 25 1022 19 10000 0.45 0 18:33 13.11.2021
4785 Clear 23 1021 21 10000 0.45 0 17:55 13.11.2021
4786 Clear 19 1021 24 10000 4.12 140 16:37 13.11.2021
4787 Clear 14 1021 25 10000 4.63 130 15:29 13.11.2021
4788 Clear 15 1021 24 10000 3.09 140 14:20 13.11.2021
4789 Clear 14 1020 24 10000 3.09 140 13:18 13.11.2021
4790 Clear 15 1020 23 10000 4.63 120 12:22 13.11.2021
4791 Clear 15 1020 23 10000 4.63 110 11:34 13.11.2021
4792 Clear 16 1020 22 10000 3.6 120 10:44 13.11.2021
4793 Clear 16 1021 22 10000 1.79 162 09:56 13.11.2021
4794 Clear 15 1020 22 10000 4.12 130 09:34 13.11.2021
4795 Clear 16 1020 20 10000 4.12 130 08:56 13.11.2021
4796 Clear 17 1020 20 10000 4.12 130 08:23 13.11.2021
4797 Clear 19 1020 20 10000 1.54 90 04:47 13.11.2021
4798 Clear 20 1019 19 10000 1.54 90 04:28 13.11.2021
4799 Clear 26 1019 17 10000 1.34 0 01:30 13.11.2021
4800 Clear 29 1019 13 10000 1.34 348 22:46 12.11.2021
4801 Clear 29 1020 13 10000 0.89 0 21:45 12.11.2021
4802 Clear 29 1020 13 10000 0.89 0 21:45 12.11.2021
4803 Clear 26 1022 17 10000 0.89 0 19:54 12.11.2021
4804 Clear 25 1022 18 10000 0.45 0 19:27 12.11.2021
4805 Clear 22 1022 23 10000 0.89 0 18:29 12.11.2021
4806 Clear 17 1021 30 10000 0 0 16:34 12.11.2021
4807 Clear 13 1021 34 10000 1.54 90 15:32 12.11.2021
4808 Clear 13 1021 34 10000 1.54 90 15:32 12.11.2021
4809 Clear 14 1019 32 10000 3.09 160 11:54 12.11.2021
4810 Clear 14 1019 31 10000 3.09 160 10:51 12.11.2021
4811 Clear 14 1019 30 10000 3.6 140 09:37 12.11.2021
4812 Clear 15 1020 31 10000 4.63 140 08:38 12.11.2021
4813 Clear 22 1017 23 10000 1.34 0 02:28 12.11.2021
4814 Clear 27 1017 17 10000 1.79 0 23:41 11.11.2021
4815 Clear 27 1017 17 10000 1.79 344 22:31 11.11.2021
4816 Clear 27 1018 18 10000 0.89 0 21:27 11.11.2021
4817 Clear 26 1019 21 10000 0.89 0 20:40 11.11.2021
4818 Clear 23 1020 27 10000 1.54 280 18:56 11.11.2021
4819 Clear 21 1020 32 10000 1.54 180 17:43 11.11.2021
4820 Clear 17 1020 38 10000 0 0 16:43 11.11.2021
4821 Clear 12 1019 48 10000 2.57 170 14:46 11.11.2021
4822 Clear 12 1019 48 10000 2.57 170 14:28 11.11.2021
4823 Clear 13 1019 47 10000 2.57 180 13:38 11.11.2021
4824 Clear 13 1019 45 10000 3.6 140 12:48 11.11.2021
4825 Clear 13 1019 43 10000 1.54 110 10:40 11.11.2021
4826 Clear 14 1019 44 10000 4.12 140 09:34 11.11.2021
4827 Clear 15 1019 41 10000 2.57 180 07:38 11.11.2021
4828 Clear 18 1018 35 10000 1.34 0 03:58 11.11.2021
4829 Clear 26 1017 23 10000 1.34 0 23:00 10.11.2021
4830 Clear 26 1017 23 10000 1.34 0 22:22 10.11.2021
4831 Clear 25 1017 25 10000 1.34 0 21:21 10.11.2021
4832 Clear 24 1018 26 10000 1.34 0 20:46 10.11.2021
4833 Clear 23 1019 27 10000 0.89 271 19:47 10.11.2021
4834 Clear 23 1019 27 10000 0.89 271 19:47 10.11.2021
4835 Clear 21 1021 32 10000 0.45 0 18:33 10.11.2021
4836 Clear 16 1021 39 10000 2.57 170 16:34 10.11.2021
4837 Clear 12 1020 44 10000 2.06 180 14:52 10.11.2021
4838 Clear 12 1020 40 10000 3.6 140 13:41 10.11.2021
4839 Clear 13 1020 41 10000 4.12 140 12:50 10.11.2021
4840 Clear 14 1021 40 10000 2.57 180 10:48 10.11.2021
4841 Clear 15 1020 37 10000 2.06 190 08:45 10.11.2021
4842 Clear 16 1020 35 10000 2.06 210 07:44 10.11.2021
4843 Clear 17 1020 33 10000 3.6 180 06:26 10.11.2021
4844 Clear 17 1020 32 10000 0.89 0 05:51 10.11.2021
4845 Clear 27 1019 19 10000 2.24 325 23:53 09.11.2021
4846 Clear 27 1020 18 10000 0.89 0 21:48 09.11.2021
4847 Clouds 26 1021 21 10000 0.89 0 20:32 09.11.2021
4848 Clear 25 1022 23 10000 0.45 75 19:25 09.11.2021
4849 Clear 20 1025 32 10000 0.89 167 17:37 09.11.2021
4850 Clouds 15 1024 36 10000 1.03 130 15:45 09.11.2021
4851 Clear 12 1023 36 10000 2.57 150 14:29 09.11.2021
4852 Clear 15 1023 34 10000 2.57 180 12:53 09.11.2021
4853 Clear 15 1023 34 10000 2.57 180 12:53 09.11.2021
4854 Clear 15 1022 35 10000 3.09 160 11:42 09.11.2021
4855 Clear 15 1022 34 10000 2.06 180 10:45 09.11.2021
4856 Clear 16 1022 33 10000 4.63 150 09:24 09.11.2021
4857 Clear 17 1022 31 10000 5.14 150 08:26 09.11.2021
4858 Clear 19 1020 30 10000 2.06 120 05:52 09.11.2021
4859 Clear 24 1019 25 10000 0.45 0 02:23 09.11.2021
4860 Clear 25 1018 24 10000 0.45 0 01:45 09.11.2021
4861 Clear 29 1018 18 10000 1.79 180 23:58 08.11.2021
4862 Clear 29 1018 20 10000 1.34 192 22:49 08.11.2021
4863 Clear 29 1018 22 10000 1.34 0 21:59 08.11.2021
4864 Clear 28 1019 23 10000 0.89 0 20:55 08.11.2021
4865 Clear 26 1020 25 10000 0.45 48 19:51 08.11.2021
4866 Clear 23 1023 30 10000 0.45 180 18:30 08.11.2021
4867 Clear 17 1021 30 10000 4.12 160 16:22 08.11.2021
4868 Clouds 17 1015 30 10000 2.2 132 14:58 08.11.2021
4869 Clear 16 1020 31 10000 4.12 150 14:38 08.11.2021
4870 Clear 16 1019 31 10000 0 0 13:31 08.11.2021
4871 Clear 17 1019 29 10000 1.54 110 11:56 08.11.2021
4872 Clear 17 1020 30 10000 2.06 140 10:52 08.11.2021
4873 Clear 17 1020 30 10000 2.06 190 09:39 08.11.2021
4874 Clear 18 1020 31 10000 3.6 140 08:54 08.11.2021
4875 Clear 19 1017 28 10000 0 0 07:29 08.11.2021
4876 Clear 22 1017 26 10000 0.45 0 03:56 08.11.2021
4877 Clear 23 1017 25 10000 0.45 208 03:28 08.11.2021
4878 Clear 30 1015 17 10000 0.89 344 23:46 07.11.2021
4879 Clear 30 1017 16 10000 0.89 53 21:48 07.11.2021
4880 Clear 30 1017 17 10000 0.89 47 20:54 07.11.2021
4881 Clear 27 1019 23 10000 0.89 0 19:30 07.11.2021
4882 Clouds 25 1019 26 10000 1.34 0 18:22 07.11.2021
4883 Clear 21 1019 28 10000 5.66 130 16:50 07.11.2021
4884 Clear 17 1019 33 10000 4.63 160 15:48 07.11.2021
4885 Clear 15 1019 32 10000 4.63 130 14:29 07.11.2021
4886 Clear 16 1019 32 10000 5.14 140 13:26 07.11.2021
4887 Clear 16 1019 30 10000 4.12 150 11:42 07.11.2021
4888 Clear 17 1019 30 10000 4.63 150 09:49 07.11.2021
4889 Clear 19 1018 27 10000 4.63 150 07:20 07.11.2021
4890 Clear 25 1017 22 10000 0.45 0 02:34 07.11.2021
4891 Clear 31 1017 12 10000 0.89 36 23:37 06.11.2021
4892 Clear 31 1018 12 10000 0.89 355 22:47 06.11.2021
4893 Clear 31 1018 13 10000 0.89 332 21:33 06.11.2021
4894 Clear 31 1018 15 10000 0.45 173 20:50 06.11.2021
4895 Clouds 27 1020 22 10000 0.45 0 18:56 06.11.2021
4896 Clouds 22 1018 31 10000 1.81 122 16:46 06.11.2021
4897 Clouds 22 1018 31 10000 1.81 122 16:46 06.11.2021
4898 Clear 14 1020 33 10000 2.06 150 14:38 06.11.2021
4899 Clear 14 1019 30 10000 3.09 140 13:38 06.11.2021
4900 Clear 16 1019 29 10000 5.14 140 11:46 06.11.2021
4901 Clear 19 1020 27 10000 4.63 130 09:23 06.11.2021
4902 Clear 21 1016 25 10000 0.45 0 04:57 06.11.2021
4903 Clear 28 1016 18 10000 1.54 30 01:27 06.11.2021
4904 Clear 31 1017 13 10000 0.89 284 23:34 05.11.2021
4905 Clear 31 1016 13 10000 0.89 252 22:33 05.11.2021
4906 Clear 30 1018 16 10000 0.45 146 20:51 05.11.2021
4907 Clear 29 1018 18 10000 0.45 139 20:19 05.11.2021
4908 Clear 28 1019 19 10000 0.45 67 19:37 05.11.2021
4909 Clear 26 1020 24 10000 0.45 79 18:39 05.11.2021
4910 Clear 22 1021 28 10000 0.45 138 17:26 05.11.2021
4911 Clear 15 1020 30 10000 8.75 130 15:20 05.11.2021
4912 Clear 16 1019 30 10000 5.14 150 13:35 05.11.2021
4913 Clear 17 1019 30 10000 5.14 130 10:37 05.11.2021
4914 Clear 19 1018 27 10000 3.6 150 08:39 05.11.2021
4915 Clear 18 1017 27 10000 4.12 130 07:21 05.11.2021
4916 Clear 21 1016 25 10000 2.24 243 04:43 05.11.2021
4917 Clear 24 1014 21 10000 1.34 192 02:24 05.11.2021
4918 Clear 30 1015 13 10000 0.45 57 00:30 05.11.2021
4919 Clear 30 1015 12 10000 0.89 11 22:59 04.11.2021
4920 Clear 31 1016 12 10000 0.45 101 22:18 04.11.2021
4921 Clear 30 1016 13 10000 0.89 42 21:31 04.11.2021
4922 Clear 29 1017 16 10000 0.89 28 20:40 04.11.2021
4923 Clear 29 1017 16 10000 0.89 60 20:19 04.11.2021
4924 Clear 27 1018 18 10000 0.89 71 19:39 04.11.2021
4925 Clear 25 1019 22 10000 0.45 0 18:43 04.11.2021
4926 Clear 23 1021 25 10000 1.34 239 17:36 04.11.2021
4927 Clear 18 1019 32 10000 5.66 140 16:23 04.11.2021
4928 Clear 13 1019 33 10000 0 0 14:20 04.11.2021
4929 Clear 15 1019 30 10000 4.63 140 11:42 04.11.2021
4930 Clear 16 1019 31 10000 3.6 150 09:29 04.11.2021
4931 Clear 17 1019 31 10000 2.57 140 08:29 04.11.2021
4932 Clear 16 1019 31 10000 2.57 140 07:34 04.11.2021
4933 Clear 28 1017 14 10000 1.34 305 23:52 03.11.2021
4934 Clear 28 1017 14 10000 1.34 299 22:49 03.11.2021
4935 Clear 27 1018 15 10000 1.34 0 21:45 03.11.2021
4936 Clear 27 1018 16 10000 0.89 0 21:19 03.11.2021
4937 Clear 26 1019 19 10000 1.34 0 20:33 03.11.2021
4938 Clear 25 1019 21 10000 0.89 0 19:40 03.11.2021
4939 Clear 23 1020 26 10000 0.45 328 18:47 03.11.2021
4940 Clear 21 1020 29 10000 0.45 0 17:58 03.11.2021
4941 Clear 19 1018 32 10000 1.1 118 16:53 03.11.2021
4942 Clear 14 1020 36 10000 3.6 150 15:52 03.11.2021
4943 Clear 13 1020 37 10000 3.6 150 15:31 03.11.2021
4944 Clear 13 1020 37 10000 2.57 160 13:46 03.11.2021
4945 Clear 12 1020 35 10000 4.12 150 11:38 03.11.2021
4946 Clear 14 1021 33 10000 4.12 140 10:52 03.11.2021
4947 Clear 14 1021 33 10000 4.12 140 10:18 03.11.2021
4948 Clear 14 1021 33 10000 3.6 150 09:27 03.11.2021
4949 Clear 15 1021 32 10000 2.57 130 08:20 03.11.2021
4950 Clear 16 1021 31 10000 2.57 180 07:38 03.11.2021
4951 Clear 20 1019 27 10000 0.45 0 04:23 03.11.2021
4952 Clear 24 1018 21 10000 1.34 0 01:32 03.11.2021
4953 Clear 27 1019 16 10000 1.79 0 23:32 02.11.2021
4954 Clear 27 1019 16 10000 1.79 0 22:20 02.11.2021
4955 Clear 27 1020 21 10000 0.89 253 20:48 02.11.2021
4956 Clear 26 1020 22 10000 1.34 0 20:23 02.11.2021
4957 Clear 25 1021 25 10000 0.45 0 19:40 02.11.2021
4958 Clear 23 1022 29 10000 0.89 0 18:36 02.11.2021
4959 Clear 21 1025 32 10000 0.89 167 17:56 02.11.2021
4960 Clear 20 1023 33 10000 2.57 170 17:31 02.11.2021
4961 Clear 15 1023 35 10000 3.6 150 16:26 02.11.2021
4962 Clouds 14 1021 39 10000 3.6 150 14:57 02.11.2021
4963 Clouds 13 1021 37 10000 3.6 130 13:32 02.11.2021
4964 Clouds 14 1018 36 10000 0.49 135 12:59 02.11.2021
4965 Clouds 16 1021 36 10000 3.6 130 12:20 02.11.2021
4966 Clear 16 1022 35 10000 3.6 150 11:27 02.11.2021
4967 Clear 16 1021 36 10000 4.63 150 10:45 02.11.2021
4968 Clear 16 1021 35 10000 4.63 150 10:22 02.11.2021
4969 Clouds 17 1021 33 10000 3.6 150 08:22 02.11.2021
4970 Clear 19 1022 30 10000 4.12 150 06:29 02.11.2021
4971 Clear 21 1019 28 10000 0.45 0 03:27 02.11.2021
4972 Clear 28 1018 18 10000 1.79 294 00:19 02.11.2021
4973 Clear 28 1019 19 10000 0.45 0 21:57 01.11.2021
4974 Clear 27 1020 20 10000 0.89 0 20:45 01.11.2021
4975 Clear 26 1020 21 10000 0.89 0 20:19 01.11.2021
4976 Clear 26 1021 24 10000 1.34 0 19:42 01.11.2021
4977 Clear 23 1020 31 10000 0.89 0 18:34 01.11.2021
4978 Clear 21 1020 36 10000 1.34 0 17:49 01.11.2021
4979 Clear 20 1021 38 10000 0.89 178 16:57 01.11.2021
4980 Clear 18 1023 41 10000 1.34 163 16:25 01.11.2021
4981 Clear 16 1020 40 10000 4.63 150 15:37 01.11.2021
4982 Clear 14 1020 41 10000 4.63 150 15:18 01.11.2021
4983 Clear 14 1019 42 10000 3.09 140 14:37 01.11.2021
4984 Clear 14 1019 39 10000 3.09 140 14:18 01.11.2021
4985 Clear 16 1019 38 10000 3.09 150 12:38 01.11.2021
4986 Clear 15 1019 38 10000 3.6 140 11:34 01.11.2021
4987 Clear 17 1018 36 10000 3.09 140 10:20 01.11.2021
4988 Clear 17 1018 35 10000 3.09 150 08:18 01.11.2021
4989 Clear 18 1017 34 10000 1.79 145 07:46 01.11.2021
4990 Clear 21 1016 26 10000 0.45 14 03:51 01.11.2021
4991 Clear 26 1014 21 10000 0.45 0 01:44 01.11.2021
4992 Clear 29 1014 17 10000 0.89 192 23:18 31.10.2021
4993 Clear 28 1016 21 10000 1.79 0 20:51 31.10.2021
4994 Clear 26 1017 24 10000 0.45 0 19:24 31.10.2021
4995 Clear 25 1018 26 10000 1.34 0 18:42 31.10.2021
4996 Clouds 23 1018 30 10000 0.89 113 17:59 31.10.2021
4997 Clear 18 1019 35 10000 3.6 170 16:27 31.10.2021
4998 Clear 16 1018 33 10000 5.14 140 14:41 31.10.2021
4999 Clear 17 1017 32 10000 0 0 12:54 31.10.2021
5000 Clear 17 1015 35 10000 0.89 70 11:42 31.10.2021
5001 Clear 16 1017 33 10000 3.09 160 10:48 31.10.2021
5002 Clear 17 1017 32 10000 3.6 140 09:23 31.10.2021
5003 Clear 18 1015 31 10000 2.06 120 08:41 31.10.2021
5004 Clear 28 1013 19 10000 0.89 0 02:19 31.10.2021
5005 Clear 30 1014 17 10000 1.34 196 23:41 30.10.2021
5006 Clear 29 1015 20 10000 0.45 0 21:36 30.10.2021
5007 Clear 28 1016 20 10000 0.45 0 20:52 30.10.2021
5008 Clear 25 1017 24 10000 0.45 73 19:19 30.10.2021
5009 Clear 21 1018 28 10000 3.6 160 17:42 30.10.2021
5010 Clear 15 1017 29 10000 4.12 140 15:26 30.10.2021
5011 Clear 17 1017 28 10000 1.54 120 13:40 30.10.2021
5012 Clear 17 1017 26 10000 1.54 120 13:21 30.10.2021
5013 Clear 18 1017 25 10000 3.09 130 12:57 30.10.2021
5014 Clear 18 1016 26 10000 4.63 150 11:46 30.10.2021
5015 Clear 18 1017 26 10000 3.6 170 10:32 30.10.2021
5016 Clear 20 1015 24 10000 4.12 150 08:53 30.10.2021
5017 Clear 21 1016 23 10000 4.12 190 07:29 30.10.2021
5018 Clear 23 1015 20 10000 0.45 0 05:39 30.10.2021
5019 Clear 32 1014 10 10000 1.34 16 00:56 30.10.2021
5020 Clear 32 1015 11 10000 0.45 57 22:50 29.10.2021
5021 Clear 32 1016 11 10000 0.89 134 22:30 29.10.2021
5022 Clear 30 1017 13 10000 1.79 0 20:46 29.10.2021
5023 Clear 29 1017 14 10000 2.24 170 20:19 29.10.2021
5024 Clear 25 1017 20 10000 0.89 0 18:36 29.10.2021
5025 Clear 18 1016 26 10000 0.89 200 16:54 29.10.2021
5026 Mist 17 1017 24 10000 2.24 133 15:21 29.10.2021
5027 Clear 17 1017 25 4828 3.09 140 12:24 29.10.2021
5028 Clear 17 1018 26 10000 3.6 180 10:46 29.10.2021
5029 Haze 18 1018 23 6437 2.57 150 08:41 29.10.2021
5030 Clear 29 1017 13 10000 1.34 0 00:37 29.10.2021
5031 Clear 28 1018 14 10000 0.89 0 23:27 28.10.2021
5032 Clear 27 1018 15 10000 0.89 0 22:18 28.10.2021
5033 Clear 24 1020 19 10000 0.89 0 20:54 28.10.2021
5034 Clear 22 1021 22 10000 0.89 0 19:51 28.10.2021
5035 Clear 18 1019 29 10000 0.45 143 18:27 28.10.2021
5036 Clear 15 1021 33 10000 3.09 160 17:19 28.10.2021
5037 Clear 12 1020 35 10000 4.12 130 16:19 28.10.2021
5038 Clear 12 1020 35 10000 2.06 150 14:25 28.10.2021
5039 Clear 11 1020 37 10000 2.06 160 13:29 28.10.2021
5040 Clear 11 1020 35 10000 2.06 140 12:41 28.10.2021
5041 Clear 12 1020 32 10000 3.6 150 10:57 28.10.2021
5042 Clear 12 1020 32 10000 2.06 170 09:39 28.10.2021
5043 Clear 13 1019 32 10000 2.06 170 09:20 28.10.2021
5044 Clear 14 1020 32 10000 4.63 150 08:35 28.10.2021
5045 Clear 14 1020 29 10000 3.6 150 07:40 28.10.2021
5046 Clear 24 1020 19 10000 2.24 0 00:21 28.10.2021
5047 Clear 23 1021 20 10000 1.34 0 22:31 27.10.2021
5048 Clear 22 1021 21 10000 0.89 327 21:34 27.10.2021
5049 Clear 21 1022 23 10000 1.34 0 20:53 27.10.2021
5050 Clear 20 1023 24 10000 0.89 0 20:34 27.10.2021
5051 Clear 19 1023 29 10000 0.89 0 19:41 27.10.2021
5052 Clear 17 1023 33 10000 0.89 0 18:53 27.10.2021
5053 Clear 9 1021 46 10000 3.6 200 16:32 27.10.2021
5054 Clear 10 1021 46 10000 2.06 110 15:34 27.10.2021
5055 Clear 9 1020 45 10000 2.57 150 14:42 27.10.2021
5056 Clear 11 1019 44 10000 0 0 12:33 27.10.2021
5057 Clear 11 1019 44 10000 3.6 190 10:58 27.10.2021
5058 Clear 12 1019 40 10000 3.6 200 09:51 27.10.2021
5059 Clear 12 1019 39 10000 1.34 196 08:47 27.10.2021
5060 Clear 14 1019 37 10000 0.89 300 07:32 27.10.2021
5061 Clear 19 1016 25 10000 2.68 0 02:39 27.10.2021
5062 Clear 21 1015 26 10000 3.58 0 00:57 27.10.2021
5063 Clear 21 1015 26 10000 3.58 0 00:30 27.10.2021
5064 Clear 21 1015 27 10000 2.68 0 23:43 26.10.2021
5065 Clear 21 1015 32 10000 3.13 0 22:39 26.10.2021
5066 Clear 21 1015 33 10000 3.13 0 21:59 26.10.2021
5067 Clear 20 1016 34 10000 2.68 0 20:51 26.10.2021
5068 Clouds 19 1016 46 10000 2.68 0 19:32 26.10.2021
5069 Drizzle 18 1015 59 10000 2.68 0 18:41 26.10.2021
5070 Clouds 16 1014 77 10000 2.24 0 16:57 26.10.2021
5071 Clouds 18 1013 66 10000 0.45 0 14:56 26.10.2021
5072 Clear 19 1012 61 10000 0.45 159 11:47 26.10.2021
5073 Clear 20 1012 58 10000 1.34 232 10:33 26.10.2021
5074 Clear 22 1012 47 10000 0.45 0 07:47 26.10.2021
5075 Clear 23 1011 45 10000 0.89 0 07:20 26.10.2021
5076 Clear 32 1011 21 10000 2.68 187 23:51 25.10.2021
5077 Clear 32 1011 21 10000 2.68 187 23:51 25.10.2021
5078 Clear 31 1011 24 10000 2.24 140 22:55 25.10.2021
5079 Clear 31 1012 26 10000 1.79 0 22:20 25.10.2021
5080 Clear 30 1013 28 10000 1.79 0 21:39 25.10.2021
5081 Clear 28 1015 32 10000 0.89 90 19:54 25.10.2021
5082 Clear 27 1015 35 10000 1.34 0 19:26 25.10.2021
5083 Clear 25 1015 38 10000 0.89 0 18:59 25.10.2021
5084 Clear 23 1016 41 10000 0.89 205 18:19 25.10.2021
5085 Clear 17 1015 52 10000 4.63 150 16:18 25.10.2021
5086 Clear 17 1015 47 10000 3.09 160 14:28 25.10.2021
5087 Clear 18 1015 44 10000 3.09 150 12:29 25.10.2021
5088 Clear 18 1015 40 10000 2.06 140 10:20 25.10.2021
5089 Clear 20 1015 38 10000 3.09 140 08:34 25.10.2021
5090 Clear 21 1015 35 10000 0.45 178 06:24 25.10.2021
5091 Clear 30 1013 22 10000 0.89 243 00:54 25.10.2021
5092 Clear 30 1013 22 10000 0.89 311 00:35 25.10.2021
5093 Clear 30 1013 24 10000 0.89 330 23:46 24.10.2021
5094 Clear 29 1013 25 10000 0.89 57 22:43 24.10.2021
5095 Clear 29 1014 26 10000 1.79 295 22:21 24.10.2021
5096 Clear 28 1014 27 10000 0.45 194 21:41 24.10.2021
5097 Clear 27 1014 29 10000 2.24 0 20:42 24.10.2021
5098 Clear 26 1015 31 10000 0.89 80 19:54 24.10.2021
5099 Clear 24 1015 38 10000 0.89 58 18:49 24.10.2021
5100 Clear 21 1015 46 10000 0.89 0 17:54 24.10.2021
5101 Clear 19 1013 52 10000 4.12 140 16:48 24.10.2021
5102 Clear 16 1014 53 10000 2.57 140 15:25 24.10.2021
5103 Clear 17 1012 50 10000 4.63 130 13:44 24.10.2021
5104 Clear 17 1012 49 10000 2.06 110 12:40 24.10.2021
5105 Clear 18 1012 47 10000 0 0 11:37 24.10.2021
5106 Clear 18 1012 47 10000 4.12 160 10:43 24.10.2021
5107 Clear 18 1012 42 10000 0.45 154 08:51 24.10.2021
5108 Clear 24 1010 29 10000 0.45 0 03:30 24.10.2021
5109 Clear 29 1010 23 10000 1.79 0 00:19 24.10.2021
5110 Clear 29 1012 24 10000 0.89 40 22:55 23.10.2021
5111 Clear 27 1013 25 10000 0.45 52 21:21 23.10.2021
5112 Clear 25 1014 29 10000 0.45 95 19:37 23.10.2021
5113 Clear 23 1015 32 10000 0.89 199 18:45 23.10.2021
5114 Clear 21 1012 36 10000 4.12 150 17:46 23.10.2021
5115 Clear 19 1014 42 10000 0.45 124 17:18 23.10.2021
5116 Clear 14 1013 45 10000 2.57 150 15:57 23.10.2021
5117 Clear 15 1013 39 10000 3.09 130 13:35 23.10.2021
5118 Clear 28 1012 22 10000 1.79 19 02:20 23.10.2021
5119 Clear 30 1013 20 10000 1.79 338 23:41 22.10.2021
5120 Clear 28 1015 25 10000 1.34 315 21:37 22.10.2021
5121 Clear 26 1017 29 10000 0.45 275 19:33 22.10.2021
5122 Clear 23 1018 33 10000 0.89 0 18:25 22.10.2021
5123 Clear 18 1017 41 10000 4.12 150 16:30 22.10.2021
5124 Clear 17 1017 39 10000 3.6 160 14:44 22.10.2021
5125 Clear 17 1018 39 10000 4.12 150 12:41 22.10.2021
5126 Clear 18 1018 37 10000 3.6 150 10:56 22.10.2021
5127 Clear 19 1019 36 10000 3.09 160 09:57 22.10.2021
5128 Clear 19 1018 36 10000 3.09 160 09:34 22.10.2021
5129 Clear 21 1019 32 10000 0.89 233 07:31 22.10.2021
5130 Clear 21 1019 31 10000 2.06 260 06:46 22.10.2021
5131 Clear 31 1019 16 10000 0.89 178 00:53 22.10.2021
5132 Clear 32 1018 16 10000 0.45 142 23:49 21.10.2021
5133 Clear 31 1019 18 10000 1.34 317 22:43 21.10.2021
5134 Clear 30 1020 22 10000 0.89 312 21:28 21.10.2021
5135 Clear 27 1021 25 10000 0.89 0 20:21 21.10.2021
5136 Clear 26 1021 27 10000 0.45 0 19:49 21.10.2021
5137 Clear 25 1021 29 10000 0.89 0 19:20 21.10.2021
5138 Clear 23 1023 32 10000 1.34 263 18:32 21.10.2021
5139 Clear 22 1021 33 10000 1.54 160 17:50 21.10.2021
5140 Clear 17 1021 38 10000 3.09 160 16:47 21.10.2021
5141 Clear 15 1020 40 10000 3.6 160 15:28 21.10.2021
5142 Clear 14 1020 41 10000 4.12 150 14:50 21.10.2021
5143 Clear 15 1020 38 10000 3.09 150 13:42 21.10.2021
5144 Clear 16 1020 37 10000 2.57 140 11:47 21.10.2021
5145 Clear 18 1019 36 10000 3.09 130 09:32 21.10.2021
5146 Clear 19 1019 33 10000 2.57 160 07:46 21.10.2021
5147 Clear 20 1020 30 10000 0.45 285 06:28 21.10.2021
5148 Clear 29 1017 16 10000 0.45 5 00:32 21.10.2021
5149 Clear 28 1019 17 10000 0.89 0 22:23 20.10.2021
5150 Clear 28 1019 20 10000 1.34 28 21:47 20.10.2021
5151 Clouds 27 1020 25 10000 0.89 209 20:58 20.10.2021
5152 Clear 26 1021 27 10000 0.45 125 20:37 20.10.2021
5153 Clouds 25 1021 32 10000 0.45 0 20:00 20.10.2021
5154 Clear 23 1021 37 10000 0.89 91 19:18 20.10.2021
5155 Clear 21 1021 43 10000 0.89 0 18:29 20.10.2021
5156 Clear 21 1021 43 10000 0.89 0 18:29 20.10.2021
5157 Clear 13 1020 58 10000 2.57 140 15:57 20.10.2021
5158 Clear 14 1018 59 10000 3.6 110 13:46 20.10.2021
5159 Clear 16 1017 59 10000 2.57 110 09:50 20.10.2021
5160 Clear 19 1016 49 10000 0.45 0 05:28 20.10.2021
5161 Clear 26 1014 33 10000 1.34 0 00:53 20.10.2021
5162 Clear 26 1015 33 10000 1.34 0 00:28 20.10.2021
5163 Clear 25 1015 37 10000 0.89 0 22:21 19.10.2021
5164 Clear 24 1017 42 10000 1.34 0 21:28 19.10.2021
5165 Clouds 23 1017 49 10000 1.34 0 20:26 19.10.2021
5166 Clear 22 1017 53 10000 1.34 0 19:46 19.10.2021
5167 Clear 22 1018 55 10000 1.34 0 19:23 19.10.2021
5168 Clouds 20 1017 61 10000 0.45 0 18:23 19.10.2021
5169 Clear 15 1015 77 10000 0.84 195 16:25 19.10.2021
5170 Clear 15 1015 77 10000 0.89 209 15:25 19.10.2021
5171 Clouds 16 1014 76 10000 0.89 337 14:31 19.10.2021
5172 Clouds 16 1014 76 10000 0.45 0 13:49 19.10.2021
5173 Clouds 17 1014 73 10000 2.68 0 11:37 19.10.2021
5174 Clear 18 1014 72 10000 1.34 0 10:51 19.10.2021
5175 Clear 18 1014 71 10000 0.89 0 09:35 19.10.2021
5176 Clear 18 1014 69 10000 0.89 0 08:53 19.10.2021
5177 Clear 29 1011 27 10000 2.24 0 00:28 19.10.2021
5178 Clear 29 1012 27 10000 2.24 0 23:56 18.10.2021
5179 Clear 29 1011 27 10000 1.79 0 23:21 18.10.2021
5180 Clouds 29 1012 28 10000 2.68 0 22:55 18.10.2021
5181 Clear 28 1012 31 10000 2.68 0 21:58 18.10.2021
5182 Clear 28 1012 31 10000 2.68 0 21:58 18.10.2021
5183 Clear 26 1014 36 10000 2.68 0 20:46 18.10.2021
5184 Clear 26 1014 37 10000 2.24 0 20:20 18.10.2021
5185 Clear 25 1015 39 10000 2.68 0 19:31 18.10.2021
5186 Clear 24 1015 38 10000 0.89 0 18:58 18.10.2021
5187 Clear 17 1013 47 10000 2.06 160 16:32 18.10.2021
5188 Clear 16 1013 44 10000 1.54 110 14:41 18.10.2021
5189 Clear 17 1014 36 10000 2.06 120 11:47 18.10.2021
5190 Clear 19 1015 32 10000 1.54 190 09:47 18.10.2021
5191 Clouds 21 1015 26 10000 0.45 0 07:31 18.10.2021
5192 Clear 31 1014 19 10000 1.34 213 23:54 17.10.2021
5193 Clouds 31 1016 21 10000 0.89 202 22:27 17.10.2021
5194 Clear 30 1016 22 10000 1.34 0 21:44 17.10.2021
5195 Clear 30 1017 23 10000 2.24 0 20:49 17.10.2021
5196 Clear 28 1018 24 10000 0.89 54 19:56 17.10.2021
5197 Clear 28 1018 25 10000 0.45 0 19:38 17.10.2021
5198 Clouds 24 1019 30 10000 0.89 0 18:28 17.10.2021
5199 Clear 19 1018 37 10000 0.45 0 16:38 17.10.2021
5200 Clear 18 1019 37 10000 1.79 0 14:39 17.10.2021
5201 Clear 18 1018 36 10000 1.34 0 13:59 17.10.2021
5202 Clear 19 1018 36 10000 0.89 0 13:30 17.10.2021
5203 Clear 20 1018 33 10000 2.24 0 11:31 17.10.2021
5204 Clear 20 1017 31 10000 1.79 0 10:19 17.10.2021
5205 Clear 21 1018 29 10000 0.45 115 08:29 17.10.2021
5206 Clear 29 1016 19 10000 0.45 0 02:57 17.10.2021
5207 Clear 31 1016 16 10000 0.45 25 00:30 17.10.2021
5208 Clear 31 1017 16 10000 2.24 141 22:54 16.10.2021
5209 Clear 28 1019 17 10000 0.45 0 20:45 16.10.2021
5210 Clear 27 1019 17 10000 0.45 107 20:26 16.10.2021
5211 Clear 26 1019 18 10000 0.45 126 19:40 16.10.2021
5212 Clear 26 1020 17 10000 0.45 63 19:19 16.10.2021
5213 Clear 26 1020 17 10000 0.45 63 19:19 16.10.2021
5214 Clear 24 1020 19 10000 0.45 86 18:44 16.10.2021
5215 Clear 23 1020 20 10000 0.45 0 18:22 16.10.2021
5216 Clear 21 1019 24 10000 0.89 0 17:31 16.10.2021
5217 Clear 17 1019 27 10000 0.89 0 16:18 16.10.2021
5218 Clear 17 1018 25 10000 1.34 123 12:50 16.10.2021
5219 Clear 18 1018 25 10000 0.89 0 11:24 16.10.2021
5220 Clear 19 1018 25 10000 0.89 198 08:58 16.10.2021
5221 Clear 22 1018 21 10000 1.34 103 04:26 16.10.2021
5222 Clear 28 1018 16 10000 1.34 331 00:51 16.10.2021
5223 Clear 27 1019 16 10000 1.34 0 23:26 15.10.2021
5224 Clear 26 1019 18 10000 1.34 0 22:21 15.10.2021
5225 Clear 26 1020 20 10000 0.89 0 21:40 15.10.2021
5226 Clear 24 1021 22 10000 0.89 0 20:54 15.10.2021
5227 Clear 23 1021 23 10000 0.45 0 20:25 15.10.2021
5228 Clear 21 1021 27 10000 0.89 0 19:20 15.10.2021
5229 Clear 18 1021 32 10000 0 0 18:22 15.10.2021
5230 Clear 12 1020 40 10000 0 0 15:48 15.10.2021
5231 Clear 12 1019 39 10000 3.6 170 14:22 15.10.2021
5232 Clear 12 1019 38 10000 2.57 110 12:25 15.10.2021
5233 Clear 13 1019 36 10000 2.57 120 11:18 15.10.2021
5234 Clear 13 1019 34 10000 3.09 110 10:31 15.10.2021
5235 Clear 16 1018 29 10000 2.06 160 07:37 15.10.2021
5236 Clear 18 1017 25 10000 0.89 0 04:46 15.10.2021
5237 Clear 24 1017 15 10000 2.24 0 00:23 15.10.2021
5238 Clear 24 1016 17 10000 1.79 0 23:25 14.10.2021
5239 Clear 23 1017 17 10000 1.79 0 22:20 14.10.2021
5240 Clear 23 1018 19 10000 1.34 0 21:37 14.10.2021
5241 Clear 23 1018 19 10000 1.34 0 21:37 14.10.2021
5242 Clear 21 1019 22 10000 0.89 0 20:21 14.10.2021
5243 Clear 20 1018 24 10000 0.45 0 19:46 14.10.2021
5244 Clear 18 1019 28 10000 0.45 0 18:40 14.10.2021
5245 Clear 18 1019 28 10000 0.45 0 18:40 14.10.2021
5246 Clear 14 1012 39 10000 0.89 184 16:59 14.10.2021
5247 Clear 11 1016 40 10000 4.12 140 16:32 14.10.2021
5248 Clear 9 1012 46 10000 0.89 179 14:55 14.10.2021
5249 Clear 9 1015 40 10000 3.6 140 14:27 14.10.2021
5250 Clear 11 1013 46 10000 0.45 190 13:33 14.10.2021
5251 Clear 11 1015 36 10000 2.06 130 11:35 14.10.2021
5252 Clear 12 1014 34 10000 2.06 160 09:24 14.10.2021
5253 Clear 15 1013 29 10000 1.34 288 06:19 14.10.2021
5254 Clear 23 1012 19 10000 1.34 0 00:41 14.10.2021
5255 Clear 22 1013 20 10000 1.34 0 22:42 13.10.2021
5256 Clear 21 1014 22 10000 1.34 0 21:36 13.10.2021
5257 Clear 20 1014 25 10000 1.34 0 20:45 13.10.2021
5258 Clear 18 1014 25 10000 1.34 329 19:39 13.10.2021
5259 Clear 16 1015 29 10000 0.45 0 18:47 13.10.2021
5260 Clear 12 1016 36 10000 0.45 177 17:22 13.10.2021
5261 Clear 8 1014 40 10000 3.09 160 14:47 13.10.2021
5262 Clear 8 1014 38 10000 3.09 160 14:25 13.10.2021
5263 Clear 8 1013 39 10000 0 0 12:48 13.10.2021
5264 Clear 9 1014 37 10000 2.57 150 11:37 13.10.2021
5265 Clear 9 1014 36 10000 3.6 150 10:18 13.10.2021
5266 Clear 11 1013 30 10000 2.06 220 07:53 13.10.2021
5267 Clear 15 1012 23 10000 2.24 317 03:39 13.10.2021
5268 Clear 17 1011 25 10000 3.58 332 02:21 13.10.2021
5269 Clear 19 1011 27 10000 3.58 0 23:38 12.10.2021
5270 Clear 18 1011 29 10000 3.58 0 22:53 12.10.2021
5271 Clear 18 1011 29 10000 3.58 0 22:34 12.10.2021
5272 Clouds 18 1011 31 10000 3.58 0 20:54 12.10.2021
5273 Clouds 17 1011 31 10000 3.58 0 20:31 12.10.2021
5274 Clouds 17 1011 30 10000 3.58 0 19:42 12.10.2021
5275 Clouds 16 1010 33 10000 2.24 279 18:26 12.10.2021
5276 Clouds 14 1010 37 10000 1.79 44 17:21 12.10.2021
5277 Clouds 14 1010 41 10000 1.79 297 16:24 12.10.2021
5278 Clouds 14 1009 44 10000 2.24 313 15:33 12.10.2021
5279 Haze 14 1007 44 9656 3.13 342 13:46 12.10.2021
5280 Haze 15 1007 45 9656 4.02 305 13:18 12.10.2021
5281 Clouds 19 1006 52 10000 1.34 249 11:30 12.10.2021
5282 Clear 20 1005 41 10000 4.47 0 09:34 12.10.2021
5283 Clear 21 1004 34 10000 2.68 0 08:20 12.10.2021
5284 Clear 21 1004 39 10000 2.68 0 06:44 12.10.2021
5285 Clear 23 1004 27 10000 1.79 0 04:38 12.10.2021
5286 Clear 26 1004 16 10000 3.13 0 02:55 12.10.2021
5287 Clear 28 1006 14 10000 3.58 0 23:49 11.10.2021
5288 Clear 28 1006 14 10000 3.13 0 23:28 11.10.2021
5289 Clear 28 1007 14 10000 2.24 0 22:47 11.10.2021
5290 Clear 28 1009 16 10000 1.79 0 21:20 11.10.2021
5291 Clear 25 1010 21 10000 0.45 178 19:48 11.10.2021
5292 Clear 24 1010 23 10000 0.45 0 19:23 11.10.2021
5293 Clear 21 1011 29 10000 0.89 200 18:23 11.10.2021
5294 Clear 13 1011 41 10000 3.6 150 16:40 11.10.2021
5295 Clear 14 1011 40 10000 3.6 150 16:19 11.10.2021
5296 Clear 14 1009 52 10000 0.45 179 15:42 11.10.2021
5297 Clear 13 1011 38 10000 3.6 150 14:53 11.10.2021
5298 Clear 15 1012 37 10000 3.6 130 13:55 11.10.2021
5299 Clear 15 1009 45 10000 0.89 178 13:32 11.10.2021
5300 Clear 15 1012 36 10000 3.6 140 10:49 11.10.2021
5301 Clear 16 1010 41 10000 3.09 150 09:45 11.10.2021
5302 Clear 17 1013 32 10000 2.57 150 07:56 11.10.2021
5303 Clear 26 1013 19 10000 0.45 178 01:43 11.10.2021
5304 Clear 26 1014 19 10000 0.45 209 00:55 11.10.2021
5305 Clear 26 1014 19 10000 0.45 0 00:33 11.10.2021
5306 Clear 25 1016 22 10000 0.45 0 22:22 10.10.2021
5307 Clear 25 1015 26 10000 0.89 0 21:35 10.10.2021
5308 Clear 24 1017 26 10000 0.89 0 20:56 10.10.2021
5309 Clear 24 1017 26 10000 0.45 0 20:36 10.10.2021
5310 Clear 23 1017 27 10000 0.89 0 20:18 10.10.2021
5311 Clear 22 1017 29 10000 0.45 0 19:40 10.10.2021
5312 Clear 21 1018 31 10000 0.45 0 18:41 10.10.2021
5313 Clear 19 1018 34 10000 0.45 0 17:50 10.10.2021
5314 Clear 15 1013 49 10000 3.09 140 15:47 10.10.2021
5315 Clear 15 1015 39 10000 4.63 140 14:44 10.10.2021
5316 Clear 16 1011 43 10000 0 0 13:34 10.10.2021
5317 Clear 16 1013 39 10000 4.12 240 12:40 10.10.2021
5318 Clear 17 1013 41 10000 0.45 0 10:55 10.10.2021
5319 Clear 18 1013 38 10000 1.34 0 09:31 10.10.2021
5320 Clear 19 1013 35 10000 0.45 0 08:54 10.10.2021
5321 Clear 20 1013 32 10000 0.89 257 07:56 10.10.2021
5322 Clear 26 1012 28 10000 2.68 0 03:28 10.10.2021
5323 Clear 30 1012 31 10000 2.24 0 01:38 10.10.2021
5324 Clear 30 1012 31 10000 1.79 0 00:37 10.10.2021
5325 Clear 30 1013 32 10000 1.34 0 23:22 09.10.2021
5326 Clear 29 1014 37 10000 0.45 0 21:48 09.10.2021
5327 Clear 28 1015 37 10000 0.45 0 21:29 09.10.2021
5328 Clear 27 1016 42 10000 0.45 0 19:45 09.10.2021
5329 Clear 26 1016 43 10000 0.45 4 19:22 09.10.2021
5330 Clear 24 1016 45 10000 0.89 240 18:33 09.10.2021
5331 Clear 24 1016 45 10000 0.89 240 18:33 09.10.2021
5332 Clear 22 1016 50 10000 0.45 0 17:21 09.10.2021
5333 Clear 19 1014 56 10000 4.12 150 16:19 09.10.2021
5334 Clear 19 1016 54 10000 2.57 130 13:46 09.10.2021
5335 Clear 20 1017 51 10000 2.06 170 12:54 09.10.2021
5336 Clear 20 1017 48 10000 3.6 140 11:48 09.10.2021
5337 Clear 21 1019 48 10000 0.89 208 10:42 09.10.2021
5338 Clear 21 1018 43 10000 0.45 208 09:52 09.10.2021
5339 Clear 22 1018 39 10000 0.89 227 08:30 09.10.2021
5340 Clear 23 1016 36 10000 3.09 200 07:49 09.10.2021
5341 Clear 26 1015 29 10000 0.45 295 05:29 09.10.2021
5342 Clear 28 1015 23 10000 1.79 0 03:44 09.10.2021
5343 Clear 30 1015 19 10000 2.24 0 02:41 09.10.2021
5344 Clear 34 1014 19 10000 1.79 255 23:52 08.10.2021
5345 Clouds 33 1014 21 10000 0.89 80 22:59 08.10.2021
5346 Clear 33 1016 23 10000 2.24 122 22:24 08.10.2021
5347 Clear 31 1017 25 10000 0.45 178 21:18 08.10.2021
5348 Clear 27 1018 29 10000 0.45 117 18:59 08.10.2021
5349 Clear 24 1019 36 10000 0.45 185 17:36 08.10.2021
5350 Clear 22 1016 40 10000 4.63 130 16:51 08.10.2021
5351 Clear 20 1019 41 10000 1.54 100 16:23 08.10.2021
5352 Clear 20 1017 40 10000 3.6 160 13:57 08.10.2021
5353 Clear 20 1017 34 10000 3.09 160 12:56 08.10.2021
5354 Clear 21 1017 35 10000 3.6 130 11:33 08.10.2021
5355 Clear 22 1017 35 10000 3.09 130 10:41 08.10.2021
5356 Clear 22 1016 33 10000 3.6 140 09:25 08.10.2021
5357 Clear 33 1015 19 10000 0.89 306 23:59 07.10.2021
5358 Clear 32 1015 20 10000 0.45 0 23:19 07.10.2021
5359 Clear 32 1016 24 10000 0.89 0 21:46 07.10.2021
5360 Clear 31 1017 24 10000 0.89 163 21:23 07.10.2021
5361 Clear 30 1017 24 10000 0.89 146 20:20 07.10.2021
5362 Clear 28 1018 28 10000 0.45 129 19:29 07.10.2021
5363 Clear 25 1018 36 10000 0.89 155 18:22 07.10.2021
5364 Clear 22 1018 40 10000 2.57 160 17:18 07.10.2021
5365 Clouds 18 1018 44 10000 3.6 170 15:34 07.10.2021
5366 Clouds 20 1017 37 10000 5.14 140 13:47 07.10.2021
5367 Clouds 21 1017 37 10000 5.14 140 13:28 07.10.2021
5368 Clouds 20 1017 38 10000 2.57 190 12:40 07.10.2021
5369 Clear 20 1016 39 10000 3.09 160 10:49 07.10.2021
5370 Clear 21 1016 38 10000 3.09 160 10:19 07.10.2021
5371 Clear 21 1016 39 10000 4.12 140 09:32 07.10.2021
5372 Clear 21 1015 40 10000 3.09 150 08:41 07.10.2021
5373 Clear 22 1015 38 10000 2.57 170 07:42 07.10.2021
5374 Clear 23 1017 40 10000 0.45 182 06:59 07.10.2021
5375 Clear 31 1013 20 10000 0.89 257 02:24 07.10.2021
5376 Clear 32 1014 24 10000 0.45 282 23:40 06.10.2021
5377 Clear 31 1015 26 10000 0.89 338 22:46 06.10.2021
5378 Clear 31 1016 27 10000 0.89 255 21:53 06.10.2021
5379 Clear 29 1016 39 10000 0.89 121 20:35 06.10.2021
5380 Clear 28 1017 47 10000 0.45 195 19:48 06.10.2021
5381 Clear 25 1017 57 10000 1.34 168 18:39 06.10.2021
5382 Clear 21 1016 69 10000 1.79 166 16:55 06.10.2021
5383 Clear 18 1017 79 10000 3.09 160 15:26 06.10.2021
5384 Clear 19 1016 74 10000 3.09 140 13:55 06.10.2021
5385 Clear 20 1016 73 10000 2.4 93 12:59 06.10.2021
5386 Clear 20 1015 76 10000 2.57 150 12:40 06.10.2021
5387 Clear 20 1016 73 10000 2.57 150 12:21 06.10.2021
5388 Clear 21 1014 72 10000 0.89 67 09:59 06.10.2021
5389 Clear 21 1015 70 10000 2.06 240 09:38 06.10.2021
5390 Clear 22 1017 70 10000 2.06 230 08:42 06.10.2021
5391 Clouds 23 1016 69 10000 2.57 230 07:20 06.10.2021
5392 Clouds 24 1015 60 10000 0.45 195 05:26 06.10.2021
5393 Clouds 31 1013 37 10000 1.34 241 00:26 06.10.2021
5394 Drizzle 32 1013 34 10000 0.89 263 23:57 05.10.2021
5395 Drizzle 32 1013 34 10000 0.45 0 23:57 05.10.2021
5396 Clouds 32 1013 33 10000 1.34 0 23:38 05.10.2021
5397 Clouds 32 1013 32 10000 0.89 0 23:19 05.10.2021
5398 Clouds 32 1014 31 10000 0.45 185 22:27 05.10.2021
5399 Haze 32 1014 31 9656 0.89 150 21:44 05.10.2021
5400 Clear 30 1015 36 10000 0.45 73 20:41 05.10.2021
5401 Clear 29 1016 38 10000 0.89 95 20:23 05.10.2021
5402 Clouds 28 1016 45 10000 0.45 104 19:42 05.10.2021
5403 Clouds 26 1017 50 10000 0.89 108 18:49 05.10.2021
5404 Clouds 21 1016 64 10000 0.89 195 16:36 05.10.2021
5405 Clouds 20 1015 65 10000 0.45 251 14:34 05.10.2021
5406 Clouds 21 1015 66 10000 0.45 173 13:34 05.10.2021
5407 Clouds 21 1015 64 10000 0.45 171 12:45 05.10.2021
5408 Clouds 21 1015 62 10000 0.45 183 11:59 05.10.2021
5409 Clouds 22 1015 61 10000 1.54 220 10:44 05.10.2021
5410 Clouds 23 1015 54 10000 0.45 139 08:56 05.10.2021
5411 Clouds 28 1015 34 10000 4.12 270 03:56 05.10.2021
5412 Clouds 33 1014 24 10000 1.34 349 23:53 04.10.2021
5413 Clouds 33 1015 25 10000 2.24 143 21:59 04.10.2021
5414 Clear 31 1017 31 10000 0.89 135 19:38 04.10.2021
5415 Clear 28 1018 37 10000 0.89 130 18:26 04.10.2021
5416 Clear 22 1015 47 10000 2.06 150 16:23 04.10.2021
5417 Clear 22 1017 45 10000 4.63 160 15:31 04.10.2021
5418 Clear 21 1017 46 10000 4.63 160 15:31 04.10.2021
5419 Clear 22 1016 44 10000 3.09 170 14:42 04.10.2021
5420 Clear 22 1016 45 10000 3.09 150 13:50 04.10.2021
5421 Clear 22 1016 43 10000 3.09 150 13:24 04.10.2021
5422 Clear 22 1016 41 10000 5.14 160 11:35 04.10.2021
5423 Clear 23 1016 42 10000 3.09 160 10:48 04.10.2021
5424 Clear 23 1017 43 10000 2.06 160 09:58 04.10.2021
5425 Clear 24 1016 42 10000 0.45 171 08:39 04.10.2021
5426 Clear 25 1016 38 10000 0.45 185 06:56 04.10.2021
5427 Clear 33 1015 22 10000 0.89 308 00:29 04.10.2021
5428 Clouds 32 1015 23 10000 0.45 130 22:34 03.10.2021
5429 Clear 32 1017 23 10000 0.89 128 21:38 03.10.2021
5430 Clear 32 1017 26 10000 1.34 108 20:55 03.10.2021
5431 Clear 30 1017 28 10000 0.89 141 19:56 03.10.2021
5432 Clear 27 1018 37 10000 0.45 217 18:33 03.10.2021
5433 Clear 25 1018 40 10000 0.89 171 17:43 03.10.2021
5434 Clear 21 1017 43 10000 4.12 160 15:57 03.10.2021
5435 Clear 21 1017 44 10000 3.6 160 14:45 03.10.2021
5436 Clouds 21 1014 44 10000 2.73 81 13:58 03.10.2021
5437 Clear 20 1017 47 10000 2.06 170 13:21 03.10.2021
5438 Clear 21 1017 45 10000 3.6 170 12:28 03.10.2021
5439 Clear 21 1017 46 10000 2.06 170 10:36 03.10.2021
5440 Clear 22 1017 43 10000 2.06 160 08:36 03.10.2021
5441 Clear 31 1015 23 10000 0.89 226 00:41 03.10.2021
5442 Clear 31 1017 24 10000 0.45 68 22:33 02.10.2021
5443 Clear 30 1018 26 10000 0.89 24 20:55 02.10.2021
5444 Clear 27 1019 33 10000 0.89 107 19:32 02.10.2021
5445 Clear 25 1019 36 10000 0.45 89 18:50 02.10.2021
5446 Clear 23 1018 43 10000 2.57 170 17:39 02.10.2021
5447 Clear 21 1016 50 10000 0.89 187 16:54 02.10.2021
5448 Clear 17 1017 51 10000 0.45 177 14:42 02.10.2021
5449 Clouds 17 1016 73 10000 0.89 117 15:41 30.09.2021
5450 Clouds 17 1016 73 10000 0.89 117 15:41 30.09.2021
5451 Clouds 17 1016 74 10000 1.34 127 14:42 30.09.2021
5452 Clouds 20 1016 65 10000 1.79 257 12:27 30.09.2021
5453 Rain 20 1013 66 10000 2.68 321 11:31 30.09.2021
5454 Clouds 21 1013 60 10000 1.34 191 10:36 30.09.2021
5455 Clouds 21 1013 57 10000 1.34 215 08:54 30.09.2021
5456 Clouds 22 1013 56 10000 0.45 192 08:22 30.09.2021
5457 Clear 23 1012 48 10000 0.45 315 05:50 30.09.2021
5458 Clouds 27 1011 37 10000 2.68 0 02:33 30.09.2021
5459 Clouds 30 1011 29 10000 0.45 0 00:40 30.09.2021
5460 Clear 30 1012 28 10000 1.34 0 23:21 29.09.2021
5461 Clear 29 1013 28 10000 0.89 0 21:54 29.09.2021
5462 Clear 28 1014 32 10000 1.34 0 20:42 29.09.2021
5463 Clear 28 1014 32 10000 0.89 0 20:20 29.09.2021
5464 Clear 27 1014 37 10000 0.45 0 19:26 29.09.2021
5465 Clear 25 1014 48 10000 0.89 0 18:18 29.09.2021
5466 Clear 21 1014 61 10000 0.89 136 16:56 29.09.2021
5467 Clear 21 1014 60 10000 0.45 0 16:56 29.09.2021
5468 Clear 20 1014 62 10000 3.09 140 16:28 29.09.2021
5469 Clear 20 1012 61 10000 3.6 140 15:35 29.09.2021
5470 Clear 20 1013 60 10000 0.89 160 14:38 29.09.2021
5471 Clear 20 1013 57 10000 3.6 170 13:33 29.09.2021
5472 Clear 21 1013 56 10000 0.45 186 12:39 29.09.2021
5473 Clear 21 1012 55 10000 0.45 134 11:23 29.09.2021
5474 Clear 21 1012 54 10000 1.34 128 10:31 29.09.2021
5475 Clear 22 1012 53 10000 0.45 177 09:42 29.09.2021
5476 Clear 23 1013 49 10000 0.45 181 07:52 29.09.2021
5477 Clear 24 1011 48 10000 0.89 0 06:46 29.09.2021
5478 Clouds 30 1011 34 10000 0.45 62 00:28 29.09.2021
5479 Clouds 30 1013 35 10000 0.89 0 22:26 28.09.2021
5480 Clear 29 1013 37 10000 0.89 0 21:54 28.09.2021
5481 Clear 29 1014 37 10000 0.89 0 21:19 28.09.2021
5482 Clouds 27 1014 41 10000 0.89 0 19:49 28.09.2021
5483 Clouds 27 1015 43 10000 0.89 0 19:27 28.09.2021
5484 Clear 25 1015 47 10000 0.45 0 18:41 28.09.2021
5485 Clear 22 1015 67 10000 0.45 0 16:54 28.09.2021
5486 Clouds 19 1014 78 10000 1.79 96 15:19 28.09.2021
5487 Clouds 21 1014 72 10000 1.34 170 13:27 28.09.2021
5488 Clouds 21 1014 69 10000 0.45 179 12:24 28.09.2021
5489 Clouds 21 1014 69 10000 0.45 177 11:48 28.09.2021
5490 Clouds 21 1014 69 10000 0.89 151 11:27 28.09.2021
5491 Clouds 21 1014 69 10000 0.89 124 10:27 28.09.2021
5492 Clouds 22 1014 68 10000 0.89 107 09:29 28.09.2021
5493 Clouds 22 1015 66 10000 0.89 176 08:43 28.09.2021
5494 Clouds 22 1015 64 10000 0.89 160 08:18 28.09.2021
5495 Clouds 23 1015 60 10000 0 0 06:46 28.09.2021
5496 Clouds 27 1014 40 10000 0.89 323 01:35 28.09.2021
5497 Clouds 27 1015 39 10000 0.45 0 00:30 28.09.2021
5498 Clouds 27 1015 39 10000 0.89 0 23:49 27.09.2021
5499 Clouds 28 1015 39 10000 0.45 305 23:24 27.09.2021
5500 Clouds 28 1016 39 10000 0.45 0 22:21 27.09.2021
5501 Clouds 27 1018 42 10000 0.89 0 20:54 27.09.2021
5502 Clouds 26 1019 44 10000 0.89 148 20:27 27.09.2021
5503 Clouds 26 1017 47 10000 0.45 0 19:37 27.09.2021
5504 Clear 25 1018 54 10000 0.45 0 18:53 27.09.2021
5505 Clouds 22 1018 64 10000 1.79 115 17:41 27.09.2021
5506 Clouds 21 1018 70 10000 0.45 0 16:59 27.09.2021
5507 Clouds 20 1016 72 10000 3.09 160 16:34 27.09.2021
5508 Clouds 19 1018 77 10000 1.54 150 15:37 27.09.2021
5509 Clouds 19 1018 77 10000 0.89 177 13:49 27.09.2021
5510 Clouds 19 1017 75 10000 2.57 150 12:22 27.09.2021
5511 Clouds 19 1018 75 10000 2.06 170 10:50 27.09.2021
5512 Clouds 20 1016 74 10000 0.89 191 09:42 27.09.2021
5513 Clouds 20 1016 71 10000 0.89 174 07:54 27.09.2021
5514 Clouds 23 1015 57 10000 2.24 0 03:34 27.09.2021
5515 Clear 27 1015 44 10000 2.68 0 23:49 26.09.2021
5516 Clouds 26 1015 52 10000 0.45 85 21:57 26.09.2021
5517 Clouds 26 1018 57 10000 1.54 280 21:27 26.09.2021
5518 Clouds 25 1019 61 10000 1.34 293 20:25 26.09.2021
5519 Clouds 25 1019 64 10000 0.45 189 19:54 26.09.2021
5520 Clouds 24 1020 67 10000 0.89 200 19:25 26.09.2021
5521 Clouds 24 1020 67 10000 0.89 200 19:25 26.09.2021
5522 Clouds 24 1020 68 10000 0.89 200 19:25 26.09.2021
5523 Clouds 24 1020 68 10000 0.89 200 19:25 26.09.2021
5524 Clouds 24 1020 68 10000 0.89 200 19:25 26.09.2021
5525 Clouds 24 1020 67 10000 0.89 200 19:25 26.09.2021
5526 Clouds 23 1019 74 10000 2.57 80 18:41 26.09.2021
5527 Rain 19 1019 88 10000 5.14 60 17:38 26.09.2021
5528 Rain 19 1019 88 8047 3.6 80 17:20 26.09.2021
5529 Thunderstorm 19 1019 90 10000 4.63 170 16:22 26.09.2021
5530 Rain 19 1017 89 10000 1.54 270 15:27 26.09.2021
5531 Clouds 19 1016 87 10000 2.06 230 14:20 26.09.2021
5532 Clouds 19 1015 88 10000 1.54 190 13:42 26.09.2021
5533 Clouds 19 1016 89 10000 0 0 12:31 26.09.2021
5534 Clouds 20 1016 88 10000 0 0 11:56 26.09.2021
5535 Clouds 20 1018 88 10000 0.45 193 11:23 26.09.2021
5536 Clouds 20 1019 84 10000 0.45 212 09:50 26.09.2021
5537 Rain 20 1019 81 10000 0.45 350 08:41 26.09.2021
5538 Rain 31 1014 33 10000 0.89 298 00:30 26.09.2021
5539 Haze 32 1014 31 9656 0.45 0 23:46 25.09.2021
5540 Clear 32 1016 32 10000 0.89 342 22:39 25.09.2021
5541 Clear 32 1016 32 10000 0.89 0 22:19 25.09.2021
5542 Clear 32 1016 32 10000 0.89 0 22:19 25.09.2021
5543 Clouds 32 1016 33 10000 0.89 0 21:45 25.09.2021
5544 Clear 31 1018 36 10000 0.89 355 20:52 25.09.2021
5545 Clear 30 1018 36 10000 0.45 0 20:52 25.09.2021
5546 Clouds 29 1018 41 10000 0.89 0 19:40 25.09.2021
5547 Clouds 26 1018 51 10000 0.45 0 18:28 25.09.2021
5548 Clear 24 1018 63 10000 0.45 0 17:23 25.09.2021
5549 Clouds 21 1018 58 10000 2.57 140 14:38 25.09.2021
5550 Clouds 22 1017 60 10000 0 0 13:55 25.09.2021
5551 Clouds 22 1017 64 10000 1.54 160 12:45 25.09.2021
5552 Clouds 22 1016 58 10000 0 0 11:27 25.09.2021
5553 Clouds 22 1017 56 10000 0.45 180 10:19 25.09.2021
5554 Clouds 22 1017 57 10000 2.06 190 09:21 25.09.2021
5555 Clear 23 1018 52 10000 0.45 205 07:47 25.09.2021
5556 Clear 30 1015 35 10000 1.79 0 00:52 25.09.2021
5557 Clouds 30 1016 37 10000 1.79 0 22:18 24.09.2021
5558 Clear 30 1017 36 10000 0.45 0 21:34 24.09.2021
5559 Clear 29 1017 37 10000 0.89 160 20:32 24.09.2021
5560 Clear 28 1017 43 10000 0.45 177 19:31 24.09.2021
5561 Clouds 25 1018 51 10000 0.45 121 18:20 24.09.2021
5562 Clear 24 1018 54 10000 1.79 218 17:50 24.09.2021
5563 Clear 23 1018 56 10000 1.34 223 17:31 24.09.2021
5564 Clouds 19 1017 68 10000 2.57 150 15:39 24.09.2021
5565 Clouds 20 1015 64 10000 2.57 160 13:21 24.09.2021
5566 Clouds 20 1015 64 10000 3.09 200 12:43 24.09.2021
5567 Clouds 20 1015 64 10000 3.09 200 12:25 24.09.2021
5568 Clouds 20 1016 60 10000 3.09 160 10:53 24.09.2021
5569 Clouds 21 1016 57 10000 4.63 160 09:37 24.09.2021
5570 Clear 21 1017 57 10000 0.45 127 07:57 24.09.2021
5571 Clouds 22 1016 52 10000 1.79 171 06:59 24.09.2021
5572 Clear 22 1015 50 10000 1.79 115 05:57 24.09.2021
5573 Clear 28 1015 34 10000 3.13 118 02:29 24.09.2021
5574 Clouds 25 1017 51 10000 1.79 145 22:37 23.09.2021
5575 Rain 25 1016 55 10000 1.34 136 21:58 23.09.2021
5576 Rain 24 1017 57 10000 3.58 138 20:52 23.09.2021
5577 Rain 25 1019 55 10000 7.2 190 20:27 23.09.2021
5578 Clouds 25 1019 54 10000 0.45 166 18:27 23.09.2021
5579 Haze 24 1015 46 9656 2.57 140 15:37 23.09.2021
5580 Haze 24 1015 46 9656 2.57 140 15:19 23.09.2021
5581 Clouds 23 1015 46 10000 3.6 150 14:24 23.09.2021
5582 Clear 24 1016 45 10000 2.57 150 13:26 23.09.2021
5583 Clear 24 1016 44 10000 0 0 12:54 23.09.2021
5584 Clear 25 1015 44 10000 0 0 12:24 23.09.2021
5585 Clear 25 1015 41 10000 0 0 11:56 23.09.2021
5586 Clear 26 1017 37 10000 3.6 170 10:29 23.09.2021
5587 Clear 26 1017 32 10000 4.63 160 09:53 23.09.2021
5588 Clear 26 1017 31 10000 0.89 158 08:42 23.09.2021
5589 Clear 28 1017 28 10000 0.45 188 05:29 23.09.2021
5590 Clouds 35 1018 20 10000 1.34 141 23:48 22.09.2021
5591 Clear 36 1020 19 10000 0.89 190 22:49 22.09.2021
5592 Clear 35 1020 19 10000 0.45 0 22:18 22.09.2021
5593 Clear 35 1021 19 10000 5.36 142 21:41 22.09.2021
5594 Clouds 34 1021 21 10000 3.58 19 20:57 22.09.2021
5595 Clear 32 1022 24 10000 0.45 142 19:34 22.09.2021
5596 Clear 31 1022 28 10000 0.89 136 18:47 22.09.2021
5597 Clear 30 1023 30 10000 2.24 129 18:23 22.09.2021
5598 Clear 26 1021 36 10000 0.89 173 16:41 22.09.2021
5599 Clear 24 1021 38 10000 0.45 127 15:38 22.09.2021
5600 Clear 25 1022 34 10000 4.12 110 14:25 22.09.2021
5601 Clear 24 1022 34 10000 3.6 130 12:22 22.09.2021
5602 Clear 25 1022 31 10000 4.12 80 10:57 22.09.2021
5603 Clear 25 1022 31 10000 2.57 130 09:29 22.09.2021
5604 Clear 25 1021 31 10000 3.6 140 08:35 22.09.2021
5605 Clear 27 1021 28 10000 2.57 260 07:30 22.09.2021
5606 Clear 28 1022 26 10000 0.45 166 06:19 22.09.2021
5607 Clear 29 1020 26 10000 0.89 296 05:38 22.09.2021
5608 Clear 31 1019 24 10000 0.45 296 03:53 22.09.2021
5609 Clear 34 1019 21 10000 1.79 286 02:43 22.09.2021
5610 Clear 35 1020 18 10000 0.45 248 23:30 21.09.2021
5611 Clear 34 1021 20 10000 0.89 267 21:38 21.09.2021
5612 Clear 33 1022 26 10000 0.89 99 20:27 21.09.2021
5613 Clear 30 1022 32 10000 0.89 205 19:23 21.09.2021
5614 Clear 28 1020 38 10000 0.26 128 17:49 21.09.2021
5615 Clear 22 1022 46 10000 3.6 150 16:38 21.09.2021
5616 Clear 20 1021 46 10000 3.6 160 15:55 21.09.2021
5617 Clear 20 1020 48 10000 3.09 160 14:58 21.09.2021
5618 Clear 22 1020 44 10000 3.09 140 13:57 21.09.2021
5619 Clear 22 1020 45 10000 3.09 140 13:39 21.09.2021
5620 Clear 22 1019 43 10000 3.09 140 12:40 21.09.2021
5621 Clear 23 1019 39 10000 3.09 180 10:33 21.09.2021
5622 Clear 25 1018 36 10000 3.09 190 08:40 21.09.2021
5623 Clear 27 1018 29 10000 1.41 327 07:20 21.09.2021
5624 Clear 35 1015 20 10000 2.57 270 01:52 21.09.2021
5625 Clear 34 1016 23 10000 2.06 100 22:42 20.09.2021
5626 Clear 33 1017 23 10000 2.57 360 21:41 20.09.2021
5627 Clear 32 1013 28 10000 1.68 251 20:58 20.09.2021
5628 Clear 30 1017 33 10000 0.45 115 19:40 20.09.2021
5629 Clear 27 1016 45 10000 0.45 141 17:52 20.09.2021
5630 Clear 24 1015 52 10000 2.57 130 16:50 20.09.2021
5631 Clear 20 1015 60 10000 2.57 160 15:57 20.09.2021
5632 Clear 20 1015 58 10000 2.57 160 15:33 20.09.2021
5633 Clear 22 1014 50 10000 0 0 14:25 20.09.2021
5634 Clear 23 1014 47 10000 3.09 150 12:39 20.09.2021
5635 Clear 23 1014 47 10000 3.09 150 12:20 20.09.2021
5636 Clear 25 1015 43 10000 3.09 140 10:32 20.09.2021
5637 Clear 25 1013 41 10000 1.54 180 09:43 20.09.2021
5638 Clear 26 1013 40 10000 1.54 180 09:20 20.09.2021
5639 Clear 26 1014 38 10000 0.45 205 08:27 20.09.2021
5640 Clouds 32 1012 39 10000 7.2 280 02:27 20.09.2021
5641 Clouds 35 1013 37 10000 0.89 244 22:46 19.09.2021
5642 Clear 34 1014 40 10000 0.89 244 21:45 19.09.2021
5643 Clear 33 1015 43 10000 0.45 62 20:53 19.09.2021
5644 Clear 31 1015 48 10000 0.89 159 19:32 19.09.2021
5645 Clear 29 1016 57 10000 0.45 149 18:32 19.09.2021
5646 Clear 26 1016 66 10000 0.45 216 17:23 19.09.2021
5647 Clear 24 1016 72 10000 0.45 177 16:32 19.09.2021
5648 Clear 23 1016 76 10000 3.09 150 15:31 19.09.2021
5649 Clear 23 1016 75 10000 2.06 170 14:48 19.09.2021
5650 Clear 23 1015 77 10000 3.09 160 13:29 19.09.2021
5651 Clear 23 1015 76 10000 3.09 140 12:52 19.09.2021
5652 Clear 24 1016 75 10000 3.09 160 11:29 19.09.2021
5653 Clear 24 1016 77 10000 0.45 172 10:56 19.09.2021
5654 Clear 24 1016 74 10000 0 0 09:49 19.09.2021
5655 Clear 25 1017 73 10000 2.06 270 08:41 19.09.2021
5656 Haze 26 1016 66 6437 0.89 218 06:42 19.09.2021
5657 Clear 35 1015 32 10000 1.34 29 23:57 18.09.2021
5658 Clear 35 1016 33 10000 0.89 283 22:51 18.09.2021
5659 Clear 33 1018 38 10000 1.34 281 20:58 18.09.2021
5660 Clouds 32 1018 39 10000 0.89 323 20:38 18.09.2021
5661 Clouds 31 1019 44 10000 0.89 286 19:40 18.09.2021
5662 Clouds 30 1019 45 10000 0.45 254 19:21 18.09.2021
5663 Clouds 29 1019 50 10000 0.89 253 18:37 18.09.2021
5664 Clouds 27 1019 55 10000 0.89 165 17:45 18.09.2021
5665 Clouds 24 1019 59 10000 1.54 150 16:24 18.09.2021
5666 Clouds 24 1018 56 10000 2.06 140 13:49 18.09.2021
5667 Clouds 24 1018 55 10000 2.06 140 13:29 18.09.2021
5668 Clear 24 1018 54 10000 2.57 160 12:50 18.09.2021
5669 Clear 24 1018 53 10000 3.09 170 11:42 18.09.2021
5670 Clear 25 1017 51 10000 3.09 170 10:33 18.09.2021
5671 Clear 26 1016 48 10000 2.57 160 09:48 18.09.2021
5672 Clear 26 1016 47 10000 2.57 160 09:19 18.09.2021
5673 Clouds 28 1016 43 10000 0.45 355 05:51 18.09.2021
5674 Clouds 34 1015 28 10000 0.45 268 00:42 18.09.2021
5675 Clouds 34 1016 30 10000 0.89 290 23:50 17.09.2021
5676 Clouds 34 1016 32 10000 1.79 102 22:38 17.09.2021
5677 Clouds 33 1017 33 10000 0.89 0 22:19 17.09.2021
5678 Clouds 32 1017 36 10000 0.89 205 21:23 17.09.2021
5679 Clouds 29 1017 44 10000 2.57 340 19:23 17.09.2021
5680 Clouds 26 1017 50 10000 1.79 278 17:25 17.09.2021
5681 Clouds 26 1017 47 10000 0 0 16:27 17.09.2021
5682 Clouds 26 1015 45 10000 0.89 89 14:23 17.09.2021
5683 Clouds 27 1015 40 10000 1.34 158 10:53 17.09.2021
5684 Clouds 27 1013 37 10000 5.66 160 08:52 17.09.2021
5685 Clear 29 1012 34 10000 3.09 150 07:19 17.09.2021
5686 Clear 33 1009 24 10000 0.89 244 03:54 17.09.2021
5687 Clear 37 1011 16 10000 0.45 310 23:35 16.09.2021
5688 Clear 37 1012 17 10000 3.13 274 22:28 16.09.2021
5689 Clear 37 1012 19 10000 1.34 236 21:51 16.09.2021
5690 Clear 36 1012 19 10000 0.89 150 21:24 16.09.2021
5691 Clear 35 1013 22 10000 0.89 233 20:18 16.09.2021
5692 Clear 30 1014 30 10000 0.45 231 18:20 16.09.2021
5693 Clear 28 1013 35 10000 2.57 150 17:33 16.09.2021
5694 Clear 23 1012 33 10000 3.6 140 14:56 16.09.2021
5695 Clear 24 1012 34 10000 3.6 140 14:24 16.09.2021
5696 Clear 24 1012 35 10000 4.12 160 12:51 16.09.2021
5697 Clear 24 1012 35 10000 4.12 160 12:28 16.09.2021
5698 Clear 24 1012 34 10000 1.54 150 11:25 16.09.2021
5699 Clear 25 1013 34 10000 3.09 160 10:33 16.09.2021
5700 Clear 27 1008 27 10000 1.45 46 09:53 16.09.2021
5701 Clear 27 1013 29 10000 2.57 180 08:42 16.09.2021
5702 Clear 28 1013 25 10000 2.06 150 07:22 16.09.2021
5703 Clear 29 1011 23 10000 0 0 06:43 16.09.2021
5704 Clear 31 1012 22 10000 4.12 310 04:55 16.09.2021
5705 Clear 37 1011 17 10000 0.89 287 01:27 16.09.2021
5706 Clear 37 1011 17 10000 0.89 336 23:37 15.09.2021
5707 Clear 37 1012 18 10000 1.79 328 22:47 15.09.2021
5708 Clear 36 1013 24 10000 0.45 317 21:44 15.09.2021
5709 Clear 35 1014 24 10000 0.45 294 21:25 15.09.2021
5710 Clear 33 1015 30 10000 0.45 238 19:52 15.09.2021
5711 Clear 33 1015 30 10000 0.89 238 19:52 15.09.2021
5712 Clear 32 1015 33 10000 0.45 0 19:19 15.09.2021
5713 Clear 29 1015 39 10000 2.57 180 17:49 15.09.2021
5714 Clear 23 1015 47 10000 2.57 160 16:54 15.09.2021
5715 Clear 22 1014 45 10000 2.06 140 15:33 15.09.2021
5716 Clear 24 1014 40 10000 3.09 160 14:44 15.09.2021
5717 Clear 24 1014 40 10000 3.09 150 13:51 15.09.2021
5718 Clear 24 1014 39 10000 3.09 150 13:29 15.09.2021
5719 Clear 24 1014 38 10000 3.6 160 12:44 15.09.2021
5720 Clear 25 1014 38 10000 2.57 120 11:51 15.09.2021
5721 Clear 25 1014 36 10000 2.57 120 11:21 15.09.2021
5722 Clear 25 1014 36 10000 2.57 150 10:50 15.09.2021
5723 Clear 27 1014 35 10000 4.12 190 09:28 15.09.2021
5724 Clear 29 1013 30 10000 2.06 330 07:43 15.09.2021
5725 Clear 33 1011 23 10000 0.89 0 04:24 15.09.2021
5726 Clear 38 1012 20 10000 1.79 348 22:56 14.09.2021
5727 Clear 36 1014 26 10000 0.45 233 21:40 14.09.2021
5728 Clear 35 1015 31 10000 0.45 253 20:38 14.09.2021
5729 Clear 33 1015 34 10000 0.45 174 19:41 14.09.2021
5730 Clear 29 1013 48 10000 3.09 170 17:34 14.09.2021
5731 Clear 27 1012 52 10000 0.45 140 16:56 14.09.2021
5732 Clear 24 1015 53 10000 0 0 15:28 14.09.2021
5733 Clear 25 1013 52 10000 0 0 14:31 14.09.2021
5734 Clear 26 1012 44 10000 4.63 160 11:51 14.09.2021
5735 Clear 27 1012 39 10000 4.12 150 10:53 14.09.2021
5736 Clear 27 1013 37 10000 3.09 160 09:50 14.09.2021
5737 Clear 28 1013 34 10000 3.6 160 08:39 14.09.2021
5738 Clear 31 1010 26 10000 1.54 50 06:22 14.09.2021
5739 Clear 39 1011 17 10000 0.45 331 23:54 13.09.2021
5740 Clear 38 1013 20 10000 1.34 325 22:30 13.09.2021
5741 Clear 38 1013 21 10000 0.89 62 21:59 13.09.2021
5742 Clear 37 1013 23 10000 0.45 284 21:40 13.09.2021
5743 Clear 34 1015 30 10000 0.45 295 19:48 13.09.2021
5744 Clear 32 1017 34 10000 1.34 178 18:45 13.09.2021
5745 Clear 32 1017 34 10000 1.34 178 18:45 13.09.2021
5746 Clear 28 1015 44 10000 3.09 140 17:41 13.09.2021
5747 Clear 23 1015 48 10000 3.6 140 16:50 13.09.2021
5748 Clear 25 1015 37 10000 1.54 130 14:57 13.09.2021
5749 Clear 25 1015 37 10000 1.54 130 14:57 13.09.2021
5750 Clear 26 1014 37 10000 1.54 170 11:52 13.09.2021
5751 Clear 26 1010 35 10000 1.09 100 10:58 13.09.2021
5752 Clear 27 1014 35 10000 3.09 150 09:31 13.09.2021
5753 Clear 39 1012 18 10000 0.45 118 01:24 13.09.2021
5754 Clear 38 1014 19 10000 0.45 0 22:55 12.09.2021
5755 Clear 38 1015 21 10000 1.34 155 22:24 12.09.2021
5756 Clear 37 1015 25 10000 0.89 245 21:23 12.09.2021
5757 Clear 35 1016 30 10000 0.45 268 20:21 12.09.2021
5758 Clear 34 1016 33 10000 0.45 178 19:49 12.09.2021
5759 Clear 33 1017 35 10000 0.45 177 19:18 12.09.2021
5760 Clear 31 1016 40 10000 2.06 170 18:18 12.09.2021
5761 Clear 24 1012 37 10000 0.9 126 15:59 12.09.2021
5762 Clear 24 1016 47 10000 4.12 140 14:48 12.09.2021
5763 Clear 25 1016 45 10000 4.12 150 12:45 12.09.2021
5764 Clear 26 1015 47 10000 4.63 140 10:33 12.09.2021
5765 Clear 29 1016 41 10000 3.09 130 08:39 12.09.2021
5766 Clear 30 1016 36 10000 2.06 160 07:39 12.09.2021
5767 Clear 38 1014 22 10000 0.45 312 00:48 12.09.2021
5768 Clear 38 1015 21 10000 0.45 355 22:59 11.09.2021
5769 Clear 37 1017 29 10000 0.45 93 21:39 11.09.2021
5770 Clear 34 1018 41 10000 0.45 0 19:55 11.09.2021
5771 Clear 30 1019 50 10000 0 0 18:30 11.09.2021
5772 Clear 28 1019 56 10000 1.54 170 17:29 11.09.2021
5773 Clear 24 1018 62 10000 3.09 170 15:37 11.09.2021
5774 Clear 25 1018 59 10000 1.54 120 13:25 11.09.2021
5775 Clear 26 1018 54 10000 3.6 140 11:44 11.09.2021
5776 Clear 27 1016 52 10000 3.6 150 10:35 11.09.2021
5777 Clear 28 1018 48 10000 0.45 201 08:54 11.09.2021
5778 Clear 29 1018 43 10000 2.57 260 07:44 11.09.2021
5779 Clear 33 1016 28 10000 0 0 04:23 11.09.2021
5780 Clouds 38 1016 20 10000 0.89 148 22:43 10.09.2021
5781 Clouds 38 1017 20 10000 0.89 194 21:57 10.09.2021
5782 Clear 38 1017 20 10000 0.89 177 21:38 10.09.2021
5783 Clear 35 1018 30 10000 0.45 63 19:31 10.09.2021
5784 Clear 31 1020 39 10000 0.89 0 17:58 10.09.2021
5785 Clear 26 1017 45 10000 1.79 155 16:28 10.09.2021
5786 Clear 26 1016 38 10000 2.06 210 13:29 10.09.2021
5787 Clear 28 1016 34 10000 0.89 164 10:52 10.09.2021
5788 Clear 30 1014 30 10000 0.45 92 07:52 10.09.2021
5789 Clear 30 1014 30 10000 0.45 118 07:21 10.09.2021
5790 Clear 38 1013 20 10000 0.89 193 00:24 10.09.2021
5791 Clear 37 1015 25 10000 0.45 262 21:49 09.09.2021
5792 Clear 37 1016 27 10000 1.34 38 20:48 09.09.2021
5793 Clear 36 1016 27 10000 1.34 169 20:26 09.09.2021
5794 Clear 34 1016 32 10000 1.34 134 18:41 09.09.2021
5795 Clear 32 1016 37 10000 0.89 79 17:41 09.09.2021
5796 Clear 28 1016 45 10000 0.89 0 16:27 09.09.2021
5797 Clear 28 1014 39 10000 0.45 121 13:38 09.09.2021
5798 Clear 28 1017 37 10000 1.79 127 11:57 09.09.2021
5799 Clear 29 1016 36 10000 4.12 140 11:22 09.09.2021
5800 Clear 29 1016 34 10000 0 0 09:34 09.09.2021
5801 Clear 30 1015 30 10000 1.54 70 07:34 09.09.2021
5802 Clear 32 1013 29 10000 0.89 167 04:47 09.09.2021
5803 Clear 38 1012 29 10000 1.34 145 23:54 08.09.2021
5804 Clear 35 1014 40 10000 0.89 84 21:47 08.09.2021
5805 Clear 34 1014 44 10000 0.89 5 20:37 08.09.2021
5806 Clear 33 1016 45 10000 0 0 19:44 08.09.2021
5807 Clear 31 1017 49 10000 0.45 109 18:34 08.09.2021
5808 Clear 30 1016 51 10000 0.45 113 17:58 08.09.2021
5809 Clear 29 1017 54 10000 0.89 0 17:39 08.09.2021
5810 Clear 26 1014 65 10000 4.63 140 14:50 08.09.2021
5811 Clouds 26 1013 63 10000 4.12 130 13:25 08.09.2021
5812 Clouds 26 1016 65 10000 0.89 170 12:41 08.09.2021
5813 Clouds 26 1016 66 10000 0.45 257 12:21 08.09.2021
5814 Clouds 27 1014 64 10000 0.89 185 10:59 08.09.2021
5815 Clouds 27 1014 63 10000 3.6 130 10:27 08.09.2021
5816 Clouds 27 1013 62 10000 1.54 170 09:25 08.09.2021
5817 Clear 29 1014 57 10000 3.09 190 07:41 08.09.2021
5818 Clear 30 1013 51 10000 0.45 298 05:46 08.09.2021
5819 Clear 35 1014 43 10000 1.34 291 22:51 07.09.2021
5820 Clear 34 1014 44 10000 1.34 0 22:19 07.09.2021
5821 Clear 32 1016 50 10000 0.89 348 20:37 07.09.2021
5822 Clear 30 1017 58 10000 0.45 277 18:49 07.09.2021
5823 Clear 29 1017 61 10000 0.45 0 18:24 07.09.2021
5824 Clear 27 1016 70 10000 2.06 160 16:56 07.09.2021
5825 Clear 25 1013 73 10000 1.44 285 15:55 07.09.2021
5826 Clear 24 1017 76 10000 2.57 180 14:46 07.09.2021
5827 Clear 25 1017 68 10000 1.54 150 12:45 07.09.2021
5828 Clear 25 1017 68 10000 1.54 150 12:45 07.09.2021
5829 Clear 26 1017 64 10000 2.57 150 11:51 07.09.2021
5830 Clear 26 1016 62 10000 2.57 170 10:43 07.09.2021
5831 Clear 28 1016 55 10000 3.09 180 08:40 07.09.2021
5832 Clear 28 1017 56 10000 2.06 210 07:44 07.09.2021
5833 Clear 30 1015 47 10000 0.89 261 05:47 07.09.2021
5834 Clear 35 1013 36 10000 0.89 301 02:38 07.09.2021
5835 Clear 36 1014 34 10000 1.34 10 00:54 07.09.2021
5836 Clear 36 1015 35 10000 0.89 35 23:43 06.09.2021
5837 Clear 35 1015 36 10000 0.89 22 23:20 06.09.2021
5838 Clear 35 1016 38 10000 1.34 105 22:45 06.09.2021
5839 Clear 33 1017 43 10000 1.34 340 21:31 06.09.2021
5840 Clear 30 1018 52 10000 0.89 50 19:32 06.09.2021
5841 Clear 29 1018 56 10000 0.89 0 18:58 06.09.2021
5842 Clear 28 1019 60 10000 0.89 0 18:24 06.09.2021
5843 Clear 27 1016 65 10000 1.54 110 17:36 06.09.2021
5844 Clear 23 1015 75 10000 1.89 113 15:58 06.09.2021
5845 Clear 23 1017 74 10000 3.6 140 14:26 06.09.2021
5846 Clear 23 1017 70 10000 2.57 160 12:48 06.09.2021
5847 Clouds 24 1014 67 10000 2.83 119 10:59 06.09.2021
5848 Clouds 24 1014 68 10000 4.13 141 09:59 06.09.2021
5849 Clear 25 1018 65 10000 3.6 90 07:21 06.09.2021
5850 Clouds 37 1012 35 10000 1.79 350 23:40 05.09.2021
5851 Clouds 37 1012 35 10000 1.34 339 23:19 05.09.2021
5852 Clear 36 1013 37 10000 0.89 329 22:30 05.09.2021
5853 Clear 36 1013 37 10000 0.89 329 22:30 05.09.2021
5854 Clear 36 1014 38 10000 0.45 174 21:49 05.09.2021
5855 Clouds 35 1015 41 10000 0.89 173 20:50 05.09.2021
5856 Clouds 35 1015 41 10000 0.89 173 20:50 05.09.2021
5857 Clouds 32 1015 52 10000 0.89 184 18:59 05.09.2021
5858 Clouds 29 1015 62 10000 0.45 155 17:34 05.09.2021
5859 Clouds 25 1015 67 10000 2.06 140 15:31 05.09.2021
5860 Clear 26 1015 66 10000 2.06 160 14:23 05.09.2021
5861 Clear 27 1012 60 10000 3.09 140 12:30 05.09.2021
5862 Clouds 27 1013 61 10000 0.89 128 10:55 05.09.2021
5863 Clouds 27 1013 60 10000 1.79 125 10:31 05.09.2021
5864 Clear 28 1013 59 10000 0.45 0 09:22 05.09.2021
5865 Clouds 29 1013 56 10000 0.89 138 08:21 05.09.2021
5866 Clear 36 1011 35 10000 1.79 315 02:36 05.09.2021
5867 Clear 37 1011 32 10000 0.89 319 00:30 05.09.2021
5868 Clear 37 1011 32 10000 0.89 319 00:30 05.09.2021
5869 Clear 37 1012 33 10000 0.89 137 23:42 04.09.2021
5870 Clear 36 1013 36 10000 0.89 17 22:36 04.09.2021
5871 Clear 35 1013 37 10000 0.89 309 21:58 04.09.2021
5872 Clear 32 1015 47 10000 0.89 199 19:42 04.09.2021
5873 Clear 31 1015 53 10000 1.34 178 18:44 04.09.2021
5874 Clear 27 1012 68 10000 1.54 150 16:23 04.09.2021
5875 Clouds 26 1014 66 10000 3.09 150 13:30 04.09.2021
5876 Rain 27 1013 59 10000 2.06 90 11:20 04.09.2021
5877 Clouds 28 1013 53 10000 0.45 0 09:25 04.09.2021
5878 Clouds 30 1012 43 10000 1.34 0 05:53 04.09.2021
5879 Clouds 35 1011 33 10000 1.34 270 00:27 04.09.2021
5880 Clear 35 1012 33 10000 1.79 24 23:32 03.09.2021
5881 Clear 34 1013 35 10000 0.89 295 22:35 03.09.2021
5882 Clear 33 1014 39 10000 0.45 42 21:35 03.09.2021
5883 Clear 33 1014 38 10000 0.45 37 21:35 03.09.2021
5884 Clear 32 1014 42 10000 0.89 62 20:42 03.09.2021
5885 Clear 31 1015 47 10000 0.45 311 19:55 03.09.2021
5886 Clear 30 1015 50 10000 0.89 175 19:18 03.09.2021
5887 Clear 27 1015 61 10000 0.89 0 17:53 03.09.2021
5888 Clear 25 1013 71 10000 3.6 150 16:37 03.09.2021
5889 Clear 22 1015 76 10000 1.54 150 14:58 03.09.2021
5890 Clear 24 1015 70 10000 2.57 150 12:24 03.09.2021
5891 Clear 24 1015 68 10000 2.57 160 10:31 03.09.2021
5892 Clear 26 1015 63 10000 0 0 08:46 03.09.2021
5893 Clear 26 1015 61 10000 1.54 320 07:43 03.09.2021
5894 Clear 33 1012 39 10000 2.24 313 01:40 03.09.2021
5895 Clouds 33 1014 43 10000 1.79 306 22:57 02.09.2021
5896 Clouds 31 1015 50 10000 1.34 0 21:31 02.09.2021
5897 Clear 30 1015 59 10000 0.89 0 19:55 02.09.2021
5898 Clear 26 1015 73 10000 0.45 0 17:32 02.09.2021
5899 Clear 26 1015 73 10000 0.45 0 17:32 02.09.2021
5900 Clouds 23 1015 85 10000 0.45 0 15:50 02.09.2021
5901 Clouds 23 1013 84 10000 0.45 186 13:57 02.09.2021
5902 Clouds 23 1013 81 10000 0.45 0 12:48 02.09.2021
5903 Clear 24 1013 81 10000 0.45 179 11:35 02.09.2021
5904 Clouds 25 1013 76 10000 0.89 93 09:40 02.09.2021
5905 Clouds 25 1013 73 10000 0.45 346 07:48 02.09.2021
5906 Clouds 26 1012 72 10000 0.45 350 07:18 02.09.2021
5907 Clouds 26 1013 72 10000 2.57 190 07:18 02.09.2021
5908 Clouds 30 1010 51 10000 0.89 300 02:54 02.09.2021
5909 Clouds 31 1011 49 10000 1.34 0 01:55 02.09.2021
5910 Clouds 31 1011 49 10000 2.24 0 01:25 02.09.2021
5911 Clouds 31 1011 51 10000 1.79 0 23:39 01.09.2021
5912 Clear 30 1012 55 10000 1.79 0 22:39 01.09.2021
5913 Clouds 29 1012 57 10000 1.79 0 21:39 01.09.2021
5914 Clouds 28 1013 65 10000 1.34 257 20:29 01.09.2021
5915 Clouds 25 1012 81 10000 0.45 0 18:33 01.09.2021
5916 Clouds 23 1012 84 10000 0.45 330 17:37 01.09.2021
5917 Clouds 22 1012 92 10000 0.45 274 16:47 01.09.2021
5918 Clouds 21 1011 90 10000 0.89 198 15:27 01.09.2021
5919 Clouds 22 1009 89 10000 0.45 0 11:50 01.09.2021
5920 Mist 22 1009 90 9656 0.89 0 10:59 01.09.2021
5921 Rain 22 1010 90 10000 0.45 274 08:46 01.09.2021
5922 Rain 22 1010 90 10000 0.45 210 07:51 01.09.2021
5923 Clouds 25 1008 77 10000 1.34 0 00:50 01.09.2021
5924 Rain 31 1009 51 10000 1.79 225 22:33 31.08.2021
5925 Clouds 32 1009 47 10000 1.34 0 21:22 31.08.2021
5926 Clouds 30 1011 54 10000 0.89 77 19:45 31.08.2021
5927 Clear 28 1012 59 10000 0.89 0 18:27 31.08.2021
5928 Clouds 27 1011 63 10000 0.45 0 17:34 31.08.2021
5929 Clouds 26 1011 66 10000 0.89 159 16:52 31.08.2021
5930 Clouds 25 1011 69 10000 1.34 187 16:23 31.08.2021
5931 Clouds 25 1009 67 10000 0.45 0 12:56 31.08.2021
5932 Clouds 25 1009 67 10000 2.68 202 11:26 31.08.2021
5933 Clouds 25 1009 67 10000 0.45 132 10:49 31.08.2021
5934 Clouds 26 1010 65 10000 0.89 197 09:43 31.08.2021
5935 Clouds 26 1011 61 10000 1.34 0 08:37 31.08.2021
5936 Rain 27 1011 65 10000 0.89 44 05:58 31.08.2021
5937 Clear 37 1008 29 10000 1.79 9 00:23 31.08.2021
5938 Clear 37 1008 30 10000 1.34 5 23:29 30.08.2021
5939 Clear 36 1010 33 10000 1.79 344 21:43 30.08.2021
5940 Clouds 35 1011 35 10000 0.89 148 20:42 30.08.2021
5941 Clouds 34 1012 38 10000 0.89 257 19:58 30.08.2021
5942 Clouds 33 1012 39 10000 0.89 342 19:29 30.08.2021
5943 Clear 31 1012 44 10000 0.89 286 18:23 30.08.2021
5944 Clouds 28 1013 50 10000 3.6 150 16:49 30.08.2021
5945 Clouds 27 1013 57 10000 1.34 139 15:56 30.08.2021
5946 Clouds 26 1012 54 10000 4.12 140 14:39 30.08.2021
5947 Clear 27 1011 52 10000 3.09 110 13:27 30.08.2021
5948 Clouds 28 1009 46 10000 0.45 110 11:56 30.08.2021
5949 Clear 30 1012 43 10000 2.06 120 08:23 30.08.2021
5950 Clear 37 1010 31 10000 1.34 9 22:18 29.08.2021
5951 Clear 36 1011 32 10000 1.34 344 21:25 29.08.2021
5952 Clear 33 1012 41 10000 0.89 175 19:32 29.08.2021
5953 Clouds 31 1012 46 10000 0.45 112 18:30 29.08.2021
5954 Clear 27 1012 59 10000 2.57 130 16:25 29.08.2021
5955 Clear 27 1012 59 10000 2.57 130 16:25 29.08.2021
5956 Clouds 25 1013 57 10000 1.54 110 14:34 29.08.2021
5957 Clouds 26 1013 55 10000 2.57 50 13:55 29.08.2021
5958 Clouds 26 1005 58 10000 1.94 72 12:58 29.08.2021
5959 Clouds 26 1010 55 10000 0 0 12:19 29.08.2021
5960 Clouds 26 1011 55 10000 4.63 120 11:41 29.08.2021
5961 Clouds 26 1015 57 10000 0.45 129 10:48 29.08.2021
5962 Clouds 26 1014 60 10000 5.14 160 10:29 29.08.2021
5963 Clouds 26 1013 66 10000 1.54 50 09:35 29.08.2021
5964 Clear 26 1011 64 10000 0.45 0 04:21 29.08.2021
5965 Clear 38 1010 29 10000 1.34 315 22:57 28.08.2021
5966 Clouds 34 1013 36 10000 0.89 185 20:33 28.08.2021
5967 Clouds 33 1013 41 10000 0.89 197 19:30 28.08.2021
5968 Clear 31 1013 45 10000 1.79 143 18:26 28.08.2021
5969 Clear 30 1013 46 10000 0.45 96 17:46 28.08.2021
5970 Clear 28 1012 47 10000 0.45 0 16:44 28.08.2021
5971 Clear 27 1012 44 10000 0.89 143 15:20 28.08.2021
5972 Clouds 27 1010 44 10000 1.34 190 13:58 28.08.2021
5973 Clear 27 1010 44 10000 0.89 188 13:39 28.08.2021
5974 Clear 28 1010 42 10000 2.68 0 12:30 28.08.2021
5975 Clear 29 1010 39 10000 1.79 0 10:47 28.08.2021
5976 Clear 29 1010 38 10000 1.34 0 09:34 28.08.2021
5977 Clouds 30 1010 35 10000 0.89 182 07:34 28.08.2021
5978 Clear 40 1009 22 10000 1.34 46 23:45 27.08.2021
5979 Clear 39 1011 22 10000 1.79 196 21:29 27.08.2021
5980 Clear 38 1011 24 10000 1.79 133 20:52 27.08.2021
5981 Clear 37 1012 28 10000 0.89 211 19:32 27.08.2021
5982 Clear 35 1011 34 10000 1.34 140 18:39 27.08.2021
5983 Clear 32 1012 39 10000 0.89 0 17:45 27.08.2021
5984 Clear 29 1012 47 10000 0.89 0 16:31 27.08.2021
5985 Clear 27 1012 48 10000 0.45 180 14:44 27.08.2021
5986 Clear 27 1010 49 10000 3.6 120 12:57 27.08.2021
5987 Clear 28 1010 48 10000 2.06 150 11:43 27.08.2021
5988 Clear 29 1010 47 10000 0.45 240 10:49 27.08.2021
5989 Clouds 29 1013 44 10000 0.45 0 09:58 27.08.2021
5990 Clouds 30 1010 46 10000 0.45 197 08:56 27.08.2021
5991 Clouds 30 1010 45 10000 0.89 184 08:35 27.08.2021
5992 Clear 34 1010 35 10000 0.89 245 05:35 27.08.2021
5993 Clouds 39 1014 21 10000 3.13 254 00:40 27.08.2021
5994 Clear 40 1012 21 10000 1.34 49 23:52 26.08.2021
5995 Clear 40 1012 24 10000 0.89 298 22:25 26.08.2021
5996 Clear 39 1012 28 10000 0.89 287 21:32 26.08.2021
5997 Clear 36 1014 36 10000 0.45 236 19:30 26.08.2021
5998 Clear 32 1012 45 10000 0.45 126 17:50 26.08.2021
5999 Clear 31 1015 47 10000 0.45 127 17:25 26.08.2021
6000 Clear 28 1015 52 10000 3.6 160 16:26 26.08.2021
6001 Clear 27 1014 49 10000 2.57 160 14:20 26.08.2021
6002 Clouds 28 1014 47 10000 4.12 150 13:20 26.08.2021
6003 Clear 28 1014 49 10000 4.12 150 12:32 26.08.2021
6004 Clear 28 1014 47 10000 3.6 150 11:22 26.08.2021
6005 Clear 30 1012 47 10000 3.09 180 08:35 26.08.2021
6006 Clear 31 1015 43 10000 0.45 290 07:52 26.08.2021
6007 Clear 39 1013 25 10000 0.89 178 22:56 25.08.2021
6008 Clear 39 1014 25 10000 0.89 12 22:36 25.08.2021
6009 Clear 38 1014 27 10000 1.34 328 21:55 25.08.2021
6010 Clear 37 1015 29 10000 0.89 225 20:55 25.08.2021
6011 Clear 36 1015 31 10000 0.89 32 20:29 25.08.2021
6012 Clear 33 1016 38 10000 0.89 191 18:46 25.08.2021
6013 Clear 31 1016 45 10000 0.89 0 17:51 25.08.2021
6014 Clear 24 1016 58 10000 2.57 160 15:51 25.08.2021
6015 Clear 24 1016 57 10000 2.57 160 15:24 25.08.2021
6016 Clear 24 1016 56 10000 2.57 150 14:43 25.08.2021
6017 Clear 26 1016 51 10000 2.06 140 13:31 25.08.2021
6018 Clear 26 1016 51 10000 2.06 140 13:31 25.08.2021
6019 Clear 26 1016 50 10000 3.09 140 11:34 25.08.2021
6020 Clear 27 1016 48 10000 3.6 160 10:55 25.08.2021
6021 Clear 27 1016 49 10000 1.56 123 09:59 25.08.2021
6022 Clear 28 1015 45 10000 2.57 160 09:25 25.08.2021
6023 Clear 28 1014 45 10000 0.45 0 08:32 25.08.2021
6024 Clear 31 1014 35 10000 0.45 0 05:55 25.08.2021
6025 Clear 37 1013 28 10000 2.24 280 00:53 25.08.2021
6026 Clear 37 1015 30 10000 2.24 331 22:51 24.08.2021
6027 Clear 35 1016 35 10000 0.45 29 20:48 24.08.2021
6028 Clear 33 1016 40 10000 0.89 10 19:53 24.08.2021
6029 Clear 31 1016 45 10000 0.45 130 18:51 24.08.2021
6030 Clear 29 1017 51 10000 0.45 107 17:50 24.08.2021
6031 Clear 28 1016 55 10000 0.89 150 17:20 24.08.2021
6032 Clear 25 1016 61 10000 3.6 150 14:34 24.08.2021
6033 Clear 25 1016 58 10000 3.6 140 13:29 24.08.2021
6034 Clear 26 1018 56 10000 0.45 177 12:36 24.08.2021
6035 Clear 27 1015 54 10000 0.45 142 10:48 24.08.2021
6036 Clear 27 1015 54 10000 0.89 165 10:28 24.08.2021
6037 Clear 27 1014 51 10000 0.89 139 09:19 24.08.2021
6038 Clouds 29 1014 46 10000 0.89 0 06:57 24.08.2021
6039 Clear 31 1013 34 10000 0.45 0 05:19 24.08.2021
6040 Clear 37 1012 26 10000 1.34 282 00:52 24.08.2021
6041 Clear 37 1013 25 10000 2.24 24 23:21 23.08.2021
6042 Clear 37 1014 25 10000 1.34 196 22:41 23.08.2021
6043 Clear 37 1014 25 10000 1.34 196 22:40 23.08.2021
6044 Clear 35 1015 28 10000 0.89 196 20:50 23.08.2021
6045 Clear 33 1015 34 10000 0.89 186 19:27 23.08.2021
6046 Clear 27 1014 58 10000 0 0 16:42 23.08.2021
6047 Clear 23 1014 60 10000 2.57 150 15:21 23.08.2021
6048 Clear 24 1013 57 10000 3.09 180 13:26 23.08.2021
6049 Clear 25 1012 54 10000 1.54 160 12:29 23.08.2021
6050 Clear 26 1013 51 10000 4.63 170 10:44 23.08.2021
6051 Clear 26 1013 54 10000 2.57 160 09:51 23.08.2021
6052 Clear 27 1012 53 10000 3.09 170 08:34 23.08.2021
6053 Clear 30 1012 43 10000 1.54 300 06:51 23.08.2021
6054 Clear 30 1013 41 10000 1.54 300 06:33 23.08.2021
6055 Clear 37 1009 33 10000 1.79 190 00:55 23.08.2021
6056 Clear 36 1010 35 10000 1.34 273 22:51 22.08.2021
6057 Clear 36 1010 35 10000 1.34 159 22:28 22.08.2021
6058 Clear 34 1012 40 10000 0.89 223 20:23 22.08.2021
6059 Clear 33 1012 42 10000 0.89 300 19:46 22.08.2021
6060 Clear 28 1011 58 10000 0.89 0 17:26 22.08.2021
6061 Clear 24 1014 66 10000 2.57 160 15:32 22.08.2021
6062 Clear 24 1012 66 10000 3.09 150 14:43 22.08.2021
6063 Clear 24 1012 62 10000 2.57 150 13:21 22.08.2021
6064 Clear 25 978 64 10000 2.57 160 12:55 22.08.2021
6065 Clear 25 994 61 10000 2.57 160 12:28 22.08.2021
6066 Clear 25 1012 59 10000 2.06 150 11:43 22.08.2021
6067 Clear 26 1011 58 10000 2.57 180 10:32 22.08.2021
6068 Clear 28 1011 55 10000 0.45 262 08:19 22.08.2021
6069 Clear 31 1009 44 10000 0.45 263 04:57 22.08.2021
6070 Clear 31 1009 44 10000 0.45 263 04:57 22.08.2021
6071 Clear 36 1009 30 10000 0.89 198 00:32 22.08.2021
6072 Clear 35 1010 29 10000 0.89 149 22:34 21.08.2021
6073 Clear 33 1012 35 10000 0.89 192 20:38 21.08.2021
6074 Clear 30 1012 50 10000 0.89 201 18:46 21.08.2021
6075 Clear 28 1012 54 10000 1.79 0 17:59 21.08.2021
6076 Clear 26 1012 60 10000 0.45 0 16:54 21.08.2021
6077 Clear 25 1012 65 10000 3.09 160 16:28 21.08.2021
6078 Clear 23 1013 62 10000 4.12 160 15:36 21.08.2021
6079 Clear 23 1012 65 10000 4.12 180 14:47 21.08.2021
6080 Clear 24 1012 59 10000 3.09 170 13:31 21.08.2021
6081 Clear 24 1014 61 10000 1.79 168 12:34 21.08.2021
6082 Clear 26 1012 58 10000 2.06 160 09:29 21.08.2021
6083 Clear 28 1010 51 10000 0.45 0 05:41 21.08.2021
6084 Clear 29 1010 50 10000 0.45 0 05:41 21.08.2021
6085 Clear 28 1010 51 10000 0.45 0 05:41 21.08.2021
6086 Clear 34 1012 35 10000 1.79 197 23:22 20.08.2021
6087 Clear 33 1013 40 10000 0.89 42 21:48 20.08.2021
6088 Clear 29 1014 57 10000 0.45 174 18:26 20.08.2021
6089 Clear 24 1013 77 10000 2.06 180 15:57 20.08.2021
6090 Clear 23 1013 77 10000 3.09 140 13:36 20.08.2021
6091 Clear 24 1013 73 10000 2.57 130 11:38 20.08.2021
6092 Clear 24 1013 71 10000 0.45 178 10:43 20.08.2021
6093 Clear 25 1013 69 10000 0.89 0 09:41 20.08.2021
6094 Clouds 26 1013 66 10000 0.45 145 08:41 20.08.2021
6095 Clear 26 1013 63 10000 0.89 166 07:44 20.08.2021
6096 Clear 30 1012 48 10000 0.45 246 04:22 20.08.2021
6097 Clouds 33 1013 38 10000 2.24 306 00:19 20.08.2021
6098 Clouds 33 1014 43 10000 2.68 0 23:18 19.08.2021
6099 Clear 33 1014 43 10000 2.24 192 22:31 19.08.2021
6100 Clear 31 1015 48 10000 2.24 175 20:32 19.08.2021
6101 Clouds 31 1015 51 10000 1.79 213 19:43 19.08.2021
6102 Clear 27 1015 65 10000 0.89 153 17:25 19.08.2021
6103 Clear 24 1015 78 10000 0.89 0 15:54 19.08.2021
6104 Clear 23 1015 75 10000 2.06 160 13:29 19.08.2021
6105 Clear 23 1015 76 10000 0.89 148 12:33 19.08.2021
6106 Clear 24 1015 74 10000 1.34 168 11:30 19.08.2021
6107 Clear 24 1015 73 10000 0 0 10:23 19.08.2021
6108 Clear 24 1015 72 10000 0.45 150 09:47 19.08.2021
6109 Clear 25 1015 71 10000 0.89 0 09:19 19.08.2021
6110 Clear 26 1015 65 10000 0.45 0 06:53 19.08.2021
6111 Clear 32 1013 43 10000 1.79 0 02:25 19.08.2021
6112 Clouds 32 1013 44 10000 3.13 180 01:51 19.08.2021
6113 Clouds 31 1014 49 10000 1.79 0 22:56 18.08.2021
6114 Clouds 31 1015 51 10000 1.79 0 21:40 18.08.2021
6115 Clouds 31 1015 51 10000 1.79 0 21:40 18.08.2021
6116 Clouds 30 1015 56 10000 1.79 0 20:32 18.08.2021
6117 Clouds 29 1016 62 10000 2.24 0 19:32 18.08.2021
6118 Clouds 27 1016 68 10000 1.79 0 18:54 18.08.2021
6119 Clouds 26 1016 72 10000 1.34 204 17:57 18.08.2021
6120 Clouds 24 1015 81 10000 1.34 166 15:47 18.08.2021
6121 Clouds 24 1015 82 10000 0.89 144 15:24 18.08.2021
6122 Clouds 24 1014 81 10000 0.89 109 14:51 18.08.2021
6123 Clouds 24 1014 82 10000 0.45 46 12:43 18.08.2021
6124 Clouds 24 1014 79 10000 0.89 171 12:24 18.08.2021
6125 Clouds 24 1014 79 10000 0.89 167 10:21 18.08.2021
6126 Clouds 24 1015 83 10000 1.54 110 07:47 18.08.2021
6127 Clouds 31 1011 58 10000 2.24 0 00:43 18.08.2021
6128 Clouds 30 1013 59 10000 1.34 0 22:30 17.08.2021
6129 Clouds 29 1014 64 10000 0.89 0 21:27 17.08.2021
6130 Clouds 28 1015 69 10000 0 0 20:44 17.08.2021
6131 Clouds 26 1015 74 10000 0 0 18:57 17.08.2021
6132 Clouds 24 1017 85 10000 0.45 196 17:33 17.08.2021
6133 Clouds 22 1016 86 10000 1.34 189 16:34 17.08.2021
6134 Clouds 21 1015 92 10000 1.54 120 15:37 17.08.2021
6135 Rain 21 1015 92 10000 1.54 210 14:28 17.08.2021
6136 Rain 22 1016 88 10000 4.63 330 11:54 17.08.2021
6137 Thunderstorm 25 1013 69 10000 1.79 52 09:21 17.08.2021
6138 Clouds 26 1012 65 10000 1.34 0 07:45 17.08.2021
6139 Clear 33 1009 49 10000 1.79 0 03:26 17.08.2021
6140 Clear 34 1011 44 10000 1.34 349 22:56 16.08.2021
6141 Clear 34 1011 45 10000 0.89 275 22:37 16.08.2021
6142 Clear 34 1012 47 10000 1.34 282 21:54 16.08.2021
6143 Clear 33 1012 49 10000 1.34 250 21:25 16.08.2021
6144 Clear 33 1013 51 10000 0.89 175 20:49 16.08.2021
6145 Clear 31 1013 56 10000 1.79 198 19:23 16.08.2021
6146 Clear 29 1014 62 10000 1.79 0 18:24 16.08.2021
6147 Clear 28 1013 66 10000 2.24 0 17:51 16.08.2021
6148 Clear 25 1018 77 10000 0.45 170 15:40 16.08.2021
6149 Clear 24 1015 80 10000 0 0 14:49 16.08.2021
6150 Clear 24 1015 79 10000 3.6 110 13:37 16.08.2021
6151 Clear 24 1014 78 10000 0 0 12:32 16.08.2021
6152 Clear 25 1013 78 10000 0.45 0 10:37 16.08.2021
6153 Clear 26 1014 75 10000 0.89 0 08:46 16.08.2021
6154 Clear 27 1013 72 10000 0.89 346 07:33 16.08.2021
6155 Clear 27 1013 68 10000 0.45 330 06:36 16.08.2021
6156 Clear 32 1013 51 10000 2.68 0 02:19 16.08.2021
6157 Clear 33 1015 47 10000 1.34 0 22:47 15.08.2021
6158 Clear 31 1017 52 10000 2.24 0 20:38 15.08.2021
6159 Clouds 28 1017 65 10000 1.79 147 18:47 15.08.2021
6160 Clouds 27 1017 71 10000 0.89 0 17:55 15.08.2021
6161 Clouds 26 1017 75 10000 1.34 187 17:32 15.08.2021
6162 Clouds 24 1017 83 10000 0.89 131 16:24 15.08.2021
6163 Clouds 23 1017 88 10000 0.45 172 14:47 15.08.2021
6164 Clouds 23 1018 88 10000 0.45 153 13:55 15.08.2021
6165 Clouds 23 1017 87 10000 2.57 150 11:22 15.08.2021
6166 Clouds 24 1018 85 10000 0.45 175 08:59 15.08.2021
6167 Rain 26 1017 75 10000 8.23 70 01:56 15.08.2021
6168 Clouds 29 1017 60 10000 2.24 0 00:37 15.08.2021
6169 Clouds 29 1019 63 10000 1.34 307 21:59 14.08.2021
6170 Clouds 28 1020 67 10000 1.34 0 20:58 14.08.2021
6171 Clouds 27 1020 74 10000 0.45 151 19:44 14.08.2021
6172 Clouds 24 1021 85 10000 3.09 130 18:40 14.08.2021
6173 Rain 22 1022 92 10000 1.54 120 16:59 14.08.2021
6174 Rain 21 1021 93 8047 1.34 126 15:47 14.08.2021
6175 Rain 21 1022 91 2414 0.45 0 14:24 14.08.2021
6176 Rain 22 1021 90 10000 2.57 290 11:59 14.08.2021
6177 Rain 23 1019 82 6437 0.45 0 10:45 14.08.2021
6178 Clouds 24 1020 72 10000 2.24 145 07:40 14.08.2021
6179 Clouds 32 1017 48 10000 2.68 0 23:53 13.08.2021
6180 Clouds 32 1018 47 10000 2.68 247 22:26 13.08.2021
6181 Clear 31 1019 52 10000 0.89 259 20:31 13.08.2021
6182 Clear 29 1020 58 10000 0.89 131 18:47 13.08.2021
6183 Clouds 27 1020 65 10000 0.45 172 17:43 13.08.2021
6184 Clouds 25 1019 74 10000 1.34 332 16:24 13.08.2021
6185 Clouds 24 1019 73 10000 0.45 161 12:51 13.08.2021
6186 Clouds 25 1018 70 10000 0.89 2 11:20 13.08.2021
6187 Clouds 26 1018 71 10000 0.45 0 09:40 13.08.2021
6188 Clouds 26 1017 70 10000 0.89 194 08:36 13.08.2021
6189 Clear 27 1017 66 10000 1.79 190 07:18 13.08.2021
6190 Clear 29 1015 56 10000 0.45 310 04:59 13.08.2021
6191 Clouds 32 1016 50 10000 0.45 329 22:34 12.08.2021
6192 Clouds 31 1018 55 10000 0.45 355 21:20 12.08.2021
6193 Clouds 30 1018 59 10000 0.89 162 20:21 12.08.2021
6194 Clear 29 1019 63 10000 0.45 190 19:27 12.08.2021
6195 Clouds 25 1018 78 10000 0 0 17:26 12.08.2021
6196 Clouds 24 1019 86 10000 0 0 16:28 12.08.2021
6197 Clear 22 1018 91 10000 0 0 14:31 12.08.2021
6198 Rain 22 1018 93 10000 3.09 60 12:23 12.08.2021
6199 Clouds 25 1018 75 10000 2.06 130 09:59 12.08.2021
6200 Clouds 26 1019 71 10000 5.14 180 07:53 12.08.2021
6201 Clouds 32 1015 47 10000 2.24 317 01:29 12.08.2021
6202 Clear 32 1017 50 10000 1.79 0 22:51 11.08.2021
6203 Clear 28 1019 65 10000 0.89 286 19:36 11.08.2021
6204 Clear 26 1020 75 10000 0.45 143 18:28 11.08.2021
6205 Rain 22 1020 86 10000 3.09 190 15:38 11.08.2021
6206 Clouds 22 1020 90 10000 3.09 190 15:20 11.08.2021
6207 Clouds 22 1019 91 10000 3.6 150 14:20 11.08.2021
6208 Clouds 22 1019 91 10000 5.14 140 12:30 11.08.2021
6209 Clouds 22 1020 89 10000 3.6 30 11:46 11.08.2021
6210 Clouds 22 1020 88 10000 3.6 30 11:22 11.08.2021
6211 Mist 23 1020 100 4828 5.66 60 09:45 11.08.2021
6212 Thunderstorm 26 1019 73 10000 4.12 140 07:50 11.08.2021
6213 Clear 32 1015 49 10000 1.34 0 23:34 10.08.2021
6214 Clear 31 1017 56 10000 1.34 0 22:29 10.08.2021
6215 Clouds 29 1014 63 10000 2.01 265 20:58 10.08.2021
6216 Rain 27 1017 73 10000 0.89 193 19:51 10.08.2021
6217 Clouds 26 1019 77 10000 0 0 18:31 10.08.2021
6218 Clouds 24 1018 83 10000 0.89 0 16:28 10.08.2021
6219 Clouds 24 1017 77 10000 1.79 180 14:52 10.08.2021
6220 Clouds 25 1016 74 10000 0.45 209 12:22 10.08.2021
6221 Clouds 26 1015 72 10000 0.45 149 09:51 10.08.2021
6222 Clouds 27 1014 68 10000 0.45 199 06:48 10.08.2021
6223 Clouds 28 1014 64 10000 2.4 319 04:58 10.08.2021
6224 Clouds 29 1015 58 10000 0.45 253 23:41 09.08.2021
6225 Clouds 27 1017 64 10000 5.14 360 21:55 09.08.2021
6226 Clouds 27 1017 62 10000 5.14 360 21:34 09.08.2021
6227 Clouds 27 1017 62 10000 0.45 349 19:35 09.08.2021
6228 Clear 26 1017 66 10000 1.34 240 17:22 09.08.2021
6229 Clouds 25 1017 65 10000 0.45 0 15:35 09.08.2021
6230 Clouds 24 1016 70 10000 0.45 0 13:46 09.08.2021
6231 Clouds 24 1015 71 10000 0.45 153 13:26 09.08.2021
6232 Clouds 25 1014 60 10000 1.79 183 10:44 09.08.2021
6233 Clouds 25 1017 59 10000 2.68 198 08:26 09.08.2021
6234 Clear 36 1012 36 10000 2.68 279 23:26 08.08.2021
6235 Clouds 34 1014 41 10000 2.24 0 21:26 08.08.2021
6236 Clouds 32 1014 45 10000 2.24 196 19:29 08.08.2021
6237 Clouds 28 1015 53 10000 0.89 0 16:54 08.08.2021
6238 Clear 26 1015 60 10000 0.45 127 15:33 08.08.2021
6239 Clear 26 1014 56 10000 0.45 132 13:23 08.08.2021
6240 Clear 28 1013 54 10000 1.79 0 11:25 08.08.2021
6241 Clear 31 1012 44 10000 0.45 296 06:45 08.08.2021
6242 Clear 33 1011 40 10000 0.89 297 05:37 08.08.2021
6243 Clear 37 1012 32 10000 2.68 0 00:30 08.08.2021
6244 Clear 36 1013 35 10000 2.24 0 22:19 07.08.2021
6245 Clear 35 1014 37 10000 1.79 296 21:41 07.08.2021
6246 Clear 34 1015 41 10000 1.34 319 20:25 07.08.2021
6247 Clear 29 1015 56 10000 0.89 76 17:30 07.08.2021
6248 Clear 27 1014 62 10000 0.89 189 16:34 07.08.2021
6249 Clouds 25 1015 71 10000 1.54 150 14:25 07.08.2021
6250 Clear 25 1014 68 10000 0.45 186 13:29 07.08.2021
6251 Clear 28 1014 57 10000 0.45 92 10:22 07.08.2021
6252 Clear 29 1014 50 10000 0.45 208 05:40 07.08.2021
6253 Clear 38 1012 33 10000 2.24 306 23:55 06.08.2021
6254 Clear 36 1015 39 10000 1.79 274 21:23 06.08.2021
6255 Clear 35 1015 41 10000 1.79 355 20:27 06.08.2021
6256 Clear 35 1015 42 10000 1.34 320 19:55 06.08.2021
6257 Clear 33 1016 47 10000 0.89 160 18:29 06.08.2021
6258 Clear 28 1018 53 10000 0 0 13:56 06.08.2021
6259 Clear 29 1015 51 10000 0.45 0 10:31 06.08.2021
6260 Clear 30 1015 49 10000 0.45 80 09:26 06.08.2021
6261 Clear 39 1012 28 10000 0.89 277 01:46 06.08.2021
6262 Clear 39 1014 28 10000 0.89 329 23:27 05.08.2021
6263 Clear 37 1015 32 10000 0.89 112 21:31 05.08.2021
6264 Clear 35 1015 38 10000 0.89 183 19:56 05.08.2021
6265 Clear 33 1016 42 10000 1.34 147 18:37 05.08.2021
6266 Clear 28 1016 54 10000 0.45 0 15:47 05.08.2021
6267 Clear 28 1015 55 10000 0.89 0 13:53 05.08.2021
6268 Clouds 31 1014 31 10000 2.06 150 09:56 05.08.2021
6269 Clear 32 1014 29 10000 4.12 180 08:19 05.08.2021
6270 Clear 39 1009 17 10000 2.24 302 03:37 05.08.2021
6271 Clear 40 1012 24 10000 0.45 339 22:41 04.08.2021
6272 Clear 38 1013 28 10000 1.34 312 21:26 04.08.2021
6273 Clear 37 1013 31 10000 1.34 332 20:23 04.08.2021
6274 Clear 31 1013 47 10000 0.45 203 17:23 04.08.2021
6275 Clear 27 1014 53 10000 2.06 130 14:47 04.08.2021
6276 Clear 29 1013 43 10000 3.6 140 12:23 04.08.2021
6277 Clear 31 1014 36 10000 1.54 200 07:49 04.08.2021
6278 Clear 36 1015 35 10000 1.34 267 21:18 03.08.2021
6279 Clear 35 1015 38 10000 0.89 260 20:29 03.08.2021
6280 Clear 33 1016 47 10000 1.34 120 18:47 03.08.2021
6281 Clear 29 1016 60 10000 2.24 323 16:59 03.08.2021
6282 Clear 26 1015 64 10000 3.6 160 13:57 03.08.2021
6283 Clouds 27 1016 62 10000 0.89 0 10:58 03.08.2021
6284 Clear 28 1017 60 10000 0.89 0 09:47 03.08.2021
6285 Clear 37 1016 33 10000 1.34 333 22:58 02.08.2021
6286 Clear 28 1020 62 10000 0.45 136 16:40 02.08.2021
6287 Clouds 26 1020 67 10000 0 0 15:35 02.08.2021
6288 Clear 27 1018 62 10000 0 0 12:40 02.08.2021
6289 Clear 27 1018 59 10000 1.54 120 11:57 02.08.2021
6290 Clear 28 1017 59 10000 0.45 221 10:25 02.08.2021
6291 Clear 31 1017 45 10000 0.45 0 06:22 02.08.2021
6292 Clear 33 1019 48 10000 0.89 321 19:21 01.08.2021
6293 Clouds 26 1020 75 10000 1.79 168 15:44 01.08.2021
6294 Clouds 26 1018 71 10000 0.45 172 11:39 01.08.2021
6295 Clear 27 1018 67 10000 0.45 0 09:47 01.08.2021
6296 Clear 32 1015 43 10000 2.24 309 03:49 01.08.2021
6297 Clear 34 1016 39 10000 1.34 205 23:37 31.07.2021
6298 Clear 33 1018 44 10000 0.89 215 21:45 31.07.2021
6299 Clear 27 1019 65 10000 0.89 182 17:53 31.07.2021
6300 Clear 25 1019 77 10000 0.45 132 16:37 31.07.2021
6301 Clear 22 1019 83 10000 0 0 13:31 31.07.2021
6302 Clear 23 1019 88 10000 0 0 09:19 31.07.2021
6303 Clouds 31 1013 52 10000 0.45 243 02:35 31.07.2021
6304 Clear 33 1016 39 10000 2.24 134 20:38 30.07.2021
6305 Clear 33 1017 40 10000 2.24 179 20:19 30.07.2021
6306 Clear 24 1016 73 10000 4.63 160 14:18 30.07.2021
6307 Rain 29 1016 51 10000 2.06 170 18:19 29.07.2021
6308 Clouds 29 1014 51 10000 0.89 36 06:59 29.07.2021
6309 Clear 32 1014 40 10000 0.89 292 04:34 29.07.2021
6310 Clear 35 1016 32 10000 1.79 286 21:55 28.07.2021
6311 Clear 28 1019 55 10000 0.45 110 17:47 28.07.2021
6312 Clear 27 1017 63 10000 0.89 113 16:54 28.07.2021
6313 Clear 25 1018 72 10000 0.89 59 08:26 28.07.2021
6314 Clear 36 1015 32 10000 1.34 14 23:31 27.07.2021
6315 Clear 35 1016 35 10000 1.34 285 21:29 27.07.2021
6316 Clear 24 1017 70 10000 1.54 80 14:53 27.07.2021
6317 Clear 25 1017 65 10000 1.54 120 11:52 27.07.2021
6318 Clear 27 1017 57 10000 0 0 10:19 27.07.2021
6319 Clear 28 1018 59 10000 0.89 194 18:48 26.07.2021
6320 Clear 21 1020 80 10000 0.89 147 15:32 26.07.2021
6321 Clouds 24 1016 77 10000 0 0 04:52 26.07.2021
6322 Rain 21 1019 90 10000 1.79 311 20:56 25.07.2021
6323 Rain 21 1022 93 3219 2.06 130 18:31 25.07.2021
6324 Rain 20 1019 91 3219 2.24 167 15:47 25.07.2021
6325 Rain 21 1017 90 10000 0.45 296 10:57 25.07.2021
6326 Rain 22 1018 89 10000 2.24 192 08:20 25.07.2021
6327 Rain 22 1020 88 10000 0.51 120 22:35 24.07.2021
6328 Rain 22 1021 88 10000 0.45 140 20:19 24.07.2021
6329 Rain 22 1019 88 9051 0.45 188 15:44 24.07.2021
6330 Clouds 25 1018 67 10000 0.89 291 04:20 24.07.2021
6331 Rain 23 1022 71 10000 5.66 40 14:40 23.07.2021
6332 Mist 21 1026 88 8047 5.14 80 12:42 23.07.2021
6333 Clouds 27 1019 75 10000 0.45 29 06:18 23.07.2021
6334 Clear 35 1017 40 10000 1.79 337 20:33 22.07.2021
6335 Clear 26 1014 65 10000 0.45 14 11:28 22.07.2021
6336 Clouds 27 1015 61 10000 1.34 0 09:23 22.07.2021
6337 Clouds 35 1012 27 10000 4.63 170 03:42 22.07.2021
6338 Clouds 38 1013 26 10000 1.34 297 21:46 21.07.2021
6339 Clouds 38 1013 27 10000 1.34 330 21:28 21.07.2021
6340 Clear 27 1014 69 10000 2.57 150 14:42 21.07.2021
6341 Clear 28 1015 63 10000 0 0 09:49 21.07.2021
6342 Clear 29 1015 58 10000 0 0 08:21 21.07.2021
6343 Clouds 38 1014 33 10000 0.45 197 23:47 20.07.2021
6344 Clear 28 1018 65 10000 0.45 335 17:22 20.07.2021
6345 Clouds 27 1017 73 10000 0.45 153 16:25 20.07.2021
6346 Clear 25 1017 77 10000 0.89 125 15:25 20.07.2021
6347 Clear 27 1016 70 10000 0.89 188 10:22 20.07.2021
6348 Clouds 34 1014 41 10000 1.79 0 04:48 20.07.2021
6349 Clouds 35 1017 35 10000 1.34 180 22:25 19.07.2021
6350 Clouds 25 1018 75 10000 1.34 154 12:54 19.07.2021
6351 Clouds 25 1019 72 10000 4.12 120 10:29 19.07.2021
6352 Clouds 25 1021 80 10000 2.57 290 19:42 18.07.2021
6353 Clouds 26 1017 73 10000 0.89 132 14:21 18.07.2021
6354 Clear 27 1016 64 10000 0.45 194 10:18 18.07.2021
6355 Clear 34 1015 38 10000 1.79 5 22:25 17.07.2021
6356 Clouds 34 1015 39 10000 1.79 15 21:53 17.07.2021
6357 Clouds 34 1015 39 10000 1.79 15 21:53 17.07.2021
6358 Clouds 34 1016 40 10000 1.34 194 21:34 17.07.2021
6359 Clouds 23 1015 80 10000 4.63 150 12:28 17.07.2021
6360 Drizzle 24 1016 81 10000 0.89 171 08:55 17.07.2021
6361 Rain 24 1015 83 10000 0.45 195 04:46 17.07.2021
6362 Clouds 26 1015 72 10000 0.89 224 14:22 16.07.2021
6363 Clear 28 1014 62 10000 2.06 220 07:33 16.07.2021
6364 Clouds 33 1014 48 10000 1.34 277 00:41 16.07.2021
6365 Clear 25 1017 70 10000 2.06 140 13:53 15.07.2021
6366 Clear 25 1017 67 10000 1.54 110 12:25 15.07.2021
6367 Clouds 27 1018 63 10000 0 0 07:27 15.07.2021
6368 Clouds 26 1020 70 10000 0.89 188 19:39 14.07.2021
6369 Thunderstorm 26 1019 67 10000 0.89 15 15:55 14.07.2021
6370 Clear 30 1015 56 10000 0.45 308 09:52 14.07.2021
6371 Clear 37 1014 31 10000 1.34 259 23:19 13.07.2021
6372 Clouds 33 1016 44 10000 0.89 305 19:57 13.07.2021
6373 Clouds 32 1016 46 10000 0.89 337 19:28 13.07.2021
6374 Clear 32 1017 48 10000 1.34 191 18:49 13.07.2021
6375 Clear 31 1017 51 10000 0.45 19 18:31 13.07.2021
6376 Clear 30 1015 55 10000 0.45 64 17:56 13.07.2021
6377 Clear 25 1015 73 10000 4.63 110 13:21 13.07.2021
6378 Rain 25 1018 83 10000 6.17 180 08:50 13.07.2021
6379 Clear 35 1014 38 10000 1.34 150 20:24 12.07.2021
6380 Clouds 28 1016 54 10000 0.89 0 16:46 12.07.2021
6381 Clouds 28 1014 55 10000 2.68 188 12:21 12.07.2021
6382 Clouds 28 1014 55 10000 2.68 188 12:21 12.07.2021
6383 Clouds 28 1014 55 10000 2.68 188 12:21 12.07.2021
6384 Clouds 39 1011 29 10000 0.45 258 23:20 11.07.2021
6385 Clear 35 1014 39 10000 0.89 125 19:54 11.07.2021
6386 Clear 26 1016 72 10000 2.57 170 11:26 11.07.2021
6387 Clouds 41 1012 24 10000 2.68 254 22:45 10.07.2021
6388 Clear 30 1013 51 10000 1.34 200 12:20 10.07.2021
6389 Clear 33 1013 44 10000 0.89 293 07:49 10.07.2021
6390 Clear 41 1010 24 10000 1.34 217 01:23 10.07.2021
6391 Clear 34 1015 43 10000 1.34 321 18:20 09.07.2021
6392 Clear 28 1014 62 10000 0.45 221 14:48 09.07.2021
6393 Clouds 33 1012 45 10000 1.34 180 08:37 09.07.2021
6394 Clouds 41 1010 18 10000 1.79 32 23:49 08.07.2021
6395 Clouds 40 1011 21 10000 1.79 179 22:30 08.07.2021
6396 Clear 36 1013 31 10000 1.34 117 18:56 08.07.2021
6397 Clear 33 1013 40 10000 1.34 105 17:37 08.07.2021
6398 Clouds 26 1014 71 10000 1.54 160 13:31 08.07.2021
6399 Clear 26 1014 69 10000 3.6 150 12:41 08.07.2021
6400 Clear 27 1014 69 10000 2.57 120 11:30 08.07.2021
6401 Clouds 28 1014 68 10000 4.63 170 09:51 08.07.2021
6402 Rain 31 1010 45 10000 5.14 140 04:42 08.07.2021
6403 Clear 40 1009 22 10000 0.89 17 23:50 07.07.2021
6404 Clouds 39 1011 24 10000 1.34 355 22:21 07.07.2021
6405 Clear 38 1012 25 10000 1.79 19 21:47 07.07.2021
6406 Clear 38 1012 26 10000 1.34 329 21:27 07.07.2021
6407 Clear 37 1012 30 10000 0.89 302 20:42 07.07.2021
6408 Clear 36 1012 34 10000 1.34 318 19:55 07.07.2021
6409 Clear 35 1013 36 10000 1.34 55 19:27 07.07.2021
6410 Clear 31 1013 49 10000 0.89 0 16:49 07.07.2021
6411 Clear 28 1013 58 10000 0.45 182 15:25 07.07.2021
6412 Clear 29 1012 52 10000 1.34 314 12:24 07.07.2021
6413 Clear 32 1011 29 10000 1.34 292 07:45 07.07.2021
6414 Clouds 35 1009 20 10000 0.45 343 05:57 07.07.2021
6415 Clouds 37 1009 17 10000 1.79 340 04:39 07.07.2021
6416 Clouds 36 1013 31 10000 1.79 25 20:55 06.07.2021
6417 Clouds 33 1014 40 10000 0.45 43 19:18 06.07.2021
6418 Clouds 32 1016 46 10000 1.79 156 18:44 06.07.2021
6419 Clouds 31 1014 49 10000 0.89 282 18:22 06.07.2021
6420 Clouds 27 1015 64 10000 0.89 142 13:37 06.07.2021
6421 Clear 28 1013 60 10000 1.79 168 10:27 06.07.2021
6422 Clear 28 1014 59 10000 1.34 121 09:39 06.07.2021
6423 Clear 29 1013 56 10000 0.89 133 08:32 06.07.2021
6424 Clear 33 1011 43 10000 2.24 196 04:50 06.07.2021
6425 Clouds 36 1011 34 10000 1.34 162 23:58 05.07.2021
6426 Clouds 35 1013 39 10000 0.45 332 21:59 05.07.2021
6427 Clouds 28 1016 63 10000 0.89 343 17:22 05.07.2021
6428 Clouds 27 1015 70 10000 0.45 179 14:29 05.07.2021
6429 Clouds 29 1015 58 10000 5.14 170 06:21 05.07.2021
6430 Clear 29 1015 57 10000 3.6 170 05:42 05.07.2021
6431 Clouds 34 1012 42 10000 0.45 90 01:28 05.07.2021
6432 Clear 33 1015 47 10000 0.45 14 21:38 04.07.2021
6433 Clouds 29 1016 61 10000 0.45 354 18:51 04.07.2021
6434 Clear 23 1015 86 10000 0.45 326 15:38 04.07.2021
6435 Rain 23 1015 89 10000 0 0 11:43 04.07.2021
6436 Drizzle 24 1017 87 10000 0.89 171 08:38 04.07.2021
6437 Clouds 32 1015 45 10000 6.17 210 23:31 03.07.2021
6438 Clouds 34 1013 39 10000 2.24 355 22:19 03.07.2021
6439 Clouds 25 1015 69 10000 0.45 179 14:19 03.07.2021
6440 Clouds 25 1015 68 10000 0.45 191 12:37 03.07.2021
6441 Clouds 26 1014 66 10000 1.34 339 09:28 03.07.2021
6442 Clouds 26 1014 66 10000 0.89 171 08:46 03.07.2021
6443 Clouds 29 1014 61 10000 5.14 290 01:34 03.07.2021
6444 Clouds 27 1013 57 10000 0.45 159 11:34 02.07.2021
6445 Clouds 29 1013 50 10000 2.24 190 07:29 02.07.2021
6446 Clouds 32 1011 43 10000 1.79 1 04:38 02.07.2021
6447 Clouds 36 1014 29 10000 0.45 79 22:32 01.07.2021
6448 Clear 35 1013 31 10000 1.79 232 21:40 01.07.2021
6449 Clear 35 1014 33 10000 2.24 319 20:33 01.07.2021
6450 Clear 33 1015 36 10000 1.34 317 19:21 01.07.2021
6451 Clear 32 1015 38 10000 1.34 321 18:48 01.07.2021
6452 Clouds 30 1015 44 10000 0.45 167 17:48 01.07.2021
6453 Clear 29 1015 51 10000 0.45 328 16:49 01.07.2021
6454 Clouds 25 1015 62 10000 0.89 153 15:24 01.07.2021
6455 Clouds 25 1015 61 10000 1.34 84 14:21 01.07.2021
6456 Clouds 26 1013 58 10000 2.24 141 10:55 01.07.2021
6457 Clouds 27 1013 50 10000 1.79 146 05:32 01.07.2021
6458 Clouds 34 1015 30 10000 3.58 346 23:19 30.06.2021
6459 Clouds 36 1012 29 10000 1.34 207 21:59 30.06.2021
6460 Clear 36 1013 28 10000 1.34 279 21:21 30.06.2021
6461 Clear 34 1014 29 10000 1.34 19 20:26 30.06.2021
6462 Clear 30 1015 41 10000 1.79 347 17:21 30.06.2021
6463 Clear 26 1014 50 10000 0.45 141 14:25 30.06.2021
6464 Clouds 27 1013 48 10000 0.45 148 12:59 30.06.2021
6465 Clear 31 1012 34 10000 1.34 231 07:30 30.06.2021
6466 Clear 35 1013 26 10000 1.34 257 21:28 29.06.2021
6467 Clear 30 1013 36 10000 1.34 72 18:22 29.06.2021
6468 Clear 29 1013 40 10000 1.34 157 17:30 29.06.2021
6469 Clear 26 1012 46 10000 1.79 132 15:52 29.06.2021
6470 Clouds 25 1012 49 10000 1.34 119 14:58 29.06.2021
6471 Clouds 26 1012 46 10000 1.34 190 13:30 29.06.2021
6472 Clouds 28 1010 39 10000 2.68 59 09:53 29.06.2021
6473 Clouds 38 1006 16 10000 1.79 12 00:41 29.06.2021
6474 Clouds 37 1007 20 10000 1.79 24 21:47 28.06.2021
6475 Clear 35 1009 24 10000 1.34 31 19:40 28.06.2021
6476 Clear 30 1010 30 10000 1.34 64 17:21 28.06.2021
6477 Clear 27 1009 35 10000 1.79 97 15:22 28.06.2021
6478 Clouds 28 1007 32 10000 0.89 123 12:58 28.06.2021
6479 Clouds 36 1003 15 10000 0.45 297 05:50 28.06.2021
6480 Clouds 41 1004 10 10000 2.24 9 23:44 27.06.2021
6481 Clouds 40 1006 12 10000 1.34 74 21:24 27.06.2021
6482 Clear 37 1008 14 10000 1.34 198 19:40 27.06.2021
6483 Clear 29 1006 22 10000 3.09 150 15:57 27.06.2021
6484 Clear 26 1008 22 10000 3.09 180 13:21 27.06.2021
6485 Clear 34 1006 13 10000 1.34 329 05:25 27.06.2021
6486 Clouds 39 1008 11 10000 2.68 40 22:46 26.06.2021
6487 Clear 37 1009 13 10000 1.79 23 20:58 26.06.2021
6488 Clear 37 1010 14 10000 1.34 292 20:39 26.06.2021
6489 Clear 33 1011 22 10000 0.89 304 18:21 26.06.2021
6490 Clear 25 1012 36 10000 0.89 88 14:58 26.06.2021
6491 Clear 27 1010 32 10000 0.89 226 12:27 26.06.2021
6492 Clear 32 1009 22 10000 0.89 350 07:53 26.06.2021
6493 Clear 38 1008 17 10000 2.24 323 01:24 26.06.2021
6494 Clear 36 1012 23 10000 1.34 74 20:39 25.06.2021
6495 Clear 34 1013 28 10000 0.45 190 19:31 25.06.2021
6496 Clear 31 1013 34 10000 0.45 143 17:45 25.06.2021
6497 Clouds 30 1013 37 10000 0.45 75 16:49 25.06.2021
6498 Clouds 26 1013 44 10000 3.09 160 14:47 25.06.2021
6499 Clear 28 1012 39 10000 0.45 313 10:52 25.06.2021
6500 Clouds 31 1012 36 10000 1.34 259 07:58 25.06.2021
6501 Clouds 31 1012 35 10000 0.89 299 07:19 25.06.2021
6502 Clear 35 1010 27 10000 2.24 298 03:46 25.06.2021
6503 Clouds 35 1014 30 10000 0.89 57 21:49 24.06.2021
6504 Clear 34 1014 33 10000 2.24 178 20:58 24.06.2021
6505 Clear 34 1015 35 10000 1.34 186 20:39 24.06.2021
6506 Clear 31 1016 45 10000 0.89 294 18:43 24.06.2021
6507 Clouds 25 1016 73 10000 1.54 140 15:25 24.06.2021
6508 Clouds 24 1016 73 10000 1.54 170 14:55 24.06.2021
6509 Clouds 24 1014 73 10000 0 0 13:57 24.06.2021
6510 Clouds 25 1015 69 10000 0 0 10:39 24.06.2021
6511 Clouds 25 1013 67 10000 1.54 140 09:23 24.06.2021
6512 Clouds 25 1015 69 10000 0 0 08:22 24.06.2021
6513 Rain 29 1016 51 10000 3.09 280 02:32 24.06.2021
6514 Clouds 34 1013 29 10000 4.02 309 22:36 23.06.2021
6515 Clouds 35 1012 25 10000 3.13 319 21:43 23.06.2021
6516 Clouds 34 1015 24 10000 0 0 20:21 23.06.2021
6517 Clouds 33 1014 31 10000 2.24 210 18:33 23.06.2021
6518 Clear 29 1016 37 10000 2.06 250 17:21 23.06.2021
6519 Clear 25 1014 47 10000 3.6 150 14:58 23.06.2021
6520 Clear 26 1013 36 10000 0.45 145 12:51 23.06.2021
6521 Clouds 28 1012 34 10000 0.45 189 11:53 23.06.2021
6522 Clouds 29 1014 30 10000 3.13 197 09:55 23.06.2021
6523 Clouds 30 1015 26 10000 4.63 270 08:42 23.06.2021
6524 Clouds 31 1013 27 10000 1.79 191 07:50 23.06.2021
6525 Rain 31 1013 27 10000 3.13 338 06:37 23.06.2021
6526 Clouds 34 1010 26 10000 3.58 316 02:29 23.06.2021
6527 Clouds 34 1010 26 10000 3.58 316 02:29 23.06.2021
6528 Clouds 35 1012 26 10000 2.24 333 00:22 23.06.2021
6529 Clouds 35 1013 26 10000 2.24 303 23:47 22.06.2021
6530 Clouds 36 1013 25 10000 2.24 282 22:44 22.06.2021
6531 Clouds 36 1013 25 10000 2.24 282 22:44 22.06.2021
6532 Clouds 37 1013 22 10000 2.68 298 21:47 22.06.2021
6533 Clouds 36 1013 22 10000 1.79 319 20:55 22.06.2021
6534 Clouds 35 1013 23 10000 1.34 224 19:23 22.06.2021
6535 Clouds 34 1013 23 10000 1.34 300 18:53 22.06.2021
6536 Clouds 34 1013 24 10000 1.34 276 18:19 22.06.2021
6537 Clouds 31 1013 26 10000 0.45 168 17:21 22.06.2021
6538 Clouds 28 1011 27 10000 3.09 180 15:48 22.06.2021
6539 Clear 26 1013 28 10000 0.45 185 14:32 22.06.2021
6540 Clear 27 1013 28 10000 0.45 76 13:42 22.06.2021
6541 Clear 27 1012 27 10000 0.89 143 12:31 22.06.2021
6542 Clear 28 1011 24 10000 0.89 134 10:57 22.06.2021
6543 Clouds 30 1012 21 10000 0.45 302 08:56 22.06.2021
6544 Clear 38 1010 13 10000 3.13 339 03:29 22.06.2021
6545 Clear 40 1011 15 10000 3.58 328 00:37 22.06.2021
6546 Clouds 39 1013 16 10000 3.13 340 22:52 21.06.2021
6547 Clouds 38 1014 20 10000 3.13 295 21:37 21.06.2021
6548 Clear 37 1014 22 10000 3.13 281 20:51 21.06.2021
6549 Clear 36 1015 25 10000 2.68 309 19:56 21.06.2021
6550 Clear 35 1015 26 10000 2.68 281 19:29 21.06.2021
6551 Clear 33 1015 32 10000 1.79 347 18:20 21.06.2021
6552 Clear 31 1015 39 10000 0.89 350 16:53 21.06.2021
6553 Clear 30 1015 41 10000 0.45 239 16:27 21.06.2021
6554 Clear 29 1014 43 10000 0.89 51 15:56 21.06.2021
6555 Clear 28 1015 50 10000 0.89 162 14:28 21.06.2021
6556 Clear 28 1014 50 10000 1.79 188 13:37 21.06.2021
6557 Clear 29 1014 48 10000 2.68 198 12:51 21.06.2021
6558 Clear 29 1013 47 10000 0.89 205 12:31 21.06.2021
6559 Clear 30 1012 36 10000 0.45 190 10:42 21.06.2021
6560 Clear 31 1012 34 10000 0.89 190 10:18 21.06.2021
6561 Clear 33 1011 29 10000 0.89 256 08:30 21.06.2021
6562 Clear 34 1010 28 10000 0.89 287 07:55 21.06.2021
6563 Clear 42 1007 12 10000 3.58 331 01:20 21.06.2021
6564 Clear 42 1008 13 10000 4.02 308 23:38 20.06.2021
6565 Clouds 42 1008 13 10000 3.58 296 22:59 20.06.2021
6566 Clear 42 1009 13 10000 3.13 355 22:31 20.06.2021
6567 Clear 41 1009 14 10000 2.24 0 21:37 20.06.2021
6568 Clear 40 1010 16 10000 1.79 304 20:22 20.06.2021
6569 Clear 39 1010 17 10000 1.79 348 19:35 20.06.2021
6570 Clear 38 1010 18 10000 1.34 10 18:44 20.06.2021
6571 Clear 36 1010 21 10000 0.45 198 17:35 20.06.2021
6572 Clear 33 1010 24 10000 0.89 166 16:39 20.06.2021
6573 Clouds 30 1010 28 10000 0.45 167 15:36 20.06.2021
6574 Clouds 30 1009 28 10000 2.57 180 14:55 20.06.2021
6575 Clouds 29 1009 29 10000 1.34 242 14:28 20.06.2021
6576 Clear 30 1009 28 10000 3.09 150 13:19 20.06.2021
6577 Clear 31 1007 26 10000 0.89 210 11:48 20.06.2021
6578 Clear 32 1007 25 10000 0.45 258 10:55 20.06.2021
6579 Clouds 33 1007 23 10000 0.89 355 09:48 20.06.2021
6580 Clear 34 1007 21 10000 0.45 297 08:36 20.06.2021
6581 Clear 44 1004 11 10000 2.68 292 00:33 20.06.2021
6582 Clear 43 1005 11 10000 2.68 0 23:26 19.06.2021
6583 Clouds 43 1005 11 10000 2.68 333 22:29 19.06.2021
6584 Clouds 42 1007 12 10000 2.24 355 21:44 19.06.2021
6585 Clear 39 1008 14 10000 0.89 294 19:22 19.06.2021
6586 Clear 38 1009 15 10000 1.34 193 18:47 19.06.2021
6587 Clear 36 1009 18 10000 0.45 178 17:51 19.06.2021
6588 Clear 34 1009 19 10000 0.45 87 17:19 19.06.2021
6589 Clear 30 1007 24 10000 3.09 140 15:49 19.06.2021
6590 Clear 28 1008 26 10000 2.06 120 14:19 19.06.2021
6591 Clear 29 1007 25 10000 0.89 167 12:45 19.06.2021
6592 Clear 30 1007 24 10000 1.34 84 11:22 19.06.2021
6593 Clear 31 1007 24 10000 0.45 214 10:37 19.06.2021
6594 Clear 31 1007 23 10000 0.45 191 10:18 19.06.2021
6595 Clear 34 1007 20 10000 1.34 243 08:33 19.06.2021
6596 Clear 36 1008 18 10000 0.89 284 07:41 19.06.2021
6597 Clear 37 1004 11 10000 0.45 296 05:42 19.06.2021
6598 Clear 44 1005 6 10000 1.79 95 00:25 19.06.2021
6599 Clear 44 1004 7 10000 1.34 144 23:58 18.06.2021
6600 Clouds 44 1006 7 10000 2.24 55 22:58 18.06.2021
6601 Clouds 44 1007 7 10000 1.34 350 22:36 18.06.2021
6602 Clouds 43 1006 7 10000 1.34 10 21:52 18.06.2021
6603 Clouds 42 1007 8 10000 1.34 36 21:27 18.06.2021
6604 Clouds 42 1008 8 10000 1.79 200 20:33 18.06.2021
6605 Clear 40 1009 10 10000 1.34 181 18:50 18.06.2021
6606 Clear 39 1009 11 10000 1.79 67 18:18 18.06.2021
6607 Clear 35 1009 13 10000 0.45 157 16:48 18.06.2021
6608 Clear 32 1012 14 10000 0.45 182 15:49 18.06.2021
6609 Clear 30 1010 15 10000 0.45 170 14:51 18.06.2021
6610 Clouds 31 1009 14 10000 0.89 128 13:56 18.06.2021
6611 Clouds 31 1009 14 10000 1.34 188 13:20 18.06.2021
6612 Clouds 31 1008 14 10000 1.79 188 12:42 18.06.2021
6613 Clear 32 1008 13 10000 1.79 191 11:48 18.06.2021
6614 Clouds 32 1008 13 10000 1.79 180 10:59 18.06.2021
6615 Clear 32 1008 13 10000 0.45 194 10:36 18.06.2021
6616 Clear 33 1008 13 10000 2.24 181 10:18 18.06.2021
6617 Clear 34 1008 12 10000 0.45 178 09:22 18.06.2021
6618 Clear 35 1008 13 10000 0.45 178 08:34 18.06.2021
6619 Clear 36 1008 12 10000 0.89 115 07:38 18.06.2021
6620 Clear 38 1006 11 10000 0.89 74 05:51 18.06.2021
6621 Clouds 44 1006 8 10000 1.79 22 00:36 18.06.2021
6622 Clouds 44 1007 8 10000 2.68 25 23:31 17.06.2021
6623 Clouds 43 1008 9 10000 1.79 160 22:28 17.06.2021
6624 Clouds 43 1008 8 10000 0.89 134 21:59 17.06.2021
6625 Clouds 42 1010 8 10000 2.24 184 21:23 17.06.2021
6626 Clear 42 1011 9 10000 1.79 191 20:33 17.06.2021
6627 Clear 41 1011 9 10000 1.79 135 19:59 17.06.2021
6628 Clear 41 1011 9 10000 2.68 175 19:30 17.06.2021
6629 Clear 38 1011 11 10000 0.89 107 17:50 17.06.2021
6630 Clear 37 1011 13 10000 0.45 151 17:23 17.06.2021
6631 Clear 34 1011 17 10000 0.89 206 16:31 17.06.2021
6632 Clear 32 1011 18 10000 2.57 130 15:54 17.06.2021
6633 Clear 30 1010 20 10000 3.09 120 14:39 17.06.2021
6634 Clear 29 1010 21 10000 1.54 110 13:54 17.06.2021
6635 Clear 30 1009 21 10000 3.09 120 12:34 17.06.2021
6636 Clear 30 1011 19 10000 0.89 121 11:51 17.06.2021
6637 Clear 32 1010 19 10000 0.45 136 10:45 17.06.2021
6638 Clear 32 1010 18 10000 0.89 271 10:24 17.06.2021
6639 Clear 33 1010 17 10000 0.45 319 09:42 17.06.2021
6640 Clear 33 1010 17 10000 0.45 319 09:42 17.06.2021
6641 Clear 33 1010 17 10000 0.45 319 09:42 17.06.2021
6642 Clouds 34 1010 16 10000 0.45 185 08:59 17.06.2021
6643 Clear 35 1009 14 10000 1.34 189 07:56 17.06.2021
6644 Clouds 38 1009 12 10000 0.45 66 06:36 17.06.2021
6645 Clear 43 1007 10 10000 0.89 338 03:22 17.06.2021
6646 Clouds 45 1009 8 10000 1.34 336 23:42 16.06.2021
6647 Clouds 44 1009 8 10000 2.24 19 23:21 16.06.2021
6648 Clouds 44 1010 9 10000 1.34 258 22:33 16.06.2021
6649 Clouds 43 1012 11 10000 1.34 141 21:45 16.06.2021
6650 Clouds 43 1012 11 10000 1.34 181 21:21 16.06.2021
6651 Clouds 42 1013 12 10000 1.79 200 20:42 16.06.2021
6652 Clear 40 1013 14 10000 1.79 304 19:54 16.06.2021
6653 Clear 40 1014 15 10000 0.45 232 19:34 16.06.2021
6654 Clear 38 1013 18 10000